<?xml version='1.0' encoding='UTF-8'?><gpx version="1.1" creator="JPX - https://github.com/jenetics/jpx" xmlns="http://www.topografix.com/GPX/1/1"><trk><trkseg><trkpt lat="41.92288" lon="12.63317"><ele>32.8</ele><time>2026-04-19T06:30:01.929Z</time></trkpt></trkseg><trkseg><trkpt lat="41.9793383" lon="13.0307117"><ele>331.0</ele><time>2026-04-19T07:54:09.832Z</time></trkpt><trkpt lat="41.9793383" lon="13.0308333"><ele>331.0</ele><time>2026-04-19T08:04:03.835Z</time></trkpt><trkpt lat="41.9792517" lon="13.03067"><ele>331.0</ele><time>2026-04-19T08:11:55.886Z</time></trkpt><trkpt lat="41.9791467" lon="13.0304633"><ele>331.0</ele><time>2026-04-19T08:11:57.839Z</time></trkpt><trkpt lat="41.9791217" lon="13.0303667"><ele>331.4</ele><time>2026-04-19T08:11:58.828Z</time></trkpt><trkpt lat="41.979105" lon="13.0302633"><ele>331.8</ele><time>2026-04-19T08:11:59.829Z</time></trkpt><trkpt lat="41.97909" lon="13.0301483"><ele>332.2</ele><time>2026-04-19T08:12:00.832Z</time></trkpt><trkpt lat="41.9790783" lon="13.030015"><ele>332.59999999999997</ele><time>2026-04-19T08:12:01.886Z</time></trkpt><trkpt lat="41.9790683" lon="13.0298617"><ele>333.0</ele><time>2026-04-19T08:12:02.834Z</time></trkpt><trkpt lat="41.9790633" lon="13.0296983"><ele>333.25</ele><time>2026-04-19T08:12:03.839Z</time></trkpt><trkpt lat="41.9790567" lon="13.0295283"><ele>333.5</ele><time>2026-04-19T08:12:04.831Z</time></trkpt><trkpt lat="41.979055" lon="13.029365"><ele>333.75</ele><time>2026-04-19T08:12:05.83Z</time></trkpt><trkpt lat="41.9790583" lon="13.0292183"><ele>334.0</ele><time>2026-04-19T08:12:06.83Z</time></trkpt><trkpt lat="41.979055" lon="13.0290833"><ele>334.0</ele><time>2026-04-19T08:12:07.879Z</time></trkpt><trkpt lat="41.9790383" lon="13.02895"><ele>334.0</ele><time>2026-04-19T08:12:08.829Z</time></trkpt><trkpt lat="41.9790067" lon="13.0288217"><ele>334.0</ele><time>2026-04-19T08:12:09.833Z</time></trkpt><trkpt lat="41.9789617" lon="13.0287017"><ele>334.0</ele><time>2026-04-19T08:12:10.83Z</time></trkpt><trkpt lat="41.9789067" lon="13.0285917"><ele>334.0</ele><time>2026-04-19T08:12:11.832Z</time></trkpt><trkpt lat="41.978835" lon="13.0284883"><ele>334.0</ele><time>2026-04-19T08:12:12.835Z</time></trkpt><trkpt lat="41.97876" lon="13.028395"><ele>334.0</ele><time>2026-04-19T08:12:13.889Z</time></trkpt><trkpt lat="41.9787" lon="13.02831"><ele>334.0</ele><time>2026-04-19T08:12:14.834Z</time></trkpt><trkpt lat="41.9786567" lon="13.028235"><ele>334.0</ele><time>2026-04-19T08:12:15.838Z</time></trkpt><trkpt lat="41.97864" lon="13.02808"><ele>334.0</ele><time>2026-04-19T08:12:17.833Z</time></trkpt><trkpt lat="41.9787067" lon="13.0279"><ele>333.6</ele><time>2026-04-19T08:12:19.886Z</time></trkpt><trkpt lat="41.9787433" lon="13.0278"><ele>333.2</ele><time>2026-04-19T08:12:20.831Z</time></trkpt><trkpt lat="41.9787783" lon="13.0276883"><ele>332.8</ele><time>2026-04-19T08:12:21.839Z</time></trkpt><trkpt lat="41.97881" lon="13.027565"><ele>332.40000000000003</ele><time>2026-04-19T08:12:22.831Z</time></trkpt><trkpt lat="41.9788283" lon="13.0274233"><ele>332.0</ele><time>2026-04-19T08:12:23.832Z</time></trkpt><trkpt lat="41.9788333" lon="13.0272717"><ele>331.6666666666667</ele><time>2026-04-19T08:12:24.838Z</time></trkpt><trkpt lat="41.9788217" lon="13.0271317"><ele>331.33333333333337</ele><time>2026-04-19T08:12:25.896Z</time></trkpt><trkpt lat="41.9788083" lon="13.027005"><ele>331.0</ele><time>2026-04-19T08:12:26.828Z</time></trkpt><trkpt lat="41.9787967" lon="13.0268967"><ele>330.6666666666667</ele><time>2026-04-19T08:12:27.841Z</time></trkpt><trkpt lat="41.9787883" lon="13.0267967"><ele>330.3333333333333</ele><time>2026-04-19T08:12:28.835Z</time></trkpt><trkpt lat="41.9787767" lon="13.026705"><ele>330.0</ele><time>2026-04-19T08:12:29.833Z</time></trkpt><trkpt lat="41.9787767" lon="13.026575"><ele>330.0</ele><time>2026-04-19T08:12:31.89Z</time></trkpt><trkpt lat="41.9788033" lon="13.0264933"><ele>330.0</ele><time>2026-04-19T08:12:33.84Z</time></trkpt><trkpt lat="41.9788683" lon="13.0264083"><ele>330.0</ele><time>2026-04-19T08:12:36.831Z</time></trkpt><trkpt lat="41.9789617" lon="13.0262933"><ele>330.0</ele><time>2026-04-19T08:12:38.832Z</time></trkpt><trkpt lat="41.979095" lon="13.0261367"><ele>330.0</ele><time>2026-04-19T08:12:40.832Z</time></trkpt><trkpt lat="41.97916" lon="13.0260583"><ele>330.0</ele><time>2026-04-19T08:12:41.83Z</time></trkpt><trkpt lat="41.97923" lon="13.0259767"><ele>330.0</ele><time>2026-04-19T08:12:42.83Z</time></trkpt><trkpt lat="41.9793017" lon="13.0258967"><ele>330.0</ele><time>2026-04-19T08:12:43.879Z</time></trkpt><trkpt lat="41.9793783" lon="13.0258167"><ele>330.0</ele><time>2026-04-19T08:12:44.834Z</time></trkpt><trkpt lat="41.97946" lon="13.02573"><ele>330.8</ele><time>2026-04-19T08:12:45.838Z</time></trkpt><trkpt lat="41.9795367" lon="13.0256333"><ele>331.6</ele><time>2026-04-19T08:12:46.829Z</time></trkpt><trkpt lat="41.9796133" lon="13.02554"><ele>332.4</ele><time>2026-04-19T08:12:47.831Z</time></trkpt><trkpt lat="41.97969" lon="13.0254567"><ele>333.2</ele><time>2026-04-19T08:12:48.832Z</time></trkpt><trkpt lat="41.97976" lon="13.0253883"><ele>334.0</ele><time>2026-04-19T08:12:49.882Z</time></trkpt><trkpt lat="41.9798217" lon="13.02533"><ele>334.0</ele><time>2026-04-19T08:12:50.831Z</time></trkpt><trkpt lat="41.979865" lon="13.0252667"><ele>334.0</ele><time>2026-04-19T08:12:51.835Z</time></trkpt><trkpt lat="41.9799083" lon="13.0251967"><ele>334.0</ele><time>2026-04-19T08:12:52.83Z</time></trkpt><trkpt lat="41.9799383" lon="13.0251167"><ele>334.0</ele><time>2026-04-19T08:12:53.837Z</time></trkpt><trkpt lat="41.9799683" lon="13.0250267"><ele>334.0</ele><time>2026-04-19T08:12:54.837Z</time></trkpt><trkpt lat="41.9800033" lon="13.0249333"><ele>334.0</ele><time>2026-04-19T08:12:55.897Z</time></trkpt><trkpt lat="41.980045" lon="13.02485"><ele>334.0</ele><time>2026-04-19T08:12:56.832Z</time></trkpt><trkpt lat="41.9800867" lon="13.0247783"><ele>333.75</ele><time>2026-04-19T08:12:57.837Z</time></trkpt><trkpt lat="41.9801917" lon="13.024705"><ele>333.5</ele><time>2026-04-19T08:12:59.836Z</time></trkpt><trkpt lat="41.980325" lon="13.0246583"><ele>333.25</ele><time>2026-04-19T08:13:01.886Z</time></trkpt><trkpt lat="41.980425" lon="13.0245867"><ele>333.0</ele><time>2026-04-19T08:13:03.847Z</time></trkpt><trkpt lat="41.9804883" lon="13.0244683"><ele>333.0</ele><time>2026-04-19T08:13:05.831Z</time></trkpt><trkpt lat="41.9805333" lon="13.0243217"><ele>333.0</ele><time>2026-04-19T08:13:07.882Z</time></trkpt><trkpt lat="41.9805917" lon="13.02417"><ele>333.0</ele><time>2026-04-19T08:13:09.842Z</time></trkpt><trkpt lat="41.9806383" lon="13.0240917"><ele>333.0</ele><time>2026-04-19T08:13:10.828Z</time></trkpt><trkpt lat="41.980685" lon="13.0240117"><ele>333.0</ele><time>2026-04-19T08:13:11.83Z</time></trkpt><trkpt lat="41.9807317" lon="13.02393"><ele>333.3333333333333</ele><time>2026-04-19T08:13:12.836Z</time></trkpt><trkpt lat="41.9807817" lon="13.02385"><ele>333.6666666666667</ele><time>2026-04-19T08:13:13.88Z</time></trkpt><trkpt lat="41.9808333" lon="13.023785"><ele>334.0</ele><time>2026-04-19T08:13:14.829Z</time></trkpt><trkpt lat="41.9808967" lon="13.0237267"><ele>334.33333333333337</ele><time>2026-04-19T08:13:15.841Z</time></trkpt><trkpt lat="41.9809517" lon="13.0236733"><ele>334.6666666666667</ele><time>2026-04-19T08:13:16.83Z</time></trkpt><trkpt lat="41.9810083" lon="13.0236283"><ele>335.0</ele><time>2026-04-19T08:13:17.83Z</time></trkpt><trkpt lat="41.981105" lon="13.0235467"><ele>335.0</ele><time>2026-04-19T08:13:19.882Z</time></trkpt><trkpt lat="41.9812117" lon="13.0234517"><ele>335.0</ele><time>2026-04-19T08:13:21.843Z</time></trkpt><trkpt lat="41.9813283" lon="13.02336"><ele>335.0</ele><time>2026-04-19T08:13:23.827Z</time></trkpt><trkpt lat="41.9814167" lon="13.02324"><ele>335.0</ele><time>2026-04-19T08:13:25.876Z</time></trkpt><trkpt lat="41.9814667" lon="13.0231583"><ele>336.1666666666667</ele><time>2026-04-19T08:13:26.828Z</time></trkpt><trkpt lat="41.9815217" lon="13.02307"><ele>337.33333333333337</ele><time>2026-04-19T08:13:27.837Z</time></trkpt><trkpt lat="41.98158" lon="13.0229783"><ele>338.5</ele><time>2026-04-19T08:13:28.827Z</time></trkpt><trkpt lat="41.9816417" lon="13.02289"><ele>339.6666666666667</ele><time>2026-04-19T08:13:29.832Z</time></trkpt><trkpt lat="41.9816983" lon="13.0228233"><ele>340.8333333333333</ele><time>2026-04-19T08:13:30.83Z</time></trkpt><trkpt lat="41.9817633" lon="13.0227667"><ele>342.0</ele><time>2026-04-19T08:13:31.885Z</time></trkpt><trkpt lat="41.9818267" lon="13.02272"><ele>342.0</ele><time>2026-04-19T08:13:32.828Z</time></trkpt><trkpt lat="41.9818917" lon="13.02267"><ele>342.0</ele><time>2026-04-19T08:13:33.835Z</time></trkpt><trkpt lat="41.9819617" lon="13.0226183"><ele>342.0</ele><time>2026-04-19T08:13:34.832Z</time></trkpt><trkpt lat="41.9820317" lon="13.0225667"><ele>342.0</ele><time>2026-04-19T08:13:35.833Z</time></trkpt><trkpt lat="41.982105" lon="13.0225183"><ele>342.0</ele><time>2026-04-19T08:13:36.831Z</time></trkpt><trkpt lat="41.98218" lon="13.0224767"><ele>342.0</ele><time>2026-04-19T08:13:37.877Z</time></trkpt><trkpt lat="41.982255" lon="13.0224333"><ele>345.1666666666667</ele><time>2026-04-19T08:13:38.827Z</time></trkpt><trkpt lat="41.9823233" lon="13.0223967"><ele>348.3333333333333</ele><time>2026-04-19T08:13:39.834Z</time></trkpt><trkpt lat="41.982385" lon="13.0223733"><ele>351.5</ele><time>2026-04-19T08:13:40.83Z</time></trkpt><trkpt lat="41.9824583" lon="13.0223533"><ele>354.66666666666663</ele><time>2026-04-19T08:13:41.829Z</time></trkpt><trkpt lat="41.9825367" lon="13.0223433"><ele>357.8333333333333</ele><time>2026-04-19T08:13:42.835Z</time></trkpt><trkpt lat="41.982685" lon="13.0223083"><ele>361.0</ele><time>2026-04-19T08:13:44.833Z</time></trkpt><trkpt lat="41.9827517" lon="13.0222867"><ele>361.0</ele><time>2026-04-19T08:13:45.834Z</time></trkpt><trkpt lat="41.982815" lon="13.0222883"><ele>361.0</ele><time>2026-04-19T08:13:46.829Z</time></trkpt><trkpt lat="41.9828833" lon="13.022295"><ele>361.0</ele><time>2026-04-19T08:13:47.825Z</time></trkpt><trkpt lat="41.9829617" lon="13.0223067"><ele>361.0</ele><time>2026-04-19T08:13:48.833Z</time></trkpt><trkpt lat="41.9830383" lon="13.022325"><ele>361.0</ele><time>2026-04-19T08:13:49.88Z</time></trkpt><trkpt lat="41.98311" lon="13.02235"><ele>361.0</ele><time>2026-04-19T08:13:50.83Z</time></trkpt><trkpt lat="41.983175" lon="13.0223683"><ele>361.0</ele><time>2026-04-19T08:13:51.84Z</time></trkpt><trkpt lat="41.9832933" lon="13.0223733"><ele>357.66666666666663</ele><time>2026-04-19T08:13:53.829Z</time></trkpt><trkpt lat="41.9833533" lon="13.022345"><ele>354.3333333333333</ele><time>2026-04-19T08:13:54.832Z</time></trkpt><trkpt lat="41.9834683" lon="13.0223083"><ele>351.0</ele><time>2026-04-19T08:13:56.828Z</time></trkpt><trkpt lat="41.983555" lon="13.0222867"><ele>347.6666666666667</ele><time>2026-04-19T08:13:58.827Z</time></trkpt><trkpt lat="41.9836117" lon="13.02223"><ele>344.33333333333337</ele><time>2026-04-19T08:14:00.828Z</time></trkpt><trkpt lat="41.9836483" lon="13.022155"><ele>341.0</ele><time>2026-04-19T08:14:02.828Z</time></trkpt><trkpt lat="41.9836933" lon="13.0220633"><ele>341.0</ele><time>2026-04-19T08:14:04.832Z</time></trkpt><trkpt lat="41.9837633" lon="13.0218783"><ele>341.0</ele><time>2026-04-19T08:14:09.836Z</time></trkpt><trkpt lat="41.9838033" lon="13.0218017"><ele>341.0</ele><time>2026-04-19T08:14:11.83Z</time></trkpt><trkpt lat="41.9838367" lon="13.0217233"><ele>341.0</ele><time>2026-04-19T08:14:13.876Z</time></trkpt><trkpt lat="41.9838633" lon="13.0215967"><ele>341.0</ele><time>2026-04-19T08:14:16.826Z</time></trkpt><trkpt lat="41.983875" lon="13.0214883"><ele>344.25</ele><time>2026-04-19T08:14:19.881Z</time></trkpt><trkpt lat="41.9839117" lon="13.0213767"><ele>347.5</ele><time>2026-04-19T08:14:25.892Z</time></trkpt><trkpt lat="41.9839017" lon="13.0211867"><ele>350.75</ele><time>2026-04-19T08:14:46.83Z</time></trkpt><trkpt lat="41.98387" lon="13.0209567"><ele>354.0</ele><time>2026-04-19T08:14:50.827Z</time></trkpt><trkpt lat="41.9839183" lon="13.0208183"><ele>355.0</ele><time>2026-04-19T08:14:52.828Z</time></trkpt><trkpt lat="41.9840033" lon="13.020695"><ele>356.0</ele><time>2026-04-19T08:14:54.834Z</time></trkpt><trkpt lat="41.9840633" lon="13.0205867"><ele>357.0</ele><time>2026-04-19T08:14:56.831Z</time></trkpt><trkpt lat="41.9840883" lon="13.0204917"><ele>358.0</ele><time>2026-04-19T08:14:58.829Z</time></trkpt><trkpt lat="41.9840933" lon="13.0204017"><ele>359.0</ele><time>2026-04-19T08:15:00.829Z</time></trkpt><trkpt lat="41.984095" lon="13.0202633"><ele>359.0</ele><time>2026-04-19T08:15:02.829Z</time></trkpt><trkpt lat="41.9840833" lon="13.02014"><ele>359.0</ele><time>2026-04-19T08:15:04.835Z</time></trkpt><trkpt lat="41.9840483" lon="13.020055"><ele>359.0</ele><time>2026-04-19T08:15:06.835Z</time></trkpt><trkpt lat="41.9839817" lon="13.0200283"><ele>359.0</ele><time>2026-04-19T08:15:08.827Z</time></trkpt><trkpt lat="41.9838333" lon="13.0200533"><ele>359.0</ele><time>2026-04-19T08:15:13.881Z</time></trkpt><trkpt lat="41.983735" lon="13.0200333"><ele>359.0</ele><time>2026-04-19T08:15:16.832Z</time></trkpt><trkpt lat="41.98366" lon="13.0199733"><ele>359.0</ele><time>2026-04-19T08:15:19.88Z</time></trkpt><trkpt lat="41.9836167" lon="13.019785"><ele>359.0</ele><time>2026-04-19T08:18:24.832Z</time></trkpt><trkpt lat="41.983495" lon="13.0197033"><ele>359.0</ele><time>2026-04-19T08:18:46.83Z</time></trkpt><trkpt lat="41.9833233" lon="13.0197733"><ele>363.6</ele><time>2026-04-19T08:23:22.826Z</time></trkpt><trkpt lat="41.9832817" lon="13.0199"><ele>368.2</ele><time>2026-04-19T08:23:25.891Z</time></trkpt><trkpt lat="41.9832333" lon="13.0200533"><ele>372.8</ele><time>2026-04-19T08:23:27.834Z</time></trkpt><trkpt lat="41.9832117" lon="13.0201383"><ele>377.40000000000003</ele><time>2026-04-19T08:23:28.83Z</time></trkpt><trkpt lat="41.9831767" lon="13.0202683"><ele>382.0</ele><time>2026-04-19T08:23:30.83Z</time></trkpt><trkpt lat="41.98314" lon="13.020345"><ele>382.0</ele><time>2026-04-19T08:23:33.824Z</time></trkpt><trkpt lat="41.9830817" lon="13.0203967"><ele>382.0</ele><time>2026-04-19T08:23:37.888Z</time></trkpt><trkpt lat="41.9829633" lon="13.0205417"><ele>382.0</ele><time>2026-04-19T08:23:43.886Z</time></trkpt><trkpt lat="41.9828783" lon="13.0205517"><ele>382.0</ele><time>2026-04-19T08:23:46.833Z</time></trkpt><trkpt lat="41.98281" lon="13.0205133"><ele>382.0</ele><time>2026-04-19T08:23:50.837Z</time></trkpt><trkpt lat="41.982735" lon="13.02049"><ele>382.0</ele><time>2026-04-19T08:23:55.836Z</time></trkpt><trkpt lat="41.9826683" lon="13.0204717"><ele>382.0</ele><time>2026-04-19T08:23:57.834Z</time></trkpt><trkpt lat="41.9825733" lon="13.020445"><ele>382.0</ele><time>2026-04-19T08:23:59.834Z</time></trkpt><trkpt lat="41.982385" lon="13.0204083"><ele>382.0</ele><time>2026-04-19T08:24:02.827Z</time></trkpt><trkpt lat="41.9822933" lon="13.0204017"><ele>382.0</ele><time>2026-04-19T08:24:04.826Z</time></trkpt><trkpt lat="41.98221" lon="13.0203917"><ele>385.40000000000003</ele><time>2026-04-19T08:24:07.888Z</time></trkpt><trkpt lat="41.9821267" lon="13.0203733"><ele>388.8</ele><time>2026-04-19T08:24:09.829Z</time></trkpt><trkpt lat="41.9819983" lon="13.02034"><ele>392.2</ele><time>2026-04-19T08:24:11.828Z</time></trkpt><trkpt lat="41.9819183" lon="13.0203267"><ele>395.6</ele><time>2026-04-19T08:24:12.837Z</time></trkpt><trkpt lat="41.9818367" lon="13.0203183"><ele>399.0</ele><time>2026-04-19T08:24:13.881Z</time></trkpt><trkpt lat="41.9817533" lon="13.0203117"><ele>400.79999999999995</ele><time>2026-04-19T08:24:14.824Z</time></trkpt><trkpt lat="41.9816733" lon="13.02031"><ele>402.59999999999997</ele><time>2026-04-19T08:24:15.832Z</time></trkpt><trkpt lat="41.9815983" lon="13.0203033"><ele>404.4</ele><time>2026-04-19T08:24:16.828Z</time></trkpt><trkpt lat="41.9815283" lon="13.0202983"><ele>406.2</ele><time>2026-04-19T08:24:17.835Z</time></trkpt><trkpt lat="41.9814117" lon="13.0202733"><ele>408.0</ele><time>2026-04-19T08:24:19.885Z</time></trkpt><trkpt lat="41.9812933" lon="13.02023"><ele>408.0</ele><time>2026-04-19T08:24:21.826Z</time></trkpt><trkpt lat="41.98116" lon="13.0201817"><ele>408.0</ele><time>2026-04-19T08:24:23.832Z</time></trkpt><trkpt lat="41.9810967" lon="13.0201517"><ele>408.0</ele><time>2026-04-19T08:24:24.833Z</time></trkpt><trkpt lat="41.9809917" lon="13.020115"><ele>408.0</ele><time>2026-04-19T08:24:26.825Z</time></trkpt><trkpt lat="41.9809217" lon="13.0200983"><ele>408.0</ele><time>2026-04-19T08:24:28.827Z</time></trkpt><trkpt lat="41.980865" lon="13.0200517"><ele>410.3333333333333</ele><time>2026-04-19T08:24:30.834Z</time></trkpt><trkpt lat="41.9808017" lon="13.0200117"><ele>412.66666666666663</ele><time>2026-04-19T08:24:32.833Z</time></trkpt><trkpt lat="41.9807283" lon="13.0199683"><ele>415.0</ele><time>2026-04-19T08:24:34.834Z</time></trkpt><trkpt lat="41.9806667" lon="13.0199333"><ele>417.3333333333333</ele><time>2026-04-19T08:24:36.825Z</time></trkpt><trkpt lat="41.9805933" lon="13.0198783"><ele>419.66666666666663</ele><time>2026-04-19T08:24:44.831Z</time></trkpt><trkpt lat="41.980525" lon="13.0197217"><ele>422.0</ele><time>2026-04-19T08:24:50.828Z</time></trkpt><trkpt lat="41.980465" lon="13.019665"><ele>422.8</ele><time>2026-04-19T08:24:52.829Z</time></trkpt><trkpt lat="41.9803717" lon="13.0195767"><ele>423.6</ele><time>2026-04-19T08:24:57.834Z</time></trkpt><trkpt lat="41.9802967" lon="13.0195067"><ele>424.40000000000003</ele><time>2026-04-19T08:24:59.835Z</time></trkpt><trkpt lat="41.9801933" lon="13.0194367"><ele>425.20000000000005</ele><time>2026-04-19T08:25:01.894Z</time></trkpt><trkpt lat="41.9800917" lon="13.019365"><ele>426.0</ele><time>2026-04-19T08:25:03.828Z</time></trkpt><trkpt lat="41.9800083" lon="13.0192983"><ele>431.0</ele><time>2026-04-19T08:25:05.831Z</time></trkpt><trkpt lat="41.9798567" lon="13.0192383"><ele>436.0</ele><time>2026-04-19T08:25:09.835Z</time></trkpt><trkpt lat="41.979725" lon="13.0191867"><ele>441.0</ele><time>2026-04-19T08:25:17.834Z</time></trkpt><trkpt lat="41.9796683" lon="13.0191"><ele>446.0</ele><time>2026-04-19T08:25:20.829Z</time></trkpt><trkpt lat="41.9796267" lon="13.01897"><ele>446.75</ele><time>2026-04-19T08:25:23.834Z</time></trkpt><trkpt lat="41.9795883" lon="13.0188633"><ele>447.5</ele><time>2026-04-19T08:25:25.903Z</time></trkpt><trkpt lat="41.9795" lon="13.0186683"><ele>448.25</ele><time>2026-04-19T08:25:29.826Z</time></trkpt><trkpt lat="41.9794567" lon="13.01855"><ele>449.0</ele><time>2026-04-19T08:25:31.89Z</time></trkpt><trkpt lat="41.9794117" lon="13.018425"><ele>449.0</ele><time>2026-04-19T08:25:33.839Z</time></trkpt><trkpt lat="41.979355" lon="13.0183317"><ele>449.0</ele><time>2026-04-19T08:25:35.836Z</time></trkpt><trkpt lat="41.979305" lon="13.0182767"><ele>449.0</ele><time>2026-04-19T08:25:37.881Z</time></trkpt><trkpt lat="41.9792067" lon="13.0181033"><ele>449.0</ele><time>2026-04-19T08:25:52.834Z</time></trkpt><trkpt lat="41.97911" lon="13.0178833"><ele>451.66666666666663</ele><time>2026-04-19T08:25:56.829Z</time></trkpt><trkpt lat="41.9790767" lon="13.0177817"><ele>454.3333333333333</ele><time>2026-04-19T08:25:57.841Z</time></trkpt><trkpt lat="41.979045" lon="13.0176817"><ele>457.0</ele><time>2026-04-19T08:25:58.838Z</time></trkpt><trkpt lat="41.9790083" lon="13.0175867"><ele>459.66666666666663</ele><time>2026-04-19T08:25:59.838Z</time></trkpt><trkpt lat="41.978965" lon="13.0175067"><ele>462.3333333333333</ele><time>2026-04-19T08:26:00.833Z</time></trkpt><trkpt lat="41.9789183" lon="13.017435"><ele>465.0</ele><time>2026-04-19T08:26:01.891Z</time></trkpt><trkpt lat="41.97886" lon="13.0173683"><ele>467.4</ele><time>2026-04-19T08:26:02.835Z</time></trkpt><trkpt lat="41.9787883" lon="13.017295"><ele>469.8</ele><time>2026-04-19T08:26:03.838Z</time></trkpt><trkpt lat="41.97872" lon="13.0172367"><ele>472.20000000000005</ele><time>2026-04-19T08:26:04.828Z</time></trkpt><trkpt lat="41.97866" lon="13.01718"><ele>474.6</ele><time>2026-04-19T08:26:05.833Z</time></trkpt><trkpt lat="41.9785967" lon="13.0170683"><ele>477.0</ele><time>2026-04-19T08:26:07.883Z</time></trkpt><trkpt lat="41.978605" lon="13.01689"><ele>477.0</ele><time>2026-04-19T08:26:09.837Z</time></trkpt><trkpt lat="41.9786167" lon="13.0167933"><ele>477.00000000000006</ele><time>2026-04-19T08:26:10.832Z</time></trkpt><trkpt lat="41.9786367" lon="13.016705"><ele>477.00000000000006</ele><time>2026-04-19T08:26:11.829Z</time></trkpt><trkpt lat="41.9786717" lon="13.0165533"><ele>477.0</ele><time>2026-04-19T08:26:13.887Z</time></trkpt><trkpt lat="41.9787067" lon="13.01631"><ele>477.0</ele><time>2026-04-19T08:26:16.829Z</time></trkpt><trkpt lat="41.9787117" lon="13.0162083"><ele>478.40000000000003</ele><time>2026-04-19T08:26:17.834Z</time></trkpt><trkpt lat="41.978715" lon="13.0161083"><ele>479.80000000000007</ele><time>2026-04-19T08:26:18.833Z</time></trkpt><trkpt lat="41.97871" lon="13.01596"><ele>481.2</ele><time>2026-04-19T08:26:20.834Z</time></trkpt><trkpt lat="41.97872" lon="13.0158267"><ele>482.6</ele><time>2026-04-19T08:26:22.837Z</time></trkpt><trkpt lat="41.9787" lon="13.0157283"><ele>484.0</ele><time>2026-04-19T08:26:24.838Z</time></trkpt><trkpt lat="41.978665" lon="13.0156117"><ele>484.6666666666667</ele><time>2026-04-19T08:26:26.833Z</time></trkpt><trkpt lat="41.9786433" lon="13.0155317"><ele>485.33333333333337</ele><time>2026-04-19T08:26:27.831Z</time></trkpt><trkpt lat="41.9786133" lon="13.015435"><ele>486.0</ele><time>2026-04-19T08:26:28.838Z</time></trkpt><trkpt lat="41.9785733" lon="13.015345"><ele>486.66666666666663</ele><time>2026-04-19T08:26:29.832Z</time></trkpt><trkpt lat="41.9785333" lon="13.0152733"><ele>487.3333333333333</ele><time>2026-04-19T08:26:30.837Z</time></trkpt><trkpt lat="41.978495" lon="13.0152033"><ele>488.0</ele><time>2026-04-19T08:26:31.891Z</time></trkpt><trkpt lat="41.9784633" lon="13.0150733"><ele>487.75</ele><time>2026-04-19T08:26:33.834Z</time></trkpt><trkpt lat="41.9784967" lon="13.014935"><ele>487.5</ele><time>2026-04-19T08:26:35.831Z</time></trkpt><trkpt lat="41.9785233" lon="13.0146833"><ele>487.25</ele><time>2026-04-19T08:26:39.836Z</time></trkpt><trkpt lat="41.9785483" lon="13.0144917"><ele>487.0</ele><time>2026-04-19T08:26:41.833Z</time></trkpt><trkpt lat="41.9785567" lon="13.0143517"><ele>487.0</ele><time>2026-04-19T08:26:42.835Z</time></trkpt><trkpt lat="41.9785583" lon="13.014205"><ele>487.00000000000006</ele><time>2026-04-19T08:26:43.886Z</time></trkpt><trkpt lat="41.9785517" lon="13.01406"><ele>487.00000000000006</ele><time>2026-04-19T08:26:44.833Z</time></trkpt><trkpt lat="41.97854" lon="13.013925"><ele>487.0</ele><time>2026-04-19T08:26:45.84Z</time></trkpt><trkpt lat="41.9785267" lon="13.0138017"><ele>487.0</ele><time>2026-04-19T08:26:46.834Z</time></trkpt><trkpt lat="41.97851" lon="13.0136967"><ele>487.00000000000006</ele><time>2026-04-19T08:26:47.829Z</time></trkpt><trkpt lat="41.9784917" lon="13.013605"><ele>487.0</ele><time>2026-04-19T08:26:48.829Z</time></trkpt><trkpt lat="41.9784733" lon="13.013515"><ele>487.0</ele><time>2026-04-19T08:26:49.888Z</time></trkpt><trkpt lat="41.9784667" lon="13.0134067"><ele>487.0</ele><time>2026-04-19T08:26:50.827Z</time></trkpt><trkpt lat="41.9784533" lon="13.013275"><ele>487.00000000000006</ele><time>2026-04-19T08:26:51.833Z</time></trkpt><trkpt lat="41.97844" lon="13.01313"><ele>487.0</ele><time>2026-04-19T08:26:52.833Z</time></trkpt><trkpt lat="41.97842" lon="13.0129883"><ele>486.0</ele><time>2026-04-19T08:26:53.834Z</time></trkpt><trkpt lat="41.978395" lon="13.0128433"><ele>485.0</ele><time>2026-04-19T08:26:54.834Z</time></trkpt><trkpt lat="41.97837" lon="13.0127083"><ele>484.0</ele><time>2026-04-19T08:26:55.898Z</time></trkpt><trkpt lat="41.9783367" lon="13.012575"><ele>483.0</ele><time>2026-04-19T08:26:56.827Z</time></trkpt><trkpt lat="41.978255" lon="13.0122933"><ele>488.2</ele><time>2026-04-19T08:26:58.833Z</time></trkpt><trkpt lat="41.9782167" lon="13.0121633"><ele>493.4</ele><time>2026-04-19T08:26:59.833Z</time></trkpt><trkpt lat="41.9781783" lon="13.0120517"><ele>498.59999999999997</ele><time>2026-04-19T08:27:00.837Z</time></trkpt><trkpt lat="41.97813" lon="13.01195"><ele>503.79999999999995</ele><time>2026-04-19T08:27:01.889Z</time></trkpt><trkpt lat="41.9780783" lon="13.01185"><ele>509.0</ele><time>2026-04-19T08:27:02.835Z</time></trkpt><trkpt lat="41.9780233" lon="13.0117533"><ele>511.4</ele><time>2026-04-19T08:27:03.832Z</time></trkpt><trkpt lat="41.97797" lon="13.0116517"><ele>513.8</ele><time>2026-04-19T08:27:04.831Z</time></trkpt><trkpt lat="41.9779133" lon="13.0115417"><ele>516.2</ele><time>2026-04-19T08:27:05.831Z</time></trkpt><trkpt lat="41.9778567" lon="13.01142"><ele>518.6</ele><time>2026-04-19T08:27:06.831Z</time></trkpt><trkpt lat="41.9777883" lon="13.0112883"><ele>521.0</ele><time>2026-04-19T08:27:07.889Z</time></trkpt><trkpt lat="41.9777217" lon="13.0111567"><ele>521.0</ele><time>2026-04-19T08:27:08.829Z</time></trkpt><trkpt lat="41.97766" lon="13.0110283"><ele>521.0</ele><time>2026-04-19T08:27:09.832Z</time></trkpt><trkpt lat="41.977605" lon="13.010915"><ele>521.0</ele><time>2026-04-19T08:27:10.837Z</time></trkpt><trkpt lat="41.9775617" lon="13.0108233"><ele>521.0</ele><time>2026-04-19T08:27:11.841Z</time></trkpt><trkpt lat="41.9775183" lon="13.010735"><ele>521.0</ele><time>2026-04-19T08:27:12.829Z</time></trkpt><trkpt lat="41.9774717" lon="13.0106483"><ele>526.4</ele><time>2026-04-19T08:27:13.892Z</time></trkpt><trkpt lat="41.9774267" lon="13.0105467"><ele>531.8</ele><time>2026-04-19T08:27:14.832Z</time></trkpt><trkpt lat="41.9773717" lon="13.01044"><ele>537.1999999999999</ele><time>2026-04-19T08:27:15.833Z</time></trkpt><trkpt lat="41.977315" lon="13.0103367"><ele>542.6</ele><time>2026-04-19T08:27:16.832Z</time></trkpt><trkpt lat="41.9772717" lon="13.0102283"><ele>548.0</ele><time>2026-04-19T08:27:17.833Z</time></trkpt><trkpt lat="41.9772183" lon="13.0099817"><ele>549.4</ele><time>2026-04-19T08:27:19.887Z</time></trkpt><trkpt lat="41.9772033" lon="13.0098433"><ele>550.8</ele><time>2026-04-19T08:27:20.831Z</time></trkpt><trkpt lat="41.977185" lon="13.009705"><ele>552.2</ele><time>2026-04-19T08:27:21.832Z</time></trkpt><trkpt lat="41.9771683" lon="13.0095633"><ele>553.6</ele><time>2026-04-19T08:27:22.831Z</time></trkpt><trkpt lat="41.9771517" lon="13.0094183"><ele>555.0</ele><time>2026-04-19T08:27:23.828Z</time></trkpt><trkpt lat="41.9771333" lon="13.0092767"><ele>552.8</ele><time>2026-04-19T08:27:24.831Z</time></trkpt><trkpt lat="41.97711" lon="13.0091383"><ele>550.6</ele><time>2026-04-19T08:27:25.896Z</time></trkpt><trkpt lat="41.9770667" lon="13.0090083"><ele>548.4</ele><time>2026-04-19T08:27:26.829Z</time></trkpt><trkpt lat="41.97701" lon="13.008875"><ele>546.2</ele><time>2026-04-19T08:27:27.832Z</time></trkpt><trkpt lat="41.97696" lon="13.0087633"><ele>544.0</ele><time>2026-04-19T08:27:28.832Z</time></trkpt><trkpt lat="41.97693" lon="13.0086683"><ele>544.0</ele><time>2026-04-19T08:27:29.834Z</time></trkpt><trkpt lat="41.9769117" lon="13.0085767"><ele>544.0</ele><time>2026-04-19T08:27:30.836Z</time></trkpt><trkpt lat="41.97692" lon="13.008445"><ele>544.0</ele><time>2026-04-19T08:27:32.831Z</time></trkpt><trkpt lat="41.9768867" lon="13.00831"><ele>544.0</ele><time>2026-04-19T08:27:34.835Z</time></trkpt><trkpt lat="41.9768467" lon="13.0082317"><ele>544.0</ele><time>2026-04-19T08:27:35.835Z</time></trkpt><trkpt lat="41.976795" lon="13.0081333"><ele>544.0</ele><time>2026-04-19T08:27:36.833Z</time></trkpt><trkpt lat="41.9767417" lon="13.0080333"><ele>545.25</ele><time>2026-04-19T08:27:37.889Z</time></trkpt><trkpt lat="41.9766867" lon="13.0079183"><ele>546.5</ele><time>2026-04-19T08:27:38.831Z</time></trkpt><trkpt lat="41.97655" lon="13.0077283"><ele>547.75</ele><time>2026-04-19T08:27:40.83Z</time></trkpt><trkpt lat="41.9764767" lon="13.0076683"><ele>549.0</ele><time>2026-04-19T08:27:41.835Z</time></trkpt><trkpt lat="41.9763933" lon="13.007625"><ele>552.8</ele><time>2026-04-19T08:27:42.834Z</time></trkpt><trkpt lat="41.976315" lon="13.0075983"><ele>556.5999999999999</ele><time>2026-04-19T08:27:43.886Z</time></trkpt><trkpt lat="41.97623" lon="13.0076"><ele>560.4</ele><time>2026-04-19T08:27:44.837Z</time></trkpt><trkpt lat="41.97613" lon="13.0076117"><ele>564.1999999999999</ele><time>2026-04-19T08:27:45.835Z</time></trkpt><trkpt lat="41.97603" lon="13.0076183"><ele>568.0</ele><time>2026-04-19T08:27:46.835Z</time></trkpt><trkpt lat="41.975935" lon="13.0076267"><ele>571.1999999999999</ele><time>2026-04-19T08:27:47.833Z</time></trkpt><trkpt lat="41.975835" lon="13.0076367"><ele>574.4</ele><time>2026-04-19T08:27:48.835Z</time></trkpt><trkpt lat="41.9757383" lon="13.0076517"><ele>577.5999999999999</ele><time>2026-04-19T08:27:49.889Z</time></trkpt><trkpt lat="41.9756467" lon="13.0076733"><ele>580.8</ele><time>2026-04-19T08:27:50.832Z</time></trkpt><trkpt lat="41.97556" lon="13.0076983"><ele>584.0</ele><time>2026-04-19T08:27:51.828Z</time></trkpt><trkpt lat="41.9754617" lon="13.0077283"><ele>584.0</ele><time>2026-04-19T08:27:52.827Z</time></trkpt><trkpt lat="41.9753567" lon="13.00775"><ele>584.0</ele><time>2026-04-19T08:27:53.835Z</time></trkpt><trkpt lat="41.9752483" lon="13.0077617"><ele>584.0</ele><time>2026-04-19T08:27:54.834Z</time></trkpt><trkpt lat="41.9751367" lon="13.007785"><ele>584.0</ele><time>2026-04-19T08:27:55.904Z</time></trkpt><trkpt lat="41.97503" lon="13.0077983"><ele>584.0</ele><time>2026-04-19T08:27:56.838Z</time></trkpt><trkpt lat="41.97493" lon="13.007795"><ele>589.3333333333333</ele><time>2026-04-19T08:27:57.832Z</time></trkpt><trkpt lat="41.9748183" lon="13.0077933"><ele>594.6666666666666</ele><time>2026-04-19T08:27:58.826Z</time></trkpt><trkpt lat="41.9746967" lon="13.0078133"><ele>600.0</ele><time>2026-04-19T08:27:59.834Z</time></trkpt><trkpt lat="41.9744683" lon="13.0078883"><ele>600.0</ele><time>2026-04-19T08:28:01.893Z</time></trkpt><trkpt lat="41.974385" lon="13.0079517"><ele>600.0</ele><time>2026-04-19T08:28:02.833Z</time></trkpt><trkpt lat="41.9743167" lon="13.0080383"><ele>600.0</ele><time>2026-04-19T08:28:03.835Z</time></trkpt><trkpt lat="41.9742583" lon="13.008145"><ele>600.0</ele><time>2026-04-19T08:28:04.832Z</time></trkpt><trkpt lat="41.9742033" lon="13.0082667"><ele>600.0</ele><time>2026-04-19T08:28:05.834Z</time></trkpt><trkpt lat="41.9741567" lon="13.0083967"><ele>599.0</ele><time>2026-04-19T08:28:06.831Z</time></trkpt><trkpt lat="41.97412" lon="13.0085267"><ele>598.0</ele><time>2026-04-19T08:28:07.891Z</time></trkpt><trkpt lat="41.974085" lon="13.0086767"><ele>597.0</ele><time>2026-04-19T08:28:08.828Z</time></trkpt><trkpt lat="41.9740567" lon="13.0088283"><ele>596.0</ele><time>2026-04-19T08:28:09.832Z</time></trkpt><trkpt lat="41.974025" lon="13.0089633"><ele>595.0</ele><time>2026-04-19T08:28:10.833Z</time></trkpt><trkpt lat="41.9740017" lon="13.009065"><ele>595.0</ele><time>2026-04-19T08:28:11.832Z</time></trkpt><trkpt lat="41.9739667" lon="13.0091367"><ele>595.0</ele><time>2026-04-19T08:28:12.83Z</time></trkpt><trkpt lat="41.9738617" lon="13.00918"><ele>595.0</ele><time>2026-04-19T08:28:14.834Z</time></trkpt><trkpt lat="41.973785" lon="13.0091617"><ele>595.0</ele><time>2026-04-19T08:28:15.829Z</time></trkpt><trkpt lat="41.9736933" lon="13.0091417"><ele>595.0</ele><time>2026-04-19T08:28:16.83Z</time></trkpt><trkpt lat="41.97358" lon="13.00912"><ele>595.0</ele><time>2026-04-19T08:28:17.834Z</time></trkpt><trkpt lat="41.9734583" lon="13.009105"><ele>595.0</ele><time>2026-04-19T08:28:18.834Z</time></trkpt><trkpt lat="41.9733517" lon="13.0090933"><ele>595.0</ele><time>2026-04-19T08:28:19.887Z</time></trkpt><trkpt lat="41.9732617" lon="13.00909"><ele>595.0</ele><time>2026-04-19T08:28:20.831Z</time></trkpt><trkpt lat="41.973105" lon="13.0090267"><ele>600.0</ele><time>2026-04-19T08:28:22.839Z</time></trkpt><trkpt lat="41.97302" lon="13.008985"><ele>605.0</ele><time>2026-04-19T08:28:23.83Z</time></trkpt><trkpt lat="41.9729267" lon="13.00895"><ele>610.0</ele><time>2026-04-19T08:28:24.837Z</time></trkpt><trkpt lat="41.9728283" lon="13.0089267"><ele>615.0</ele><time>2026-04-19T08:28:25.878Z</time></trkpt><trkpt lat="41.9727233" lon="13.0089117"><ele>620.0</ele><time>2026-04-19T08:28:26.835Z</time></trkpt><trkpt lat="41.9726183" lon="13.008905"><ele>622.2</ele><time>2026-04-19T08:28:27.835Z</time></trkpt><trkpt lat="41.972515" lon="13.0089083"><ele>624.4</ele><time>2026-04-19T08:28:28.831Z</time></trkpt><trkpt lat="41.9724083" lon="13.0089283"><ele>626.6</ele><time>2026-04-19T08:28:29.833Z</time></trkpt><trkpt lat="41.9723033" lon="13.0089483"><ele>628.8</ele><time>2026-04-19T08:28:30.833Z</time></trkpt><trkpt lat="41.9722" lon="13.0089783"><ele>631.0</ele><time>2026-04-19T08:28:31.892Z</time></trkpt><trkpt lat="41.9720983" lon="13.009"><ele>631.0</ele><time>2026-04-19T08:28:32.833Z</time></trkpt><trkpt lat="41.972005" lon="13.00901"><ele>631.0</ele><time>2026-04-19T08:28:33.834Z</time></trkpt><trkpt lat="41.9719183" lon="13.0090033"><ele>631.0</ele><time>2026-04-19T08:28:34.826Z</time></trkpt><trkpt lat="41.9718533" lon="13.0089817"><ele>631.0</ele><time>2026-04-19T08:28:35.835Z</time></trkpt><trkpt lat="41.97179" lon="13.0089367"><ele>631.0</ele><time>2026-04-19T08:28:37.892Z</time></trkpt><trkpt lat="41.971845" lon="13.00887"><ele>631.0</ele><time>2026-04-19T08:28:39.834Z</time></trkpt><trkpt lat="41.9719083" lon="13.0087967"><ele>631.0</ele><time>2026-04-19T08:28:40.835Z</time></trkpt><trkpt lat="41.9719767" lon="13.008715"><ele>631.0</ele><time>2026-04-19T08:28:41.84Z</time></trkpt><trkpt lat="41.972165" lon="13.0085683"><ele>631.0</ele><time>2026-04-19T08:28:43.893Z</time></trkpt><trkpt lat="41.9722783" lon="13.0085183"><ele>631.0</ele><time>2026-04-19T08:28:44.832Z</time></trkpt><trkpt lat="41.9724" lon="13.008465"><ele>631.0</ele><time>2026-04-19T08:28:45.833Z</time></trkpt><trkpt lat="41.97252" lon="13.0084067"><ele>631.0</ele><time>2026-04-19T08:28:46.833Z</time></trkpt><trkpt lat="41.9726233" lon="13.0083567"><ele>631.0</ele><time>2026-04-19T08:28:47.836Z</time></trkpt><trkpt lat="41.9727167" lon="13.008315"><ele>631.0</ele><time>2026-04-19T08:28:48.835Z</time></trkpt><trkpt lat="41.972805" lon="13.00829"><ele>631.0</ele><time>2026-04-19T08:28:49.895Z</time></trkpt><trkpt lat="41.972905" lon="13.00829"><ele>633.0</ele><time>2026-04-19T08:28:50.831Z</time></trkpt><trkpt lat="41.973005" lon="13.008305"><ele>635.0</ele><time>2026-04-19T08:28:51.831Z</time></trkpt><trkpt lat="41.9731" lon="13.00831"><ele>637.0</ele><time>2026-04-19T08:28:52.84Z</time></trkpt><trkpt lat="41.9731883" lon="13.0082833"><ele>639.0</ele><time>2026-04-19T08:28:53.837Z</time></trkpt><trkpt lat="41.9732617" lon="13.0082267"><ele>641.0</ele><time>2026-04-19T08:28:54.837Z</time></trkpt><trkpt lat="41.9733233" lon="13.00815"><ele>633.0</ele><time>2026-04-19T08:28:55.895Z</time></trkpt><trkpt lat="41.97338" lon="13.0080333"><ele>625.0</ele><time>2026-04-19T08:28:56.83Z</time></trkpt><trkpt lat="41.9734367" lon="13.0078933"><ele>617.0</ele><time>2026-04-19T08:28:57.836Z</time></trkpt><trkpt lat="41.9734767" lon="13.0077433"><ele>609.0</ele><time>2026-04-19T08:28:58.83Z</time></trkpt><trkpt lat="41.97352" lon="13.0075967"><ele>615.0</ele><time>2026-04-19T08:28:59.829Z</time></trkpt><trkpt lat="41.9735683" lon="13.00746"><ele>621.0</ele><time>2026-04-19T08:29:00.834Z</time></trkpt><trkpt lat="41.9736217" lon="13.00733"><ele>627.0</ele><time>2026-04-19T08:29:01.892Z</time></trkpt><trkpt lat="41.9736867" lon="13.0072233"><ele>633.0</ele><time>2026-04-19T08:29:02.839Z</time></trkpt><trkpt lat="41.973855" lon="13.0070617"><ele>633.0</ele><time>2026-04-19T08:29:04.831Z</time></trkpt><trkpt lat="41.9739717" lon="13.007"><ele>633.0</ele><time>2026-04-19T08:29:05.832Z</time></trkpt><trkpt lat="41.9741" lon="13.0069483"><ele>633.0</ele><time>2026-04-19T08:29:06.838Z</time></trkpt><trkpt lat="41.9742267" lon="13.0068883"><ele>633.0</ele><time>2026-04-19T08:29:07.89Z</time></trkpt><trkpt lat="41.974345" lon="13.00684"><ele>633.0</ele><time>2026-04-19T08:29:08.835Z</time></trkpt><trkpt lat="41.9744583" lon="13.0067983"><ele>633.0</ele><time>2026-04-19T08:29:09.834Z</time></trkpt><trkpt lat="41.9745583" lon="13.0067583"><ele>633.0</ele><time>2026-04-19T08:29:10.836Z</time></trkpt><trkpt lat="41.97465" lon="13.006705"><ele>633.0</ele><time>2026-04-19T08:29:11.839Z</time></trkpt><trkpt lat="41.9747433" lon="13.0066283"><ele>633.0</ele><time>2026-04-19T08:29:12.83Z</time></trkpt><trkpt lat="41.9748317" lon="13.0065267"><ele>633.0</ele><time>2026-04-19T08:29:13.888Z</time></trkpt><trkpt lat="41.9749217" lon="13.006415"><ele>633.0</ele><time>2026-04-19T08:29:14.833Z</time></trkpt><trkpt lat="41.975005" lon="13.006315"><ele>633.0</ele><time>2026-04-19T08:29:15.833Z</time></trkpt><trkpt lat="41.9750917" lon="13.0062333"><ele>633.0</ele><time>2026-04-19T08:29:16.832Z</time></trkpt><trkpt lat="41.97519" lon="13.0061667"><ele>631.1999999999999</ele><time>2026-04-19T08:29:17.828Z</time></trkpt><trkpt lat="41.9752917" lon="13.00609"><ele>629.4</ele><time>2026-04-19T08:29:18.838Z</time></trkpt><trkpt lat="41.9753917" lon="13.0060067"><ele>627.5999999999999</ele><time>2026-04-19T08:29:19.884Z</time></trkpt><trkpt lat="41.9754833" lon="13.0059333"><ele>625.8</ele><time>2026-04-19T08:29:20.826Z</time></trkpt><trkpt lat="41.975575" lon="13.0058733"><ele>624.0</ele><time>2026-04-19T08:29:21.835Z</time></trkpt><trkpt lat="41.9756683" lon="13.0058333"><ele>625.75</ele><time>2026-04-19T08:29:22.831Z</time></trkpt><trkpt lat="41.97577" lon="13.005805"><ele>627.5</ele><time>2026-04-19T08:29:23.828Z</time></trkpt><trkpt lat="41.975955" lon="13.0057283"><ele>629.25</ele><time>2026-04-19T08:29:25.888Z</time></trkpt><trkpt lat="41.97603" lon="13.005655"><ele>631.0</ele><time>2026-04-19T08:29:26.829Z</time></trkpt><trkpt lat="41.9760917" lon="13.0055667"><ele>631.0</ele><time>2026-04-19T08:29:27.837Z</time></trkpt><trkpt lat="41.97614" lon="13.005465"><ele>631.0</ele><time>2026-04-19T08:29:28.832Z</time></trkpt><trkpt lat="41.9761817" lon="13.0053383"><ele>631.0</ele><time>2026-04-19T08:29:29.831Z</time></trkpt><trkpt lat="41.97623" lon="13.0052033"><ele>631.0</ele><time>2026-04-19T08:29:30.83Z</time></trkpt><trkpt lat="41.976275" lon="13.0050717"><ele>631.0</ele><time>2026-04-19T08:29:31.882Z</time></trkpt><trkpt lat="41.9762967" lon="13.0049733"><ele>634.1666666666667</ele><time>2026-04-19T08:29:32.832Z</time></trkpt><trkpt lat="41.97634" lon="13.0048533"><ele>637.3333333333334</ele><time>2026-04-19T08:29:34.834Z</time></trkpt><trkpt lat="41.976395" lon="13.0047767"><ele>640.5</ele><time>2026-04-19T08:29:36.831Z</time></trkpt><trkpt lat="41.9764667" lon="13.0047133"><ele>643.6666666666666</ele><time>2026-04-19T08:29:39.836Z</time></trkpt><trkpt lat="41.9765167" lon="13.00466"><ele>646.8333333333333</ele><time>2026-04-19T08:29:41.83Z</time></trkpt><trkpt lat="41.9766017" lon="13.0045617"><ele>650.0</ele><time>2026-04-19T08:29:43.884Z</time></trkpt><trkpt lat="41.97666" lon="13.00448"><ele>648.2</ele><time>2026-04-19T08:29:44.83Z</time></trkpt><trkpt lat="41.9767783" lon="13.004335"><ele>646.4</ele><time>2026-04-19T08:29:46.829Z</time></trkpt><trkpt lat="41.9768317" lon="13.0042617"><ele>644.5999999999999</ele><time>2026-04-19T08:29:47.829Z</time></trkpt><trkpt lat="41.9768683" lon="13.00418"><ele>642.8</ele><time>2026-04-19T08:29:48.828Z</time></trkpt><trkpt lat="41.9769" lon="13.0040883"><ele>641.0</ele><time>2026-04-19T08:29:49.883Z</time></trkpt><trkpt lat="41.9769333" lon="13.0039817"><ele>641.0</ele><time>2026-04-19T08:29:50.835Z</time></trkpt><trkpt lat="41.9769767" lon="13.0038883"><ele>641.0</ele><time>2026-04-19T08:29:51.83Z</time></trkpt><trkpt lat="41.97703" lon="13.0038217"><ele>641.0</ele><time>2026-04-19T08:29:52.828Z</time></trkpt><trkpt lat="41.9770917" lon="13.0037767"><ele>641.0</ele><time>2026-04-19T08:29:53.83Z</time></trkpt><trkpt lat="41.9771617" lon="13.0037517"><ele>641.0</ele><time>2026-04-19T08:29:54.83Z</time></trkpt><trkpt lat="41.9772433" lon="13.0037333"><ele>641.0</ele><time>2026-04-19T08:29:55.887Z</time></trkpt><trkpt lat="41.9773317" lon="13.00372"><ele>641.0</ele><time>2026-04-19T08:29:56.83Z</time></trkpt><trkpt lat="41.97741" lon="13.0036817"><ele>641.0</ele><time>2026-04-19T08:29:57.835Z</time></trkpt><trkpt lat="41.977475" lon="13.0036167"><ele>641.0</ele><time>2026-04-19T08:29:58.834Z</time></trkpt><trkpt lat="41.9775233" lon="13.0035417"><ele>641.0</ele><time>2026-04-19T08:29:59.83Z</time></trkpt><trkpt lat="41.9775717" lon="13.0034567"><ele>641.0</ele><time>2026-04-19T08:30:00.83Z</time></trkpt><trkpt lat="41.9776283" lon="13.0033617"><ele>641.0</ele><time>2026-04-19T08:30:02.831Z</time></trkpt><trkpt lat="41.97767" lon="13.0032933"><ele>638.75</ele><time>2026-04-19T08:30:04.833Z</time></trkpt><trkpt lat="41.977705" lon="13.003205"><ele>636.5</ele><time>2026-04-19T08:30:07.883Z</time></trkpt><trkpt lat="41.9777817" lon="13.0029767"><ele>634.25</ele><time>2026-04-19T08:30:11.832Z</time></trkpt><trkpt lat="41.97784" lon="13.0028167"><ele>632.0</ele><time>2026-04-19T08:30:13.883Z</time></trkpt><trkpt lat="41.9778833" lon="13.00272"><ele>632.0</ele><time>2026-04-19T08:30:14.826Z</time></trkpt><trkpt lat="41.97795" lon="13.0026217"><ele>632.0</ele><time>2026-04-19T08:30:15.831Z</time></trkpt><trkpt lat="41.978025" lon="13.00253"><ele>632.0</ele><time>2026-04-19T08:30:16.829Z</time></trkpt><trkpt lat="41.9781217" lon="13.00244"><ele>632.0</ele><time>2026-04-19T08:30:17.835Z</time></trkpt><trkpt lat="41.9782283" lon="13.002355"><ele>632.0</ele><time>2026-04-19T08:30:18.828Z</time></trkpt><trkpt lat="41.978335" lon="13.002285"><ele>636.75</ele><time>2026-04-19T08:30:19.882Z</time></trkpt><trkpt lat="41.978445" lon="13.0022217"><ele>641.5</ele><time>2026-04-19T08:30:20.833Z</time></trkpt><trkpt lat="41.9785467" lon="13.002185"><ele>646.25</ele><time>2026-04-19T08:30:21.83Z</time></trkpt><trkpt lat="41.978655" lon="13.0021733"><ele>651.0</ele><time>2026-04-19T08:30:22.828Z</time></trkpt><trkpt lat="41.9787767" lon="13.0021667"><ele>651.0</ele><time>2026-04-19T08:30:23.828Z</time></trkpt><trkpt lat="41.9789117" lon="13.0021617"><ele>651.0</ele><time>2026-04-19T08:30:24.833Z</time></trkpt><trkpt lat="41.9790517" lon="13.00215"><ele>651.0</ele><time>2026-04-19T08:30:25.891Z</time></trkpt><trkpt lat="41.97918" lon="13.0021317"><ele>651.0</ele><time>2026-04-19T08:30:26.831Z</time></trkpt><trkpt lat="41.97931" lon="13.0021333"><ele>652.0</ele><time>2026-04-19T08:30:27.833Z</time></trkpt><trkpt lat="41.9794317" lon="13.00215"><ele>653.0</ele><time>2026-04-19T08:30:28.83Z</time></trkpt><trkpt lat="41.979675" lon="13.0022017"><ele>654.0</ele><time>2026-04-19T08:30:30.835Z</time></trkpt><trkpt lat="41.9797883" lon="13.0022183"><ele>654.0</ele><time>2026-04-19T08:30:31.887Z</time></trkpt><trkpt lat="41.9798883" lon="13.0022267"><ele>654.0</ele><time>2026-04-19T08:30:32.83Z</time></trkpt><trkpt lat="41.97998" lon="13.0022267"><ele>654.0</ele><time>2026-04-19T08:30:33.833Z</time></trkpt><trkpt lat="41.9800683" lon="13.002205"><ele>654.0</ele><time>2026-04-19T08:30:34.834Z</time></trkpt><trkpt lat="41.9801567" lon="13.0021633"><ele>654.0</ele><time>2026-04-19T08:30:35.833Z</time></trkpt><trkpt lat="41.9802383" lon="13.0021133"><ele>652.8000000000001</ele><time>2026-04-19T08:30:36.841Z</time></trkpt><trkpt lat="41.9803283" lon="13.0020667"><ele>651.6</ele><time>2026-04-19T08:30:37.883Z</time></trkpt><trkpt lat="41.98042" lon="13.0020217"><ele>650.4</ele><time>2026-04-19T08:30:38.827Z</time></trkpt><trkpt lat="41.9805167" lon="13.0019817"><ele>649.2</ele><time>2026-04-19T08:30:39.834Z</time></trkpt><trkpt lat="41.980615" lon="13.00195"><ele>648.0</ele><time>2026-04-19T08:30:40.83Z</time></trkpt><trkpt lat="41.9807183" lon="13.0019217"><ele>648.0</ele><time>2026-04-19T08:30:41.83Z</time></trkpt><trkpt lat="41.9808167" lon="13.0018983"><ele>648.0</ele><time>2026-04-19T08:30:42.826Z</time></trkpt><trkpt lat="41.9808983" lon="13.001875"><ele>648.0</ele><time>2026-04-19T08:30:43.88Z</time></trkpt><trkpt lat="41.9809917" lon="13.0018617"><ele>648.0</ele><time>2026-04-19T08:30:44.831Z</time></trkpt><trkpt lat="41.981085" lon="13.0018467"><ele>648.0</ele><time>2026-04-19T08:30:45.828Z</time></trkpt><trkpt lat="41.9811783" lon="13.0018317"><ele>649.75</ele><time>2026-04-19T08:30:46.832Z</time></trkpt><trkpt lat="41.98128" lon="13.001805"><ele>651.5</ele><time>2026-04-19T08:30:47.827Z</time></trkpt><trkpt lat="41.9813867" lon="13.00176"><ele>653.25</ele><time>2026-04-19T08:30:48.843Z</time></trkpt><trkpt lat="41.9815033" lon="13.00171"><ele>655.0</ele><time>2026-04-19T08:30:49.88Z</time></trkpt><trkpt lat="41.9817483" lon="13.0016217"><ele>655.0</ele><time>2026-04-19T08:30:51.838Z</time></trkpt><trkpt lat="41.98188" lon="13.0015683"><ele>655.0</ele><time>2026-04-19T08:30:52.831Z</time></trkpt><trkpt lat="41.982" lon="13.0015133"><ele>655.0</ele><time>2026-04-19T08:30:53.832Z</time></trkpt><trkpt lat="41.9821167" lon="13.0014533"><ele>655.0</ele><time>2026-04-19T08:30:54.83Z</time></trkpt><trkpt lat="41.9822383" lon="13.0013833"><ele>655.0</ele><time>2026-04-19T08:30:55.891Z</time></trkpt><trkpt lat="41.982345" lon="13.0013083"><ele>655.0</ele><time>2026-04-19T08:30:56.832Z</time></trkpt><trkpt lat="41.9824383" lon="13.0012233"><ele>655.0</ele><time>2026-04-19T08:30:57.832Z</time></trkpt><trkpt lat="41.9825133" lon="13.001135"><ele>655.0</ele><time>2026-04-19T08:30:58.83Z</time></trkpt><trkpt lat="41.9825683" lon="13.0010467"><ele>655.0</ele><time>2026-04-19T08:30:59.828Z</time></trkpt><trkpt lat="41.9826083" lon="13.0009467"><ele>656.3333333333334</ele><time>2026-04-19T08:31:00.836Z</time></trkpt><trkpt lat="41.9826417" lon="13.0008367"><ele>657.6666666666667</ele><time>2026-04-19T08:31:01.888Z</time></trkpt><trkpt lat="41.982665" lon="13.0007233"><ele>659.0</ele><time>2026-04-19T08:31:02.829Z</time></trkpt><trkpt lat="41.98268" lon="13.0006183"><ele>660.3333333333334</ele><time>2026-04-19T08:31:03.833Z</time></trkpt><trkpt lat="41.9826933" lon="13.0005267"><ele>661.6666666666666</ele><time>2026-04-19T08:31:04.831Z</time></trkpt><trkpt lat="41.982715" lon="13.00044"><ele>663.0</ele><time>2026-04-19T08:31:05.828Z</time></trkpt><trkpt lat="41.9828033" lon="13.00036"><ele>663.0</ele><time>2026-04-19T08:31:07.889Z</time></trkpt><trkpt lat="41.98287" lon="13.00036"><ele>663.0</ele><time>2026-04-19T08:31:08.826Z</time></trkpt><trkpt lat="41.9829583" lon="13.0003767"><ele>663.0</ele><time>2026-04-19T08:31:09.84Z</time></trkpt><trkpt lat="41.9830483" lon="13.0003783"><ele>663.0</ele><time>2026-04-19T08:31:10.824Z</time></trkpt><trkpt lat="41.9832717" lon="13.00032"><ele>659.2</ele><time>2026-04-19T08:31:12.833Z</time></trkpt><trkpt lat="41.983385" lon="13.00026"><ele>655.4</ele><time>2026-04-19T08:31:13.883Z</time></trkpt><trkpt lat="41.9834917" lon="13.0002117"><ele>651.6</ele><time>2026-04-19T08:31:14.834Z</time></trkpt><trkpt lat="41.9835867" lon="13.0001633"><ele>647.8000000000001</ele><time>2026-04-19T08:31:15.834Z</time></trkpt><trkpt lat="41.9836717" lon="13.000105"><ele>644.0</ele><time>2026-04-19T08:31:16.833Z</time></trkpt><trkpt lat="41.9837483" lon="13.0000417"><ele>644.0</ele><time>2026-04-19T08:31:17.828Z</time></trkpt><trkpt lat="41.9838233" lon="12.9999833"><ele>644.0</ele><time>2026-04-19T08:31:18.83Z</time></trkpt><trkpt lat="41.98389" lon="12.9999267"><ele>644.0</ele><time>2026-04-19T08:31:19.88Z</time></trkpt><trkpt lat="41.983945" lon="12.9998667"><ele>644.0</ele><time>2026-04-19T08:31:20.829Z</time></trkpt><trkpt lat="41.9840267" lon="12.99976"><ele>644.0</ele><time>2026-04-19T08:31:22.828Z</time></trkpt><trkpt lat="41.9841" lon="12.9996"><ele>644.0</ele><time>2026-04-19T08:31:32.834Z</time></trkpt><trkpt lat="41.9841133" lon="12.9993533"><ele>644.0</ele><time>2026-04-19T08:31:36.834Z</time></trkpt><trkpt lat="41.9841217" lon="12.9992683"><ele>644.0</ele><time>2026-04-19T08:31:37.888Z</time></trkpt><trkpt lat="41.98413" lon="12.9991817"><ele>644.0</ele><time>2026-04-19T08:31:38.83Z</time></trkpt><trkpt lat="41.9841533" lon="12.9990467"><ele>644.0</ele><time>2026-04-19T08:31:40.83Z</time></trkpt><trkpt lat="41.984185" lon="12.9989217"><ele>643.3333333333333</ele><time>2026-04-19T08:31:42.836Z</time></trkpt><trkpt lat="41.9841817" lon="12.99882"><ele>642.6666666666666</ele><time>2026-04-19T08:31:44.828Z</time></trkpt><trkpt lat="41.98418" lon="12.9987133"><ele>642.0</ele><time>2026-04-19T08:31:47.832Z</time></trkpt><trkpt lat="41.984215" lon="12.9986317"><ele>641.3333333333334</ele><time>2026-04-19T08:31:53.831Z</time></trkpt><trkpt lat="41.9843417" lon="12.9985433"><ele>640.6666666666667</ele><time>2026-04-19T08:31:58.831Z</time></trkpt><trkpt lat="41.9844017" lon="12.9984717"><ele>640.0</ele><time>2026-04-19T08:32:00.831Z</time></trkpt><trkpt lat="41.984445" lon="12.9983883"><ele>640.1666666666667</ele><time>2026-04-19T08:32:02.831Z</time></trkpt><trkpt lat="41.984515" lon="12.9983217"><ele>640.3333333333334</ele><time>2026-04-19T08:32:04.834Z</time></trkpt><trkpt lat="41.9845883" lon="12.9982983"><ele>640.5</ele><time>2026-04-19T08:32:06.837Z</time></trkpt><trkpt lat="41.9846733" lon="12.9983117"><ele>640.6666666666666</ele><time>2026-04-19T08:32:08.832Z</time></trkpt><trkpt lat="41.9847417" lon="12.9982783"><ele>640.8333333333333</ele><time>2026-04-19T08:32:10.841Z</time></trkpt><trkpt lat="41.9847967" lon="12.99823"><ele>641.0</ele><time>2026-04-19T08:32:12.835Z</time></trkpt><trkpt lat="41.9848583" lon="12.9981583"><ele>641.0</ele><time>2026-04-19T08:32:15.833Z</time></trkpt><trkpt lat="41.984855" lon="12.9979017"><ele>641.0</ele><time>2026-04-19T08:32:39.839Z</time></trkpt><trkpt lat="41.9848917" lon="12.9977267"><ele>641.0</ele><time>2026-04-19T08:32:41.841Z</time></trkpt><trkpt lat="41.9848983" lon="12.9976183"><ele>641.0</ele><time>2026-04-19T08:32:42.827Z</time></trkpt><trkpt lat="41.9848817" lon="12.997505"><ele>641.1666666666666</ele><time>2026-04-19T08:32:43.886Z</time></trkpt><trkpt lat="41.9848517" lon="12.9973867"><ele>641.3333333333333</ele><time>2026-04-19T08:32:44.831Z</time></trkpt><trkpt lat="41.984815" lon="12.9972783"><ele>641.5</ele><time>2026-04-19T08:32:45.83Z</time></trkpt><trkpt lat="41.9847817" lon="12.9971867"><ele>641.6666666666666</ele><time>2026-04-19T08:32:46.827Z</time></trkpt><trkpt lat="41.9847433" lon="12.99711"><ele>641.8333333333334</ele><time>2026-04-19T08:32:47.832Z</time></trkpt><trkpt lat="41.9846683" lon="12.9970033"><ele>642.0</ele><time>2026-04-19T08:32:49.884Z</time></trkpt><trkpt lat="41.9846083" lon="12.9968883"><ele>642.0</ele><time>2026-04-19T08:32:51.83Z</time></trkpt><trkpt lat="41.9845467" lon="12.9967883"><ele>642.0</ele><time>2026-04-19T08:32:53.834Z</time></trkpt><trkpt lat="41.9845317" lon="12.9966967"><ele>642.0</ele><time>2026-04-19T08:32:55.884Z</time></trkpt><trkpt lat="41.984565" lon="12.9965983"><ele>642.0</ele><time>2026-04-19T08:32:57.835Z</time></trkpt><trkpt lat="41.9846033" lon="12.9964883"><ele>642.0</ele><time>2026-04-19T08:32:59.836Z</time></trkpt><trkpt lat="41.98464" lon="12.996375"><ele>642.0</ele><time>2026-04-19T08:33:01.886Z</time></trkpt><trkpt lat="41.9847383" lon="12.9961667"><ele>642.5</ele><time>2026-04-19T08:33:04.828Z</time></trkpt><trkpt lat="41.9847767" lon="12.99608"><ele>643.0</ele><time>2026-04-19T08:33:05.836Z</time></trkpt><trkpt lat="41.9848183" lon="12.9960033"><ele>643.5</ele><time>2026-04-19T08:33:06.829Z</time></trkpt><trkpt lat="41.9849233" lon="12.99591"><ele>644.0</ele><time>2026-04-19T08:33:08.833Z</time></trkpt><trkpt lat="41.9849883" lon="12.9958717"><ele>644.5</ele><time>2026-04-19T08:33:09.837Z</time></trkpt><trkpt lat="41.985085" lon="12.9958183"><ele>645.0</ele><time>2026-04-19T08:33:11.833Z</time></trkpt><trkpt lat="41.985135" lon="12.995735"><ele>645.0</ele><time>2026-04-19T08:33:14.833Z</time></trkpt><trkpt lat="41.9851467" lon="12.99565"><ele>645.0</ele><time>2026-04-19T08:33:16.832Z</time></trkpt><trkpt lat="41.9851217" lon="12.9955117"><ele>645.0</ele><time>2026-04-19T08:33:18.832Z</time></trkpt><trkpt lat="41.98509" lon="12.9953917"><ele>645.0</ele><time>2026-04-19T08:33:20.83Z</time></trkpt><trkpt lat="41.9850533" lon="12.99528"><ele>645.0</ele><time>2026-04-19T08:33:22.835Z</time></trkpt><trkpt lat="41.9849633" lon="12.9950733"><ele>646.8333333333334</ele><time>2026-04-19T08:33:26.835Z</time></trkpt><trkpt lat="41.9849417" lon="12.9949683"><ele>648.6666666666666</ele><time>2026-04-19T08:33:28.831Z</time></trkpt><trkpt lat="41.984955" lon="12.9948367"><ele>650.5</ele><time>2026-04-19T08:33:30.831Z</time></trkpt><trkpt lat="41.98498" lon="12.99467"><ele>652.3333333333333</ele><time>2026-04-19T08:33:32.83Z</time></trkpt><trkpt lat="41.9850017" lon="12.9945767"><ele>654.1666666666666</ele><time>2026-04-19T08:33:33.829Z</time></trkpt><trkpt lat="41.9850183" lon="12.9944933"><ele>656.0</ele><time>2026-04-19T08:33:34.834Z</time></trkpt><trkpt lat="41.9850283" lon="12.9943483"><ele>656.0</ele><time>2026-04-19T08:33:36.843Z</time></trkpt><trkpt lat="41.985065" lon="12.9942267"><ele>656.0</ele><time>2026-04-19T08:33:38.827Z</time></trkpt><trkpt lat="41.985105" lon="12.99416"><ele>656.0</ele><time>2026-04-19T08:33:40.836Z</time></trkpt><trkpt lat="41.9851567" lon="12.9940783"><ele>656.0</ele><time>2026-04-19T08:33:43.888Z</time></trkpt><trkpt lat="41.9852533" lon="12.9939417"><ele>656.0</ele><time>2026-04-19T08:33:47.834Z</time></trkpt><trkpt lat="41.985315" lon="12.9938633"><ele>661.5999999999999</ele><time>2026-04-19T08:33:49.882Z</time></trkpt><trkpt lat="41.9853267" lon="12.9937217"><ele>667.2</ele><time>2026-04-19T08:34:07.885Z</time></trkpt><trkpt lat="41.9852283" lon="12.99355"><ele>672.8</ele><time>2026-04-19T08:34:13.883Z</time></trkpt><trkpt lat="41.9852483" lon="12.9934167"><ele>678.4000000000001</ele><time>2026-04-19T08:34:16.827Z</time></trkpt><trkpt lat="41.9853" lon="12.9933383"><ele>684.0</ele><time>2026-04-19T08:34:18.836Z</time></trkpt><trkpt lat="41.9853217" lon="12.9932583"><ele>691.75</ele><time>2026-04-19T08:39:52.824Z</time></trkpt><trkpt lat="41.9851367" lon="12.9930417"><ele>699.5</ele><time>2026-04-19T08:52:20.838Z</time></trkpt><trkpt lat="41.9850567" lon="12.9930767"><ele>707.25</ele><time>2026-04-19T08:52:22.833Z</time></trkpt><trkpt lat="41.9849883" lon="12.9930667"><ele>715.0</ele><time>2026-04-19T08:52:24.829Z</time></trkpt><trkpt lat="41.984925" lon="12.993065"><ele>715.0</ele><time>2026-04-19T08:52:27.836Z</time></trkpt><trkpt lat="41.984855" lon="12.9931333"><ele>715.0</ele><time>2026-04-19T08:52:30.835Z</time></trkpt><trkpt lat="41.9848117" lon="12.9932017"><ele>715.0</ele><time>2026-04-19T08:52:32.829Z</time></trkpt><trkpt lat="41.9847567" lon="12.99328"><ele>715.0</ele><time>2026-04-19T08:52:50.828Z</time></trkpt><trkpt lat="41.9846017" lon="12.9934533"><ele>715.0</ele><time>2026-04-19T08:53:13.882Z</time></trkpt><trkpt lat="41.9844433" lon="12.9934683"><ele>715.0</ele><time>2026-04-19T08:53:17.832Z</time></trkpt><trkpt lat="41.984365" lon="12.9934433"><ele>715.0</ele><time>2026-04-19T08:53:19.879Z</time></trkpt><trkpt lat="41.984285" lon="12.99334"><ele>715.0</ele><time>2026-04-19T08:54:07.884Z</time></trkpt><trkpt lat="41.9842383" lon="12.99309"><ele>715.0</ele><time>2026-04-19T08:54:19.886Z</time></trkpt><trkpt lat="41.9842183" lon="12.9929983"><ele>715.0</ele><time>2026-04-19T08:54:22.832Z</time></trkpt><trkpt lat="41.984195" lon="12.9928917"><ele>715.0</ele><time>2026-04-19T08:54:26.825Z</time></trkpt><trkpt lat="41.9841967" lon="12.9928017"><ele>715.0</ele><time>2026-04-19T08:54:29.833Z</time></trkpt><trkpt lat="41.98428" lon="12.99267"><ele>715.0</ele><time>2026-04-19T08:54:34.832Z</time></trkpt><trkpt lat="41.9843383" lon="12.992595"><ele>715.0</ele><time>2026-04-19T08:54:36.838Z</time></trkpt><trkpt lat="41.9844033" lon="12.992525"><ele>715.0</ele><time>2026-04-19T08:54:38.838Z</time></trkpt><trkpt lat="41.984475" lon="12.992485"><ele>714.8333333333334</ele><time>2026-04-19T08:54:41.836Z</time></trkpt><trkpt lat="41.98454" lon="12.9924733"><ele>714.6666666666667</ele><time>2026-04-19T08:54:43.876Z</time></trkpt><trkpt lat="41.9846067" lon="12.9924467"><ele>714.5</ele><time>2026-04-19T08:54:46.826Z</time></trkpt><trkpt lat="41.9846117" lon="12.9923483"><ele>714.3333333333334</ele><time>2026-04-19T08:54:50.834Z</time></trkpt><trkpt lat="41.98469" lon="12.9922"><ele>714.1666666666666</ele><time>2026-04-19T08:54:57.832Z</time></trkpt><trkpt lat="41.9847633" lon="12.9921533"><ele>714.0</ele><time>2026-04-19T08:55:01.887Z</time></trkpt><trkpt lat="41.9848533" lon="12.9922"><ele>714.0</ele><time>2026-04-19T08:55:30.839Z</time></trkpt><trkpt lat="41.9849833" lon="12.9921983"><ele>714.0</ele><time>2026-04-19T08:55:35.833Z</time></trkpt><trkpt lat="41.9850617" lon="12.9921933"><ele>714.0</ele><time>2026-04-19T08:55:40.834Z</time></trkpt><trkpt lat="41.98515" lon="12.9921933"><ele>714.0</ele><time>2026-04-19T08:55:44.834Z</time></trkpt><trkpt lat="41.985275" lon="12.9921867"><ele>714.0</ele><time>2026-04-19T08:55:46.834Z</time></trkpt><trkpt lat="41.9853817" lon="12.9921333"><ele>715.6</ele><time>2026-04-19T08:55:48.843Z</time></trkpt><trkpt lat="41.9854283" lon="12.9920433"><ele>717.2</ele><time>2026-04-19T08:55:50.832Z</time></trkpt><trkpt lat="41.9854567" lon="12.9919667"><ele>718.8000000000001</ele><time>2026-04-19T08:56:43.881Z</time></trkpt><trkpt lat="41.9854783" lon="12.9921383"><ele>720.4000000000001</ele><time>2026-04-19T08:56:57.83Z</time></trkpt><trkpt lat="41.9854183" lon="12.99206"><ele>722.0</ele><time>2026-04-19T08:57:02.831Z</time></trkpt><trkpt lat="41.9854017" lon="12.99188"><ele>720.2</ele><time>2026-04-19T08:57:04.841Z</time></trkpt><trkpt lat="41.9853783" lon="12.991655"><ele>718.4000000000001</ele><time>2026-04-19T08:57:08.832Z</time></trkpt><trkpt lat="41.9853733" lon="12.9915667"><ele>716.5999999999999</ele><time>2026-04-19T08:57:09.827Z</time></trkpt><trkpt lat="41.9853617" lon="12.99144"><ele>714.8</ele><time>2026-04-19T08:57:10.83Z</time></trkpt><trkpt lat="41.9853467" lon="12.9913333"><ele>713.0</ele><time>2026-04-19T08:57:11.827Z</time></trkpt><trkpt lat="41.985325" lon="12.9912267"><ele>713.0</ele><time>2026-04-19T08:57:13.882Z</time></trkpt><trkpt lat="41.9853133" lon="12.9913317"><ele>713.0</ele><time>2026-04-19T08:57:16.834Z</time></trkpt><trkpt lat="41.9853333" lon="12.9914483"><ele>713.0</ele><time>2026-04-19T08:57:18.832Z</time></trkpt><trkpt lat="41.9853483" lon="12.99159"><ele>713.0</ele><time>2026-04-19T08:57:20.833Z</time></trkpt><trkpt lat="41.985375" lon="12.9917167"><ele>713.0</ele><time>2026-04-19T08:57:22.833Z</time></trkpt><trkpt lat="41.9854017" lon="12.991865"><ele>715.25</ele><time>2026-04-19T08:57:24.835Z</time></trkpt><trkpt lat="41.9854267" lon="12.9919667"><ele>717.5</ele><time>2026-04-19T08:57:25.895Z</time></trkpt><trkpt lat="41.9854467" lon="12.9922233"><ele>719.75</ele><time>2026-04-19T08:57:28.833Z</time></trkpt><trkpt lat="41.98539" lon="12.9923317"><ele>722.0</ele><time>2026-04-19T08:57:30.833Z</time></trkpt><trkpt lat="41.985305" lon="12.9923767"><ele>722.0</ele><time>2026-04-19T08:57:32.83Z</time></trkpt><trkpt lat="41.9852533" lon="12.992305"><ele>722.0</ele><time>2026-04-19T08:57:35.836Z</time></trkpt><trkpt lat="41.9853267" lon="12.9922117"><ele>722.0</ele><time>2026-04-19T08:57:38.832Z</time></trkpt><trkpt lat="41.9853833" lon="12.99215"><ele>722.0</ele><time>2026-04-19T08:57:39.831Z</time></trkpt><trkpt lat="41.9854367" lon="12.9920933"><ele>722.0</ele><time>2026-04-19T08:57:40.831Z</time></trkpt><trkpt lat="41.9854917" lon="12.9920167"><ele>722.0</ele><time>2026-04-19T08:57:42.832Z</time></trkpt><trkpt lat="41.9854217" lon="12.9919717"><ele>719.75</ele><time>2026-04-19T08:59:28.831Z</time></trkpt><trkpt lat="41.9854467" lon="12.9916683"><ele>717.5</ele><time>2026-04-19T09:18:38.829Z</time></trkpt><trkpt lat="41.985455" lon="12.9915467"><ele>715.25</ele><time>2026-04-19T09:18:40.836Z</time></trkpt><trkpt lat="41.9854917" lon="12.9914467"><ele>713.0</ele><time>2026-04-19T09:18:42.836Z</time></trkpt><trkpt lat="41.9856017" lon="12.9914233"><ele>713.0</ele><time>2026-04-19T09:18:44.834Z</time></trkpt><trkpt lat="41.985705" lon="12.9913883"><ele>713.0</ele><time>2026-04-19T09:18:46.835Z</time></trkpt><trkpt lat="41.9858" lon="12.9912483"><ele>713.0</ele><time>2026-04-19T09:18:48.836Z</time></trkpt><trkpt lat="41.9858483" lon="12.9911567"><ele>713.0</ele><time>2026-04-19T09:18:49.902Z</time></trkpt><trkpt lat="41.9859017" lon="12.9910667"><ele>713.0</ele><time>2026-04-19T09:18:50.831Z</time></trkpt><trkpt lat="41.9859583" lon="12.99098"><ele>714.0</ele><time>2026-04-19T09:18:51.833Z</time></trkpt><trkpt lat="41.9860233" lon="12.9909033"><ele>715.0</ele><time>2026-04-19T09:18:52.832Z</time></trkpt><trkpt lat="41.98609" lon="12.99084"><ele>716.0</ele><time>2026-04-19T09:18:53.834Z</time></trkpt><trkpt lat="41.9861633" lon="12.9907933"><ele>717.0</ele><time>2026-04-19T09:18:54.827Z</time></trkpt><trkpt lat="41.9862333" lon="12.9907467"><ele>718.0</ele><time>2026-04-19T09:18:55.896Z</time></trkpt><trkpt lat="41.9863433" lon="12.9906233"><ele>718.0</ele><time>2026-04-19T09:18:57.828Z</time></trkpt><trkpt lat="41.9863917" lon="12.9905517"><ele>718.0</ele><time>2026-04-19T09:18:58.833Z</time></trkpt><trkpt lat="41.986435" lon="12.9904717"><ele>718.0</ele><time>2026-04-19T09:18:59.831Z</time></trkpt><trkpt lat="41.9864867" lon="12.9903783"><ele>718.0</ele><time>2026-04-19T09:19:00.835Z</time></trkpt><trkpt lat="41.9865467" lon="12.99029"><ele>718.0</ele><time>2026-04-19T09:19:01.891Z</time></trkpt><trkpt lat="41.9866083" lon="12.9902183"><ele>718.0</ele><time>2026-04-19T09:19:02.827Z</time></trkpt><trkpt lat="41.986675" lon="12.9901517"><ele>718.6666666666667</ele><time>2026-04-19T09:19:03.839Z</time></trkpt><trkpt lat="41.9867517" lon="12.99009"><ele>719.3333333333334</ele><time>2026-04-19T09:19:04.83Z</time></trkpt><trkpt lat="41.9868267" lon="12.9900267"><ele>720.0</ele><time>2026-04-19T09:19:05.831Z</time></trkpt><trkpt lat="41.98689" lon="12.9899733"><ele>720.6666666666666</ele><time>2026-04-19T09:19:06.834Z</time></trkpt><trkpt lat="41.98698" lon="12.989925"><ele>721.3333333333333</ele><time>2026-04-19T09:19:08.83Z</time></trkpt><trkpt lat="41.9870367" lon="12.9898717"><ele>722.0</ele><time>2026-04-19T09:19:12.83Z</time></trkpt><trkpt lat="41.987095" lon="12.989815"><ele>720.0</ele><time>2026-04-19T09:19:17.829Z</time></trkpt><trkpt lat="41.9871983" lon="12.9896617"><ele>718.0</ele><time>2026-04-19T09:19:21.828Z</time></trkpt><trkpt lat="41.9872683" lon="12.98959"><ele>716.0</ele><time>2026-04-19T09:19:23.832Z</time></trkpt><trkpt lat="41.9873283" lon="12.9895233"><ele>714.0</ele><time>2026-04-19T09:19:26.828Z</time></trkpt><trkpt lat="41.9873767" lon="12.989465"><ele>712.0</ele><time>2026-04-19T09:19:30.831Z</time></trkpt><trkpt lat="41.9874667" lon="12.9893117"><ele>712.2</ele><time>2026-04-19T09:19:42.833Z</time></trkpt><trkpt lat="41.987625" lon="12.989165"><ele>712.4000000000001</ele><time>2026-04-19T09:19:47.833Z</time></trkpt><trkpt lat="41.987695" lon="12.9890983"><ele>712.5999999999999</ele><time>2026-04-19T09:19:49.895Z</time></trkpt><trkpt lat="41.9877567" lon="12.9890417"><ele>712.8</ele><time>2026-04-19T09:19:51.834Z</time></trkpt><trkpt lat="41.9878217" lon="12.9889817"><ele>713.0</ele><time>2026-04-19T09:19:53.833Z</time></trkpt><trkpt lat="41.9879" lon="12.9889717"><ele>713.0</ele><time>2026-04-19T09:20:00.834Z</time></trkpt><trkpt lat="41.9879983" lon="12.9889717"><ele>713.0</ele><time>2026-04-19T09:20:05.833Z</time></trkpt><trkpt lat="41.988155" lon="12.9889383"><ele>713.0</ele><time>2026-04-19T09:20:09.83Z</time></trkpt><trkpt lat="41.9882183" lon="12.9888967"><ele>713.0</ele><time>2026-04-19T09:20:12.837Z</time></trkpt><trkpt lat="41.9882617" lon="12.98881"><ele>713.0</ele><time>2026-04-19T09:20:16.832Z</time></trkpt><trkpt lat="41.9883167" lon="12.988725"><ele>713.5</ele><time>2026-04-19T09:20:18.835Z</time></trkpt><trkpt lat="41.9883733" lon="12.9886683"><ele>714.0</ele><time>2026-04-19T09:20:20.83Z</time></trkpt><trkpt lat="41.9884217" lon="12.9885767"><ele>714.5</ele><time>2026-04-19T09:20:24.837Z</time></trkpt><trkpt lat="41.9884683" lon="12.988515"><ele>715.0</ele><time>2026-04-19T09:20:26.83Z</time></trkpt><trkpt lat="41.9885867" lon="12.9883883"><ele>715.5</ele><time>2026-04-19T09:20:31.891Z</time></trkpt><trkpt lat="41.9886383" lon="12.9883117"><ele>716.0</ele><time>2026-04-19T09:20:34.827Z</time></trkpt><trkpt lat="41.988675" lon="12.988215"><ele>716.0</ele><time>2026-04-19T09:20:37.896Z</time></trkpt><trkpt lat="41.9887083" lon="12.9881317"><ele>716.0</ele><time>2026-04-19T09:20:39.834Z</time></trkpt><trkpt lat="41.9887367" lon="12.9880417"><ele>716.0</ele><time>2026-04-19T09:20:41.838Z</time></trkpt><trkpt lat="41.9887833" lon="12.987975"><ele>716.0</ele><time>2026-04-19T09:20:43.888Z</time></trkpt><trkpt lat="41.988845" lon="12.9879367"><ele>716.0</ele><time>2026-04-19T09:20:45.839Z</time></trkpt><trkpt lat="41.9889117" lon="12.987895"><ele>716.0</ele><time>2026-04-19T09:20:47.834Z</time></trkpt><trkpt lat="41.9890367" lon="12.98778"><ele>716.0</ele><time>2026-04-19T09:20:53.839Z</time></trkpt><trkpt lat="41.989095" lon="12.98771"><ele>716.0</ele><time>2026-04-19T09:20:56.828Z</time></trkpt><trkpt lat="41.9891667" lon="12.9876367"><ele>716.0</ele><time>2026-04-19T09:20:59.832Z</time></trkpt><trkpt lat="41.989235" lon="12.9875517"><ele>716.0</ele><time>2026-04-19T09:21:02.832Z</time></trkpt><trkpt lat="41.9892917" lon="12.9874817"><ele>716.0</ele><time>2026-04-19T09:21:05.837Z</time></trkpt><trkpt lat="41.98938" lon="12.9874517"><ele>716.0</ele><time>2026-04-19T09:21:10.834Z</time></trkpt><trkpt lat="41.98951" lon="12.9873783"><ele>720.0</ele><time>2026-04-19T09:21:17.83Z</time></trkpt><trkpt lat="41.9896567" lon="12.9872817"><ele>724.0</ele><time>2026-04-19T09:25:00.839Z</time></trkpt><trkpt lat="41.9897683" lon="12.9871083"><ele>728.0</ele><time>2026-04-19T09:25:06.838Z</time></trkpt><trkpt lat="41.9898133" lon="12.9870433"><ele>732.0</ele><time>2026-04-19T09:25:08.829Z</time></trkpt><trkpt lat="41.98989" lon="12.986975"><ele>732.0</ele><time>2026-04-19T09:25:10.836Z</time></trkpt><trkpt lat="41.9899583" lon="12.9869033"><ele>732.0</ele><time>2026-04-19T09:25:12.837Z</time></trkpt><trkpt lat="41.99001" lon="12.9868467"><ele>732.0</ele><time>2026-04-19T09:25:14.836Z</time></trkpt><trkpt lat="41.990085" lon="12.9868117"><ele>732.0</ele><time>2026-04-19T09:26:41.834Z</time></trkpt><trkpt lat="41.9901467" lon="12.98666"><ele>732.0</ele><time>2026-04-19T09:26:45.839Z</time></trkpt><trkpt lat="41.9901817" lon="12.9865817"><ele>732.0</ele><time>2026-04-19T09:26:48.837Z</time></trkpt><trkpt lat="41.99025" lon="12.986515"><ele>735.2</ele><time>2026-04-19T09:26:51.834Z</time></trkpt><trkpt lat="41.9903383" lon="12.9865083"><ele>738.4000000000001</ele><time>2026-04-19T09:26:53.832Z</time></trkpt><trkpt lat="41.9904533" lon="12.98649"><ele>741.5999999999999</ele><time>2026-04-19T09:26:55.883Z</time></trkpt><trkpt lat="41.9905167" lon="12.9864683"><ele>744.8</ele><time>2026-04-19T09:26:56.831Z</time></trkpt><trkpt lat="41.990625" lon="12.986445"><ele>748.0</ele><time>2026-04-19T09:26:58.833Z</time></trkpt><trkpt lat="41.9907017" lon="12.9863817"><ele>748.0</ele><time>2026-04-19T09:27:00.832Z</time></trkpt><trkpt lat="41.99073" lon="12.98626"><ele>748.0</ele><time>2026-04-19T09:27:02.832Z</time></trkpt><trkpt lat="41.9908417" lon="12.98611"><ele>748.0</ele><time>2026-04-19T09:27:06.828Z</time></trkpt><trkpt lat="41.9908533" lon="12.9859833"><ele>748.0</ele><time>2026-04-19T09:27:09.834Z</time></trkpt><trkpt lat="41.9908833" lon="12.9859067"><ele>748.0</ele><time>2026-04-19T09:27:11.835Z</time></trkpt><trkpt lat="41.9909717" lon="12.9858617"><ele>744.8333333333334</ele><time>2026-04-19T09:27:14.836Z</time></trkpt><trkpt lat="41.99105" lon="12.9858783"><ele>741.6666666666667</ele><time>2026-04-19T09:27:16.838Z</time></trkpt><trkpt lat="41.9911167" lon="12.98589"><ele>738.5</ele><time>2026-04-19T09:27:18.834Z</time></trkpt><trkpt lat="41.9911917" lon="12.9858983"><ele>735.3333333333334</ele><time>2026-04-19T09:27:20.828Z</time></trkpt><trkpt lat="41.9912717" lon="12.9859467"><ele>732.1666666666666</ele><time>2026-04-19T09:27:22.831Z</time></trkpt><trkpt lat="41.99135" lon="12.9860183"><ele>729.0</ele><time>2026-04-19T09:27:24.83Z</time></trkpt><trkpt lat="41.9914433" lon="12.9859133"><ele>728.3333333333334</ele><time>2026-04-19T09:27:30.832Z</time></trkpt><trkpt lat="41.9914933" lon="12.9858083"><ele>727.6666666666666</ele><time>2026-04-19T09:27:32.837Z</time></trkpt><trkpt lat="41.99156" lon="12.9857167"><ele>727.0</ele><time>2026-04-19T09:27:34.836Z</time></trkpt><trkpt lat="41.9916267" lon="12.985655"><ele>726.3333333333333</ele><time>2026-04-19T09:27:36.83Z</time></trkpt><trkpt lat="41.99169" lon="12.9856017"><ele>725.6666666666666</ele><time>2026-04-19T09:27:38.834Z</time></trkpt><trkpt lat="41.9917417" lon="12.985545"><ele>725.0</ele><time>2026-04-19T09:27:40.831Z</time></trkpt><trkpt lat="41.99181" lon="12.98549"><ele>725.0</ele><time>2026-04-19T09:27:43.88Z</time></trkpt><trkpt lat="41.991865" lon="12.9854083"><ele>725.0</ele><time>2026-04-19T09:27:45.833Z</time></trkpt><trkpt lat="41.9919967" lon="12.9851567"><ele>725.0</ele><time>2026-04-19T09:27:49.88Z</time></trkpt><trkpt lat="41.9920317" lon="12.9850817"><ele>725.0</ele><time>2026-04-19T09:27:51.835Z</time></trkpt><trkpt lat="41.9921183" lon="12.9850583"><ele>725.0</ele><time>2026-04-19T09:27:53.836Z</time></trkpt><trkpt lat="41.9922283" lon="12.9850783"><ele>725.0</ele><time>2026-04-19T09:27:55.896Z</time></trkpt><trkpt lat="41.9923383" lon="12.9850783"><ele>725.0</ele><time>2026-04-19T09:27:57.826Z</time></trkpt><trkpt lat="41.9924617" lon="12.9850517"><ele>725.0</ele><time>2026-04-19T09:27:59.831Z</time></trkpt><trkpt lat="41.992525" lon="12.98504"><ele>725.0</ele><time>2026-04-19T09:28:00.829Z</time></trkpt><trkpt lat="41.99264" lon="12.9850183"><ele>723.6</ele><time>2026-04-19T09:28:02.831Z</time></trkpt><trkpt lat="41.99272" lon="12.98493"><ele>722.2</ele><time>2026-04-19T09:28:04.83Z</time></trkpt><trkpt lat="41.992765" lon="12.98487"><ele>720.8</ele><time>2026-04-19T09:28:05.832Z</time></trkpt><trkpt lat="41.9928183" lon="12.984805"><ele>719.4</ele><time>2026-04-19T09:28:06.832Z</time></trkpt><trkpt lat="41.9929133" lon="12.9846783"><ele>718.0</ele><time>2026-04-19T09:28:08.833Z</time></trkpt><trkpt lat="41.99299" lon="12.9845817"><ele>718.0</ele><time>2026-04-19T09:28:10.828Z</time></trkpt><trkpt lat="41.9930567" lon="12.9844917"><ele>718.0</ele><time>2026-04-19T09:28:12.834Z</time></trkpt><trkpt lat="41.9931217" lon="12.9844583"><ele>718.0</ele><time>2026-04-19T09:28:14.829Z</time></trkpt><trkpt lat="41.99321" lon="12.9844883"><ele>718.0</ele><time>2026-04-19T09:28:16.83Z</time></trkpt><trkpt lat="41.99332" lon="12.9845617"><ele>718.0</ele><time>2026-04-19T09:28:18.834Z</time></trkpt><trkpt lat="41.9933867" lon="12.9845833"><ele>718.0</ele><time>2026-04-19T09:28:19.878Z</time></trkpt><trkpt lat="41.9934567" lon="12.9845983"><ele>715.3333333333334</ele><time>2026-04-19T09:28:20.827Z</time></trkpt><trkpt lat="41.9935233" lon="12.984595"><ele>712.6666666666667</ele><time>2026-04-19T09:28:21.833Z</time></trkpt><trkpt lat="41.9936267" lon="12.98451"><ele>710.0</ele><time>2026-04-19T09:28:23.834Z</time></trkpt><trkpt lat="41.9936683" lon="12.98443"><ele>707.3333333333334</ele><time>2026-04-19T09:28:24.836Z</time></trkpt><trkpt lat="41.99371" lon="12.984335"><ele>704.6666666666666</ele><time>2026-04-19T09:28:25.875Z</time></trkpt><trkpt lat="41.99375" lon="12.9842367"><ele>702.0</ele><time>2026-04-19T09:28:26.832Z</time></trkpt><trkpt lat="41.9937867" lon="12.9841333"><ele>702.0</ele><time>2026-04-19T09:28:27.835Z</time></trkpt><trkpt lat="41.993875" lon="12.9839433"><ele>702.0</ele><time>2026-04-19T09:28:29.828Z</time></trkpt><trkpt lat="41.9939283" lon="12.9838417"><ele>702.0</ele><time>2026-04-19T09:28:30.834Z</time></trkpt><trkpt lat="41.9939867" lon="12.9837333"><ele>702.0</ele><time>2026-04-19T09:28:31.884Z</time></trkpt><trkpt lat="41.99404" lon="12.9836267"><ele>702.0</ele><time>2026-04-19T09:28:32.829Z</time></trkpt><trkpt lat="41.9940917" lon="12.9835283"><ele>702.0</ele><time>2026-04-19T09:28:33.832Z</time></trkpt><trkpt lat="41.9941367" lon="12.98342"><ele>702.0</ele><time>2026-04-19T09:28:34.829Z</time></trkpt><trkpt lat="41.9941633" lon="12.9833017"><ele>702.0</ele><time>2026-04-19T09:28:35.836Z</time></trkpt><trkpt lat="41.99418" lon="12.98317"><ele>702.0</ele><time>2026-04-19T09:28:36.83Z</time></trkpt><trkpt lat="41.9941917" lon="12.98304"><ele>703.4000000000001</ele><time>2026-04-19T09:28:37.882Z</time></trkpt><trkpt lat="41.994195" lon="12.9829167"><ele>704.8000000000001</ele><time>2026-04-19T09:28:38.83Z</time></trkpt><trkpt lat="41.9942167" lon="12.9827967"><ele>706.2</ele><time>2026-04-19T09:28:39.833Z</time></trkpt><trkpt lat="41.99424" lon="12.98269"><ele>707.6</ele><time>2026-04-19T09:28:40.833Z</time></trkpt><trkpt lat="41.9942833" lon="12.9825767"><ele>709.0</ele><time>2026-04-19T09:28:41.831Z</time></trkpt><trkpt lat="41.9943467" lon="12.9824617"><ele>709.0</ele><time>2026-04-19T09:28:42.837Z</time></trkpt><trkpt lat="41.9944183" lon="12.9823667"><ele>709.0</ele><time>2026-04-19T09:28:43.88Z</time></trkpt><trkpt lat="41.9944867" lon="12.982295"><ele>709.0</ele><time>2026-04-19T09:28:44.836Z</time></trkpt><trkpt lat="41.99456" lon="12.9822567"><ele>709.0</ele><time>2026-04-19T09:28:45.835Z</time></trkpt><trkpt lat="41.9946483" lon="12.9822767"><ele>709.0</ele><time>2026-04-19T09:28:46.835Z</time></trkpt><trkpt lat="41.9947483" lon="12.9823117"><ele>709.0</ele><time>2026-04-19T09:28:47.832Z</time></trkpt><trkpt lat="41.994855" lon="12.9823533"><ele>709.0</ele><time>2026-04-19T09:28:48.838Z</time></trkpt><trkpt lat="41.9950417" lon="12.9823883"><ele>709.0</ele><time>2026-04-19T09:28:50.835Z</time></trkpt><trkpt lat="41.99512" lon="12.982365"><ele>709.0</ele><time>2026-04-19T09:28:51.836Z</time></trkpt><trkpt lat="41.99519" lon="12.9823133"><ele>706.5</ele><time>2026-04-19T09:28:52.833Z</time></trkpt><trkpt lat="41.995255" lon="12.9822333"><ele>704.0</ele><time>2026-04-19T09:28:53.836Z</time></trkpt><trkpt lat="41.99532" lon="12.9821567"><ele>701.5</ele><time>2026-04-19T09:28:54.833Z</time></trkpt><trkpt lat="41.9953883" lon="12.9820883"><ele>699.0</ele><time>2026-04-19T09:28:55.892Z</time></trkpt><trkpt lat="41.9954667" lon="12.9820283"><ele>696.5</ele><time>2026-04-19T09:28:56.832Z</time></trkpt><trkpt lat="41.99555" lon="12.9819667"><ele>694.0</ele><time>2026-04-19T09:28:57.832Z</time></trkpt><trkpt lat="41.9956333" lon="12.981915"><ele>694.0</ele><time>2026-04-19T09:28:58.832Z</time></trkpt><trkpt lat="41.99571" lon="12.9818833"><ele>694.0</ele><time>2026-04-19T09:28:59.828Z</time></trkpt><trkpt lat="41.9957883" lon="12.981865"><ele>694.0</ele><time>2026-04-19T09:29:00.834Z</time></trkpt><trkpt lat="41.9958717" lon="12.9818617"><ele>694.0</ele><time>2026-04-19T09:29:01.884Z</time></trkpt><trkpt lat="41.9959633" lon="12.9818667"><ele>694.0</ele><time>2026-04-19T09:29:02.828Z</time></trkpt><trkpt lat="41.9960533" lon="12.9818933"><ele>694.0</ele><time>2026-04-19T09:29:03.834Z</time></trkpt><trkpt lat="41.9961417" lon="12.98193"><ele>692.4000000000001</ele><time>2026-04-19T09:29:04.837Z</time></trkpt><trkpt lat="41.9962367" lon="12.9819617"><ele>690.8</ele><time>2026-04-19T09:29:05.831Z</time></trkpt><trkpt lat="41.9963367" lon="12.98199"><ele>689.2</ele><time>2026-04-19T09:29:06.84Z</time></trkpt><trkpt lat="41.9964383" lon="12.9820217"><ele>687.5999999999999</ele><time>2026-04-19T09:29:07.876Z</time></trkpt><trkpt lat="41.9965383" lon="12.9820567"><ele>686.0</ele><time>2026-04-19T09:29:08.83Z</time></trkpt><trkpt lat="41.9966367" lon="12.98209"><ele>685.5</ele><time>2026-04-19T09:29:09.829Z</time></trkpt><trkpt lat="41.996835" lon="12.9821217"><ele>685.0</ele><time>2026-04-19T09:29:11.832Z</time></trkpt><trkpt lat="41.9969317" lon="12.9821283"><ele>684.5</ele><time>2026-04-19T09:29:12.834Z</time></trkpt><trkpt lat="41.9970217" lon="12.9821483"><ele>684.0</ele><time>2026-04-19T09:29:13.878Z</time></trkpt><trkpt lat="41.9971017" lon="12.9821867"><ele>684.0</ele><time>2026-04-19T09:29:14.831Z</time></trkpt><trkpt lat="41.99719" lon="12.9822467"><ele>684.0</ele><time>2026-04-19T09:29:15.828Z</time></trkpt><trkpt lat="41.99729" lon="12.9823267"><ele>684.0</ele><time>2026-04-19T09:29:16.83Z</time></trkpt><trkpt lat="41.9973967" lon="12.982405"><ele>684.0</ele><time>2026-04-19T09:29:17.831Z</time></trkpt><trkpt lat="41.9975033" lon="12.9824683"><ele>680.8000000000001</ele><time>2026-04-19T09:29:18.835Z</time></trkpt><trkpt lat="41.997605" lon="12.9825017"><ele>677.6</ele><time>2026-04-19T09:29:19.869Z</time></trkpt><trkpt lat="41.9976917" lon="12.9824967"><ele>674.4</ele><time>2026-04-19T09:29:20.829Z</time></trkpt><trkpt lat="41.99777" lon="12.9824567"><ele>671.2</ele><time>2026-04-19T09:29:21.833Z</time></trkpt><trkpt lat="41.997845" lon="12.982375"><ele>668.0</ele><time>2026-04-19T09:29:22.827Z</time></trkpt><trkpt lat="41.9979183" lon="12.9822617"><ele>668.0</ele><time>2026-04-19T09:29:23.833Z</time></trkpt><trkpt lat="41.9979883" lon="12.982125"><ele>668.0</ele><time>2026-04-19T09:29:24.838Z</time></trkpt><trkpt lat="41.998055" lon="12.9819717"><ele>668.0</ele><time>2026-04-19T09:29:25.897Z</time></trkpt><trkpt lat="41.9981133" lon="12.98183"><ele>668.0</ele><time>2026-04-19T09:29:26.836Z</time></trkpt><trkpt lat="41.9981567" lon="12.9816983"><ele>670.0</ele><time>2026-04-19T09:29:27.84Z</time></trkpt><trkpt lat="41.9982" lon="12.981575"><ele>672.0</ele><time>2026-04-19T09:29:28.836Z</time></trkpt><trkpt lat="41.998245" lon="12.9814667"><ele>674.0</ele><time>2026-04-19T09:29:29.834Z</time></trkpt><trkpt lat="41.998295" lon="12.9813817"><ele>676.0</ele><time>2026-04-19T09:29:30.828Z</time></trkpt><trkpt lat="41.9984767" lon="12.9812983"><ele>675.8</ele><time>2026-04-19T09:29:33.824Z</time></trkpt><trkpt lat="41.9985583" lon="12.9813467"><ele>675.5999999999999</ele><time>2026-04-19T09:29:34.83Z</time></trkpt><trkpt lat="41.99864" lon="12.981425"><ele>675.4</ele><time>2026-04-19T09:29:35.829Z</time></trkpt><trkpt lat="41.9987167" lon="12.98153"><ele>675.2</ele><time>2026-04-19T09:29:36.828Z</time></trkpt><trkpt lat="41.9987683" lon="12.9816583"><ele>675.0</ele><time>2026-04-19T09:29:37.881Z</time></trkpt><trkpt lat="41.9988033" lon="12.981795"><ele>675.0</ele><time>2026-04-19T09:29:38.834Z</time></trkpt><trkpt lat="41.99884" lon="12.9819467"><ele>675.0</ele><time>2026-04-19T09:29:39.828Z</time></trkpt><trkpt lat="41.9988817" lon="12.9821167"><ele>675.0</ele><time>2026-04-19T09:29:40.829Z</time></trkpt><trkpt lat="41.998935" lon="12.9822717"><ele>675.0</ele><time>2026-04-19T09:29:41.835Z</time></trkpt><trkpt lat="41.9989967" lon="12.9824067"><ele>671.75</ele><time>2026-04-19T09:29:42.831Z</time></trkpt><trkpt lat="41.9990633" lon="12.98254"><ele>668.5</ele><time>2026-04-19T09:29:43.878Z</time></trkpt><trkpt lat="41.9991383" lon="12.9826833"><ele>665.25</ele><time>2026-04-19T09:29:44.832Z</time></trkpt><trkpt lat="41.999215" lon="12.9828283"><ele>662.0</ele><time>2026-04-19T09:29:45.829Z</time></trkpt><trkpt lat="41.9992883" lon="12.9829717"><ele>665.5</ele><time>2026-04-19T09:29:46.831Z</time></trkpt><trkpt lat="41.999355" lon="12.98311"><ele>669.0</ele><time>2026-04-19T09:29:47.835Z</time></trkpt><trkpt lat="41.9994083" lon="12.9832533"><ele>672.5</ele><time>2026-04-19T09:29:48.831Z</time></trkpt><trkpt lat="41.9994567" lon="12.9834017"><ele>676.0</ele><time>2026-04-19T09:29:49.88Z</time></trkpt><trkpt lat="41.9995083" lon="12.9835583"><ele>676.0</ele><time>2026-04-19T09:29:50.833Z</time></trkpt><trkpt lat="41.99956" lon="12.983715"><ele>676.0</ele><time>2026-04-19T09:29:51.828Z</time></trkpt><trkpt lat="41.99965" lon="12.98401"><ele>676.0</ele><time>2026-04-19T09:29:53.83Z</time></trkpt><trkpt lat="41.999685" lon="12.98415"><ele>673.4</ele><time>2026-04-19T09:29:54.837Z</time></trkpt><trkpt lat="41.9997217" lon="12.9842867"><ele>670.8</ele><time>2026-04-19T09:29:55.895Z</time></trkpt><trkpt lat="41.99976" lon="12.9844133"><ele>668.1999999999999</ele><time>2026-04-19T09:29:56.828Z</time></trkpt><trkpt lat="41.9997983" lon="12.9845383"><ele>665.5999999999999</ele><time>2026-04-19T09:29:57.838Z</time></trkpt><trkpt lat="41.9998283" lon="12.9846617"><ele>663.0</ele><time>2026-04-19T09:29:58.829Z</time></trkpt><trkpt lat="41.999855" lon="12.9847867"><ele>663.0</ele><time>2026-04-19T09:29:59.832Z</time></trkpt><trkpt lat="41.9998817" lon="12.9848983"><ele>663.0</ele><time>2026-04-19T09:30:00.834Z</time></trkpt><trkpt lat="41.99991" lon="12.9849967"><ele>663.0</ele><time>2026-04-19T09:30:01.88Z</time></trkpt><trkpt lat="41.9999467" lon="12.9850733"><ele>663.0</ele><time>2026-04-19T09:30:02.827Z</time></trkpt><trkpt lat="41.9999967" lon="12.985125"><ele>663.0</ele><time>2026-04-19T09:30:03.831Z</time></trkpt><trkpt lat="42.000065" lon="12.985175"><ele>663.0</ele><time>2026-04-19T09:30:04.832Z</time></trkpt><trkpt lat="42.0001483" lon="12.9852167"><ele>660.25</ele><time>2026-04-19T09:30:05.83Z</time></trkpt><trkpt lat="42.00024" lon="12.9852617"><ele>657.5</ele><time>2026-04-19T09:30:06.832Z</time></trkpt><trkpt lat="42.0003417" lon="12.9853133"><ele>654.75</ele><time>2026-04-19T09:30:07.886Z</time></trkpt><trkpt lat="42.000465" lon="12.98536"><ele>652.0</ele><time>2026-04-19T09:30:08.827Z</time></trkpt><trkpt lat="42.0006033" lon="12.9854117"><ele>652.0</ele><time>2026-04-19T09:30:09.83Z</time></trkpt><trkpt lat="42.00074" lon="12.985465"><ele>652.0</ele><time>2026-04-19T09:30:10.83Z</time></trkpt><trkpt lat="42.0008667" lon="12.9855083"><ele>652.0</ele><time>2026-04-19T09:30:11.834Z</time></trkpt><trkpt lat="42.0009883" lon="12.9855417"><ele>652.0</ele><time>2026-04-19T09:30:12.829Z</time></trkpt><trkpt lat="42.0012117" lon="12.9855933"><ele>651.4000000000001</ele><time>2026-04-19T09:30:14.829Z</time></trkpt><trkpt lat="42.0013117" lon="12.9856283"><ele>650.8000000000001</ele><time>2026-04-19T09:30:15.829Z</time></trkpt><trkpt lat="42.001405" lon="12.9856717"><ele>650.2</ele><time>2026-04-19T09:30:16.831Z</time></trkpt><trkpt lat="42.0014983" lon="12.9857167"><ele>649.6</ele><time>2026-04-19T09:30:17.832Z</time></trkpt><trkpt lat="42.0015883" lon="12.9857717"><ele>649.0</ele><time>2026-04-19T09:30:18.829Z</time></trkpt><trkpt lat="42.0016783" lon="12.9858383"><ele>645.3333333333334</ele><time>2026-04-19T09:30:19.883Z</time></trkpt><trkpt lat="42.0017667" lon="12.9859083"><ele>641.6666666666667</ele><time>2026-04-19T09:30:20.828Z</time></trkpt><trkpt lat="42.001845" lon="12.98597"><ele>638.0</ele><time>2026-04-19T09:30:21.83Z</time></trkpt><trkpt lat="42.0019167" lon="12.98602"><ele>634.3333333333334</ele><time>2026-04-19T09:30:22.829Z</time></trkpt><trkpt lat="42.001975" lon="12.9860717"><ele>630.6666666666666</ele><time>2026-04-19T09:30:23.828Z</time></trkpt><trkpt lat="42.0020317" lon="12.986185"><ele>627.0</ele><time>2026-04-19T09:30:25.896Z</time></trkpt><trkpt lat="42.0019867" lon="12.98629"><ele>627.0</ele><time>2026-04-19T09:30:27.831Z</time></trkpt><trkpt lat="42.0019467" lon="12.9864083"><ele>627.0</ele><time>2026-04-19T09:30:29.828Z</time></trkpt><trkpt lat="42.0019933" lon="12.9865083"><ele>627.0</ele><time>2026-04-19T09:30:31.889Z</time></trkpt><trkpt lat="42.00209" lon="12.9865583"><ele>627.0</ele><time>2026-04-19T09:30:33.835Z</time></trkpt><trkpt lat="42.00224" lon="12.98665"><ele>624.0</ele><time>2026-04-19T09:30:37.878Z</time></trkpt><trkpt lat="42.0021933" lon="12.9867167"><ele>621.0</ele><time>2026-04-19T09:30:40.828Z</time></trkpt><trkpt lat="42.0021217" lon="12.986785"><ele>618.0</ele><time>2026-04-19T09:30:42.833Z</time></trkpt><trkpt lat="42.002125" lon="12.9868983"><ele>615.0</ele><time>2026-04-19T09:30:44.834Z</time></trkpt><trkpt lat="42.0022083" lon="12.98697"><ele>612.0</ele><time>2026-04-19T09:30:46.828Z</time></trkpt><trkpt lat="42.0022683" lon="12.9870717"><ele>609.0</ele><time>2026-04-19T09:30:48.834Z</time></trkpt><trkpt lat="42.0022467" lon="12.9872067"><ele>609.0</ele><time>2026-04-19T09:30:50.832Z</time></trkpt><trkpt lat="42.0022683" lon="12.9873733"><ele>609.0</ele><time>2026-04-19T09:30:52.828Z</time></trkpt><trkpt lat="42.0022833" lon="12.98746"><ele>609.0</ele><time>2026-04-19T09:30:53.831Z</time></trkpt><trkpt lat="42.00229" lon="12.98755"><ele>609.0</ele><time>2026-04-19T09:30:54.831Z</time></trkpt><trkpt lat="42.0023167" lon="12.9877283"><ele>609.0</ele><time>2026-04-19T09:30:56.828Z</time></trkpt><trkpt lat="42.00234" lon="12.9878133"><ele>608.0</ele><time>2026-04-19T09:30:57.836Z</time></trkpt><trkpt lat="42.0023683" lon="12.9878933"><ele>607.0</ele><time>2026-04-19T09:30:58.832Z</time></trkpt><trkpt lat="42.0023967" lon="12.9879717"><ele>606.0</ele><time>2026-04-19T09:30:59.832Z</time></trkpt><trkpt lat="42.0024533" lon="12.9881183"><ele>605.0</ele><time>2026-04-19T09:31:01.882Z</time></trkpt><trkpt lat="42.0025067" lon="12.98824"><ele>604.0</ele><time>2026-04-19T09:31:03.832Z</time></trkpt><trkpt lat="42.0025633" lon="12.9883483"><ele>602.5</ele><time>2026-04-19T09:31:05.831Z</time></trkpt><trkpt lat="42.0025883" lon="12.9884383"><ele>601.0</ele><time>2026-04-19T09:31:07.875Z</time></trkpt><trkpt lat="42.0026133" lon="12.98853"><ele>599.5</ele><time>2026-04-19T09:31:09.832Z</time></trkpt><trkpt lat="42.0026483" lon="12.98864"><ele>598.0</ele><time>2026-04-19T09:31:11.833Z</time></trkpt><trkpt lat="42.0026933" lon="12.988775"><ele>596.5</ele><time>2026-04-19T09:31:13.878Z</time></trkpt><trkpt lat="42.00272" lon="12.9888533"><ele>595.0</ele><time>2026-04-19T09:31:14.826Z</time></trkpt><trkpt lat="42.00275" lon="12.9889333"><ele>595.0</ele><time>2026-04-19T09:31:15.832Z</time></trkpt><trkpt lat="42.0028133" lon="12.98909"><ele>595.0</ele><time>2026-04-19T09:31:17.831Z</time></trkpt><trkpt lat="42.0028517" lon="12.989165"><ele>595.0</ele><time>2026-04-19T09:31:18.833Z</time></trkpt><trkpt lat="42.0028917" lon="12.9892333"><ele>595.0</ele><time>2026-04-19T09:31:19.879Z</time></trkpt><trkpt lat="42.0029667" lon="12.9893567"><ele>595.0</ele><time>2026-04-19T09:31:21.836Z</time></trkpt><trkpt lat="42.0030317" lon="12.9894667"><ele>593.5</ele><time>2026-04-19T09:31:23.833Z</time></trkpt><trkpt lat="42.0030967" lon="12.98953"><ele>592.0</ele><time>2026-04-19T09:31:25.895Z</time></trkpt><trkpt lat="42.0032033" lon="12.9895383"><ele>590.5</ele><time>2026-04-19T09:31:27.83Z</time></trkpt><trkpt lat="42.0032717" lon="12.9895383"><ele>589.0</ele><time>2026-04-19T09:31:28.834Z</time></trkpt><trkpt lat="42.003345" lon="12.9895483"><ele>587.5</ele><time>2026-04-19T09:31:29.831Z</time></trkpt><trkpt lat="42.003415" lon="12.9895633"><ele>586.0</ele><time>2026-04-19T09:31:30.842Z</time></trkpt><trkpt lat="42.003485" lon="12.98958"><ele>586.0</ele><time>2026-04-19T09:31:31.884Z</time></trkpt><trkpt lat="42.00355" lon="12.989595"><ele>586.0</ele><time>2026-04-19T09:31:32.834Z</time></trkpt><trkpt lat="42.0036667" lon="12.989625"><ele>586.0</ele><time>2026-04-19T09:31:34.833Z</time></trkpt><trkpt lat="42.0037733" lon="12.98965"><ele>586.0</ele><time>2026-04-19T09:31:36.83Z</time></trkpt><trkpt lat="42.0039733" lon="12.9897083"><ele>586.0</ele><time>2026-04-19T09:31:40.833Z</time></trkpt><trkpt lat="42.0040317" lon="12.9897517"><ele>586.0</ele><time>2026-04-19T09:31:41.831Z</time></trkpt><trkpt lat="42.0040833" lon="12.9898167"><ele>586.0</ele><time>2026-04-19T09:31:42.838Z</time></trkpt><trkpt lat="42.0041433" lon="12.9898867"><ele>586.0</ele><time>2026-04-19T09:31:43.877Z</time></trkpt><trkpt lat="42.0042033" lon="12.9899617"><ele>586.0</ele><time>2026-04-19T09:31:44.832Z</time></trkpt><trkpt lat="42.0042717" lon="12.9900317"><ele>586.0</ele><time>2026-04-19T09:31:45.833Z</time></trkpt><trkpt lat="42.00434" lon="12.9900917"><ele>583.5</ele><time>2026-04-19T09:31:46.835Z</time></trkpt><trkpt lat="42.00441" lon="12.9901483"><ele>581.0</ele><time>2026-04-19T09:31:47.833Z</time></trkpt><trkpt lat="42.00447" lon="12.9901983"><ele>578.5</ele><time>2026-04-19T09:31:48.831Z</time></trkpt><trkpt lat="42.00456" lon="12.9902517"><ele>576.0</ele><time>2026-04-19T09:31:50.828Z</time></trkpt><trkpt lat="42.0046233" lon="12.9902233"><ele>573.5</ele><time>2026-04-19T09:31:53.832Z</time></trkpt><trkpt lat="42.00461" lon="12.9901217"><ele>571.0</ele><time>2026-04-19T09:32:01.888Z</time></trkpt><trkpt lat="42.00461" lon="12.9899283"><ele>571.0</ele><time>2026-04-19T09:32:20.834Z</time></trkpt><trkpt lat="42.0046117" lon="12.9897833"><ele>571.0</ele><time>2026-04-19T09:32:22.828Z</time></trkpt><trkpt lat="42.0045983" lon="12.9896067"><ele>571.0</ele><time>2026-04-19T09:32:24.834Z</time></trkpt><trkpt lat="42.004575" lon="12.98951"><ele>571.0</ele><time>2026-04-19T09:32:25.895Z</time></trkpt><trkpt lat="42.0045367" lon="12.9894067"><ele>571.0</ele><time>2026-04-19T09:32:26.832Z</time></trkpt><trkpt lat="42.0044833" lon="12.9892833"><ele>571.25</ele><time>2026-04-19T09:32:27.836Z</time></trkpt><trkpt lat="42.0044183" lon="12.9891333"><ele>571.5</ele><time>2026-04-19T09:32:28.83Z</time></trkpt><trkpt lat="42.0043417" lon="12.9889667"><ele>571.75</ele><time>2026-04-19T09:32:29.832Z</time></trkpt><trkpt lat="42.0042633" lon="12.9888017"><ele>572.0</ele><time>2026-04-19T09:32:30.83Z</time></trkpt><trkpt lat="42.0042067" lon="12.9886667"><ele>575.2</ele><time>2026-04-19T09:32:31.883Z</time></trkpt><trkpt lat="42.0041467" lon="12.9885533"><ele>578.4000000000001</ele><time>2026-04-19T09:32:32.829Z</time></trkpt><trkpt lat="42.0040767" lon="12.98845"><ele>581.5999999999999</ele><time>2026-04-19T09:32:33.833Z</time></trkpt><trkpt lat="42.0040067" lon="12.9883533"><ele>584.8</ele><time>2026-04-19T09:32:34.836Z</time></trkpt><trkpt lat="42.0039367" lon="12.9882533"><ele>588.0</ele><time>2026-04-19T09:32:35.834Z</time></trkpt><trkpt lat="42.0038767" lon="12.9881517"><ele>588.0</ele><time>2026-04-19T09:32:36.839Z</time></trkpt><trkpt lat="42.00383" lon="12.9880483"><ele>588.0</ele><time>2026-04-19T09:32:37.881Z</time></trkpt><trkpt lat="42.0037967" lon="12.987945"><ele>588.0</ele><time>2026-04-19T09:32:38.83Z</time></trkpt><trkpt lat="42.0037983" lon="12.9878467"><ele>588.0</ele><time>2026-04-19T09:32:39.832Z</time></trkpt><trkpt lat="42.0038367" lon="12.9877533"><ele>588.0</ele><time>2026-04-19T09:32:40.832Z</time></trkpt><trkpt lat="42.0039517" lon="12.9876483"><ele>588.0</ele><time>2026-04-19T09:32:41.825Z</time></trkpt><trkpt lat="42.00403" lon="12.9875383"><ele>588.0</ele><time>2026-04-19T09:32:42.839Z</time></trkpt><trkpt lat="42.0040783" lon="12.98742"><ele>588.0</ele><time>2026-04-19T09:32:43.877Z</time></trkpt><trkpt lat="42.0041417" lon="12.9871617"><ele>588.0</ele><time>2026-04-19T09:32:45.832Z</time></trkpt><trkpt lat="42.0041517" lon="12.9870267"><ele>588.4</ele><time>2026-04-19T09:32:46.833Z</time></trkpt><trkpt lat="42.0041583" lon="12.98689"><ele>588.8</ele><time>2026-04-19T09:32:47.829Z</time></trkpt><trkpt lat="42.0041667" lon="12.9867633"><ele>589.2</ele><time>2026-04-19T09:32:48.84Z</time></trkpt><trkpt lat="42.0041817" lon="12.986655"><ele>589.6</ele><time>2026-04-19T09:32:49.887Z</time></trkpt><trkpt lat="42.00421" lon="12.9865767"><ele>590.0</ele><time>2026-04-19T09:32:50.833Z</time></trkpt><trkpt lat="42.0043317" lon="12.986515"><ele>590.0</ele><time>2026-04-19T09:32:52.831Z</time></trkpt><trkpt lat="42.0044333" lon="12.9865233"><ele>590.0</ele><time>2026-04-19T09:32:53.831Z</time></trkpt><trkpt lat="42.0045333" lon="12.98652"><ele>590.0</ele><time>2026-04-19T09:32:54.832Z</time></trkpt><trkpt lat="42.0046217" lon="12.9865133"><ele>590.0</ele><time>2026-04-19T09:32:55.897Z</time></trkpt><trkpt lat="42.0047067" lon="12.9864933"><ele>590.0</ele><time>2026-04-19T09:32:56.824Z</time></trkpt><trkpt lat="42.004785" lon="12.9864617"><ele>590.0</ele><time>2026-04-19T09:32:57.838Z</time></trkpt><trkpt lat="42.004855" lon="12.9864167"><ele>590.0</ele><time>2026-04-19T09:32:58.833Z</time></trkpt><trkpt lat="42.0049233" lon="12.9863567"><ele>590.0</ele><time>2026-04-19T09:32:59.826Z</time></trkpt><trkpt lat="42.0049883" lon="12.98628"><ele>590.0</ele><time>2026-04-19T09:33:00.84Z</time></trkpt><trkpt lat="42.0050533" lon="12.9861867"><ele>590.0</ele><time>2026-04-19T09:33:01.884Z</time></trkpt><trkpt lat="42.0051267" lon="12.9860933"><ele>590.0</ele><time>2026-04-19T09:33:02.829Z</time></trkpt><trkpt lat="42.0052117" lon="12.9860017"><ele>590.0</ele><time>2026-04-19T09:33:03.834Z</time></trkpt><trkpt lat="42.0053017" lon="12.9859133"><ele>590.0</ele><time>2026-04-19T09:33:04.838Z</time></trkpt><trkpt lat="42.0054933" lon="12.9857817"><ele>590.0</ele><time>2026-04-19T09:33:06.836Z</time></trkpt><trkpt lat="42.0055933" lon="12.985735"><ele>590.0</ele><time>2026-04-19T09:33:07.874Z</time></trkpt><trkpt lat="42.005695" lon="12.985685"><ele>589.4</ele><time>2026-04-19T09:33:08.838Z</time></trkpt><trkpt lat="42.0057867" lon="12.9856217"><ele>588.8</ele><time>2026-04-19T09:33:09.835Z</time></trkpt><trkpt lat="42.0058783" lon="12.9855583"><ele>588.2</ele><time>2026-04-19T09:33:10.833Z</time></trkpt><trkpt lat="42.00596" lon="12.9854983"><ele>587.6</ele><time>2026-04-19T09:33:11.834Z</time></trkpt><trkpt lat="42.006035" lon="12.9854317"><ele>587.0</ele><time>2026-04-19T09:33:12.837Z</time></trkpt><trkpt lat="42.006095" lon="12.9853533"><ele>587.0</ele><time>2026-04-19T09:33:13.876Z</time></trkpt><trkpt lat="42.006135" lon="12.9852567"><ele>587.0</ele><time>2026-04-19T09:33:14.834Z</time></trkpt><trkpt lat="42.006155" lon="12.9851283"><ele>587.0</ele><time>2026-04-19T09:33:15.84Z</time></trkpt><trkpt lat="42.006165" lon="12.9849783"><ele>587.0</ele><time>2026-04-19T09:33:16.835Z</time></trkpt><trkpt lat="42.0061683" lon="12.9848283"><ele>587.0</ele><time>2026-04-19T09:33:17.832Z</time></trkpt><trkpt lat="42.00618" lon="12.9846817"><ele>590.6</ele><time>2026-04-19T09:33:18.825Z</time></trkpt><trkpt lat="42.0062017" lon="12.9845433"><ele>594.2</ele><time>2026-04-19T09:33:19.874Z</time></trkpt><trkpt lat="42.006225" lon="12.9844233"><ele>597.8</ele><time>2026-04-19T09:33:20.832Z</time></trkpt><trkpt lat="42.0062383" lon="12.984315"><ele>601.4</ele><time>2026-04-19T09:33:21.826Z</time></trkpt><trkpt lat="42.00624" lon="12.9842233"><ele>605.0</ele><time>2026-04-19T09:33:22.83Z</time></trkpt><trkpt lat="42.0061767" lon="12.9840783"><ele>606.5</ele><time>2026-04-19T09:33:24.83Z</time></trkpt><trkpt lat="42.0061467" lon="12.9840017"><ele>608.0</ele><time>2026-04-19T09:33:25.897Z</time></trkpt><trkpt lat="42.0061633" lon="12.9837883"><ele>609.5</ele><time>2026-04-19T09:33:28.835Z</time></trkpt><trkpt lat="42.006245" lon="12.9837017"><ele>611.0</ele><time>2026-04-19T09:33:29.832Z</time></trkpt><trkpt lat="42.0063433" lon="12.983605"><ele>611.0</ele><time>2026-04-19T09:33:30.836Z</time></trkpt><trkpt lat="42.0064267" lon="12.9835017"><ele>611.0</ele><time>2026-04-19T09:33:31.883Z</time></trkpt><trkpt lat="42.0064967" lon="12.9833983"><ele>611.0</ele><time>2026-04-19T09:33:32.824Z</time></trkpt><trkpt lat="42.00656" lon="12.9832983"><ele>611.0</ele><time>2026-04-19T09:33:33.836Z</time></trkpt><trkpt lat="42.006615" lon="12.9832033"><ele>611.0</ele><time>2026-04-19T09:33:34.832Z</time></trkpt><trkpt lat="42.0066683" lon="12.9831183"><ele>608.4</ele><time>2026-04-19T09:33:35.833Z</time></trkpt><trkpt lat="42.0067283" lon="12.983035"><ele>605.8</ele><time>2026-04-19T09:33:36.829Z</time></trkpt><trkpt lat="42.0067867" lon="12.9829533"><ele>603.1999999999999</ele><time>2026-04-19T09:33:37.877Z</time></trkpt><trkpt lat="42.00685" lon="12.9828683"><ele>600.6</ele><time>2026-04-19T09:33:38.829Z</time></trkpt><trkpt lat="42.0069183" lon="12.9827667"><ele>598.0</ele><time>2026-04-19T09:33:39.831Z</time></trkpt><trkpt lat="42.0069933" lon="12.9826533"><ele>598.0</ele><time>2026-04-19T09:33:40.829Z</time></trkpt><trkpt lat="42.0070717" lon="12.98254"><ele>598.0</ele><time>2026-04-19T09:33:41.831Z</time></trkpt><trkpt lat="42.00715" lon="12.98242"><ele>598.0</ele><time>2026-04-19T09:33:42.836Z</time></trkpt><trkpt lat="42.00722" lon="12.9823017"><ele>598.0</ele><time>2026-04-19T09:33:43.875Z</time></trkpt><trkpt lat="42.0072817" lon="12.98219"><ele>598.0</ele><time>2026-04-19T09:33:44.835Z</time></trkpt><trkpt lat="42.00734" lon="12.982075"><ele>598.0</ele><time>2026-04-19T09:33:45.835Z</time></trkpt><trkpt lat="42.0073933" lon="12.98195"><ele>598.0</ele><time>2026-04-19T09:33:46.828Z</time></trkpt><trkpt lat="42.0074733" lon="12.98168"><ele>598.0</ele><time>2026-04-19T09:33:48.832Z</time></trkpt><trkpt lat="42.0075017" lon="12.9815383"><ele>598.0</ele><time>2026-04-19T09:33:49.88Z</time></trkpt><trkpt lat="42.007525" lon="12.981385"><ele>598.0</ele><time>2026-04-19T09:33:50.834Z</time></trkpt><trkpt lat="42.0075517" lon="12.9812283"><ele>598.0</ele><time>2026-04-19T09:33:51.825Z</time></trkpt><trkpt lat="42.0075783" lon="12.981075"><ele>598.0</ele><time>2026-04-19T09:33:52.836Z</time></trkpt><trkpt lat="42.0076067" lon="12.9809317"><ele>598.0</ele><time>2026-04-19T09:33:53.83Z</time></trkpt><trkpt lat="42.007635" lon="12.9807933"><ele>598.4</ele><time>2026-04-19T09:33:54.838Z</time></trkpt><trkpt lat="42.0076433" lon="12.98066"><ele>598.8</ele><time>2026-04-19T09:33:55.899Z</time></trkpt><trkpt lat="42.007635" lon="12.9805317"><ele>599.2</ele><time>2026-04-19T09:33:56.831Z</time></trkpt><trkpt lat="42.0076183" lon="12.9803983"><ele>599.6</ele><time>2026-04-19T09:33:57.832Z</time></trkpt><trkpt lat="42.0076" lon="12.9802567"><ele>600.0</ele><time>2026-04-19T09:33:58.834Z</time></trkpt><trkpt lat="42.00758" lon="12.9801167"><ele>599.2</ele><time>2026-04-19T09:33:59.836Z</time></trkpt><trkpt lat="42.007555" lon="12.97999"><ele>598.4</ele><time>2026-04-19T09:34:00.836Z</time></trkpt><trkpt lat="42.00752" lon="12.9798717"><ele>597.6</ele><time>2026-04-19T09:34:01.882Z</time></trkpt><trkpt lat="42.0074733" lon="12.9797683"><ele>596.8</ele><time>2026-04-19T09:34:02.831Z</time></trkpt><trkpt lat="42.007425" lon="12.9796633"><ele>596.0</ele><time>2026-04-19T09:34:03.834Z</time></trkpt><trkpt lat="42.0073833" lon="12.97955"><ele>601.8</ele><time>2026-04-19T09:34:04.83Z</time></trkpt><trkpt lat="42.0073533" lon="12.9794233"><ele>607.6</ele><time>2026-04-19T09:34:05.831Z</time></trkpt><trkpt lat="42.0073167" lon="12.9793"><ele>613.4</ele><time>2026-04-19T09:34:06.832Z</time></trkpt><trkpt lat="42.0072767" lon="12.9791883"><ele>619.2</ele><time>2026-04-19T09:34:07.877Z</time></trkpt><trkpt lat="42.007225" lon="12.9789967"><ele>625.0</ele><time>2026-04-19T09:34:09.839Z</time></trkpt><trkpt lat="42.0072533" lon="12.9788567"><ele>625.0</ele><time>2026-04-19T09:34:11.831Z</time></trkpt><trkpt lat="42.00731" lon="12.9787817"><ele>625.0</ele><time>2026-04-19T09:34:12.829Z</time></trkpt><trkpt lat="42.0073983" lon="12.97869"><ele>625.0</ele><time>2026-04-19T09:34:13.879Z</time></trkpt><trkpt lat="42.0074917" lon="12.9786"><ele>625.0</ele><time>2026-04-19T09:34:14.837Z</time></trkpt><trkpt lat="42.0075917" lon="12.9785017"><ele>625.0</ele><time>2026-04-19T09:34:15.831Z</time></trkpt><trkpt lat="42.0076883" lon="12.9783983"><ele>620.2</ele><time>2026-04-19T09:34:16.835Z</time></trkpt><trkpt lat="42.0077683" lon="12.9782933"><ele>615.4</ele><time>2026-04-19T09:34:17.837Z</time></trkpt><trkpt lat="42.00783" lon="12.978185"><ele>610.6</ele><time>2026-04-19T09:34:18.83Z</time></trkpt><trkpt lat="42.00788" lon="12.9780733"><ele>605.8</ele><time>2026-04-19T09:34:19.879Z</time></trkpt><trkpt lat="42.0079283" lon="12.9779667"><ele>601.0</ele><time>2026-04-19T09:34:20.83Z</time></trkpt><trkpt lat="42.007975" lon="12.977865"><ele>601.0</ele><time>2026-04-19T09:34:21.83Z</time></trkpt><trkpt lat="42.0080167" lon="12.977775"><ele>601.0</ele><time>2026-04-19T09:34:22.831Z</time></trkpt><trkpt lat="42.0080567" lon="12.977695"><ele>601.0</ele><time>2026-04-19T09:34:23.829Z</time></trkpt><trkpt lat="42.0081183" lon="12.9775617"><ele>601.0</ele><time>2026-04-19T09:34:25.895Z</time></trkpt><trkpt lat="42.0081683" lon="12.9774533"><ele>601.0</ele><time>2026-04-19T09:34:27.83Z</time></trkpt><trkpt lat="42.008215" lon="12.97738"><ele>601.0</ele><time>2026-04-19T09:34:29.832Z</time></trkpt><trkpt lat="42.0083133" lon="12.97725"><ele>601.0</ele><time>2026-04-19T09:34:33.834Z</time></trkpt><trkpt lat="42.0083717" lon="12.9771933"><ele>601.0</ele><time>2026-04-19T09:34:35.828Z</time></trkpt><trkpt lat="42.0084433" lon="12.9771567"><ele>601.0</ele><time>2026-04-19T09:34:37.884Z</time></trkpt><trkpt lat="42.0085333" lon="12.9771167"><ele>601.0</ele><time>2026-04-19T09:34:40.835Z</time></trkpt><trkpt lat="42.0085983" lon="12.977055"><ele>601.0</ele><time>2026-04-19T09:34:42.83Z</time></trkpt><trkpt lat="42.00868" lon="12.9769417"><ele>601.0</ele><time>2026-04-19T09:34:44.833Z</time></trkpt><trkpt lat="42.0087333" lon="12.97688"><ele>601.0</ele><time>2026-04-19T09:34:45.828Z</time></trkpt><trkpt lat="42.0087983" lon="12.9768267"><ele>601.0</ele><time>2026-04-19T09:34:46.835Z</time></trkpt><trkpt lat="42.0088683" lon="12.9767917"><ele>601.0</ele><time>2026-04-19T09:34:47.837Z</time></trkpt><trkpt lat="42.0089467" lon="12.9767783"><ele>601.0</ele><time>2026-04-19T09:34:48.833Z</time></trkpt><trkpt lat="42.0090233" lon="12.9767833"><ele>601.0</ele><time>2026-04-19T09:34:49.878Z</time></trkpt><trkpt lat="42.0090983" lon="12.9768017"><ele>601.0</ele><time>2026-04-19T09:34:50.835Z</time></trkpt><trkpt lat="42.0092533" lon="12.9768933"><ele>600.4</ele><time>2026-04-19T09:34:52.832Z</time></trkpt><trkpt lat="42.0093333" lon="12.9769433"><ele>599.8</ele><time>2026-04-19T09:34:53.828Z</time></trkpt><trkpt lat="42.00942" lon="12.976985"><ele>599.1999999999999</ele><time>2026-04-19T09:34:54.834Z</time></trkpt><trkpt lat="42.0095167" lon="12.9770117"><ele>598.6</ele><time>2026-04-19T09:34:55.9Z</time></trkpt><trkpt lat="42.00962" lon="12.9770333"><ele>598.0</ele><time>2026-04-19T09:34:56.834Z</time></trkpt><trkpt lat="42.0097283" lon="12.977055"><ele>598.0</ele><time>2026-04-19T09:34:57.832Z</time></trkpt><trkpt lat="42.0098333" lon="12.97708"><ele>598.0</ele><time>2026-04-19T09:34:58.839Z</time></trkpt><trkpt lat="42.00994" lon="12.9771067"><ele>598.0</ele><time>2026-04-19T09:34:59.83Z</time></trkpt><trkpt lat="42.0100483" lon="12.97713"><ele>598.0</ele><time>2026-04-19T09:35:00.836Z</time></trkpt><trkpt lat="42.0101583" lon="12.9771433"><ele>598.0</ele><time>2026-04-19T09:35:01.882Z</time></trkpt><trkpt lat="42.0102717" lon="12.9771583"><ele>597.6</ele><time>2026-04-19T09:35:02.832Z</time></trkpt><trkpt lat="42.0103833" lon="12.977175"><ele>597.1999999999999</ele><time>2026-04-19T09:35:03.834Z</time></trkpt><trkpt lat="42.0104917" lon="12.9771933"><ele>596.8</ele><time>2026-04-19T09:35:04.83Z</time></trkpt><trkpt lat="42.0106067" lon="12.9772083"><ele>596.4</ele><time>2026-04-19T09:35:05.83Z</time></trkpt><trkpt lat="42.0107133" lon="12.9772067"><ele>596.0</ele><time>2026-04-19T09:35:06.834Z</time></trkpt><trkpt lat="42.0108217" lon="12.9772033"><ele>594.8</ele><time>2026-04-19T09:35:07.883Z</time></trkpt><trkpt lat="42.0109283" lon="12.9771833"><ele>593.6</ele><time>2026-04-19T09:35:08.833Z</time></trkpt><trkpt lat="42.011035" lon="12.9771633"><ele>592.4</ele><time>2026-04-19T09:35:09.836Z</time></trkpt><trkpt lat="42.01114" lon="12.977145"><ele>591.2</ele><time>2026-04-19T09:35:10.833Z</time></trkpt><trkpt lat="42.0112383" lon="12.9771367"><ele>590.0</ele><time>2026-04-19T09:35:11.826Z</time></trkpt><trkpt lat="42.01139" lon="12.97717"><ele>590.0</ele><time>2026-04-19T09:35:13.875Z</time></trkpt><trkpt lat="42.01146" lon="12.9772317"><ele>590.0</ele><time>2026-04-19T09:35:14.829Z</time></trkpt><trkpt lat="42.011535" lon="12.9773117"><ele>590.0</ele><time>2026-04-19T09:35:15.829Z</time></trkpt><trkpt lat="42.0116083" lon="12.9773833"><ele>590.0</ele><time>2026-04-19T09:35:16.83Z</time></trkpt><trkpt lat="42.011675" lon="12.9774333"><ele>590.0</ele><time>2026-04-19T09:35:17.835Z</time></trkpt><trkpt lat="42.011745" lon="12.9774583"><ele>590.0</ele><time>2026-04-19T09:35:18.838Z</time></trkpt><trkpt lat="42.0118167" lon="12.9774617"><ele>588.0</ele><time>2026-04-19T09:35:19.878Z</time></trkpt><trkpt lat="42.0118833" lon="12.977445"><ele>586.0</ele><time>2026-04-19T09:35:20.836Z</time></trkpt><trkpt lat="42.0119983" lon="12.9774367"><ele>584.0</ele><time>2026-04-19T09:35:22.834Z</time></trkpt><trkpt lat="42.0120917" lon="12.9775333"><ele>582.0</ele><time>2026-04-19T09:35:24.834Z</time></trkpt><trkpt lat="42.0121267" lon="12.9776133"><ele>580.0</ele><time>2026-04-19T09:35:25.886Z</time></trkpt><trkpt lat="42.01216" lon="12.9776933"><ele>578.0</ele><time>2026-04-19T09:35:26.836Z</time></trkpt><trkpt lat="42.0122383" lon="12.977775"><ele>576.4</ele><time>2026-04-19T09:35:28.83Z</time></trkpt><trkpt lat="42.0123033" lon="12.9777633"><ele>574.8</ele><time>2026-04-19T09:35:29.827Z</time></trkpt><trkpt lat="42.01238" lon="12.9777467"><ele>573.2</ele><time>2026-04-19T09:35:30.826Z</time></trkpt><trkpt lat="42.0124767" lon="12.9777317"><ele>571.6</ele><time>2026-04-19T09:35:31.893Z</time></trkpt><trkpt lat="42.0125717" lon="12.9777233"><ele>570.0</ele><time>2026-04-19T09:35:32.831Z</time></trkpt><trkpt lat="42.012735" lon="12.977695"><ele>569.8333333333334</ele><time>2026-04-19T09:35:35.834Z</time></trkpt><trkpt lat="42.0127917" lon="12.9776183"><ele>569.6666666666666</ele><time>2026-04-19T09:35:37.874Z</time></trkpt><trkpt lat="42.0128317" lon="12.9775517"><ele>569.5</ele><time>2026-04-19T09:35:38.833Z</time></trkpt><trkpt lat="42.012885" lon="12.977465"><ele>569.3333333333333</ele><time>2026-04-19T09:35:39.838Z</time></trkpt><trkpt lat="42.0129267" lon="12.9773567"><ele>569.1666666666666</ele><time>2026-04-19T09:35:40.831Z</time></trkpt><trkpt lat="42.0129583" lon="12.97724"><ele>569.0</ele><time>2026-04-19T09:35:41.832Z</time></trkpt><trkpt lat="42.012965" lon="12.9771167"><ele>569.0</ele><time>2026-04-19T09:35:42.84Z</time></trkpt><trkpt lat="42.0129483" lon="12.976985"><ele>569.0</ele><time>2026-04-19T09:35:43.883Z</time></trkpt><trkpt lat="42.0129183" lon="12.9768633"><ele>569.0</ele><time>2026-04-19T09:35:44.832Z</time></trkpt><trkpt lat="42.0128933" lon="12.9767433"><ele>569.0</ele><time>2026-04-19T09:35:45.84Z</time></trkpt><trkpt lat="42.0128833" lon="12.97665"><ele>569.0</ele><time>2026-04-19T09:35:46.834Z</time></trkpt><trkpt lat="42.012955" lon="12.9765683"><ele>569.6</ele><time>2026-04-19T09:35:48.828Z</time></trkpt><trkpt lat="42.01303" lon="12.976575"><ele>570.2</ele><time>2026-04-19T09:35:49.875Z</time></trkpt><trkpt lat="42.0131267" lon="12.9766083"><ele>570.8000000000001</ele><time>2026-04-19T09:35:50.828Z</time></trkpt><trkpt lat="42.0132383" lon="12.976655"><ele>571.4</ele><time>2026-04-19T09:35:51.837Z</time></trkpt><trkpt lat="42.0133683" lon="12.9767083"><ele>572.0</ele><time>2026-04-19T09:35:52.83Z</time></trkpt><trkpt lat="42.01349" lon="12.9767633"><ele>570.5</ele><time>2026-04-19T09:35:53.835Z</time></trkpt><trkpt lat="42.013675" lon="12.976905"><ele>569.0</ele><time>2026-04-19T09:35:55.858Z</time></trkpt><trkpt lat="42.0137617" lon="12.97698"><ele>567.5</ele><time>2026-04-19T09:35:56.843Z</time></trkpt><trkpt lat="42.0138533" lon="12.9770317"><ele>566.0</ele><time>2026-04-19T09:35:57.825Z</time></trkpt><trkpt lat="42.0139433" lon="12.9770617"><ele>566.0</ele><time>2026-04-19T09:35:58.829Z</time></trkpt><trkpt lat="42.014045" lon="12.977085"><ele>566.0</ele><time>2026-04-19T09:35:59.834Z</time></trkpt><trkpt lat="42.0141617" lon="12.9771017"><ele>566.0</ele><time>2026-04-19T09:36:00.834Z</time></trkpt><trkpt lat="42.0142817" lon="12.9771117"><ele>566.0</ele><time>2026-04-19T09:36:01.876Z</time></trkpt><trkpt lat="42.01439" lon="12.9771167"><ele>566.0</ele><time>2026-04-19T09:36:02.827Z</time></trkpt><trkpt lat="42.0144917" lon="12.9771033"><ele>563.2</ele><time>2026-04-19T09:36:03.83Z</time></trkpt><trkpt lat="42.0145883" lon="12.9770833"><ele>560.4000000000001</ele><time>2026-04-19T09:36:04.83Z</time></trkpt><trkpt lat="42.0146767" lon="12.9770517"><ele>557.6</ele><time>2026-04-19T09:36:05.83Z</time></trkpt><trkpt lat="42.0147567" lon="12.9770267"><ele>554.8000000000001</ele><time>2026-04-19T09:36:06.829Z</time></trkpt><trkpt lat="42.0148467" lon="12.97702"><ele>552.0</ele><time>2026-04-19T09:36:07.873Z</time></trkpt><trkpt lat="42.0149467" lon="12.9770183"><ele>548.6</ele><time>2026-04-19T09:36:08.83Z</time></trkpt><trkpt lat="42.0150517" lon="12.9770117"><ele>545.2</ele><time>2026-04-19T09:36:09.835Z</time></trkpt><trkpt lat="42.0151567" lon="12.9770067"><ele>541.8</ele><time>2026-04-19T09:36:10.83Z</time></trkpt><trkpt lat="42.0152733" lon="12.9770017"><ele>538.4</ele><time>2026-04-19T09:36:11.832Z</time></trkpt><trkpt lat="42.0153917" lon="12.9770033"><ele>535.0</ele><time>2026-04-19T09:36:12.834Z</time></trkpt><trkpt lat="42.0155" lon="12.9770217"><ele>535.0</ele><time>2026-04-19T09:36:13.881Z</time></trkpt><trkpt lat="42.0156133" lon="12.9770283"><ele>535.0</ele><time>2026-04-19T09:36:14.833Z</time></trkpt><trkpt lat="42.0158567" lon="12.9770017"><ele>535.0</ele><time>2026-04-19T09:36:16.836Z</time></trkpt><trkpt lat="42.0159917" lon="12.9769867"><ele>534.25</ele><time>2026-04-19T09:36:17.83Z</time></trkpt><trkpt lat="42.0161283" lon="12.9769733"><ele>533.5</ele><time>2026-04-19T09:36:18.831Z</time></trkpt><trkpt lat="42.016275" lon="12.9769783"><ele>532.75</ele><time>2026-04-19T09:36:19.876Z</time></trkpt><trkpt lat="42.0164267" lon="12.97698"><ele>532.0</ele><time>2026-04-19T09:36:20.833Z</time></trkpt><trkpt lat="42.01659" lon="12.9769883"><ele>530.5</ele><time>2026-04-19T09:36:21.832Z</time></trkpt><trkpt lat="42.016745" lon="12.9770017"><ele>529.0</ele><time>2026-04-19T09:36:22.83Z</time></trkpt><trkpt lat="42.0168883" lon="12.9769967"><ele>527.5</ele><time>2026-04-19T09:36:23.835Z</time></trkpt><trkpt lat="42.0170017" lon="12.9769767"><ele>526.0</ele><time>2026-04-19T09:36:24.83Z</time></trkpt><trkpt lat="42.0171117" lon="12.9769317"><ele>526.0</ele><time>2026-04-19T09:36:25.88Z</time></trkpt><trkpt lat="42.0172183" lon="12.976845"><ele>526.0</ele><time>2026-04-19T09:36:26.834Z</time></trkpt><trkpt lat="42.017335" lon="12.9767383"><ele>526.0</ele><time>2026-04-19T09:36:27.829Z</time></trkpt><trkpt lat="42.0174467" lon="12.9766233"><ele>526.0</ele><time>2026-04-19T09:36:28.83Z</time></trkpt><trkpt lat="42.0175483" lon="12.9765183"><ele>526.75</ele><time>2026-04-19T09:36:29.829Z</time></trkpt><trkpt lat="42.0176517" lon="12.9764183"><ele>527.5</ele><time>2026-04-19T09:36:30.83Z</time></trkpt><trkpt lat="42.0177517" lon="12.976325"><ele>528.25</ele><time>2026-04-19T09:36:31.888Z</time></trkpt><trkpt lat="42.0178517" lon="12.9762217"><ele>529.0</ele><time>2026-04-19T09:36:32.832Z</time></trkpt><trkpt lat="42.0179567" lon="12.9761233"><ele>529.0</ele><time>2026-04-19T09:36:33.836Z</time></trkpt><trkpt lat="42.0180683" lon="12.97604"><ele>529.0</ele><time>2026-04-19T09:36:34.836Z</time></trkpt><trkpt lat="42.0181783" lon="12.975965"><ele>529.0</ele><time>2026-04-19T09:36:35.828Z</time></trkpt><trkpt lat="42.01838" lon="12.9758333"><ele>527.4</ele><time>2026-04-19T09:36:37.879Z</time></trkpt><trkpt lat="42.018485" lon="12.9757833"><ele>525.8</ele><time>2026-04-19T09:36:38.833Z</time></trkpt><trkpt lat="42.018585" lon="12.97576"><ele>524.2</ele><time>2026-04-19T09:36:39.831Z</time></trkpt><trkpt lat="42.0186683" lon="12.9757483"><ele>522.6</ele><time>2026-04-19T09:36:40.833Z</time></trkpt><trkpt lat="42.0187433" lon="12.97573"><ele>521.0</ele><time>2026-04-19T09:36:41.839Z</time></trkpt><trkpt lat="42.0188467" lon="12.9756683"><ele>521.0</ele><time>2026-04-19T09:36:43.875Z</time></trkpt><trkpt lat="42.01891" lon="12.9756683"><ele>521.0</ele><time>2026-04-19T09:36:45.829Z</time></trkpt><trkpt lat="42.01891" lon="12.975775"><ele>521.0</ele><time>2026-04-19T09:36:47.828Z</time></trkpt><trkpt lat="42.0188733" lon="12.9759467"><ele>521.0</ele><time>2026-04-19T09:36:49.877Z</time></trkpt><trkpt lat="42.018865" lon="12.9760417"><ele>521.0</ele><time>2026-04-19T09:36:50.831Z</time></trkpt><trkpt lat="42.0188767" lon="12.9762033"><ele>518.6</ele><time>2026-04-19T09:36:52.832Z</time></trkpt><trkpt lat="42.0189233" lon="12.9762833"><ele>516.2</ele><time>2026-04-19T09:36:53.833Z</time></trkpt><trkpt lat="42.0189917" lon="12.9763483"><ele>513.8</ele><time>2026-04-19T09:36:54.832Z</time></trkpt><trkpt lat="42.0190667" lon="12.9763933"><ele>511.4</ele><time>2026-04-19T09:36:55.889Z</time></trkpt><trkpt lat="42.01914" lon="12.9764217"><ele>509.0</ele><time>2026-04-19T09:36:56.827Z</time></trkpt><trkpt lat="42.0192717" lon="12.9763933"><ele>505.2</ele><time>2026-04-19T09:36:58.83Z</time></trkpt><trkpt lat="42.0193233" lon="12.9763067"><ele>501.4</ele><time>2026-04-19T09:36:59.833Z</time></trkpt><trkpt lat="42.0193717" lon="12.9762117"><ele>497.6</ele><time>2026-04-19T09:37:00.829Z</time></trkpt><trkpt lat="42.019415" lon="12.9761367"><ele>493.8</ele><time>2026-04-19T09:37:01.882Z</time></trkpt><trkpt lat="42.0195133" lon="12.9760667"><ele>490.0</ele><time>2026-04-19T09:37:03.834Z</time></trkpt><trkpt lat="42.0196033" lon="12.9761867"><ele>490.0</ele><time>2026-04-19T09:37:05.831Z</time></trkpt><trkpt lat="42.01964" lon="12.976295"><ele>490.0</ele><time>2026-04-19T09:37:06.841Z</time></trkpt><trkpt lat="42.0196817" lon="12.9764467"><ele>490.0</ele><time>2026-04-19T09:37:07.875Z</time></trkpt><trkpt lat="42.0197333" lon="12.976615"><ele>490.0</ele><time>2026-04-19T09:37:08.844Z</time></trkpt><trkpt lat="42.019775" lon="12.9767683"><ele>490.4</ele><time>2026-04-19T09:37:09.829Z</time></trkpt><trkpt lat="42.0198" lon="12.9769133"><ele>490.8</ele><time>2026-04-19T09:37:10.831Z</time></trkpt><trkpt lat="42.019815" lon="12.97706"><ele>491.20000000000005</ele><time>2026-04-19T09:37:11.83Z</time></trkpt><trkpt lat="42.0198267" lon="12.9771967"><ele>491.6</ele><time>2026-04-19T09:37:12.832Z</time></trkpt><trkpt lat="42.01984" lon="12.9773117"><ele>492.0</ele><time>2026-04-19T09:37:13.881Z</time></trkpt><trkpt lat="42.0198517" lon="12.9774083"><ele>492.0</ele><time>2026-04-19T09:37:14.834Z</time></trkpt><trkpt lat="42.019865" lon="12.9775533"><ele>492.0</ele><time>2026-04-19T09:37:16.827Z</time></trkpt><trkpt lat="42.0199133" lon="12.977485"><ele>492.0</ele><time>2026-04-19T09:39:02.832Z</time></trkpt><trkpt lat="42.0199417" lon="12.977215"><ele>492.0</ele><time>2026-04-19T09:39:05.83Z</time></trkpt><trkpt lat="42.0199767" lon="12.977095"><ele>486.40000000000003</ele><time>2026-04-19T09:39:06.829Z</time></trkpt><trkpt lat="42.02003" lon="12.9769783"><ele>480.80000000000007</ele><time>2026-04-19T09:39:07.88Z</time></trkpt><trkpt lat="42.0200933" lon="12.9768483"><ele>475.2</ele><time>2026-04-19T09:39:08.831Z</time></trkpt><trkpt lat="42.0201467" lon="12.97672"><ele>469.6</ele><time>2026-04-19T09:39:09.831Z</time></trkpt><trkpt lat="42.0201917" lon="12.976595"><ele>464.0</ele><time>2026-04-19T09:39:10.833Z</time></trkpt><trkpt lat="42.0202317" lon="12.976475"><ele>464.0</ele><time>2026-04-19T09:39:11.839Z</time></trkpt><trkpt lat="42.0202583" lon="12.9763483"><ele>464.0</ele><time>2026-04-19T09:39:12.826Z</time></trkpt><trkpt lat="42.0202733" lon="12.976215"><ele>464.0</ele><time>2026-04-19T09:39:13.889Z</time></trkpt><trkpt lat="42.0202933" lon="12.9760817"><ele>464.0</ele><time>2026-04-19T09:39:14.833Z</time></trkpt><trkpt lat="42.020315" lon="12.9759583"><ele>464.0</ele><time>2026-04-19T09:39:15.834Z</time></trkpt><trkpt lat="42.0203483" lon="12.97585"><ele>464.3333333333333</ele><time>2026-04-19T09:39:16.835Z</time></trkpt><trkpt lat="42.0203833" lon="12.9757433"><ele>464.66666666666663</ele><time>2026-04-19T09:39:17.834Z</time></trkpt><trkpt lat="42.0204133" lon="12.9756333"><ele>465.0</ele><time>2026-04-19T09:39:18.835Z</time></trkpt><trkpt lat="42.0204317" lon="12.9755233"><ele>465.33333333333337</ele><time>2026-04-19T09:39:19.88Z</time></trkpt><trkpt lat="42.0204483" lon="12.9754267"><ele>465.6666666666667</ele><time>2026-04-19T09:39:20.829Z</time></trkpt><trkpt lat="42.0204717" lon="12.97534"><ele>466.0</ele><time>2026-04-19T09:39:21.833Z</time></trkpt><trkpt lat="42.0205467" lon="12.9752617"><ele>466.0</ele><time>2026-04-19T09:39:23.83Z</time></trkpt><trkpt lat="42.0207467" lon="12.9752183"><ele>466.0</ele><time>2026-04-19T09:39:26.831Z</time></trkpt><trkpt lat="42.0208267" lon="12.9751817"><ele>466.0</ele><time>2026-04-19T09:39:27.837Z</time></trkpt><trkpt lat="42.0209183" lon="12.9751417"><ele>466.0</ele><time>2026-04-19T09:39:28.83Z</time></trkpt><trkpt lat="42.0210183" lon="12.9751067"><ele>463.83333333333337</ele><time>2026-04-19T09:39:29.835Z</time></trkpt><trkpt lat="42.021105" lon="12.975085"><ele>461.6666666666667</ele><time>2026-04-19T09:39:30.832Z</time></trkpt><trkpt lat="42.0211883" lon="12.9750717"><ele>459.5</ele><time>2026-04-19T09:39:31.883Z</time></trkpt><trkpt lat="42.0212683" lon="12.9750767"><ele>457.33333333333337</ele><time>2026-04-19T09:39:32.828Z</time></trkpt><trkpt lat="42.0213417" lon="12.9751017"><ele>455.1666666666667</ele><time>2026-04-19T09:39:33.831Z</time></trkpt><trkpt lat="42.0214233" lon="12.9751517"><ele>453.0</ele><time>2026-04-19T09:39:34.831Z</time></trkpt><trkpt lat="42.0215183" lon="12.9752083"><ele>453.0</ele><time>2026-04-19T09:39:35.835Z</time></trkpt><trkpt lat="42.0216217" lon="12.97526"><ele>452.99999999999994</ele><time>2026-04-19T09:39:36.831Z</time></trkpt><trkpt lat="42.0217233" lon="12.9753083"><ele>452.99999999999994</ele><time>2026-04-19T09:39:37.883Z</time></trkpt><trkpt lat="42.0218217" lon="12.9753517"><ele>453.0</ele><time>2026-04-19T09:39:38.833Z</time></trkpt><trkpt lat="42.0219067" lon="12.975395"><ele>453.0</ele><time>2026-04-19T09:39:39.829Z</time></trkpt><trkpt lat="42.02198" lon="12.9754183"><ele>453.0</ele><time>2026-04-19T09:39:40.832Z</time></trkpt><trkpt lat="42.0220433" lon="12.9754183"><ele>453.0</ele><time>2026-04-19T09:39:41.826Z</time></trkpt><trkpt lat="42.0221533" lon="12.975345"><ele>453.0</ele><time>2026-04-19T09:39:43.879Z</time></trkpt><trkpt lat="42.022215" lon="12.975275"><ele>453.0</ele><time>2026-04-19T09:39:44.828Z</time></trkpt><trkpt lat="42.0223367" lon="12.9750783"><ele>459.2</ele><time>2026-04-19T09:39:46.831Z</time></trkpt><trkpt lat="42.02239" lon="12.9749517"><ele>465.4</ele><time>2026-04-19T09:39:47.831Z</time></trkpt><trkpt lat="42.02245" lon="12.9748333"><ele>471.59999999999997</ele><time>2026-04-19T09:39:48.828Z</time></trkpt><trkpt lat="42.0225233" lon="12.9747367"><ele>477.79999999999995</ele><time>2026-04-19T09:39:49.882Z</time></trkpt><trkpt lat="42.022605" lon="12.9746433"><ele>484.0</ele><time>2026-04-19T09:39:50.84Z</time></trkpt><trkpt lat="42.0227" lon="12.9745583"><ele>484.0</ele><time>2026-04-19T09:39:51.831Z</time></trkpt><trkpt lat="42.0228033" lon="12.9744983"><ele>484.0</ele><time>2026-04-19T09:39:52.831Z</time></trkpt><trkpt lat="42.0229217" lon="12.974505"><ele>484.0</ele><time>2026-04-19T09:39:53.832Z</time></trkpt><trkpt lat="42.0230333" lon="12.9745217"><ele>484.0</ele><time>2026-04-19T09:39:54.835Z</time></trkpt><trkpt lat="42.0231483" lon="12.974555"><ele>484.0</ele><time>2026-04-19T09:39:55.897Z</time></trkpt><trkpt lat="42.0232617" lon="12.97459"><ele>484.0</ele><time>2026-04-19T09:39:56.825Z</time></trkpt><trkpt lat="42.0233767" lon="12.9746267"><ele>484.0</ele><time>2026-04-19T09:39:57.832Z</time></trkpt><trkpt lat="42.0234867" lon="12.974655"><ele>484.0</ele><time>2026-04-19T09:39:58.833Z</time></trkpt><trkpt lat="42.023585" lon="12.97468"><ele>484.0</ele><time>2026-04-19T09:39:59.831Z</time></trkpt><trkpt lat="42.02368" lon="12.9746883"><ele>484.0</ele><time>2026-04-19T09:40:00.835Z</time></trkpt><trkpt lat="42.02376" lon="12.9746883"><ele>484.0</ele><time>2026-04-19T09:40:01.881Z</time></trkpt><trkpt lat="42.0238267" lon="12.9746683"><ele>484.0</ele><time>2026-04-19T09:40:02.829Z</time></trkpt><trkpt lat="42.023925" lon="12.974555"><ele>484.0</ele><time>2026-04-19T09:40:04.833Z</time></trkpt><trkpt lat="42.02397" lon="12.9744633"><ele>484.0</ele><time>2026-04-19T09:40:05.831Z</time></trkpt><trkpt lat="42.024045" lon="12.9742167"><ele>485.79999999999995</ele><time>2026-04-19T09:40:07.89Z</time></trkpt><trkpt lat="42.0240883" lon="12.97409"><ele>487.59999999999997</ele><time>2026-04-19T09:40:08.83Z</time></trkpt><trkpt lat="42.0241433" lon="12.97397"><ele>489.4</ele><time>2026-04-19T09:40:09.829Z</time></trkpt><trkpt lat="42.0241983" lon="12.97386"><ele>491.2</ele><time>2026-04-19T09:40:10.829Z</time></trkpt><trkpt lat="42.02424" lon="12.97374"><ele>493.0</ele><time>2026-04-19T09:40:11.834Z</time></trkpt><trkpt lat="42.0242767" lon="12.9736167"><ele>493.0</ele><time>2026-04-19T09:40:12.842Z</time></trkpt><trkpt lat="42.0243067" lon="12.9734817"><ele>492.99999999999994</ele><time>2026-04-19T09:40:13.89Z</time></trkpt><trkpt lat="42.0243333" lon="12.9733433"><ele>492.99999999999994</ele><time>2026-04-19T09:40:14.833Z</time></trkpt><trkpt lat="42.024365" lon="12.973205"><ele>493.0</ele><time>2026-04-19T09:40:15.837Z</time></trkpt><trkpt lat="42.0243967" lon="12.9730667"><ele>493.0</ele><time>2026-04-19T09:40:16.834Z</time></trkpt><trkpt lat="42.024425" lon="12.9729383"><ele>495.2</ele><time>2026-04-19T09:40:17.826Z</time></trkpt><trkpt lat="42.0244717" lon="12.9728367"><ele>497.4</ele><time>2026-04-19T09:40:18.825Z</time></trkpt><trkpt lat="42.0245333" lon="12.9727467"><ele>499.59999999999997</ele><time>2026-04-19T09:40:19.882Z</time></trkpt><trkpt lat="42.0246033" lon="12.9726667"><ele>501.79999999999995</ele><time>2026-04-19T09:40:20.835Z</time></trkpt><trkpt lat="42.0246817" lon="12.9726"><ele>504.0</ele><time>2026-04-19T09:40:21.838Z</time></trkpt><trkpt lat="42.0247617" lon="12.9725533"><ele>504.0</ele><time>2026-04-19T09:40:22.827Z</time></trkpt><trkpt lat="42.0248433" lon="12.9725317"><ele>504.0</ele><time>2026-04-19T09:40:23.834Z</time></trkpt><trkpt lat="42.0249233" lon="12.97254"><ele>504.0</ele><time>2026-04-19T09:40:24.832Z</time></trkpt><trkpt lat="42.0249967" lon="12.97255"><ele>504.0</ele><time>2026-04-19T09:40:25.899Z</time></trkpt><trkpt lat="42.0250917" lon="12.9725"><ele>504.0</ele><time>2026-04-19T09:40:27.825Z</time></trkpt><trkpt lat="42.025175" lon="12.9723567"><ele>499.6</ele><time>2026-04-19T09:40:29.832Z</time></trkpt><trkpt lat="42.02524" lon="12.9722967"><ele>495.2</ele><time>2026-04-19T09:40:30.837Z</time></trkpt><trkpt lat="42.0253283" lon="12.9722567"><ele>490.80000000000007</ele><time>2026-04-19T09:40:31.877Z</time></trkpt><trkpt lat="42.0254367" lon="12.972245"><ele>486.40000000000003</ele><time>2026-04-19T09:40:32.83Z</time></trkpt><trkpt lat="42.02555" lon="12.9722583"><ele>482.0</ele><time>2026-04-19T09:40:33.837Z</time></trkpt><trkpt lat="42.0256533" lon="12.9722683"><ele>481.99999999999994</ele><time>2026-04-19T09:40:34.837Z</time></trkpt><trkpt lat="42.0257433" lon="12.972275"><ele>482.0</ele><time>2026-04-19T09:40:35.83Z</time></trkpt><trkpt lat="42.02582" lon="12.9722583"><ele>482.0</ele><time>2026-04-19T09:40:36.826Z</time></trkpt><trkpt lat="42.02588" lon="12.9722167"><ele>482.0</ele><time>2026-04-19T09:40:37.88Z</time></trkpt><trkpt lat="42.0259317" lon="12.9721517"><ele>481.99999999999994</ele><time>2026-04-19T09:40:38.827Z</time></trkpt><trkpt lat="42.0259833" lon="12.97205"><ele>482.0</ele><time>2026-04-19T09:40:39.832Z</time></trkpt><trkpt lat="42.0260383" lon="12.971915"><ele>482.40000000000003</ele><time>2026-04-19T09:40:40.831Z</time></trkpt><trkpt lat="42.0260983" lon="12.9717733"><ele>482.80000000000007</ele><time>2026-04-19T09:40:41.833Z</time></trkpt><trkpt lat="42.0261617" lon="12.9716367"><ele>483.2</ele><time>2026-04-19T09:40:42.826Z</time></trkpt><trkpt lat="42.0262283" lon="12.9715167"><ele>483.6</ele><time>2026-04-19T09:40:43.881Z</time></trkpt><trkpt lat="42.0262917" lon="12.9714267"><ele>484.0</ele><time>2026-04-19T09:40:44.828Z</time></trkpt><trkpt lat="42.0263583" lon="12.971375"><ele>484.0</ele><time>2026-04-19T09:40:45.827Z</time></trkpt><trkpt lat="42.0264483" lon="12.9713567"><ele>484.0</ele><time>2026-04-19T09:40:46.826Z</time></trkpt><trkpt lat="42.0265267" lon="12.971335"><ele>484.0</ele><time>2026-04-19T09:40:47.835Z</time></trkpt><trkpt lat="42.0266017" lon="12.9713183"><ele>484.0</ele><time>2026-04-19T09:40:48.833Z</time></trkpt><trkpt lat="42.0267783" lon="12.9712017"><ele>484.0</ele><time>2026-04-19T09:40:50.829Z</time></trkpt><trkpt lat="42.02688" lon="12.9711317"><ele>483.2</ele><time>2026-04-19T09:40:51.83Z</time></trkpt><trkpt lat="42.0269783" lon="12.9710583"><ele>482.4</ele><time>2026-04-19T09:40:52.835Z</time></trkpt><trkpt lat="42.0270683" lon="12.9709883"><ele>481.6</ele><time>2026-04-19T09:40:53.83Z</time></trkpt><trkpt lat="42.02715" lon="12.9709133"><ele>480.8</ele><time>2026-04-19T09:40:54.832Z</time></trkpt><trkpt lat="42.0272183" lon="12.9708383"><ele>480.0</ele><time>2026-04-19T09:40:55.878Z</time></trkpt><trkpt lat="42.0272667" lon="12.9707567"><ele>480.0</ele><time>2026-04-19T09:40:56.833Z</time></trkpt><trkpt lat="42.0273033" lon="12.9706633"><ele>480.0</ele><time>2026-04-19T09:40:57.833Z</time></trkpt><trkpt lat="42.0273433" lon="12.97055"><ele>480.0</ele><time>2026-04-19T09:40:58.829Z</time></trkpt><trkpt lat="42.0273933" lon="12.9704267"><ele>480.0</ele><time>2026-04-19T09:40:59.825Z</time></trkpt><trkpt lat="42.0274567" lon="12.9703033"><ele>480.0</ele><time>2026-04-19T09:41:00.832Z</time></trkpt><trkpt lat="42.0275267" lon="12.970185"><ele>477.2</ele><time>2026-04-19T09:41:01.886Z</time></trkpt><trkpt lat="42.0276033" lon="12.9700717"><ele>474.4</ele><time>2026-04-19T09:41:02.831Z</time></trkpt><trkpt lat="42.027685" lon="12.969965"><ele>471.6</ele><time>2026-04-19T09:41:03.824Z</time></trkpt><trkpt lat="42.0277583" lon="12.969865"><ele>468.8</ele><time>2026-04-19T09:41:04.834Z</time></trkpt><trkpt lat="42.027835" lon="12.9697683"><ele>466.0</ele><time>2026-04-19T09:41:05.83Z</time></trkpt><trkpt lat="42.027905" lon="12.9696767"><ele>466.0</ele><time>2026-04-19T09:41:06.842Z</time></trkpt><trkpt lat="42.027985" lon="12.969585"><ele>466.0</ele><time>2026-04-19T09:41:07.879Z</time></trkpt><trkpt lat="42.0280767" lon="12.9694967"><ele>466.0</ele><time>2026-04-19T09:41:08.828Z</time></trkpt><trkpt lat="42.0281717" lon="12.9694083"><ele>466.0</ele><time>2026-04-19T09:41:09.841Z</time></trkpt><trkpt lat="42.0283333" lon="12.9692483"><ele>464.6</ele><time>2026-04-19T09:41:11.83Z</time></trkpt><trkpt lat="42.0283883" lon="12.9691817"><ele>463.20000000000005</ele><time>2026-04-19T09:41:12.828Z</time></trkpt><trkpt lat="42.0284283" lon="12.969115"><ele>461.79999999999995</ele><time>2026-04-19T09:41:13.881Z</time></trkpt><trkpt lat="42.02849" lon="12.968995"><ele>460.4</ele><time>2026-04-19T09:41:15.839Z</time></trkpt><trkpt lat="42.0285567" lon="12.9689033"><ele>459.0</ele><time>2026-04-19T09:41:17.829Z</time></trkpt><trkpt lat="42.0286383" lon="12.9687817"><ele>459.0</ele><time>2026-04-19T09:41:19.888Z</time></trkpt><trkpt lat="42.0286933" lon="12.9687283"><ele>459.0</ele><time>2026-04-19T09:41:20.826Z</time></trkpt><trkpt lat="42.0287583" lon="12.96868"><ele>459.0</ele><time>2026-04-19T09:41:21.827Z</time></trkpt><trkpt lat="42.0288267" lon="12.9686267"><ele>459.0</ele><time>2026-04-19T09:41:22.833Z</time></trkpt><trkpt lat="42.028905" lon="12.968565"><ele>459.0</ele><time>2026-04-19T09:41:23.834Z</time></trkpt><trkpt lat="42.02899" lon="12.9685133"><ele>459.0</ele><time>2026-04-19T09:41:24.841Z</time></trkpt><trkpt lat="42.029075" lon="12.9684967"><ele>458.0</ele><time>2026-04-19T09:41:25.897Z</time></trkpt><trkpt lat="42.0291567" lon="12.9684767"><ele>457.0</ele><time>2026-04-19T09:41:26.829Z</time></trkpt><trkpt lat="42.0292383" lon="12.9684533"><ele>456.0</ele><time>2026-04-19T09:41:27.837Z</time></trkpt><trkpt lat="42.0293167" lon="12.968415"><ele>455.0</ele><time>2026-04-19T09:41:28.831Z</time></trkpt><trkpt lat="42.029385" lon="12.968365"><ele>454.0</ele><time>2026-04-19T09:41:29.828Z</time></trkpt><trkpt lat="42.0294467" lon="12.9683067"><ele>453.0</ele><time>2026-04-19T09:41:30.839Z</time></trkpt><trkpt lat="42.0295467" lon="12.9681483"><ele>453.0</ele><time>2026-04-19T09:41:32.833Z</time></trkpt><trkpt lat="42.0295817" lon="12.968065"><ele>453.0</ele><time>2026-04-19T09:41:33.833Z</time></trkpt><trkpt lat="42.0296033" lon="12.967975"><ele>453.0</ele><time>2026-04-19T09:41:34.83Z</time></trkpt><trkpt lat="42.0296183" lon="12.9678817"><ele>453.0</ele><time>2026-04-19T09:41:35.829Z</time></trkpt><trkpt lat="42.029635" lon="12.9677833"><ele>453.0</ele><time>2026-04-19T09:41:36.837Z</time></trkpt><trkpt lat="42.0296483" lon="12.967675"><ele>453.0</ele><time>2026-04-19T09:41:37.885Z</time></trkpt><trkpt lat="42.02966" lon="12.9675517"><ele>452.59999999999997</ele><time>2026-04-19T09:41:38.83Z</time></trkpt><trkpt lat="42.0296717" lon="12.9674167"><ele>452.19999999999993</ele><time>2026-04-19T09:41:39.838Z</time></trkpt><trkpt lat="42.0296883" lon="12.9672733"><ele>451.8</ele><time>2026-04-19T09:41:40.837Z</time></trkpt><trkpt lat="42.0297133" lon="12.96713"><ele>451.4</ele><time>2026-04-19T09:41:41.832Z</time></trkpt><trkpt lat="42.02974" lon="12.966995"><ele>451.0</ele><time>2026-04-19T09:41:42.835Z</time></trkpt><trkpt lat="42.0297667" lon="12.96688"><ele>451.0</ele><time>2026-04-19T09:41:43.884Z</time></trkpt><trkpt lat="42.0297917" lon="12.9667833"><ele>451.0</ele><time>2026-04-19T09:41:44.833Z</time></trkpt><trkpt lat="42.0298567" lon="12.9666917"><ele>451.0</ele><time>2026-04-19T09:42:51.838Z</time></trkpt><trkpt lat="42.029965" lon="12.96653"><ele>451.0</ele><time>2026-04-19T09:42:59.832Z</time></trkpt><trkpt lat="42.0300017" lon="12.9664133"><ele>451.0</ele><time>2026-04-19T09:43:02.833Z</time></trkpt><trkpt lat="42.0299483" lon="12.96631"><ele>449.20000000000005</ele><time>2026-04-19T09:43:05.836Z</time></trkpt><trkpt lat="42.0298883" lon="12.9662533"><ele>447.40000000000003</ele><time>2026-04-19T09:43:07.89Z</time></trkpt><trkpt lat="42.0298033" lon="12.9662067"><ele>445.6</ele><time>2026-04-19T09:43:10.832Z</time></trkpt><trkpt lat="42.0297433" lon="12.9661217"><ele>443.8</ele><time>2026-04-19T09:43:13.889Z</time></trkpt><trkpt lat="42.0296667" lon="12.9659583"><ele>442.0</ele><time>2026-04-19T09:43:19.891Z</time></trkpt><trkpt lat="42.029615" lon="12.9658933"><ele>440.00000000000006</ele><time>2026-04-19T09:43:22.832Z</time></trkpt><trkpt lat="42.02957" lon="12.9658283"><ele>438.0</ele><time>2026-04-19T09:43:24.837Z</time></trkpt><trkpt lat="42.02955" lon="12.9657367"><ele>436.0</ele><time>2026-04-19T09:43:26.825Z</time></trkpt><trkpt lat="42.029575" lon="12.965625"><ele>434.0</ele><time>2026-04-19T09:43:28.836Z</time></trkpt><trkpt lat="42.02961" lon="12.96553"><ele>432.00000000000006</ele><time>2026-04-19T09:43:30.836Z</time></trkpt><trkpt lat="42.0296317" lon="12.9654283"><ele>430.0</ele><time>2026-04-19T09:45:57.831Z</time></trkpt><trkpt lat="42.029745" lon="12.96521"><ele>430.00000000000006</ele><time>2026-04-19T09:46:00.828Z</time></trkpt><trkpt lat="42.0297933" lon="12.9651017"><ele>430.0</ele><time>2026-04-19T09:46:01.88Z</time></trkpt><trkpt lat="42.0298333" lon="12.9649967"><ele>430.0</ele><time>2026-04-19T09:46:02.83Z</time></trkpt><trkpt lat="42.029855" lon="12.9648967"><ele>430.0</ele><time>2026-04-19T09:46:03.832Z</time></trkpt><trkpt lat="42.0298667" lon="12.964785"><ele>430.00000000000006</ele><time>2026-04-19T09:46:04.831Z</time></trkpt><trkpt lat="42.02987" lon="12.9646717"><ele>430.0</ele><time>2026-04-19T09:46:05.833Z</time></trkpt><trkpt lat="42.0298833" lon="12.9645533"><ele>430.1666666666667</ele><time>2026-04-19T09:46:06.829Z</time></trkpt><trkpt lat="42.029895" lon="12.9644383"><ele>430.33333333333337</ele><time>2026-04-19T09:46:07.89Z</time></trkpt><trkpt lat="42.02992" lon="12.9643283"><ele>430.5</ele><time>2026-04-19T09:46:08.829Z</time></trkpt><trkpt lat="42.029935" lon="12.9642333"><ele>430.66666666666663</ele><time>2026-04-19T09:46:09.828Z</time></trkpt><trkpt lat="42.0299517" lon="12.9641467"><ele>430.8333333333333</ele><time>2026-04-19T09:46:10.826Z</time></trkpt><trkpt lat="42.0299883" lon="12.9640633"><ele>431.0</ele><time>2026-04-19T09:46:11.833Z</time></trkpt><trkpt lat="42.0300433" lon="12.9639933"><ele>424.6</ele><time>2026-04-19T09:46:12.83Z</time></trkpt><trkpt lat="42.0301133" lon="12.9639283"><ele>418.20000000000005</ele><time>2026-04-19T09:46:13.885Z</time></trkpt><trkpt lat="42.0301817" lon="12.963855"><ele>411.79999999999995</ele><time>2026-04-19T09:46:14.827Z</time></trkpt><trkpt lat="42.0302467" lon="12.9637633"><ele>405.4</ele><time>2026-04-19T09:46:15.838Z</time></trkpt><trkpt lat="42.030305" lon="12.9636617"><ele>399.0</ele><time>2026-04-19T09:46:16.827Z</time></trkpt><trkpt lat="42.0303717" lon="12.9635667"><ele>399.0</ele><time>2026-04-19T09:46:17.831Z</time></trkpt><trkpt lat="42.0304383" lon="12.963475"><ele>399.0</ele><time>2026-04-19T09:46:18.826Z</time></trkpt><trkpt lat="42.0305317" lon="12.96329"><ele>399.0</ele><time>2026-04-19T09:46:20.831Z</time></trkpt><trkpt lat="42.0305567" lon="12.9632083"><ele>399.0</ele><time>2026-04-19T09:46:21.833Z</time></trkpt><trkpt lat="42.0305717" lon="12.9630783"><ele>399.0</ele><time>2026-04-19T09:46:23.835Z</time></trkpt><trkpt lat="42.03057" lon="12.9628967"><ele>400.6666666666667</ele><time>2026-04-19T09:46:25.893Z</time></trkpt><trkpt lat="42.0305717" lon="12.962785"><ele>402.33333333333337</ele><time>2026-04-19T09:46:26.829Z</time></trkpt><trkpt lat="42.0305733" lon="12.962675"><ele>404.0</ele><time>2026-04-19T09:46:27.831Z</time></trkpt><trkpt lat="42.030575" lon="12.9625583"><ele>405.6666666666667</ele><time>2026-04-19T09:46:28.827Z</time></trkpt><trkpt lat="42.03058" lon="12.9624467"><ele>407.33333333333337</ele><time>2026-04-19T09:46:29.839Z</time></trkpt><trkpt lat="42.0305867" lon="12.96235"><ele>409.0</ele><time>2026-04-19T09:46:30.836Z</time></trkpt><trkpt lat="42.030595" lon="12.9622633"><ele>409.7142857142857</ele><time>2026-04-19T09:46:31.886Z</time></trkpt><trkpt lat="42.0306017" lon="12.9621767"><ele>410.42857142857144</ele><time>2026-04-19T09:46:32.83Z</time></trkpt><trkpt lat="42.030615" lon="12.9620883"><ele>411.14285714285717</ele><time>2026-04-19T09:46:33.828Z</time></trkpt><trkpt lat="42.030625" lon="12.9620017"><ele>411.8571428571429</ele><time>2026-04-19T09:46:34.832Z</time></trkpt><trkpt lat="42.0306283" lon="12.961915"><ele>412.57142857142856</ele><time>2026-04-19T09:46:35.834Z</time></trkpt><trkpt lat="42.030635" lon="12.96183"><ele>413.28571428571433</ele><time>2026-04-19T09:46:36.831Z</time></trkpt><trkpt lat="42.0306467" lon="12.961745"><ele>414.0</ele><time>2026-04-19T09:46:37.884Z</time></trkpt><trkpt lat="42.03067" lon="12.9616617"><ele>415.79999999999995</ele><time>2026-04-19T09:46:38.834Z</time></trkpt><trkpt lat="42.0307233" lon="12.9615033"><ele>417.59999999999997</ele><time>2026-04-19T09:46:40.831Z</time></trkpt><trkpt lat="42.0307817" lon="12.9613283"><ele>419.4</ele><time>2026-04-19T09:46:42.83Z</time></trkpt><trkpt lat="42.0308167" lon="12.96123"><ele>421.2</ele><time>2026-04-19T09:46:43.879Z</time></trkpt><trkpt lat="42.030855" lon="12.9611367"><ele>423.0</ele><time>2026-04-19T09:46:44.835Z</time></trkpt><trkpt lat="42.0308933" lon="12.9610417"><ele>418.85714285714283</ele><time>2026-04-19T09:46:45.832Z</time></trkpt><trkpt lat="42.0309367" lon="12.9609517"><ele>414.7142857142857</ele><time>2026-04-19T09:46:46.833Z</time></trkpt><trkpt lat="42.030985" lon="12.9608733"><ele>410.57142857142856</ele><time>2026-04-19T09:46:47.833Z</time></trkpt><trkpt lat="42.0310317" lon="12.960805"><ele>406.42857142857144</ele><time>2026-04-19T09:46:48.831Z</time></trkpt><trkpt lat="42.0310733" lon="12.9607383"><ele>402.28571428571433</ele><time>2026-04-19T09:46:49.882Z</time></trkpt><trkpt lat="42.0311117" lon="12.960665"><ele>398.14285714285717</ele><time>2026-04-19T09:46:50.831Z</time></trkpt><trkpt lat="42.0311383" lon="12.9605867"><ele>394.0</ele><time>2026-04-19T09:46:51.833Z</time></trkpt><trkpt lat="42.0311767" lon="12.960445"><ele>394.00000000000006</ele><time>2026-04-19T09:46:53.833Z</time></trkpt><trkpt lat="42.0311917" lon="12.9603333"><ele>394.0</ele><time>2026-04-19T09:46:55.896Z</time></trkpt><trkpt lat="42.0312117" lon="12.96025"><ele>394.0</ele><time>2026-04-19T09:46:57.837Z</time></trkpt><trkpt lat="42.03122" lon="12.960165"><ele>394.0</ele><time>2026-04-19T09:46:59.834Z</time></trkpt><trkpt lat="42.0312283" lon="12.9600417"><ele>394.00000000000006</ele><time>2026-04-19T09:47:01.898Z</time></trkpt><trkpt lat="42.0312433" lon="12.9598683"><ele>394.0</ele><time>2026-04-19T09:47:03.824Z</time></trkpt><trkpt lat="42.0312517" lon="12.95972"><ele>395.2</ele><time>2026-04-19T09:47:05.83Z</time></trkpt><trkpt lat="42.0312583" lon="12.9596"><ele>396.4</ele><time>2026-04-19T09:47:07.883Z</time></trkpt><trkpt lat="42.0312767" lon="12.95948"><ele>397.6</ele><time>2026-04-19T09:47:09.835Z</time></trkpt><trkpt lat="42.0312933" lon="12.9593467"><ele>398.8</ele><time>2026-04-19T09:47:11.831Z</time></trkpt><trkpt lat="42.0313117" lon="12.9592417"><ele>400.0</ele><time>2026-04-19T09:47:14.833Z</time></trkpt><trkpt lat="42.0313033" lon="12.9591033"><ele>400.2</ele><time>2026-04-19T09:47:17.832Z</time></trkpt><trkpt lat="42.0312733" lon="12.958965"><ele>400.4</ele><time>2026-04-19T09:47:19.879Z</time></trkpt><trkpt lat="42.03126" lon="12.958835"><ele>400.6</ele><time>2026-04-19T09:47:21.828Z</time></trkpt><trkpt lat="42.031235" lon="12.9587467"><ele>400.8</ele><time>2026-04-19T09:47:23.838Z</time></trkpt><trkpt lat="42.0312217" lon="12.9585283"><ele>401.0</ele><time>2026-04-19T09:47:30.828Z</time></trkpt><trkpt lat="42.0312417" lon="12.9583967"><ele>398.0</ele><time>2026-04-19T09:47:32.833Z</time></trkpt><trkpt lat="42.0312783" lon="12.958255"><ele>395.0</ele><time>2026-04-19T09:47:34.834Z</time></trkpt><trkpt lat="42.0313167" lon="12.95811"><ele>392.0</ele><time>2026-04-19T09:47:36.833Z</time></trkpt><trkpt lat="42.0313717" lon="12.957975"><ele>389.0</ele><time>2026-04-19T09:47:38.838Z</time></trkpt><trkpt lat="42.0314483" lon="12.9578667"><ele>389.0</ele><time>2026-04-19T09:47:40.825Z</time></trkpt><trkpt lat="42.03153" lon="12.9578"><ele>389.0</ele><time>2026-04-19T09:47:42.829Z</time></trkpt><trkpt lat="42.031615" lon="12.9577483"><ele>389.0</ele><time>2026-04-19T09:47:44.827Z</time></trkpt><trkpt lat="42.0315583" lon="12.95742"><ele>389.0</ele><time>2026-04-19T09:48:14.83Z</time></trkpt><trkpt lat="42.0315233" lon="12.957265"><ele>387.3333333333333</ele><time>2026-04-19T09:48:16.833Z</time></trkpt><trkpt lat="42.0315133" lon="12.9571767"><ele>385.66666666666663</ele><time>2026-04-19T09:48:17.83Z</time></trkpt><trkpt lat="42.0315" lon="12.95703"><ele>384.0</ele><time>2026-04-19T09:48:19.879Z</time></trkpt><trkpt lat="42.0314883" lon="12.9569267"><ele>382.3333333333333</ele><time>2026-04-19T09:48:21.834Z</time></trkpt><trkpt lat="42.03145" lon="12.956835"><ele>380.66666666666663</ele><time>2026-04-19T09:48:24.839Z</time></trkpt><trkpt lat="42.0313833" lon="12.9567833"><ele>379.0</ele><time>2026-04-19T09:48:26.83Z</time></trkpt><trkpt lat="42.031315" lon="12.95667"><ele>378.5</ele><time>2026-04-19T09:48:28.837Z</time></trkpt><trkpt lat="42.03127" lon="12.9565367"><ele>378.0</ele><time>2026-04-19T09:48:30.831Z</time></trkpt><trkpt lat="42.0312533" lon="12.9564033"><ele>377.5</ele><time>2026-04-19T09:48:32.832Z</time></trkpt><trkpt lat="42.0312583" lon="12.9561817"><ele>377.0</ele><time>2026-04-19T09:48:36.83Z</time></trkpt><trkpt lat="42.03133" lon="12.9561017"><ele>377.0</ele><time>2026-04-19T09:48:48.831Z</time></trkpt><trkpt lat="42.0314267" lon="12.9560817"><ele>377.0</ele><time>2026-04-19T09:48:51.827Z</time></trkpt><trkpt lat="42.031535" lon="12.9560467"><ele>377.0</ele><time>2026-04-19T09:48:53.826Z</time></trkpt><trkpt lat="42.0317217" lon="12.955945"><ele>377.0</ele><time>2026-04-19T09:48:56.833Z</time></trkpt><trkpt lat="42.0317883" lon="12.9559"><ele>374.57142857142856</ele><time>2026-04-19T09:48:57.835Z</time></trkpt><trkpt lat="42.0318567" lon="12.955855"><ele>372.1428571428571</ele><time>2026-04-19T09:48:58.831Z</time></trkpt><trkpt lat="42.0319183" lon="12.9558183"><ele>369.71428571428567</ele><time>2026-04-19T09:48:59.838Z</time></trkpt><trkpt lat="42.0319783" lon="12.9557833"><ele>367.2857142857143</ele><time>2026-04-19T09:49:00.833Z</time></trkpt><trkpt lat="42.0320383" lon="12.9557467"><ele>364.8571428571429</ele><time>2026-04-19T09:49:01.884Z</time></trkpt><trkpt lat="42.0320967" lon="12.9557133"><ele>362.4285714285714</ele><time>2026-04-19T09:49:02.832Z</time></trkpt><trkpt lat="42.0321833" lon="12.955705"><ele>360.0</ele><time>2026-04-19T09:49:04.836Z</time></trkpt><trkpt lat="42.032285" lon="12.955755"><ele>360.0</ele><time>2026-04-19T09:49:06.838Z</time></trkpt><trkpt lat="42.032345" lon="12.955785"><ele>360.0</ele><time>2026-04-19T09:49:07.886Z</time></trkpt><trkpt lat="42.0324133" lon="12.9558017"><ele>360.0</ele><time>2026-04-19T09:49:08.831Z</time></trkpt><trkpt lat="42.0324867" lon="12.955805"><ele>360.0</ele><time>2026-04-19T09:49:09.84Z</time></trkpt><trkpt lat="42.032555" lon="12.9557867"><ele>360.0</ele><time>2026-04-19T09:49:10.821Z</time></trkpt><trkpt lat="42.0326233" lon="12.9557617"><ele>360.0</ele><time>2026-04-19T09:49:11.83Z</time></trkpt><trkpt lat="42.0326967" lon="12.9557233"><ele>360.0</ele><time>2026-04-19T09:49:12.834Z</time></trkpt><trkpt lat="42.0327617" lon="12.9556867"><ele>356.4</ele><time>2026-04-19T09:49:13.881Z</time></trkpt><trkpt lat="42.0328317" lon="12.95563"><ele>352.8</ele><time>2026-04-19T09:49:15.834Z</time></trkpt><trkpt lat="42.032825" lon="12.95542"><ele>349.20000000000005</ele><time>2026-04-19T09:49:21.839Z</time></trkpt><trkpt lat="42.0328183" lon="12.9552683"><ele>345.6</ele><time>2026-04-19T09:49:23.843Z</time></trkpt><trkpt lat="42.03281" lon="12.9551717"><ele>342.0</ele><time>2026-04-19T09:49:24.829Z</time></trkpt><trkpt lat="42.0328" lon="12.9550733"><ele>341.57142857142856</ele><time>2026-04-19T09:49:25.883Z</time></trkpt><trkpt lat="42.0328067" lon="12.9549833"><ele>341.1428571428571</ele><time>2026-04-19T09:49:26.83Z</time></trkpt><trkpt lat="42.03283" lon="12.9548983"><ele>340.71428571428567</ele><time>2026-04-19T09:49:27.831Z</time></trkpt><trkpt lat="42.0328533" lon="12.9548083"><ele>340.2857142857143</ele><time>2026-04-19T09:49:28.836Z</time></trkpt><trkpt lat="42.0328783" lon="12.9547233"><ele>339.8571428571429</ele><time>2026-04-19T09:49:29.833Z</time></trkpt><trkpt lat="42.0329117" lon="12.9546133"><ele>339.4285714285714</ele><time>2026-04-19T09:49:31.89Z</time></trkpt><trkpt lat="42.03288" lon="12.95452"><ele>339.0</ele><time>2026-04-19T09:49:34.835Z</time></trkpt><trkpt lat="42.0327983" lon="12.954445"><ele>339.0</ele><time>2026-04-19T09:49:36.833Z</time></trkpt><trkpt lat="42.03271" lon="12.9543133"><ele>339.0</ele><time>2026-04-19T09:49:38.835Z</time></trkpt><trkpt lat="42.0326733" lon="12.9542417"><ele>339.0</ele><time>2026-04-19T09:49:39.832Z</time></trkpt><trkpt lat="42.0326433" lon="12.9541633"><ele>339.0</ele><time>2026-04-19T09:49:40.839Z</time></trkpt><trkpt lat="42.0326233" lon="12.9540733"><ele>339.0</ele><time>2026-04-19T09:49:41.829Z</time></trkpt><trkpt lat="42.03261" lon="12.9539817"><ele>339.0</ele><time>2026-04-19T09:49:42.836Z</time></trkpt><trkpt lat="42.032565" lon="12.9538467"><ele>338.6</ele><time>2026-04-19T09:49:44.831Z</time></trkpt><trkpt lat="42.0324783" lon="12.95373"><ele>338.2</ele><time>2026-04-19T09:49:46.828Z</time></trkpt><trkpt lat="42.0324333" lon="12.9536417"><ele>337.8</ele><time>2026-04-19T09:49:47.83Z</time></trkpt><trkpt lat="42.0323917" lon="12.95352"><ele>337.40000000000003</ele><time>2026-04-19T09:49:48.834Z</time></trkpt><trkpt lat="42.0323383" lon="12.9533817"><ele>337.0</ele><time>2026-04-19T09:49:49.887Z</time></trkpt><trkpt lat="42.0322833" lon="12.9532383"><ele>341.8</ele><time>2026-04-19T09:49:50.832Z</time></trkpt><trkpt lat="42.0322333" lon="12.9531033"><ele>346.6</ele><time>2026-04-19T09:49:51.836Z</time></trkpt><trkpt lat="42.032175" lon="12.9529983"><ele>351.40000000000003</ele><time>2026-04-19T09:49:52.832Z</time></trkpt><trkpt lat="42.0321083" lon="12.9529067"><ele>356.20000000000005</ele><time>2026-04-19T09:49:53.834Z</time></trkpt><trkpt lat="42.03204" lon="12.9528283"><ele>361.0</ele><time>2026-04-19T09:49:54.828Z</time></trkpt><trkpt lat="42.0319733" lon="12.9527617"><ele>361.0</ele><time>2026-04-19T09:49:55.896Z</time></trkpt><trkpt lat="42.03191" lon="12.9526867"><ele>361.0</ele><time>2026-04-19T09:49:56.826Z</time></trkpt><trkpt lat="42.03185" lon="12.9526"><ele>361.0</ele><time>2026-04-19T09:49:57.829Z</time></trkpt><trkpt lat="42.0317467" lon="12.9523883"><ele>361.0</ele><time>2026-04-19T09:49:59.833Z</time></trkpt><trkpt lat="42.0316833" lon="12.9522833"><ele>365.0</ele><time>2026-04-19T09:50:00.829Z</time></trkpt><trkpt lat="42.0316217" lon="12.952175"><ele>369.0</ele><time>2026-04-19T09:50:01.885Z</time></trkpt><trkpt lat="42.03156" lon="12.9520717"><ele>373.0</ele><time>2026-04-19T09:50:02.835Z</time></trkpt><trkpt lat="42.031495" lon="12.9519867"><ele>377.0</ele><time>2026-04-19T09:50:03.833Z</time></trkpt><trkpt lat="42.031425" lon="12.95192"><ele>381.0</ele><time>2026-04-19T09:50:04.832Z</time></trkpt><trkpt lat="42.03135" lon="12.9518483"><ele>381.0</ele><time>2026-04-19T09:50:05.834Z</time></trkpt><trkpt lat="42.03127" lon="12.951775"><ele>381.0</ele><time>2026-04-19T09:50:06.829Z</time></trkpt><trkpt lat="42.0311983" lon="12.9517"><ele>381.0</ele><time>2026-04-19T09:50:07.881Z</time></trkpt><trkpt lat="42.031135" lon="12.951625"><ele>381.0</ele><time>2026-04-19T09:50:08.834Z</time></trkpt><trkpt lat="42.03108" lon="12.9515483"><ele>381.0</ele><time>2026-04-19T09:50:09.828Z</time></trkpt><trkpt lat="42.0310283" lon="12.95147"><ele>381.0</ele><time>2026-04-19T09:50:10.836Z</time></trkpt><trkpt lat="42.0309833" lon="12.9513783"><ele>378.4</ele><time>2026-04-19T09:50:11.833Z</time></trkpt><trkpt lat="42.0309417" lon="12.9512683"><ele>375.8</ele><time>2026-04-19T09:50:12.834Z</time></trkpt><trkpt lat="42.0308983" lon="12.951145"><ele>373.2</ele><time>2026-04-19T09:50:13.887Z</time></trkpt><trkpt lat="42.0308633" lon="12.9510217"><ele>370.59999999999997</ele><time>2026-04-19T09:50:14.828Z</time></trkpt><trkpt lat="42.0308317" lon="12.9509083"><ele>368.0</ele><time>2026-04-19T09:50:15.829Z</time></trkpt><trkpt lat="42.030795" lon="12.9508083"><ele>368.0</ele><time>2026-04-19T09:50:16.832Z</time></trkpt><trkpt lat="42.0307617" lon="12.9507267"><ele>368.0</ele><time>2026-04-19T09:50:17.832Z</time></trkpt><trkpt lat="42.0307217" lon="12.9505917"><ele>368.0</ele><time>2026-04-19T09:50:19.883Z</time></trkpt><trkpt lat="42.0307233" lon="12.9504117"><ele>368.0</ele><time>2026-04-19T09:50:21.834Z</time></trkpt><trkpt lat="42.03073" lon="12.9503033"><ele>368.0</ele><time>2026-04-19T09:50:22.834Z</time></trkpt><trkpt lat="42.0307483" lon="12.9501783"><ele>368.0</ele><time>2026-04-19T09:50:23.834Z</time></trkpt><trkpt lat="42.03076" lon="12.9500483"><ele>368.0</ele><time>2026-04-19T09:50:24.835Z</time></trkpt><trkpt lat="42.0307683" lon="12.9499233"><ele>368.0</ele><time>2026-04-19T09:50:25.887Z</time></trkpt><trkpt lat="42.03078" lon="12.94981"><ele>368.0</ele><time>2026-04-19T09:50:26.829Z</time></trkpt><trkpt lat="42.0307983" lon="12.9496983"><ele>368.0</ele><time>2026-04-19T09:50:27.828Z</time></trkpt><trkpt lat="42.0308133" lon="12.9495733"><ele>367.79999999999995</ele><time>2026-04-19T09:50:28.832Z</time></trkpt><trkpt lat="42.0308233" lon="12.9494517"><ele>367.6</ele><time>2026-04-19T09:50:29.838Z</time></trkpt><trkpt lat="42.03083" lon="12.9493483"><ele>367.4</ele><time>2026-04-19T09:50:30.83Z</time></trkpt><trkpt lat="42.03084" lon="12.949215"><ele>367.20000000000005</ele><time>2026-04-19T09:50:32.831Z</time></trkpt><trkpt lat="42.03083" lon="12.9491133"><ele>367.0</ele><time>2026-04-19T09:50:53.832Z</time></trkpt><trkpt lat="42.0307967" lon="12.9488317"><ele>367.0</ele><time>2026-04-19T09:50:57.831Z</time></trkpt><trkpt lat="42.0307217" lon="12.94872"><ele>367.0</ele><time>2026-04-19T09:50:59.829Z</time></trkpt><trkpt lat="42.0306633" lon="12.948665"><ele>367.0</ele><time>2026-04-19T09:51:00.832Z</time></trkpt><trkpt lat="42.030605" lon="12.9486083"><ele>367.0</ele><time>2026-04-19T09:51:01.884Z</time></trkpt><trkpt lat="42.03054" lon="12.94855"><ele>367.0</ele><time>2026-04-19T09:51:02.832Z</time></trkpt><trkpt lat="42.03048" lon="12.9484867"><ele>367.0</ele><time>2026-04-19T09:51:03.837Z</time></trkpt><trkpt lat="42.03043" lon="12.9484217"><ele>363.6</ele><time>2026-04-19T09:51:04.833Z</time></trkpt><trkpt lat="42.0303483" lon="12.948315"><ele>360.20000000000005</ele><time>2026-04-19T09:51:06.831Z</time></trkpt><trkpt lat="42.0302833" lon="12.9482217"><ele>356.8</ele><time>2026-04-19T09:51:08.832Z</time></trkpt><trkpt lat="42.0302317" lon="12.94815"><ele>353.4</ele><time>2026-04-19T09:51:10.832Z</time></trkpt><trkpt lat="42.030155" lon="12.9480567"><ele>350.0</ele><time>2026-04-19T09:51:12.824Z</time></trkpt><trkpt lat="42.0300967" lon="12.947935"><ele>349.4</ele><time>2026-04-19T09:51:14.832Z</time></trkpt><trkpt lat="42.0299483" lon="12.9477117"><ele>348.8</ele><time>2026-04-19T09:51:18.831Z</time></trkpt><trkpt lat="42.029895" lon="12.94765"><ele>348.20000000000005</ele><time>2026-04-19T09:51:19.888Z</time></trkpt><trkpt lat="42.029835" lon="12.9475983"><ele>347.6</ele><time>2026-04-19T09:51:20.832Z</time></trkpt><trkpt lat="42.0297667" lon="12.9475583"><ele>347.0</ele><time>2026-04-19T09:51:21.834Z</time></trkpt><trkpt lat="42.0296933" lon="12.9475133"><ele>347.0</ele><time>2026-04-19T09:51:22.831Z</time></trkpt><trkpt lat="42.0296317" lon="12.9474617"><ele>347.0</ele><time>2026-04-19T09:51:23.835Z</time></trkpt><trkpt lat="42.0295817" lon="12.94741"><ele>347.0</ele><time>2026-04-19T09:51:24.837Z</time></trkpt><trkpt lat="42.0295017" lon="12.94731"><ele>347.0</ele><time>2026-04-19T09:51:26.832Z</time></trkpt><trkpt lat="42.02941" lon="12.94721"><ele>347.0</ele><time>2026-04-19T09:51:28.838Z</time></trkpt><trkpt lat="42.0293567" lon="12.94716"><ele>347.0</ele><time>2026-04-19T09:51:29.833Z</time></trkpt><trkpt lat="42.0292733" lon="12.9470683"><ele>347.0</ele><time>2026-04-19T09:51:31.89Z</time></trkpt><trkpt lat="42.0291717" lon="12.9469817"><ele>347.0</ele><time>2026-04-19T09:51:33.826Z</time></trkpt><trkpt lat="42.0291117" lon="12.9469283"><ele>347.0</ele><time>2026-04-19T09:51:34.836Z</time></trkpt><trkpt lat="42.0290533" lon="12.9468683"><ele>347.0</ele><time>2026-04-19T09:51:35.833Z</time></trkpt><trkpt lat="42.028895" lon="12.9467283"><ele>346.33333333333337</ele><time>2026-04-19T09:51:37.885Z</time></trkpt><trkpt lat="42.0288417" lon="12.9466633"><ele>345.6666666666667</ele><time>2026-04-19T09:51:38.831Z</time></trkpt><trkpt lat="42.0287917" lon="12.9465917"><ele>345.0</ele><time>2026-04-19T09:51:39.824Z</time></trkpt><trkpt lat="42.028745" lon="12.9465117"><ele>344.3333333333333</ele><time>2026-04-19T09:51:40.827Z</time></trkpt><trkpt lat="42.0287" lon="12.946415"><ele>343.66666666666663</ele><time>2026-04-19T09:51:41.837Z</time></trkpt><trkpt lat="42.0286583" lon="12.9463317"><ele>343.0</ele><time>2026-04-19T09:51:42.83Z</time></trkpt><trkpt lat="42.0286183" lon="12.9462483"><ele>343.0</ele><time>2026-04-19T09:51:43.881Z</time></trkpt><trkpt lat="42.02856" lon="12.9461333"><ele>343.0</ele><time>2026-04-19T09:51:45.828Z</time></trkpt><trkpt lat="42.028485" lon="12.9460533"><ele>343.0</ele><time>2026-04-19T09:51:47.829Z</time></trkpt><trkpt lat="42.0284433" lon="12.9459533"><ele>343.0</ele><time>2026-04-19T09:51:49.885Z</time></trkpt><trkpt lat="42.0284067" lon="12.9458617"><ele>343.0</ele><time>2026-04-19T09:51:51.832Z</time></trkpt><trkpt lat="42.0283667" lon="12.9457833"><ele>343.0</ele><time>2026-04-19T09:51:53.834Z</time></trkpt><trkpt lat="42.028355" lon="12.9456883"><ele>346.0</ele><time>2026-04-19T09:52:09.834Z</time></trkpt><trkpt lat="42.0283583" lon="12.9454667"><ele>349.0</ele><time>2026-04-19T09:52:18.834Z</time></trkpt><trkpt lat="42.02834" lon="12.94536"><ele>352.0</ele><time>2026-04-19T09:52:20.829Z</time></trkpt><trkpt lat="42.0282883" lon="12.9451933"><ele>355.0</ele><time>2026-04-19T09:52:22.832Z</time></trkpt><trkpt lat="42.02825" lon="12.9450583"><ele>352.4</ele><time>2026-04-19T09:52:24.833Z</time></trkpt><trkpt lat="42.02825" lon="12.9449733"><ele>349.8</ele><time>2026-04-19T09:52:53.829Z</time></trkpt><trkpt lat="42.02814" lon="12.94476"><ele>347.20000000000005</ele><time>2026-04-19T09:52:57.842Z</time></trkpt><trkpt lat="42.02809" lon="12.9446733"><ele>344.6</ele><time>2026-04-19T09:52:58.831Z</time></trkpt><trkpt lat="42.0280417" lon="12.9445817"><ele>342.0</ele><time>2026-04-19T09:52:59.832Z</time></trkpt><trkpt lat="42.0280067" lon="12.9444833"><ele>342.0</ele><time>2026-04-19T09:53:00.832Z</time></trkpt><trkpt lat="42.027975" lon="12.9443917"><ele>342.0</ele><time>2026-04-19T09:53:01.887Z</time></trkpt><trkpt lat="42.0279433" lon="12.9443133"><ele>342.0</ele><time>2026-04-19T09:53:02.833Z</time></trkpt><trkpt lat="42.0278733" lon="12.9441983"><ele>342.0</ele><time>2026-04-19T09:53:04.828Z</time></trkpt><trkpt lat="42.0278033" lon="12.9440867"><ele>342.0</ele><time>2026-04-19T09:53:06.831Z</time></trkpt><trkpt lat="42.0277517" lon="12.9439917"><ele>342.0</ele><time>2026-04-19T09:53:08.832Z</time></trkpt><trkpt lat="42.0276767" lon="12.9438833"><ele>341.0</ele><time>2026-04-19T09:53:10.835Z</time></trkpt><trkpt lat="42.0276117" lon="12.9437717"><ele>340.0</ele><time>2026-04-19T09:53:12.832Z</time></trkpt><trkpt lat="42.0275567" lon="12.9436317"><ele>339.0</ele><time>2026-04-19T09:53:14.831Z</time></trkpt><trkpt lat="42.0274983" lon="12.9434633"><ele>338.0</ele><time>2026-04-19T09:53:16.842Z</time></trkpt><trkpt lat="42.027465" lon="12.9433867"><ele>337.0</ele><time>2026-04-19T09:53:17.836Z</time></trkpt><trkpt lat="42.0274167" lon="12.9433083"><ele>337.0</ele><time>2026-04-19T09:53:18.832Z</time></trkpt><trkpt lat="42.02737" lon="12.94323"><ele>337.0</ele><time>2026-04-19T09:53:19.889Z</time></trkpt><trkpt lat="42.0273283" lon="12.94314"><ele>337.0</ele><time>2026-04-19T09:53:20.829Z</time></trkpt><trkpt lat="42.027285" lon="12.9430383"><ele>337.0</ele><time>2026-04-19T09:53:21.827Z</time></trkpt><trkpt lat="42.0272567" lon="12.9429383"><ele>337.0</ele><time>2026-04-19T09:53:22.833Z</time></trkpt><trkpt lat="42.027225" lon="12.942845"><ele>337.0</ele><time>2026-04-19T09:53:23.834Z</time></trkpt><trkpt lat="42.0271883" lon="12.942755"><ele>337.0</ele><time>2026-04-19T09:53:24.835Z</time></trkpt><trkpt lat="42.0271533" lon="12.9426667"><ele>337.0</ele><time>2026-04-19T09:53:25.867Z</time></trkpt><trkpt lat="42.0271183" lon="12.9425833"><ele>337.0</ele><time>2026-04-19T09:53:26.833Z</time></trkpt><trkpt lat="42.0270783" lon="12.9425133"><ele>337.0</ele><time>2026-04-19T09:53:27.833Z</time></trkpt><trkpt lat="42.0270133" lon="12.942405"><ele>337.0</ele><time>2026-04-19T09:53:29.834Z</time></trkpt><trkpt lat="42.0269533" lon="12.94227"><ele>337.0</ele><time>2026-04-19T09:53:31.884Z</time></trkpt><trkpt lat="42.0269233" lon="12.9421883"><ele>335.8</ele><time>2026-04-19T09:53:32.832Z</time></trkpt><trkpt lat="42.0269017" lon="12.9421017"><ele>334.6</ele><time>2026-04-19T09:53:33.83Z</time></trkpt><trkpt lat="42.0268783" lon="12.942005"><ele>333.40000000000003</ele><time>2026-04-19T09:53:34.837Z</time></trkpt><trkpt lat="42.02686" lon="12.94192"><ele>332.20000000000005</ele><time>2026-04-19T09:53:35.829Z</time></trkpt><trkpt lat="42.0267933" lon="12.9416267"><ele>331.0</ele><time>2026-04-19T09:53:39.83Z</time></trkpt><trkpt lat="42.0267233" lon="12.9414667"><ele>329.3333333333333</ele><time>2026-04-19T09:53:41.827Z</time></trkpt><trkpt lat="42.0266717" lon="12.9413783"><ele>327.66666666666663</ele><time>2026-04-19T09:53:42.832Z</time></trkpt><trkpt lat="42.026625" lon="12.941305"><ele>326.0</ele><time>2026-04-19T09:53:43.884Z</time></trkpt><trkpt lat="42.0265683" lon="12.941245"><ele>324.3333333333333</ele><time>2026-04-19T09:53:44.831Z</time></trkpt><trkpt lat="42.0265" lon="12.9411967"><ele>322.6666666666667</ele><time>2026-04-19T09:53:45.834Z</time></trkpt><trkpt lat="42.0264333" lon="12.941145"><ele>321.0</ele><time>2026-04-19T09:53:46.831Z</time></trkpt><trkpt lat="42.0263767" lon="12.9410817"><ele>321.85714285714283</ele><time>2026-04-19T09:53:47.832Z</time></trkpt><trkpt lat="42.0263283" lon="12.9410133"><ele>322.7142857142857</ele><time>2026-04-19T09:53:48.837Z</time></trkpt><trkpt lat="42.0262833" lon="12.9409417"><ele>323.57142857142856</ele><time>2026-04-19T09:53:49.877Z</time></trkpt><trkpt lat="42.0262217" lon="12.940875"><ele>324.42857142857144</ele><time>2026-04-19T09:53:50.832Z</time></trkpt><trkpt lat="42.0261667" lon="12.9408033"><ele>325.2857142857143</ele><time>2026-04-19T09:53:51.835Z</time></trkpt><trkpt lat="42.0261117" lon="12.9407333"><ele>326.1428571428571</ele><time>2026-04-19T09:53:52.828Z</time></trkpt><trkpt lat="42.0260533" lon="12.9406717"><ele>327.0</ele><time>2026-04-19T09:53:53.832Z</time></trkpt><trkpt lat="42.02599" lon="12.9406217"><ele>327.0</ele><time>2026-04-19T09:53:54.832Z</time></trkpt><trkpt lat="42.0259333" lon="12.9405683"><ele>327.0</ele><time>2026-04-19T09:53:55.89Z</time></trkpt><trkpt lat="42.0258783" lon="12.9405217"><ele>327.0</ele><time>2026-04-19T09:53:56.827Z</time></trkpt><trkpt lat="42.0257233" lon="12.9404017"><ele>327.0</ele><time>2026-04-19T09:54:00.828Z</time></trkpt><trkpt lat="42.0256633" lon="12.9403567"><ele>327.0</ele><time>2026-04-19T09:54:02.83Z</time></trkpt><trkpt lat="42.02557" lon="12.940305"><ele>328.8333333333333</ele><time>2026-04-19T09:54:04.832Z</time></trkpt><trkpt lat="42.0255017" lon="12.9402633"><ele>330.6666666666667</ele><time>2026-04-19T09:54:05.835Z</time></trkpt><trkpt lat="42.0254217" lon="12.940225"><ele>332.5</ele><time>2026-04-19T09:54:06.838Z</time></trkpt><trkpt lat="42.0253283" lon="12.9401917"><ele>334.33333333333337</ele><time>2026-04-19T09:54:07.879Z</time></trkpt><trkpt lat="42.0252333" lon="12.9401633"><ele>336.1666666666667</ele><time>2026-04-19T09:54:08.831Z</time></trkpt><trkpt lat="42.0251483" lon="12.9401183"><ele>338.0</ele><time>2026-04-19T09:54:09.833Z</time></trkpt><trkpt lat="42.0250767" lon="12.9400617"><ele>334.7142857142857</ele><time>2026-04-19T09:54:10.839Z</time></trkpt><trkpt lat="42.02502" lon="12.940005"><ele>331.42857142857144</ele><time>2026-04-19T09:54:11.827Z</time></trkpt><trkpt lat="42.0249667" lon="12.9399367"><ele>328.1428571428571</ele><time>2026-04-19T09:54:12.835Z</time></trkpt><trkpt lat="42.0249117" lon="12.939885"><ele>324.8571428571429</ele><time>2026-04-19T09:54:13.89Z</time></trkpt><trkpt lat="42.024845" lon="12.939835"><ele>321.57142857142856</ele><time>2026-04-19T09:54:14.829Z</time></trkpt><trkpt lat="42.024775" lon="12.939785"><ele>318.2857142857143</ele><time>2026-04-19T09:54:15.829Z</time></trkpt><trkpt lat="42.0247067" lon="12.93973"><ele>315.0</ele><time>2026-04-19T09:54:16.83Z</time></trkpt><trkpt lat="42.024645" lon="12.9397017"><ele>315.0</ele><time>2026-04-19T09:54:17.836Z</time></trkpt><trkpt lat="42.0244067" lon="12.939725"><ele>315.0</ele><time>2026-04-19T09:54:21.828Z</time></trkpt><trkpt lat="42.0243017" lon="12.93973"><ele>315.0</ele><time>2026-04-19T09:54:23.835Z</time></trkpt><trkpt lat="42.0241967" lon="12.9397133"><ele>314.8333333333333</ele><time>2026-04-19T09:54:25.898Z</time></trkpt><trkpt lat="42.0241117" lon="12.9396317"><ele>314.6666666666667</ele><time>2026-04-19T09:54:27.836Z</time></trkpt><trkpt lat="42.0240833" lon="12.9395533"><ele>314.5</ele><time>2026-04-19T09:54:28.837Z</time></trkpt><trkpt lat="42.0240583" lon="12.9394583"><ele>314.33333333333337</ele><time>2026-04-19T09:54:29.835Z</time></trkpt><trkpt lat="42.02403" lon="12.939355"><ele>314.1666666666667</ele><time>2026-04-19T09:54:30.832Z</time></trkpt><trkpt lat="42.024015" lon="12.939245"><ele>314.0</ele><time>2026-04-19T09:54:31.889Z</time></trkpt><trkpt lat="42.023985" lon="12.9391317"><ele>313.0</ele><time>2026-04-19T09:54:32.831Z</time></trkpt><trkpt lat="42.0239467" lon="12.9390467"><ele>312.0</ele><time>2026-04-19T09:54:33.829Z</time></trkpt><trkpt lat="42.0238917" lon="12.9389667"><ele>311.0</ele><time>2026-04-19T09:54:34.835Z</time></trkpt><trkpt lat="42.0238383" lon="12.938895"><ele>310.0</ele><time>2026-04-19T09:54:35.833Z</time></trkpt><trkpt lat="42.02379" lon="12.9388033"><ele>309.0</ele><time>2026-04-19T09:54:36.834Z</time></trkpt><trkpt lat="42.02374" lon="12.9387117"><ele>308.0</ele><time>2026-04-19T09:54:37.882Z</time></trkpt><trkpt lat="42.0236967" lon="12.938625"><ele>308.0</ele><time>2026-04-19T09:54:38.823Z</time></trkpt><trkpt lat="42.0236033" lon="12.9384867"><ele>308.0</ele><time>2026-04-19T09:54:40.827Z</time></trkpt><trkpt lat="42.0235283" lon="12.9383817"><ele>308.0</ele><time>2026-04-19T09:54:42.83Z</time></trkpt><trkpt lat="42.0234767" lon="12.9382917"><ele>308.0</ele><time>2026-04-19T09:54:44.83Z</time></trkpt><trkpt lat="42.0234567" lon="12.9381483"><ele>308.0</ele><time>2026-04-19T09:55:14.831Z</time></trkpt><trkpt lat="42.0233583" lon="12.9382883"><ele>308.6666666666667</ele><time>2026-04-19T09:55:27.837Z</time></trkpt><trkpt lat="42.02331" lon="12.9383717"><ele>309.33333333333337</ele><time>2026-04-19T09:55:29.833Z</time></trkpt><trkpt lat="42.0232483" lon="12.9384617"><ele>310.0</ele><time>2026-04-19T09:55:31.883Z</time></trkpt><trkpt lat="42.02315" lon="12.9385817"><ele>310.6666666666667</ele><time>2026-04-19T09:55:33.834Z</time></trkpt><trkpt lat="42.0231017" lon="12.93865"><ele>311.3333333333333</ele><time>2026-04-19T09:55:34.833Z</time></trkpt><trkpt lat="42.023065" lon="12.93872"><ele>312.0</ele><time>2026-04-19T09:55:35.832Z</time></trkpt><trkpt lat="42.0229683" lon="12.938915"><ele>312.0</ele><time>2026-04-19T09:55:39.831Z</time></trkpt><trkpt lat="42.0230183" lon="12.9388117"><ele>312.0</ele><time>2026-04-19T09:56:23.83Z</time></trkpt><trkpt lat="42.0231133" lon="12.9386483"><ele>312.0</ele><time>2026-04-19T09:56:25.894Z</time></trkpt><trkpt lat="42.0231567" lon="12.9385733"><ele>312.0</ele><time>2026-04-19T09:56:26.832Z</time></trkpt><trkpt lat="42.0232283" lon="12.9384683"><ele>312.0</ele><time>2026-04-19T09:56:28.828Z</time></trkpt><trkpt lat="42.0232933" lon="12.9383783"><ele>312.0</ele><time>2026-04-19T09:56:30.831Z</time></trkpt><trkpt lat="42.0233617" lon="12.938275"><ele>312.0</ele><time>2026-04-19T09:56:32.834Z</time></trkpt><trkpt lat="42.0233983" lon="12.9382"><ele>312.0</ele><time>2026-04-19T09:56:34.829Z</time></trkpt><trkpt lat="42.0233783" lon="12.9380967"><ele>312.0</ele><time>2026-04-19T09:56:37.883Z</time></trkpt><trkpt lat="42.02333" lon="12.9379917"><ele>312.0</ele><time>2026-04-19T09:56:40.832Z</time></trkpt><trkpt lat="42.023295" lon="12.937895"><ele>312.0</ele><time>2026-04-19T09:56:42.831Z</time></trkpt><trkpt lat="42.0232417" lon="12.9377683"><ele>312.0</ele><time>2026-04-19T09:56:44.825Z</time></trkpt><trkpt lat="42.0231467" lon="12.9376383"><ele>312.0</ele><time>2026-04-19T09:56:46.826Z</time></trkpt><trkpt lat="42.0230483" lon="12.9375917"><ele>312.0</ele><time>2026-04-19T09:56:48.832Z</time></trkpt><trkpt lat="42.0229583" lon="12.9376283"><ele>312.0</ele><time>2026-04-19T09:56:50.826Z</time></trkpt><trkpt lat="42.0228933" lon="12.937675"><ele>312.0</ele><time>2026-04-19T09:56:51.832Z</time></trkpt><trkpt lat="42.0228033" lon="12.9377383"><ele>312.0</ele><time>2026-04-19T09:56:52.831Z</time></trkpt><trkpt lat="42.0227133" lon="12.9378067"><ele>312.0</ele><time>2026-04-19T09:56:53.83Z</time></trkpt><trkpt lat="42.0226267" lon="12.9378717"><ele>312.0</ele><time>2026-04-19T09:56:54.831Z</time></trkpt><trkpt lat="42.0225417" lon="12.937925"><ele>312.0</ele><time>2026-04-19T09:56:55.896Z</time></trkpt><trkpt lat="42.022475" lon="12.937965"><ele>312.0</ele><time>2026-04-19T09:56:56.829Z</time></trkpt><trkpt lat="42.0224" lon="12.9380283"><ele>319.6</ele><time>2026-04-19T09:56:58.828Z</time></trkpt><trkpt lat="42.0223417" lon="12.9381233"><ele>327.2</ele><time>2026-04-19T09:57:00.835Z</time></trkpt><trkpt lat="42.0223167" lon="12.938215"><ele>334.8</ele><time>2026-04-19T09:57:01.883Z</time></trkpt><trkpt lat="42.0222867" lon="12.93833"><ele>342.4</ele><time>2026-04-19T09:57:02.829Z</time></trkpt><trkpt lat="42.02226" lon="12.9384733"><ele>350.0</ele><time>2026-04-19T09:57:03.835Z</time></trkpt><trkpt lat="42.0222483" lon="12.9386233"><ele>350.0</ele><time>2026-04-19T09:57:04.833Z</time></trkpt><trkpt lat="42.0222467" lon="12.938755"><ele>350.0</ele><time>2026-04-19T09:57:05.829Z</time></trkpt><trkpt lat="42.022235" lon="12.938995"><ele>350.0</ele><time>2026-04-19T09:57:07.881Z</time></trkpt><trkpt lat="42.02222" lon="12.9391167"><ele>350.0</ele><time>2026-04-19T09:57:08.834Z</time></trkpt><trkpt lat="42.0222033" lon="12.9392433"><ele>349.2</ele><time>2026-04-19T09:57:09.836Z</time></trkpt><trkpt lat="42.0221933" lon="12.9393717"><ele>348.4</ele><time>2026-04-19T09:57:10.819Z</time></trkpt><trkpt lat="42.0221883" lon="12.9395017"><ele>347.6</ele><time>2026-04-19T09:57:11.829Z</time></trkpt><trkpt lat="42.0221917" lon="12.9396333"><ele>346.8</ele><time>2026-04-19T09:57:12.832Z</time></trkpt><trkpt lat="42.0221967" lon="12.9397683"><ele>346.0</ele><time>2026-04-19T09:57:13.881Z</time></trkpt><trkpt lat="42.022205" lon="12.9398933"><ele>346.0</ele><time>2026-04-19T09:57:14.831Z</time></trkpt><trkpt lat="42.0221967" lon="12.940005"><ele>346.0</ele><time>2026-04-19T09:57:15.829Z</time></trkpt><trkpt lat="42.0221717" lon="12.940095"><ele>346.0</ele><time>2026-04-19T09:57:16.83Z</time></trkpt><trkpt lat="42.022115" lon="12.94018"><ele>346.0</ele><time>2026-04-19T09:57:17.827Z</time></trkpt><trkpt lat="42.0220533" lon="12.9402667"><ele>346.0</ele><time>2026-04-19T09:57:18.827Z</time></trkpt><trkpt lat="42.0219783" lon="12.9403517"><ele>346.0</ele><time>2026-04-19T09:57:19.883Z</time></trkpt><trkpt lat="42.0219083" lon="12.9404433"><ele>346.0</ele><time>2026-04-19T09:57:20.831Z</time></trkpt><trkpt lat="42.0218383" lon="12.94052"><ele>346.0</ele><time>2026-04-19T09:57:21.831Z</time></trkpt><trkpt lat="42.021775" lon="12.94057"><ele>346.0</ele><time>2026-04-19T09:57:22.828Z</time></trkpt><trkpt lat="42.0217" lon="12.9405883"><ele>346.0</ele><time>2026-04-19T09:57:23.831Z</time></trkpt><trkpt lat="42.0216333" lon="12.9405783"><ele>346.0</ele><time>2026-04-19T09:57:24.831Z</time></trkpt><trkpt lat="42.0215617" lon="12.9405567"><ele>346.0</ele><time>2026-04-19T09:57:25.898Z</time></trkpt><trkpt lat="42.0214783" lon="12.9405233"><ele>352.25</ele><time>2026-04-19T09:57:26.828Z</time></trkpt><trkpt lat="42.0213083" lon="12.940435"><ele>358.5</ele><time>2026-04-19T09:57:28.828Z</time></trkpt><trkpt lat="42.0212233" lon="12.9403867"><ele>364.75</ele><time>2026-04-19T09:57:29.83Z</time></trkpt><trkpt lat="42.0211317" lon="12.940335"><ele>371.0</ele><time>2026-04-19T09:57:30.825Z</time></trkpt><trkpt lat="42.0210483" lon="12.9402767"><ele>371.0</ele><time>2026-04-19T09:57:31.879Z</time></trkpt><trkpt lat="42.0209767" lon="12.9402183"><ele>371.0</ele><time>2026-04-19T09:57:32.831Z</time></trkpt><trkpt lat="42.0209133" lon="12.940155"><ele>371.0</ele><time>2026-04-19T09:57:33.828Z</time></trkpt><trkpt lat="42.0208617" lon="12.9400917"><ele>371.0</ele><time>2026-04-19T09:57:34.834Z</time></trkpt><trkpt lat="42.020795" lon="12.94003"><ele>371.0</ele><time>2026-04-19T09:57:36.833Z</time></trkpt><trkpt lat="42.0207367" lon="12.94008"><ele>371.0</ele><time>2026-04-19T09:57:38.83Z</time></trkpt><trkpt lat="42.0206383" lon="12.9401883"><ele>374.0</ele><time>2026-04-19T09:57:40.832Z</time></trkpt><trkpt lat="42.0205783" lon="12.94023"><ele>377.0</ele><time>2026-04-19T09:57:41.83Z</time></trkpt><trkpt lat="42.02051" lon="12.940265"><ele>380.0</ele><time>2026-04-19T09:57:42.837Z</time></trkpt><trkpt lat="42.0204367" lon="12.9402867"><ele>383.0</ele><time>2026-04-19T09:57:43.885Z</time></trkpt><trkpt lat="42.02036" lon="12.9403117"><ele>386.0</ele><time>2026-04-19T09:57:44.833Z</time></trkpt><trkpt lat="42.0202867" lon="12.9403283"><ele>389.0</ele><time>2026-04-19T09:57:45.841Z</time></trkpt><trkpt lat="42.0202117" lon="12.9403333"><ele>392.0</ele><time>2026-04-19T09:57:46.83Z</time></trkpt><trkpt lat="42.0201367" lon="12.9403383"><ele>396.25</ele><time>2026-04-19T09:57:47.826Z</time></trkpt><trkpt lat="42.0199667" lon="12.94037"><ele>400.5</ele><time>2026-04-19T09:57:49.88Z</time></trkpt><trkpt lat="42.019865" lon="12.9404033"><ele>404.75</ele><time>2026-04-19T09:57:50.832Z</time></trkpt><trkpt lat="42.0197567" lon="12.940435"><ele>409.0</ele><time>2026-04-19T09:57:51.832Z</time></trkpt><trkpt lat="42.0196483" lon="12.9404617"><ele>409.0</ele><time>2026-04-19T09:57:52.828Z</time></trkpt><trkpt lat="42.0195467" lon="12.9404833"><ele>409.0</ele><time>2026-04-19T09:57:53.828Z</time></trkpt><trkpt lat="42.01945" lon="12.9405133"><ele>409.0</ele><time>2026-04-19T09:57:54.831Z</time></trkpt><trkpt lat="42.0193617" lon="12.9405617"><ele>409.0</ele><time>2026-04-19T09:57:55.895Z</time></trkpt><trkpt lat="42.0192733" lon="12.9406183"><ele>409.0</ele><time>2026-04-19T09:57:56.834Z</time></trkpt><trkpt lat="42.019205" lon="12.94069"><ele>411.2</ele><time>2026-04-19T09:57:57.83Z</time></trkpt><trkpt lat="42.01914" lon="12.940775"><ele>413.4</ele><time>2026-04-19T09:57:58.821Z</time></trkpt><trkpt lat="42.0190983" lon="12.9408733"><ele>415.6</ele><time>2026-04-19T09:57:59.824Z</time></trkpt><trkpt lat="42.019055" lon="12.9409833"><ele>417.8</ele><time>2026-04-19T09:58:00.833Z</time></trkpt><trkpt lat="42.01901" lon="12.9411067"><ele>420.0</ele><time>2026-04-19T09:58:01.881Z</time></trkpt><trkpt lat="42.01896" lon="12.9412267"><ele>421.4</ele><time>2026-04-19T09:58:02.832Z</time></trkpt><trkpt lat="42.0189117" lon="12.94135"><ele>422.8</ele><time>2026-04-19T09:58:03.827Z</time></trkpt><trkpt lat="42.018865" lon="12.9414733"><ele>424.20000000000005</ele><time>2026-04-19T09:58:04.834Z</time></trkpt><trkpt lat="42.0188217" lon="12.9415833"><ele>425.6</ele><time>2026-04-19T09:58:05.832Z</time></trkpt><trkpt lat="42.0187833" lon="12.9416917"><ele>427.0</ele><time>2026-04-19T09:58:06.827Z</time></trkpt><trkpt lat="42.0187417" lon="12.9417917"><ele>428.6</ele><time>2026-04-19T09:58:07.878Z</time></trkpt><trkpt lat="42.0186983" lon="12.941885"><ele>430.20000000000005</ele><time>2026-04-19T09:58:08.836Z</time></trkpt><trkpt lat="42.0186483" lon="12.9421167"><ele>431.8</ele><time>2026-04-19T09:58:11.827Z</time></trkpt><trkpt lat="42.018645" lon="12.9422267"><ele>433.4</ele><time>2026-04-19T09:58:12.832Z</time></trkpt><trkpt lat="42.0186367" lon="12.9423667"><ele>435.0</ele><time>2026-04-19T09:58:13.879Z</time></trkpt><trkpt lat="42.0186333" lon="12.94251"><ele>436.4</ele><time>2026-04-19T09:58:14.83Z</time></trkpt><trkpt lat="42.0186317" lon="12.9426417"><ele>437.8</ele><time>2026-04-19T09:58:15.834Z</time></trkpt><trkpt lat="42.018625" lon="12.9427467"><ele>439.20000000000005</ele><time>2026-04-19T09:58:16.829Z</time></trkpt><trkpt lat="42.0185883" lon="12.94289"><ele>440.6</ele><time>2026-04-19T09:58:18.826Z</time></trkpt><trkpt lat="42.0184617" lon="12.9429083"><ele>442.0</ele><time>2026-04-19T09:58:20.828Z</time></trkpt><trkpt lat="42.0183967" lon="12.94291"><ele>443.0</ele><time>2026-04-19T09:58:21.827Z</time></trkpt><trkpt lat="42.0182467" lon="12.9428967"><ele>444.0</ele><time>2026-04-19T10:07:32.841Z</time></trkpt><trkpt lat="42.0180733" lon="12.9429867"><ele>445.0</ele><time>2026-04-19T10:07:37.869Z</time></trkpt><trkpt lat="42.017995" lon="12.9430467"><ele>446.0</ele><time>2026-04-19T10:07:39.84Z</time></trkpt><trkpt lat="42.0179017" lon="12.9430583"><ele>446.0</ele><time>2026-04-19T10:07:41.831Z</time></trkpt><trkpt lat="42.017795" lon="12.943045"><ele>446.0</ele><time>2026-04-19T10:07:43.872Z</time></trkpt><trkpt lat="42.01769" lon="12.9430767"><ele>446.0</ele><time>2026-04-19T10:07:45.829Z</time></trkpt><trkpt lat="42.0176383" lon="12.9431667"><ele>446.0</ele><time>2026-04-19T10:07:47.837Z</time></trkpt><trkpt lat="42.0176383" lon="12.943285"><ele>446.0</ele><time>2026-04-19T10:07:49.879Z</time></trkpt><trkpt lat="42.0176267" lon="12.9434067"><ele>448.0</ele><time>2026-04-19T10:07:51.834Z</time></trkpt><trkpt lat="42.017565" lon="12.9435317"><ele>450.0</ele><time>2026-04-19T10:07:53.835Z</time></trkpt><trkpt lat="42.0174267" lon="12.9436817"><ele>452.0</ele><time>2026-04-19T10:07:56.828Z</time></trkpt><trkpt lat="42.0173717" lon="12.9437617"><ele>454.0</ele><time>2026-04-19T10:07:57.829Z</time></trkpt><trkpt lat="42.0173267" lon="12.9438483"><ele>456.0</ele><time>2026-04-19T10:07:58.836Z</time></trkpt><trkpt lat="42.0172783" lon="12.9439367"><ele>459.6666666666667</ele><time>2026-04-19T10:07:59.833Z</time></trkpt><trkpt lat="42.017235" lon="12.9440017"><ele>463.33333333333337</ele><time>2026-04-19T10:08:00.829Z</time></trkpt><trkpt lat="42.0171383" lon="12.9440317"><ele>467.0</ele><time>2026-04-19T10:08:02.826Z</time></trkpt><trkpt lat="42.01707" lon="12.944"><ele>470.6666666666667</ele><time>2026-04-19T10:08:03.834Z</time></trkpt><trkpt lat="42.01699" lon="12.9439517"><ele>474.33333333333337</ele><time>2026-04-19T10:08:04.837Z</time></trkpt><trkpt lat="42.016905" lon="12.94392"><ele>478.0</ele><time>2026-04-19T10:08:05.835Z</time></trkpt><trkpt lat="42.01682" lon="12.9439"><ele>478.00000000000006</ele><time>2026-04-19T10:08:06.841Z</time></trkpt><trkpt lat="42.0167383" lon="12.9438883"><ele>478.0</ele><time>2026-04-19T10:08:07.875Z</time></trkpt><trkpt lat="42.0166667" lon="12.9438817"><ele>478.0</ele><time>2026-04-19T10:08:08.83Z</time></trkpt><trkpt lat="42.0165967" lon="12.9438917"><ele>478.0</ele><time>2026-04-19T10:08:09.827Z</time></trkpt><trkpt lat="42.0165267" lon="12.9439217"><ele>478.00000000000006</ele><time>2026-04-19T10:08:10.83Z</time></trkpt><trkpt lat="42.0164533" lon="12.943975"><ele>478.0</ele><time>2026-04-19T10:08:11.832Z</time></trkpt><trkpt lat="42.0163717" lon="12.944025"><ele>480.75</ele><time>2026-04-19T10:08:12.833Z</time></trkpt><trkpt lat="42.0162867" lon="12.944065"><ele>483.5</ele><time>2026-04-19T10:08:13.869Z</time></trkpt><trkpt lat="42.0162" lon="12.944105"><ele>486.25</ele><time>2026-04-19T10:08:14.83Z</time></trkpt><trkpt lat="42.0160033" lon="12.9442067"><ele>489.0</ele><time>2026-04-19T10:08:16.831Z</time></trkpt><trkpt lat="42.015915" lon="12.9442633"><ele>491.1666666666667</ele><time>2026-04-19T10:08:17.837Z</time></trkpt><trkpt lat="42.0158383" lon="12.9443233"><ele>493.33333333333337</ele><time>2026-04-19T10:08:18.834Z</time></trkpt><trkpt lat="42.015775" lon="12.9443833"><ele>495.5</ele><time>2026-04-19T10:08:19.869Z</time></trkpt><trkpt lat="42.0157183" lon="12.9444517"><ele>497.6666666666667</ele><time>2026-04-19T10:08:20.838Z</time></trkpt><trkpt lat="42.0156667" lon="12.94453"><ele>499.83333333333337</ele><time>2026-04-19T10:08:21.832Z</time></trkpt><trkpt lat="42.0156333" lon="12.94461"><ele>502.0</ele><time>2026-04-19T10:08:22.828Z</time></trkpt><trkpt lat="42.0156367" lon="12.9447233"><ele>502.0</ele><time>2026-04-19T10:08:24.837Z</time></trkpt><trkpt lat="42.0157183" lon="12.9448417"><ele>502.00000000000006</ele><time>2026-04-19T10:08:26.831Z</time></trkpt><trkpt lat="42.015765" lon="12.9449033"><ele>502.00000000000006</ele><time>2026-04-19T10:08:27.826Z</time></trkpt><trkpt lat="42.0158033" lon="12.9450483"><ele>502.0</ele><time>2026-04-19T10:08:29.83Z</time></trkpt><trkpt lat="42.0157767" lon="12.9452217"><ele>502.0</ele><time>2026-04-19T10:08:31.88Z</time></trkpt><trkpt lat="42.0157633" lon="12.9453317"><ele>507.40000000000003</ele><time>2026-04-19T10:08:32.83Z</time></trkpt><trkpt lat="42.0157383" lon="12.945435"><ele>512.8000000000001</ele><time>2026-04-19T10:08:33.836Z</time></trkpt><trkpt lat="42.0157017" lon="12.9455283"><ele>518.2</ele><time>2026-04-19T10:08:34.833Z</time></trkpt><trkpt lat="42.0156517" lon="12.9456167"><ele>523.6</ele><time>2026-04-19T10:08:35.837Z</time></trkpt><trkpt lat="42.0155183" lon="12.945785"><ele>529.0</ele><time>2026-04-19T10:08:37.876Z</time></trkpt><trkpt lat="42.0154417" lon="12.9458667"><ele>534.2</ele><time>2026-04-19T10:08:38.826Z</time></trkpt><trkpt lat="42.01536" lon="12.9459417"><ele>539.4</ele><time>2026-04-19T10:08:39.83Z</time></trkpt><trkpt lat="42.01528" lon="12.9460083"><ele>544.6</ele><time>2026-04-19T10:08:40.828Z</time></trkpt><trkpt lat="42.0152" lon="12.9460583"><ele>549.8</ele><time>2026-04-19T10:08:41.829Z</time></trkpt><trkpt lat="42.015115" lon="12.9460983"><ele>555.0</ele><time>2026-04-19T10:08:42.837Z</time></trkpt><trkpt lat="42.0150283" lon="12.94612"><ele>551.1666666666666</ele><time>2026-04-19T10:08:43.87Z</time></trkpt><trkpt lat="42.0149483" lon="12.9461483"><ele>547.3333333333334</ele><time>2026-04-19T10:08:44.833Z</time></trkpt><trkpt lat="42.014875" lon="12.946175"><ele>543.5</ele><time>2026-04-19T10:08:45.834Z</time></trkpt><trkpt lat="42.0148133" lon="12.946215"><ele>539.6666666666667</ele><time>2026-04-19T10:08:46.831Z</time></trkpt><trkpt lat="42.0147583" lon="12.9462767"><ele>535.8333333333334</ele><time>2026-04-19T10:08:47.835Z</time></trkpt><trkpt lat="42.0147067" lon="12.94636"><ele>532.0</ele><time>2026-04-19T10:08:48.833Z</time></trkpt><trkpt lat="42.0146567" lon="12.9464567"><ele>532.0</ele><time>2026-04-19T10:08:49.875Z</time></trkpt><trkpt lat="42.0146033" lon="12.9465633"><ele>532.0</ele><time>2026-04-19T10:08:50.834Z</time></trkpt><trkpt lat="42.0145533" lon="12.94667"><ele>532.0</ele><time>2026-04-19T10:08:51.829Z</time></trkpt><trkpt lat="42.0144967" lon="12.946775"><ele>532.0</ele><time>2026-04-19T10:08:52.834Z</time></trkpt><trkpt lat="42.0144367" lon="12.9468767"><ele>532.0</ele><time>2026-04-19T10:08:53.839Z</time></trkpt><trkpt lat="42.0143833" lon="12.9469783"><ele>532.0</ele><time>2026-04-19T10:08:54.833Z</time></trkpt><trkpt lat="42.014325" lon="12.9470783"><ele>532.0</ele><time>2026-04-19T10:08:55.899Z</time></trkpt><trkpt lat="42.0142617" lon="12.9471817"><ele>532.0</ele><time>2026-04-19T10:08:56.832Z</time></trkpt><trkpt lat="42.0141283" lon="12.9474"><ele>532.0</ele><time>2026-04-19T10:08:58.849Z</time></trkpt><trkpt lat="42.01406" lon="12.947515"><ele>537.2</ele><time>2026-04-19T10:08:59.827Z</time></trkpt><trkpt lat="42.0139883" lon="12.947625"><ele>542.4000000000001</ele><time>2026-04-19T10:09:00.835Z</time></trkpt><trkpt lat="42.01392" lon="12.94774"><ele>547.5999999999999</ele><time>2026-04-19T10:09:01.884Z</time></trkpt><trkpt lat="42.0138617" lon="12.947855"><ele>552.8</ele><time>2026-04-19T10:09:02.833Z</time></trkpt><trkpt lat="42.0138017" lon="12.9479483"><ele>558.0</ele><time>2026-04-19T10:09:03.836Z</time></trkpt><trkpt lat="42.0137417" lon="12.9480333"><ele>558.0</ele><time>2026-04-19T10:09:04.83Z</time></trkpt><trkpt lat="42.0136933" lon="12.9481167"><ele>558.0</ele><time>2026-04-19T10:09:05.831Z</time></trkpt><trkpt lat="42.0136517" lon="12.9482033"><ele>558.0</ele><time>2026-04-19T10:09:06.828Z</time></trkpt><trkpt lat="42.0136183" lon="12.9483083"><ele>558.0</ele><time>2026-04-19T10:09:07.869Z</time></trkpt><trkpt lat="42.013585" lon="12.94842"><ele>558.0</ele><time>2026-04-19T10:09:08.83Z</time></trkpt><trkpt lat="42.0135483" lon="12.948545"><ele>558.0</ele><time>2026-04-19T10:09:09.836Z</time></trkpt><trkpt lat="42.0135017" lon="12.9487017"><ele>561.75</ele><time>2026-04-19T10:09:10.83Z</time></trkpt><trkpt lat="42.0134517" lon="12.9488617"><ele>565.5</ele><time>2026-04-19T10:09:11.827Z</time></trkpt><trkpt lat="42.013395" lon="12.949025"><ele>569.25</ele><time>2026-04-19T10:09:12.835Z</time></trkpt><trkpt lat="42.01334" lon="12.9491833"><ele>573.0</ele><time>2026-04-19T10:09:13.869Z</time></trkpt><trkpt lat="42.01329" lon="12.9493383"><ele>574.0</ele><time>2026-04-19T10:09:14.835Z</time></trkpt><trkpt lat="42.013245" lon="12.94948"><ele>575.0</ele><time>2026-04-19T10:09:15.825Z</time></trkpt><trkpt lat="42.0132017" lon="12.9496017"><ele>576.0</ele><time>2026-04-19T10:09:16.834Z</time></trkpt><trkpt lat="42.0131633" lon="12.9497183"><ele>577.0</ele><time>2026-04-19T10:09:17.835Z</time></trkpt><trkpt lat="42.0131033" lon="12.9499567"><ele>579.4</ele><time>2026-04-19T10:09:19.868Z</time></trkpt><trkpt lat="42.01308" lon="12.950085"><ele>581.8000000000001</ele><time>2026-04-19T10:09:20.83Z</time></trkpt><trkpt lat="42.0130517" lon="12.9502233"><ele>584.2</ele><time>2026-04-19T10:09:21.837Z</time></trkpt><trkpt lat="42.0130133" lon="12.9503583"><ele>586.6</ele><time>2026-04-19T10:09:22.832Z</time></trkpt><trkpt lat="42.012975" lon="12.9504883"><ele>589.0</ele><time>2026-04-19T10:09:23.83Z</time></trkpt><trkpt lat="42.01294" lon="12.9506083"><ele>589.0</ele><time>2026-04-19T10:09:24.833Z</time></trkpt><trkpt lat="42.012895" lon="12.9507183"><ele>589.0</ele><time>2026-04-19T10:09:25.901Z</time></trkpt><trkpt lat="42.01284" lon="12.9508233"><ele>589.0</ele><time>2026-04-19T10:09:26.826Z</time></trkpt><trkpt lat="42.0127867" lon="12.950935"><ele>589.0</ele><time>2026-04-19T10:09:27.836Z</time></trkpt><trkpt lat="42.0127283" lon="12.9510367"><ele>589.0</ele><time>2026-04-19T10:09:28.834Z</time></trkpt><trkpt lat="42.012655" lon="12.9511167"><ele>592.3333333333334</ele><time>2026-04-19T10:09:29.831Z</time></trkpt><trkpt lat="42.0125683" lon="12.9511733"><ele>595.6666666666667</ele><time>2026-04-19T10:09:30.832Z</time></trkpt><trkpt lat="42.0124767" lon="12.951215"><ele>599.0</ele><time>2026-04-19T10:09:31.882Z</time></trkpt><trkpt lat="42.012395" lon="12.9512567"><ele>602.3333333333334</ele><time>2026-04-19T10:09:32.832Z</time></trkpt><trkpt lat="42.0123117" lon="12.9512817"><ele>605.6666666666666</ele><time>2026-04-19T10:09:33.826Z</time></trkpt><trkpt lat="42.0122467" lon="12.9513067"><ele>609.0</ele><time>2026-04-19T10:09:34.828Z</time></trkpt><trkpt lat="42.0121633" lon="12.95135"><ele>614.6</ele><time>2026-04-19T10:09:36.837Z</time></trkpt><trkpt lat="42.0121583" lon="12.95144"><ele>620.2</ele><time>2026-04-19T10:09:41.831Z</time></trkpt><trkpt lat="42.0121767" lon="12.9517167"><ele>625.8000000000001</ele><time>2026-04-19T10:09:56.831Z</time></trkpt><trkpt lat="42.01221" lon="12.951835"><ele>631.4</ele><time>2026-04-19T10:09:58.836Z</time></trkpt><trkpt lat="42.0122383" lon="12.95192"><ele>637.0</ele><time>2026-04-19T10:10:00.836Z</time></trkpt><trkpt lat="42.0121567" lon="12.9519767"><ele>637.0</ele><time>2026-04-19T10:10:06.836Z</time></trkpt><trkpt lat="42.0119733" lon="12.9519317"><ele>637.0</ele><time>2026-04-19T10:10:27.838Z</time></trkpt><trkpt lat="42.0119117" lon="12.9516517"><ele>637.0</ele><time>2026-04-19T10:11:17.833Z</time></trkpt><trkpt lat="42.0118867" lon="12.9515567"><ele>637.0</ele><time>2026-04-19T10:11:19.869Z</time></trkpt><trkpt lat="42.01184" lon="12.95148"><ele>637.0</ele><time>2026-04-19T10:11:21.839Z</time></trkpt><trkpt lat="42.0117967" lon="12.951385"><ele>637.0</ele><time>2026-04-19T10:11:24.832Z</time></trkpt><trkpt lat="42.0117067" lon="12.951215"><ele>637.0</ele><time>2026-04-19T10:11:40.836Z</time></trkpt><trkpt lat="42.0115683" lon="12.9510983"><ele>645.0</ele><time>2026-04-19T10:11:51.836Z</time></trkpt><trkpt lat="42.0115017" lon="12.9510467"><ele>653.0</ele><time>2026-04-19T10:11:55.896Z</time></trkpt><trkpt lat="42.01142" lon="12.9509967"><ele>661.0</ele><time>2026-04-19T10:11:58.838Z</time></trkpt><trkpt lat="42.0113667" lon="12.9509117"><ele>669.0</ele><time>2026-04-19T10:12:01.893Z</time></trkpt><trkpt lat="42.0112033" lon="12.95055"><ele>669.0</ele><time>2026-04-19T10:17:27.837Z</time></trkpt><trkpt lat="42.0111517" lon="12.95048"><ele>669.0</ele><time>2026-04-19T10:17:29.83Z</time></trkpt><trkpt lat="42.0111017" lon="12.9504267"><ele>669.0</ele><time>2026-04-19T10:17:31.885Z</time></trkpt><trkpt lat="42.011045" lon="12.950355"><ele>669.0</ele><time>2026-04-19T10:17:34.829Z</time></trkpt><trkpt lat="42.010985" lon="12.9503133"><ele>669.0</ele><time>2026-04-19T10:17:37.88Z</time></trkpt><trkpt lat="42.0109383" lon="12.9502283"><ele>669.0</ele><time>2026-04-19T10:17:40.831Z</time></trkpt><trkpt lat="42.010915" lon="12.9501467"><ele>669.0</ele><time>2026-04-19T10:17:42.84Z</time></trkpt><trkpt lat="42.010875" lon="12.9499517"><ele>668.0</ele><time>2026-04-19T10:17:46.826Z</time></trkpt><trkpt lat="42.0108733" lon="12.9498617"><ele>667.0</ele><time>2026-04-19T10:17:48.83Z</time></trkpt><trkpt lat="42.0108367" lon="12.9497483"><ele>666.0</ele><time>2026-04-19T10:17:51.832Z</time></trkpt><trkpt lat="42.0108033" lon="12.94964"><ele>665.0</ele><time>2026-04-19T10:17:53.833Z</time></trkpt><trkpt lat="42.0107683" lon="12.949505"><ele>664.0</ele><time>2026-04-19T10:17:55.897Z</time></trkpt><trkpt lat="42.010755" lon="12.9494183"><ele>663.0</ele><time>2026-04-19T10:17:56.833Z</time></trkpt><trkpt lat="42.0107283" lon="12.9492617"><ele>679.75</ele><time>2026-04-19T10:17:58.835Z</time></trkpt><trkpt lat="42.01073" lon="12.9491117"><ele>696.5</ele><time>2026-04-19T10:18:00.833Z</time></trkpt><trkpt lat="42.01073" lon="12.9489833"><ele>713.25</ele><time>2026-04-19T10:18:02.831Z</time></trkpt><trkpt lat="42.0107217" lon="12.9488633"><ele>730.0</ele><time>2026-04-19T10:18:04.836Z</time></trkpt><trkpt lat="42.0106967" lon="12.94864"><ele>730.0</ele><time>2026-04-19T10:18:09.833Z</time></trkpt><trkpt lat="42.01069" lon="12.9485183"><ele>730.0</ele><time>2026-04-19T10:18:11.833Z</time></trkpt><trkpt lat="42.0106717" lon="12.9484017"><ele>730.0</ele><time>2026-04-19T10:18:13.877Z</time></trkpt><trkpt lat="42.01065" lon="12.948315"><ele>730.0</ele><time>2026-04-19T10:18:15.834Z</time></trkpt><trkpt lat="42.010595" lon="12.9483683"><ele>730.0</ele><time>2026-04-19T10:18:25.86Z</time></trkpt><trkpt lat="42.01052" lon="12.9481267"><ele>730.0</ele><time>2026-04-19T10:18:33.833Z</time></trkpt><trkpt lat="42.0105033" lon="12.948035"><ele>730.0</ele><time>2026-04-19T10:18:34.827Z</time></trkpt><trkpt lat="42.0104883" lon="12.9479483"><ele>730.0</ele><time>2026-04-19T10:18:35.832Z</time></trkpt><trkpt lat="42.0104767" lon="12.9478633"><ele>730.0</ele><time>2026-04-19T10:18:36.828Z</time></trkpt><trkpt lat="42.0104667" lon="12.9477767"><ele>730.0</ele><time>2026-04-19T10:18:37.877Z</time></trkpt><trkpt lat="42.0104667" lon="12.94761"><ele>730.0</ele><time>2026-04-19T10:18:39.838Z</time></trkpt><trkpt lat="42.010475" lon="12.9474967"><ele>730.0</ele><time>2026-04-19T10:18:41.83Z</time></trkpt><trkpt lat="42.010455" lon="12.9473767"><ele>730.0</ele><time>2026-04-19T10:18:43.876Z</time></trkpt><trkpt lat="42.0104217" lon="12.9472633"><ele>730.0</ele><time>2026-04-19T10:18:45.831Z</time></trkpt><trkpt lat="42.0103733" lon="12.9471583"><ele>730.0</ele><time>2026-04-19T10:18:47.833Z</time></trkpt><trkpt lat="42.01032" lon="12.9469483"><ele>730.0</ele><time>2026-04-19T10:18:53.831Z</time></trkpt><trkpt lat="42.010295" lon="12.946845"><ele>730.0</ele><time>2026-04-19T10:18:55.896Z</time></trkpt><trkpt lat="42.0102533" lon="12.94676"><ele>730.0</ele><time>2026-04-19T10:18:57.831Z</time></trkpt><trkpt lat="42.0101833" lon="12.946715"><ele>730.0</ele><time>2026-04-19T10:18:59.838Z</time></trkpt><trkpt lat="42.0101" lon="12.946685"><ele>730.0</ele><time>2026-04-19T10:19:01.88Z</time></trkpt><trkpt lat="42.01002" lon="12.9466233"><ele>730.0</ele><time>2026-04-19T10:19:03.831Z</time></trkpt><trkpt lat="42.00995" lon="12.9465833"><ele>730.0</ele><time>2026-04-19T10:19:05.836Z</time></trkpt><trkpt lat="42.009855" lon="12.946545"><ele>729.8</ele><time>2026-04-19T10:19:07.874Z</time></trkpt><trkpt lat="42.0097583" lon="12.9465567"><ele>729.6</ele><time>2026-04-19T10:19:09.831Z</time></trkpt><trkpt lat="42.0095933" lon="12.9466383"><ele>729.4000000000001</ele><time>2026-04-19T10:19:13.878Z</time></trkpt><trkpt lat="42.00953" lon="12.94665"><ele>729.2</ele><time>2026-04-19T10:19:15.838Z</time></trkpt><trkpt lat="42.0094517" lon="12.9466533"><ele>729.0</ele><time>2026-04-19T10:19:18.833Z</time></trkpt><trkpt lat="42.009385" lon="12.9466583"><ele>729.0</ele><time>2026-04-19T10:19:20.835Z</time></trkpt><trkpt lat="42.0093233" lon="12.9466783"><ele>729.0</ele><time>2026-04-19T10:19:22.833Z</time></trkpt><trkpt lat="42.0092617" lon="12.9467"><ele>729.0</ele><time>2026-04-19T10:19:24.838Z</time></trkpt><trkpt lat="42.0091817" lon="12.9467217"><ele>729.0</ele><time>2026-04-19T10:19:27.841Z</time></trkpt><trkpt lat="42.0090977" lon="12.9467754"><ele>729.0</ele><time>2026-04-19T10:19:37.877Z</time></trkpt><trkpt lat="42.0089127" lon="12.9468195"><ele>735.6666666666666</ele><time>2026-04-19T10:19:42.832Z</time></trkpt><trkpt lat="42.0088505" lon="12.9468428"><ele>742.3333333333333</ele><time>2026-04-19T10:19:44.83Z</time></trkpt><trkpt lat="42.0087685" lon="12.9468476"><ele>749.0</ele><time>2026-04-19T10:19:48.832Z</time></trkpt><trkpt lat="42.008701" lon="12.9468208"><ele>755.6666666666666</ele><time>2026-04-19T10:19:51.827Z</time></trkpt><trkpt lat="42.0086119" lon="12.9467581"><ele>762.3333333333333</ele><time>2026-04-19T10:19:57.829Z</time></trkpt><trkpt lat="42.0085105" lon="12.9467458"><ele>769.0</ele><time>2026-04-19T10:19:59.827Z</time></trkpt><trkpt lat="42.008325" lon="12.9467797"><ele>768.9999999999999</ele><time>2026-04-19T10:20:03.84Z</time></trkpt><trkpt lat="42.0082662" lon="12.9467418"><ele>769.0</ele><time>2026-04-19T10:20:05.838Z</time></trkpt><trkpt lat="42.0081796" lon="12.9466919"><ele>769.0</ele><time>2026-04-19T10:20:07.874Z</time></trkpt><trkpt lat="42.0081083" lon="12.9466758"><ele>769.0</ele><time>2026-04-19T10:20:09.83Z</time></trkpt><trkpt lat="42.0080411" lon="12.9467093"><ele>768.9999999999999</ele><time>2026-04-19T10:20:11.832Z</time></trkpt><trkpt lat="42.0079765" lon="12.9467816"><ele>769.0</ele><time>2026-04-19T10:20:13.877Z</time></trkpt><trkpt lat="42.0079239" lon="12.9468703"><ele>768.9999999999999</ele><time>2026-04-19T10:20:15.832Z</time></trkpt><trkpt lat="42.0078681" lon="12.9469483"><ele>769.0</ele><time>2026-04-19T10:20:17.827Z</time></trkpt><trkpt lat="42.0078051" lon="12.9470072"><ele>769.0</ele><time>2026-04-19T10:20:19.879Z</time></trkpt><trkpt lat="42.0077508" lon="12.9470624"><ele>769.0</ele><time>2026-04-19T10:20:22.829Z</time></trkpt><trkpt lat="42.0076454" lon="12.9472137"><ele>768.9999999999999</ele><time>2026-04-19T10:20:27.835Z</time></trkpt><trkpt lat="42.0075994" lon="12.947284"><ele>769.0</ele><time>2026-04-19T10:20:29.834Z</time></trkpt><trkpt lat="42.007516" lon="12.9473333"><ele>768.2</ele><time>2026-04-19T10:20:32.833Z</time></trkpt><trkpt lat="42.0074476" lon="12.9473566"><ele>767.4000000000001</ele><time>2026-04-19T10:20:35.83Z</time></trkpt><trkpt lat="42.0074514" lon="12.9474736"><ele>766.6</ele><time>2026-04-19T10:24:41.834Z</time></trkpt><trkpt lat="42.0073202" lon="12.9475648"><ele>765.8</ele><time>2026-04-19T10:24:45.828Z</time></trkpt><trkpt lat="42.0072365" lon="12.9475612"><ele>765.0</ele><time>2026-04-19T10:24:47.831Z</time></trkpt><trkpt lat="42.0071675" lon="12.9475391"><ele>765.0</ele><time>2026-04-19T10:24:49.877Z</time></trkpt><trkpt lat="42.00709" lon="12.947487"><ele>765.0</ele><time>2026-04-19T10:24:52.831Z</time></trkpt><trkpt lat="42.007016" lon="12.9473436"><ele>765.0</ele><time>2026-04-19T10:34:00.836Z</time></trkpt><trkpt lat="42.0068925" lon="12.9472185"><ele>765.0</ele><time>2026-04-19T10:34:03.829Z</time></trkpt><trkpt lat="42.0068223" lon="12.9471692"><ele>765.0</ele><time>2026-04-19T10:34:04.834Z</time></trkpt><trkpt lat="42.0067436" lon="12.9471175"><ele>765.0</ele><time>2026-04-19T10:34:05.832Z</time></trkpt><trkpt lat="42.0066714" lon="12.9470562"><ele>765.0</ele><time>2026-04-19T10:34:06.834Z</time></trkpt><trkpt lat="42.006602" lon="12.9469776"><ele>765.0</ele><time>2026-04-19T10:34:07.88Z</time></trkpt><trkpt lat="42.006537" lon="12.946896"><ele>765.0</ele><time>2026-04-19T10:34:08.827Z</time></trkpt><trkpt lat="42.0064772" lon="12.9468189"><ele>765.0</ele><time>2026-04-19T10:34:09.833Z</time></trkpt><trkpt lat="42.0064062" lon="12.9467251"><ele>760.6</ele><time>2026-04-19T10:34:11.83Z</time></trkpt><trkpt lat="42.0063617" lon="12.9466617"><ele>756.2</ele><time>2026-04-19T10:34:18.83Z</time></trkpt><trkpt lat="42.0063583" lon="12.9465567"><ele>751.8</ele><time>2026-04-19T10:34:22.832Z</time></trkpt><trkpt lat="42.0062217" lon="12.9464583"><ele>747.4</ele><time>2026-04-19T10:34:26.838Z</time></trkpt><trkpt lat="42.006165" lon="12.946415"><ele>743.0</ele><time>2026-04-19T10:34:28.822Z</time></trkpt><trkpt lat="42.0062333" lon="12.9463167"><ele>743.0</ele><time>2026-04-19T10:34:32.829Z</time></trkpt><trkpt lat="42.0062983" lon="12.9462967"><ele>743.0</ele><time>2026-04-19T10:34:34.834Z</time></trkpt><trkpt lat="42.0063417" lon="12.9462133"><ele>743.0</ele><time>2026-04-19T10:34:37.881Z</time></trkpt><trkpt lat="42.00631" lon="12.9461083"><ele>743.0</ele><time>2026-04-19T10:34:40.837Z</time></trkpt><trkpt lat="42.0062767" lon="12.9459933"><ele>743.0</ele><time>2026-04-19T10:34:42.839Z</time></trkpt><trkpt lat="42.0062283" lon="12.9458467"><ele>743.0</ele><time>2026-04-19T10:34:44.836Z</time></trkpt><trkpt lat="42.0061067" lon="12.94561"><ele>740.3333333333333</ele><time>2026-04-19T10:34:47.837Z</time></trkpt><trkpt lat="42.0060667" lon="12.9455367"><ele>737.6666666666666</ele><time>2026-04-19T10:34:48.833Z</time></trkpt><trkpt lat="42.0059617" lon="12.9454567"><ele>735.0</ele><time>2026-04-19T10:34:50.834Z</time></trkpt><trkpt lat="42.0058683" lon="12.945445"><ele>732.3333333333334</ele><time>2026-04-19T10:34:52.837Z</time></trkpt><trkpt lat="42.005835" lon="12.9453717"><ele>729.6666666666667</ele><time>2026-04-19T10:34:57.838Z</time></trkpt><trkpt lat="42.00586" lon="12.9452867"><ele>727.0</ele><time>2026-04-19T10:34:59.831Z</time></trkpt><trkpt lat="42.0058683" lon="12.9451967"><ele>727.0</ele><time>2026-04-19T10:35:01.882Z</time></trkpt><trkpt lat="42.0059267" lon="12.9450817"><ele>727.0</ele><time>2026-04-19T10:35:03.832Z</time></trkpt><trkpt lat="42.006045" lon="12.94502"><ele>727.0</ele><time>2026-04-19T10:35:05.833Z</time></trkpt><trkpt lat="42.0061967" lon="12.9450283"><ele>727.0</ele><time>2026-04-19T10:35:07.879Z</time></trkpt><trkpt lat="42.00626" lon="12.9450067"><ele>727.0</ele><time>2026-04-19T10:35:08.827Z</time></trkpt><trkpt lat="42.0063467" lon="12.9449017"><ele>723.5</ele><time>2026-04-19T10:35:10.83Z</time></trkpt><trkpt lat="42.0063117" lon="12.9447817"><ele>720.0</ele><time>2026-04-19T10:35:12.834Z</time></trkpt><trkpt lat="42.0061317" lon="12.9447117"><ele>716.5</ele><time>2026-04-19T10:35:13.876Z</time></trkpt><trkpt lat="42.0060233" lon="12.94469"><ele>713.0</ele><time>2026-04-19T10:35:14.833Z</time></trkpt><trkpt lat="42.0059033" lon="12.944675"><ele>710.25</ele><time>2026-04-19T10:35:15.834Z</time></trkpt><trkpt lat="42.00578" lon="12.9446633"><ele>707.5</ele><time>2026-04-19T10:35:16.833Z</time></trkpt><trkpt lat="42.00566" lon="12.9446533"><ele>704.75</ele><time>2026-04-19T10:35:17.832Z</time></trkpt><trkpt lat="42.0055483" lon="12.9446483"><ele>702.0</ele><time>2026-04-19T10:35:18.833Z</time></trkpt><trkpt lat="42.005445" lon="12.9446467"><ele>702.0</ele><time>2026-04-19T10:35:19.879Z</time></trkpt><trkpt lat="42.0053533" lon="12.944645"><ele>702.0</ele><time>2026-04-19T10:35:20.834Z</time></trkpt><trkpt lat="42.005275" lon="12.9446417"><ele>702.0</ele><time>2026-04-19T10:35:21.83Z</time></trkpt><trkpt lat="42.0052083" lon="12.94465"><ele>702.0</ele><time>2026-04-19T10:35:22.827Z</time></trkpt><trkpt lat="42.005115" lon="12.9447167"><ele>702.0</ele><time>2026-04-19T10:35:24.832Z</time></trkpt><trkpt lat="42.0051033" lon="12.9448467"><ele>702.0</ele><time>2026-04-19T10:35:26.828Z</time></trkpt><trkpt lat="42.00508" lon="12.9450317"><ele>703.75</ele><time>2026-04-19T10:35:28.831Z</time></trkpt><trkpt lat="42.005045" lon="12.9451383"><ele>705.5</ele><time>2026-04-19T10:35:29.835Z</time></trkpt><trkpt lat="42.004975" lon="12.945255"><ele>707.25</ele><time>2026-04-19T10:35:30.832Z</time></trkpt><trkpt lat="42.0048717" lon="12.9453783"><ele>709.0</ele><time>2026-04-19T10:35:31.888Z</time></trkpt><trkpt lat="42.0047667" lon="12.9454933"><ele>706.4000000000001</ele><time>2026-04-19T10:35:32.832Z</time></trkpt><trkpt lat="42.00468" lon="12.9456"><ele>703.8</ele><time>2026-04-19T10:35:33.834Z</time></trkpt><trkpt lat="42.004615" lon="12.945705"><ele>701.2</ele><time>2026-04-19T10:35:34.836Z</time></trkpt><trkpt lat="42.0045617" lon="12.9458067"><ele>698.5999999999999</ele><time>2026-04-19T10:35:35.832Z</time></trkpt><trkpt lat="42.0045" lon="12.9459017"><ele>696.0</ele><time>2026-04-19T10:35:36.836Z</time></trkpt><trkpt lat="42.004435" lon="12.945995"><ele>696.0</ele><time>2026-04-19T10:35:37.879Z</time></trkpt><trkpt lat="42.0043617" lon="12.94608"><ele>696.0</ele><time>2026-04-19T10:35:38.834Z</time></trkpt><trkpt lat="42.0042867" lon="12.946155"><ele>696.0</ele><time>2026-04-19T10:35:39.837Z</time></trkpt><trkpt lat="42.0042033" lon="12.9462133"><ele>696.0</ele><time>2026-04-19T10:35:40.834Z</time></trkpt><trkpt lat="42.0041083" lon="12.946245"><ele>696.0</ele><time>2026-04-19T10:35:41.831Z</time></trkpt><trkpt lat="42.0040183" lon="12.9462767"><ele>692.1999999999999</ele><time>2026-04-19T10:35:42.833Z</time></trkpt><trkpt lat="42.0039317" lon="12.9463267"><ele>688.4</ele><time>2026-04-19T10:35:43.877Z</time></trkpt><trkpt lat="42.0038517" lon="12.946405"><ele>684.6</ele><time>2026-04-19T10:35:44.828Z</time></trkpt><trkpt lat="42.0037783" lon="12.9465083"><ele>680.8</ele><time>2026-04-19T10:35:45.839Z</time></trkpt><trkpt lat="42.0037117" lon="12.9466067"><ele>677.0</ele><time>2026-04-19T10:35:46.83Z</time></trkpt><trkpt lat="42.00365" lon="12.9466867"><ele>674.5</ele><time>2026-04-19T10:35:47.834Z</time></trkpt><trkpt lat="42.0035167" lon="12.9467733"><ele>672.0</ele><time>2026-04-19T10:35:49.879Z</time></trkpt><trkpt lat="42.0034483" lon="12.94677"><ele>669.5</ele><time>2026-04-19T10:35:50.832Z</time></trkpt><trkpt lat="42.0033367" lon="12.9467217"><ele>667.0</ele><time>2026-04-19T10:35:51.837Z</time></trkpt><trkpt lat="42.0032033" lon="12.9466783"><ele>667.0</ele><time>2026-04-19T10:35:52.833Z</time></trkpt><trkpt lat="42.0030633" lon="12.9466533"><ele>667.0</ele><time>2026-04-19T10:35:53.831Z</time></trkpt><trkpt lat="42.002935" lon="12.9466483"><ele>667.0</ele><time>2026-04-19T10:35:54.832Z</time></trkpt><trkpt lat="42.0028133" lon="12.946655"><ele>667.0</ele><time>2026-04-19T10:35:55.898Z</time></trkpt><trkpt lat="42.002695" lon="12.9466583"><ele>667.0</ele><time>2026-04-19T10:35:56.827Z</time></trkpt><trkpt lat="42.00258" lon="12.94666"><ele>667.0</ele><time>2026-04-19T10:35:57.834Z</time></trkpt><trkpt lat="42.0024717" lon="12.9466667"><ele>667.0</ele><time>2026-04-19T10:35:58.833Z</time></trkpt><trkpt lat="42.00237" lon="12.9466867"><ele>667.0</ele><time>2026-04-19T10:35:59.833Z</time></trkpt><trkpt lat="42.0022683" lon="12.9467117"><ele>667.0</ele><time>2026-04-19T10:36:00.837Z</time></trkpt><trkpt lat="42.002165" lon="12.94674"><ele>666.75</ele><time>2026-04-19T10:36:01.883Z</time></trkpt><trkpt lat="42.0020633" lon="12.94678"><ele>666.5</ele><time>2026-04-19T10:36:02.826Z</time></trkpt><trkpt lat="42.0019583" lon="12.9468333"><ele>666.25</ele><time>2026-04-19T10:36:03.837Z</time></trkpt><trkpt lat="42.0018517" lon="12.9469017"><ele>666.0</ele><time>2026-04-19T10:36:04.828Z</time></trkpt><trkpt lat="42.0017467" lon="12.9469733"><ele>658.0</ele><time>2026-04-19T10:36:05.833Z</time></trkpt><trkpt lat="42.0016433" lon="12.9470367"><ele>650.0</ele><time>2026-04-19T10:36:06.834Z</time></trkpt><trkpt lat="42.0015567" lon="12.9471117"><ele>642.0</ele><time>2026-04-19T10:36:07.88Z</time></trkpt><trkpt lat="42.00148" lon="12.947205"><ele>634.0</ele><time>2026-04-19T10:36:08.834Z</time></trkpt><trkpt lat="42.0013533" lon="12.94744"><ele>635.4</ele><time>2026-04-19T10:36:10.833Z</time></trkpt><trkpt lat="42.0013033" lon="12.9475617"><ele>636.8</ele><time>2026-04-19T10:36:11.837Z</time></trkpt><trkpt lat="42.0012617" lon="12.9476933"><ele>638.1999999999999</ele><time>2026-04-19T10:36:12.837Z</time></trkpt><trkpt lat="42.001225" lon="12.9478433"><ele>639.5999999999999</ele><time>2026-04-19T10:36:13.88Z</time></trkpt><trkpt lat="42.0011933" lon="12.9479933"><ele>641.0</ele><time>2026-04-19T10:36:14.834Z</time></trkpt><trkpt lat="42.0011617" lon="12.9481367"><ele>641.0</ele><time>2026-04-19T10:36:15.836Z</time></trkpt><trkpt lat="42.0011217" lon="12.9482817"><ele>641.0</ele><time>2026-04-19T10:36:16.836Z</time></trkpt><trkpt lat="42.00107" lon="12.9484133"><ele>641.0</ele><time>2026-04-19T10:36:17.832Z</time></trkpt><trkpt lat="42.001005" lon="12.9485433"><ele>641.0</ele><time>2026-04-19T10:36:18.829Z</time></trkpt><trkpt lat="42.00093" lon="12.9486667"><ele>644.5999999999999</ele><time>2026-04-19T10:36:19.876Z</time></trkpt><trkpt lat="42.000855" lon="12.94878"><ele>648.2</ele><time>2026-04-19T10:36:20.831Z</time></trkpt><trkpt lat="42.0007733" lon="12.94888"><ele>651.8</ele><time>2026-04-19T10:36:21.833Z</time></trkpt><trkpt lat="42.0006867" lon="12.9489667"><ele>655.4000000000001</ele><time>2026-04-19T10:36:22.838Z</time></trkpt><trkpt lat="42.0006067" lon="12.9490517"><ele>659.0</ele><time>2026-04-19T10:36:23.832Z</time></trkpt><trkpt lat="42.0005317" lon="12.949135"><ele>655.2</ele><time>2026-04-19T10:36:24.834Z</time></trkpt><trkpt lat="42.00046" lon="12.9492183"><ele>651.4000000000001</ele><time>2026-04-19T10:36:25.901Z</time></trkpt><trkpt lat="42.000395" lon="12.9493167"><ele>647.6</ele><time>2026-04-19T10:36:26.832Z</time></trkpt><trkpt lat="42.00033" lon="12.9494233"><ele>643.8</ele><time>2026-04-19T10:36:27.83Z</time></trkpt><trkpt lat="42.0002683" lon="12.9495433"><ele>640.0</ele><time>2026-04-19T10:36:28.828Z</time></trkpt><trkpt lat="42.0002117" lon="12.9496783"><ele>640.0</ele><time>2026-04-19T10:36:29.833Z</time></trkpt><trkpt lat="42.00009" lon="12.9499433"><ele>640.0</ele><time>2026-04-19T10:36:31.887Z</time></trkpt><trkpt lat="42.00004" lon="12.9500567"><ele>640.0</ele><time>2026-04-19T10:36:32.827Z</time></trkpt><trkpt lat="41.9999967" lon="12.950155"><ele>640.0</ele><time>2026-04-19T10:36:33.836Z</time></trkpt><trkpt lat="41.9999633" lon="12.9502433"><ele>640.0</ele><time>2026-04-19T10:36:34.831Z</time></trkpt><trkpt lat="41.9999" lon="12.950365"><ele>640.0</ele><time>2026-04-19T10:36:36.836Z</time></trkpt><trkpt lat="41.99982" lon="12.9503533"><ele>640.0</ele><time>2026-04-19T10:36:38.828Z</time></trkpt><trkpt lat="41.9997233" lon="12.9502233"><ele>640.0</ele><time>2026-04-19T10:36:40.837Z</time></trkpt><trkpt lat="41.999645" lon="12.95011"><ele>640.0</ele><time>2026-04-19T10:36:41.832Z</time></trkpt><trkpt lat="41.9995617" lon="12.9499767"><ele>640.0</ele><time>2026-04-19T10:36:42.835Z</time></trkpt><trkpt lat="41.99949" lon="12.9498283"><ele>640.0</ele><time>2026-04-19T10:36:43.883Z</time></trkpt><trkpt lat="41.9994317" lon="12.9496783"><ele>640.0</ele><time>2026-04-19T10:36:44.837Z</time></trkpt><trkpt lat="41.9993867" lon="12.949505"><ele>640.0</ele><time>2026-04-19T10:36:45.836Z</time></trkpt><trkpt lat="41.999355" lon="12.9493333"><ele>642.75</ele><time>2026-04-19T10:36:46.838Z</time></trkpt><trkpt lat="41.9993217" lon="12.9491783"><ele>645.5</ele><time>2026-04-19T10:36:47.834Z</time></trkpt><trkpt lat="41.9992783" lon="12.949035"><ele>648.25</ele><time>2026-04-19T10:36:48.836Z</time></trkpt><trkpt lat="41.9992217" lon="12.9488867"><ele>651.0</ele><time>2026-04-19T10:36:49.88Z</time></trkpt><trkpt lat="41.9991617" lon="12.9487317"><ele>651.0</ele><time>2026-04-19T10:36:50.831Z</time></trkpt><trkpt lat="41.9990433" lon="12.9484017"><ele>651.0</ele><time>2026-04-19T10:36:52.826Z</time></trkpt><trkpt lat="41.9990117" lon="12.948255"><ele>651.0</ele><time>2026-04-19T10:36:53.833Z</time></trkpt><trkpt lat="41.9989717" lon="12.9481183"><ele>651.0</ele><time>2026-04-19T10:36:54.83Z</time></trkpt><trkpt lat="41.9989433" lon="12.9480283"><ele>651.0</ele><time>2026-04-19T10:36:55.897Z</time></trkpt><trkpt lat="41.99888" lon="12.9480767"><ele>651.0</ele><time>2026-04-19T10:37:07.878Z</time></trkpt><trkpt lat="41.99887" lon="12.9482117"><ele>651.0</ele><time>2026-04-19T10:37:10.833Z</time></trkpt><trkpt lat="41.9989017" lon="12.94832"><ele>651.0</ele><time>2026-04-19T10:37:12.833Z</time></trkpt><trkpt lat="41.9989817" lon="12.9484967"><ele>651.0</ele><time>2026-04-19T10:37:18.836Z</time></trkpt><trkpt lat="41.9989767" lon="12.9486067"><ele>651.0</ele><time>2026-04-19T10:37:21.837Z</time></trkpt><trkpt lat="41.9990033" lon="12.948725"><ele>651.0</ele><time>2026-04-19T10:37:24.832Z</time></trkpt><trkpt lat="41.9990267" lon="12.94885"><ele>651.0</ele><time>2026-04-19T10:37:26.833Z</time></trkpt><trkpt lat="41.9990383" lon="12.94899"><ele>651.0</ele><time>2026-04-19T10:37:28.831Z</time></trkpt><trkpt lat="41.9990417" lon="12.94909"><ele>651.0</ele><time>2026-04-19T10:37:30.83Z</time></trkpt><trkpt lat="41.9989983" lon="12.9492117"><ele>654.6666666666666</ele><time>2026-04-19T10:37:33.833Z</time></trkpt><trkpt lat="41.9989167" lon="12.9493717"><ele>658.3333333333334</ele><time>2026-04-19T10:37:37.88Z</time></trkpt><trkpt lat="41.9988583" lon="12.9494217"><ele>662.0</ele><time>2026-04-19T10:37:39.837Z</time></trkpt><trkpt lat="41.998795" lon="12.9494017"><ele>665.6666666666667</ele><time>2026-04-19T10:37:41.833Z</time></trkpt><trkpt lat="41.9987167" lon="12.9493483"><ele>669.3333333333334</ele><time>2026-04-19T10:37:44.842Z</time></trkpt><trkpt lat="41.9986517" lon="12.949315"><ele>673.0</ele><time>2026-04-19T10:37:46.825Z</time></trkpt><trkpt lat="41.998585" lon="12.9492667"><ele>673.0</ele><time>2026-04-19T10:37:48.834Z</time></trkpt><trkpt lat="41.9985217" lon="12.94921"><ele>673.0</ele><time>2026-04-19T10:37:50.836Z</time></trkpt><trkpt lat="41.9984567" lon="12.949125"><ele>673.0</ele><time>2026-04-19T10:37:52.834Z</time></trkpt><trkpt lat="41.9983917" lon="12.9490217"><ele>673.0</ele><time>2026-04-19T10:37:54.833Z</time></trkpt><trkpt lat="41.9982217" lon="12.9489083"><ele>670.0</ele><time>2026-04-19T10:37:58.838Z</time></trkpt><trkpt lat="41.998125" lon="12.9488533"><ele>667.0</ele><time>2026-04-19T10:38:00.831Z</time></trkpt><trkpt lat="41.99806" lon="12.94879"><ele>664.0</ele><time>2026-04-19T10:38:02.828Z</time></trkpt><trkpt lat="41.9980467" lon="12.94867"><ele>661.0</ele><time>2026-04-19T10:38:04.829Z</time></trkpt><trkpt lat="41.998055" lon="12.9485683"><ele>658.0</ele><time>2026-04-19T10:38:05.835Z</time></trkpt><trkpt lat="41.99805" lon="12.9484333"><ele>658.0</ele><time>2026-04-19T10:38:07.88Z</time></trkpt><trkpt lat="41.9979817" lon="12.9483783"><ele>658.0</ele><time>2026-04-19T10:38:09.837Z</time></trkpt><trkpt lat="41.99792" lon="12.9483517"><ele>658.0</ele><time>2026-04-19T10:38:10.833Z</time></trkpt><trkpt lat="41.99783" lon="12.9482767"><ele>658.0</ele><time>2026-04-19T10:38:12.835Z</time></trkpt><trkpt lat="41.99775" lon="12.948175"><ele>658.0</ele><time>2026-04-19T10:38:14.831Z</time></trkpt><trkpt lat="41.9976933" lon="12.9481167"><ele>658.0</ele><time>2026-04-19T10:38:15.828Z</time></trkpt><trkpt lat="41.997565" lon="12.9479933"><ele>655.5</ele><time>2026-04-19T10:38:17.834Z</time></trkpt><trkpt lat="41.997505" lon="12.9479467"><ele>653.0</ele><time>2026-04-19T10:38:18.838Z</time></trkpt><trkpt lat="41.9974167" lon="12.9479217"><ele>650.5</ele><time>2026-04-19T10:38:20.836Z</time></trkpt><trkpt lat="41.9973183" lon="12.947935"><ele>648.0</ele><time>2026-04-19T10:38:22.834Z</time></trkpt><trkpt lat="41.9972167" lon="12.947965"><ele>645.5</ele><time>2026-04-19T10:38:24.84Z</time></trkpt><trkpt lat="41.99715" lon="12.9480067"><ele>643.0</ele><time>2026-04-19T10:38:26.831Z</time></trkpt><trkpt lat="41.9970617" lon="12.9479983"><ele>643.0</ele><time>2026-04-19T10:38:28.836Z</time></trkpt><trkpt lat="41.9969417" lon="12.947975"><ele>643.0</ele><time>2026-04-19T10:38:30.828Z</time></trkpt><trkpt lat="41.9968783" lon="12.9479733"><ele>643.0</ele><time>2026-04-19T10:38:31.882Z</time></trkpt><trkpt lat="41.99681" lon="12.9479867"><ele>643.0</ele><time>2026-04-19T10:38:32.832Z</time></trkpt><trkpt lat="41.996745" lon="12.9479967"><ele>643.0</ele><time>2026-04-19T10:38:33.834Z</time></trkpt><trkpt lat="41.9966317" lon="12.9479783"><ele>643.0</ele><time>2026-04-19T10:38:35.835Z</time></trkpt><trkpt lat="41.9965283" lon="12.9479433"><ele>642.25</ele><time>2026-04-19T10:38:37.881Z</time></trkpt><trkpt lat="41.9963033" lon="12.9477967"><ele>641.5</ele><time>2026-04-19T10:38:41.832Z</time></trkpt><trkpt lat="41.996245" lon="12.9477517"><ele>640.75</ele><time>2026-04-19T10:38:43.875Z</time></trkpt><trkpt lat="41.9961683" lon="12.9477767"><ele>640.0</ele><time>2026-04-19T10:38:45.843Z</time></trkpt><trkpt lat="41.9960567" lon="12.9478417"><ele>640.0</ele><time>2026-04-19T10:38:47.834Z</time></trkpt><trkpt lat="41.995995" lon="12.9478633"><ele>640.0</ele><time>2026-04-19T10:38:48.836Z</time></trkpt><trkpt lat="41.995895" lon="12.9479383"><ele>640.0</ele><time>2026-04-19T10:38:50.828Z</time></trkpt><trkpt lat="41.995815" lon="12.9480067"><ele>640.0</ele><time>2026-04-19T10:38:52.833Z</time></trkpt><trkpt lat="41.9957217" lon="12.9479983"><ele>640.0</ele><time>2026-04-19T10:38:54.842Z</time></trkpt><trkpt lat="41.9956133" lon="12.9480033"><ele>638.6</ele><time>2026-04-19T10:38:56.836Z</time></trkpt><trkpt lat="41.9955433" lon="12.9480267"><ele>637.2</ele><time>2026-04-19T10:38:58.832Z</time></trkpt><trkpt lat="41.9954133" lon="12.947945"><ele>635.8</ele><time>2026-04-19T10:39:05.833Z</time></trkpt><trkpt lat="41.9953767" lon="12.94784"><ele>634.4</ele><time>2026-04-19T10:39:07.881Z</time></trkpt><trkpt lat="41.9953083" lon="12.94771"><ele>633.0</ele><time>2026-04-19T10:39:09.833Z</time></trkpt><trkpt lat="41.995205" lon="12.9476167"><ele>629.8</ele><time>2026-04-19T10:39:11.832Z</time></trkpt><trkpt lat="41.9951367" lon="12.9475167"><ele>626.5999999999999</ele><time>2026-04-19T10:39:13.876Z</time></trkpt><trkpt lat="41.99507" lon="12.9473933"><ele>623.4000000000001</ele><time>2026-04-19T10:39:15.831Z</time></trkpt><trkpt lat="41.995015" lon="12.94734"><ele>620.2</ele><time>2026-04-19T10:39:16.84Z</time></trkpt><trkpt lat="41.9949583" lon="12.9472817"><ele>617.0</ele><time>2026-04-19T10:39:17.833Z</time></trkpt><trkpt lat="41.9948667" lon="12.947185"><ele>615.75</ele><time>2026-04-19T10:39:19.875Z</time></trkpt><trkpt lat="41.9947767" lon="12.94702"><ele>614.5</ele><time>2026-04-19T10:39:25.879Z</time></trkpt><trkpt lat="41.9947433" lon="12.9469367"><ele>613.25</ele><time>2026-04-19T10:39:27.832Z</time></trkpt><trkpt lat="41.994595" lon="12.946875"><ele>612.0</ele><time>2026-04-19T10:39:55.904Z</time></trkpt><trkpt lat="41.9945417" lon="12.94704"><ele>612.0</ele><time>2026-04-19T10:40:01.891Z</time></trkpt><trkpt lat="41.9944867" lon="12.947125"><ele>612.0</ele><time>2026-04-19T10:40:04.83Z</time></trkpt><trkpt lat="41.99444" lon="12.9472"><ele>612.0</ele><time>2026-04-19T10:40:06.834Z</time></trkpt><trkpt lat="41.9943683" lon="12.947285"><ele>612.0</ele><time>2026-04-19T10:40:08.829Z</time></trkpt><trkpt lat="41.9943017" lon="12.9473517"><ele>612.0</ele><time>2026-04-19T10:40:10.84Z</time></trkpt><trkpt lat="41.9942317" lon="12.947405"><ele>612.0</ele><time>2026-04-19T10:40:12.837Z</time></trkpt><trkpt lat="41.9941567" lon="12.94746"><ele>609.8333333333334</ele><time>2026-04-19T10:40:14.832Z</time></trkpt><trkpt lat="41.9940867" lon="12.9474533"><ele>607.6666666666666</ele><time>2026-04-19T10:40:16.837Z</time></trkpt><trkpt lat="41.9939183" lon="12.9474233"><ele>605.5</ele><time>2026-04-19T10:40:20.836Z</time></trkpt><trkpt lat="41.99386" lon="12.947485"><ele>603.3333333333333</ele><time>2026-04-19T10:40:22.834Z</time></trkpt><trkpt lat="41.9937933" lon="12.94749"><ele>601.1666666666666</ele><time>2026-04-19T10:40:24.83Z</time></trkpt><trkpt lat="41.9937817" lon="12.9474067"><ele>599.0</ele><time>2026-04-19T10:40:27.83Z</time></trkpt><trkpt lat="41.993795" lon="12.9472933"><ele>599.0</ele><time>2026-04-19T10:40:34.832Z</time></trkpt><trkpt lat="41.9938217" lon="12.9471967"><ele>599.0</ele><time>2026-04-19T10:40:38.834Z</time></trkpt><trkpt lat="41.9938817" lon="12.9469917"><ele>599.0</ele><time>2026-04-19T10:40:49.882Z</time></trkpt><trkpt lat="41.993875" lon="12.9468733"><ele>599.0</ele><time>2026-04-19T10:40:51.836Z</time></trkpt><trkpt lat="41.9938767" lon="12.9467867"><ele>599.0</ele><time>2026-04-19T10:41:10.83Z</time></trkpt><trkpt lat="41.99384" lon="12.94652"><ele>596.3333333333333</ele><time>2026-04-19T10:41:15.835Z</time></trkpt><trkpt lat="41.993855" lon="12.946435"><ele>593.6666666666666</ele><time>2026-04-19T10:41:16.834Z</time></trkpt><trkpt lat="41.9938617" lon="12.94635"><ele>591.0</ele><time>2026-04-19T10:41:17.831Z</time></trkpt><trkpt lat="41.9938533" lon="12.9462567"><ele>588.3333333333334</ele><time>2026-04-19T10:41:18.836Z</time></trkpt><trkpt lat="41.993835" lon="12.9461667"><ele>585.6666666666667</ele><time>2026-04-19T10:41:19.886Z</time></trkpt><trkpt lat="41.9937767" lon="12.9460233"><ele>583.0</ele><time>2026-04-19T10:41:21.829Z</time></trkpt><trkpt lat="41.9937033" lon="12.9459017"><ele>581.5</ele><time>2026-04-19T10:41:23.835Z</time></trkpt><trkpt lat="41.99367" lon="12.9458267"><ele>580.0</ele><time>2026-04-19T10:41:24.836Z</time></trkpt><trkpt lat="41.9936333" lon="12.9457417"><ele>578.5</ele><time>2026-04-19T10:41:25.886Z</time></trkpt><trkpt lat="41.9936" lon="12.945645"><ele>577.0</ele><time>2026-04-19T10:41:26.828Z</time></trkpt><trkpt lat="41.9935533" lon="12.94555"><ele>575.5</ele><time>2026-04-19T10:41:27.836Z</time></trkpt><trkpt lat="41.993495" lon="12.9454517"><ele>574.0</ele><time>2026-04-19T10:41:28.836Z</time></trkpt><trkpt lat="41.9934333" lon="12.94535"><ele>574.0</ele><time>2026-04-19T10:41:29.829Z</time></trkpt><trkpt lat="41.993365" lon="12.945235"><ele>574.0</ele><time>2026-04-19T10:41:30.833Z</time></trkpt><trkpt lat="41.9932883" lon="12.9451183"><ele>574.0</ele><time>2026-04-19T10:41:31.89Z</time></trkpt><trkpt lat="41.9931133" lon="12.9448517"><ele>573.0</ele><time>2026-04-19T10:41:33.829Z</time></trkpt><trkpt lat="41.9930183" lon="12.9447183"><ele>572.0</ele><time>2026-04-19T10:41:34.841Z</time></trkpt><trkpt lat="41.9929183" lon="12.9445817"><ele>571.0</ele><time>2026-04-19T10:41:35.837Z</time></trkpt><trkpt lat="41.992815" lon="12.9444433"><ele>570.0</ele><time>2026-04-19T10:41:36.831Z</time></trkpt><trkpt lat="41.9927217" lon="12.9443217"><ele>570.0</ele><time>2026-04-19T10:41:37.884Z</time></trkpt><trkpt lat="41.9926383" lon="12.94422"><ele>570.0</ele><time>2026-04-19T10:41:38.834Z</time></trkpt><trkpt lat="41.992575" lon="12.9441583"><ele>570.0</ele><time>2026-04-19T10:41:39.827Z</time></trkpt><trkpt lat="41.9925267" lon="12.944095"><ele>570.0</ele><time>2026-04-19T10:41:42.826Z</time></trkpt><trkpt lat="41.9925067" lon="12.94399"><ele>570.0</ele><time>2026-04-19T10:41:45.828Z</time></trkpt><trkpt lat="41.9924583" lon="12.9438567"><ele>570.0</ele><time>2026-04-19T10:41:47.836Z</time></trkpt><trkpt lat="41.9924167" lon="12.9437767"><ele>570.2</ele><time>2026-04-19T10:41:48.833Z</time></trkpt><trkpt lat="41.9923583" lon="12.9436383"><ele>570.4</ele><time>2026-04-19T10:41:50.829Z</time></trkpt><trkpt lat="41.9923167" lon="12.9435183"><ele>570.6</ele><time>2026-04-19T10:41:52.831Z</time></trkpt><trkpt lat="41.9922417" lon="12.9433633"><ele>570.8</ele><time>2026-04-19T10:41:59.833Z</time></trkpt><trkpt lat="41.9922183" lon="12.943255"><ele>571.0</ele><time>2026-04-19T10:42:03.832Z</time></trkpt><trkpt lat="41.992205" lon="12.943165"><ele>571.0</ele><time>2026-04-19T10:42:05.832Z</time></trkpt><trkpt lat="41.9921667" lon="12.9430633"><ele>571.0</ele><time>2026-04-19T10:42:08.831Z</time></trkpt><trkpt lat="41.99216" lon="12.9429467"><ele>571.0</ele><time>2026-04-19T10:42:15.836Z</time></trkpt><trkpt lat="41.99211" lon="12.9427533"><ele>571.0</ele><time>2026-04-19T10:42:22.838Z</time></trkpt><trkpt lat="41.9920683" lon="12.94267"><ele>571.0</ele><time>2026-04-19T10:42:24.842Z</time></trkpt><trkpt lat="41.992005" lon="12.9425817"><ele>569.8333333333334</ele><time>2026-04-19T10:42:26.836Z</time></trkpt><trkpt lat="41.99194" lon="12.9424917"><ele>568.6666666666667</ele><time>2026-04-19T10:42:28.83Z</time></trkpt><trkpt lat="41.9919033" lon="12.9424183"><ele>567.5</ele><time>2026-04-19T10:42:30.832Z</time></trkpt><trkpt lat="41.991855" lon="12.942315"><ele>566.3333333333334</ele><time>2026-04-19T10:42:33.831Z</time></trkpt><trkpt lat="41.9918017" lon="12.9422383"><ele>565.1666666666666</ele><time>2026-04-19T10:42:35.835Z</time></trkpt><trkpt lat="41.9917" lon="12.9421917"><ele>564.0</ele><time>2026-04-19T10:42:37.876Z</time></trkpt><trkpt lat="41.9915383" lon="12.942145"><ele>564.0</ele><time>2026-04-19T10:42:39.827Z</time></trkpt><trkpt lat="41.9914533" lon="12.942125"><ele>564.0</ele><time>2026-04-19T10:42:40.834Z</time></trkpt><trkpt lat="41.9913767" lon="12.9421183"><ele>564.0</ele><time>2026-04-19T10:42:41.829Z</time></trkpt><trkpt lat="41.9913033" lon="12.9421133"><ele>564.0</ele><time>2026-04-19T10:42:42.836Z</time></trkpt><trkpt lat="41.99123" lon="12.942095"><ele>564.0</ele><time>2026-04-19T10:42:43.873Z</time></trkpt><trkpt lat="41.991165" lon="12.9420783"><ele>564.0</ele><time>2026-04-19T10:42:44.833Z</time></trkpt><trkpt lat="41.99106" lon="12.9420517"><ele>564.0</ele><time>2026-04-19T10:42:46.833Z</time></trkpt><trkpt lat="41.990985" lon="12.9419967"><ele>564.0</ele><time>2026-04-19T10:42:49.885Z</time></trkpt><trkpt lat="41.99091" lon="12.9419283"><ele>564.0</ele><time>2026-04-19T10:42:51.837Z</time></trkpt><trkpt lat="41.9908333" lon="12.9418633"><ele>564.0</ele><time>2026-04-19T10:42:53.834Z</time></trkpt><trkpt lat="41.9907433" lon="12.9418133"><ele>564.0</ele><time>2026-04-19T10:42:55.899Z</time></trkpt><trkpt lat="41.9906383" lon="12.941775"><ele>563.5</ele><time>2026-04-19T10:42:57.837Z</time></trkpt><trkpt lat="41.990525" lon="12.941745"><ele>563.0</ele><time>2026-04-19T10:42:59.829Z</time></trkpt><trkpt lat="41.99031" lon="12.9417"><ele>562.5</ele><time>2026-04-19T10:43:03.839Z</time></trkpt><trkpt lat="41.99023" lon="12.9417017"><ele>562.0</ele><time>2026-04-19T10:43:05.834Z</time></trkpt><trkpt lat="41.9901433" lon="12.9417033"><ele>557.6666666666667</ele><time>2026-04-19T10:43:44.834Z</time></trkpt><trkpt lat="41.9899267" lon="12.9417483"><ele>553.3333333333334</ele><time>2026-04-19T10:43:47.837Z</time></trkpt><trkpt lat="41.989805" lon="12.94175"><ele>549.0</ele><time>2026-04-19T10:43:48.831Z</time></trkpt><trkpt lat="41.9896917" lon="12.9417333"><ele>549.0</ele><time>2026-04-19T10:43:49.883Z</time></trkpt><trkpt lat="41.9895717" lon="12.9417133"><ele>549.0</ele><time>2026-04-19T10:43:50.832Z</time></trkpt><trkpt lat="41.9894583" lon="12.9417033"><ele>549.0</ele><time>2026-04-19T10:43:51.834Z</time></trkpt><trkpt lat="41.989355" lon="12.9417067"><ele>549.0</ele><time>2026-04-19T10:43:52.836Z</time></trkpt><trkpt lat="41.9892767" lon="12.9417167"><ele>549.0</ele><time>2026-04-19T10:43:53.834Z</time></trkpt><trkpt lat="41.9892117" lon="12.9417017"><ele>543.4</ele><time>2026-04-19T10:43:54.833Z</time></trkpt><trkpt lat="41.98912" lon="12.941625"><ele>537.8</ele><time>2026-04-19T10:43:56.832Z</time></trkpt><trkpt lat="41.9890783" lon="12.9414633"><ele>532.2</ele><time>2026-04-19T10:43:58.834Z</time></trkpt><trkpt lat="41.98909" lon="12.941345"><ele>526.6</ele><time>2026-04-19T10:43:59.836Z</time></trkpt><trkpt lat="41.989095" lon="12.9412367"><ele>521.0</ele><time>2026-04-19T10:44:00.834Z</time></trkpt><trkpt lat="41.98909" lon="12.9411383"><ele>521.0</ele><time>2026-04-19T10:44:01.882Z</time></trkpt><trkpt lat="41.9890333" lon="12.9410133"><ele>521.0</ele><time>2026-04-19T10:44:03.837Z</time></trkpt><trkpt lat="41.9889467" lon="12.9410067"><ele>521.0</ele><time>2026-04-19T10:44:05.83Z</time></trkpt><trkpt lat="41.98884" lon="12.9411633"><ele>521.0</ele><time>2026-04-19T10:44:07.877Z</time></trkpt><trkpt lat="41.9887767" lon="12.941305"><ele>521.0</ele><time>2026-04-19T10:44:08.832Z</time></trkpt><trkpt lat="41.98871" lon="12.94146"><ele>521.0</ele><time>2026-04-19T10:44:09.828Z</time></trkpt><trkpt lat="41.9886433" lon="12.9416117"><ele>521.0</ele><time>2026-04-19T10:44:10.826Z</time></trkpt><trkpt lat="41.98856" lon="12.941755"><ele>521.0</ele><time>2026-04-19T10:44:11.83Z</time></trkpt><trkpt lat="41.9884767" lon="12.9418817"><ele>523.8</ele><time>2026-04-19T10:44:12.828Z</time></trkpt><trkpt lat="41.9884033" lon="12.941985"><ele>526.6</ele><time>2026-04-19T10:44:13.88Z</time></trkpt><trkpt lat="41.98834" lon="12.9420633"><ele>529.4</ele><time>2026-04-19T10:44:14.829Z</time></trkpt><trkpt lat="41.98825" lon="12.9421383"><ele>532.2</ele><time>2026-04-19T10:44:16.829Z</time></trkpt><trkpt lat="41.9881433" lon="12.9420583"><ele>535.0</ele><time>2026-04-19T10:44:18.834Z</time></trkpt><trkpt lat="41.9881" lon="12.9419417"><ele>529.2</ele><time>2026-04-19T10:44:19.879Z</time></trkpt><trkpt lat="41.98807" lon="12.941795"><ele>523.4</ele><time>2026-04-19T10:44:20.833Z</time></trkpt><trkpt lat="41.9880267" lon="12.9416767"><ele>517.6</ele><time>2026-04-19T10:44:21.833Z</time></trkpt><trkpt lat="41.9879783" lon="12.9415733"><ele>511.8</ele><time>2026-04-19T10:44:22.835Z</time></trkpt><trkpt lat="41.98793" lon="12.94147"><ele>506.0</ele><time>2026-04-19T10:44:23.837Z</time></trkpt><trkpt lat="41.9878833" lon="12.9413633"><ele>504.4</ele><time>2026-04-19T10:44:24.828Z</time></trkpt><trkpt lat="41.98784" lon="12.9412533"><ele>502.8</ele><time>2026-04-19T10:44:25.901Z</time></trkpt><trkpt lat="41.9878133" lon="12.9411417"><ele>501.19999999999993</ele><time>2026-04-19T10:44:26.836Z</time></trkpt><trkpt lat="41.9877883" lon="12.940935"><ele>499.59999999999997</ele><time>2026-04-19T10:44:28.828Z</time></trkpt><trkpt lat="41.98779" lon="12.94083"><ele>498.0</ele><time>2026-04-19T10:44:29.839Z</time></trkpt><trkpt lat="41.9878017" lon="12.94071"><ele>495.79999999999995</ele><time>2026-04-19T10:44:30.83Z</time></trkpt><trkpt lat="41.9878283" lon="12.9405733"><ele>493.59999999999997</ele><time>2026-04-19T10:44:31.886Z</time></trkpt><trkpt lat="41.9878517" lon="12.9404267"><ele>491.40000000000003</ele><time>2026-04-19T10:44:32.829Z</time></trkpt><trkpt lat="41.9878767" lon="12.9402783"><ele>489.20000000000005</ele><time>2026-04-19T10:44:33.831Z</time></trkpt><trkpt lat="41.9878967" lon="12.9401267"><ele>487.0</ele><time>2026-04-19T10:44:34.837Z</time></trkpt><trkpt lat="41.9879067" lon="12.9399767"><ele>486.0</ele><time>2026-04-19T10:44:35.836Z</time></trkpt><trkpt lat="41.98791" lon="12.93983"><ele>485.00000000000006</ele><time>2026-04-19T10:44:36.834Z</time></trkpt><trkpt lat="41.9879" lon="12.9396867"><ele>484.00000000000006</ele><time>2026-04-19T10:44:37.883Z</time></trkpt><trkpt lat="41.98788" lon="12.9395533"><ele>483.0</ele><time>2026-04-19T10:44:38.83Z</time></trkpt><trkpt lat="41.9878583" lon="12.9394283"><ele>482.0</ele><time>2026-04-19T10:44:39.831Z</time></trkpt><trkpt lat="41.9878333" lon="12.9393217"><ele>481.99999999999994</ele><time>2026-04-19T10:44:40.831Z</time></trkpt><trkpt lat="41.9878083" lon="12.939235"><ele>482.0</ele><time>2026-04-19T10:44:41.831Z</time></trkpt><trkpt lat="41.9877783" lon="12.939095"><ele>482.0</ele><time>2026-04-19T10:44:43.882Z</time></trkpt><trkpt lat="41.98776" lon="12.9389367"><ele>482.0</ele><time>2026-04-19T10:44:45.835Z</time></trkpt><trkpt lat="41.9877483" lon="12.9388417"><ele>481.99999999999994</ele><time>2026-04-19T10:44:46.828Z</time></trkpt><trkpt lat="41.9877133" lon="12.93875"><ele>482.0</ele><time>2026-04-19T10:44:47.829Z</time></trkpt><trkpt lat="41.98761" lon="12.93862"><ele>482.0</ele><time>2026-04-19T10:44:49.884Z</time></trkpt><trkpt lat="41.9875233" lon="12.93851"><ele>482.00000000000006</ele><time>2026-04-19T10:44:51.838Z</time></trkpt><trkpt lat="41.9874867" lon="12.9384367"><ele>482.00000000000006</ele><time>2026-04-19T10:44:53.829Z</time></trkpt><trkpt lat="41.9873883" lon="12.9383983"><ele>482.0</ele><time>2026-04-19T10:44:57.83Z</time></trkpt><trkpt lat="41.9872567" lon="12.93845"><ele>482.0</ele><time>2026-04-19T10:44:59.836Z</time></trkpt><trkpt lat="41.9871767" lon="12.9384883"><ele>477.16666666666663</ele><time>2026-04-19T10:45:00.831Z</time></trkpt><trkpt lat="41.987105" lon="12.93852"><ele>472.3333333333333</ele><time>2026-04-19T10:45:01.885Z</time></trkpt><trkpt lat="41.98703" lon="12.9385217"><ele>467.5</ele><time>2026-04-19T10:45:02.837Z</time></trkpt><trkpt lat="41.986955" lon="12.9384933"><ele>462.66666666666663</ele><time>2026-04-19T10:45:03.836Z</time></trkpt><trkpt lat="41.98688" lon="12.938435"><ele>457.8333333333333</ele><time>2026-04-19T10:45:04.836Z</time></trkpt><trkpt lat="41.9868" lon="12.9383333"><ele>453.0</ele><time>2026-04-19T10:45:05.833Z</time></trkpt><trkpt lat="41.9867283" lon="12.9382267"><ele>448.75</ele><time>2026-04-19T10:45:06.843Z</time></trkpt><trkpt lat="41.9866633" lon="12.93813"><ele>444.5</ele><time>2026-04-19T10:45:07.882Z</time></trkpt><trkpt lat="41.9866017" lon="12.9380333"><ele>440.25</ele><time>2026-04-19T10:45:08.835Z</time></trkpt><trkpt lat="41.98646" lon="12.9378567"><ele>436.0</ele><time>2026-04-19T10:45:10.834Z</time></trkpt><trkpt lat="41.9863883" lon="12.937775"><ele>436.00000000000006</ele><time>2026-04-19T10:45:11.829Z</time></trkpt><trkpt lat="41.9863133" lon="12.9376933"><ele>436.0</ele><time>2026-04-19T10:45:12.834Z</time></trkpt><trkpt lat="41.9862367" lon="12.93761"><ele>436.0</ele><time>2026-04-19T10:45:13.876Z</time></trkpt><trkpt lat="41.9861667" lon="12.9375267"><ele>436.0</ele><time>2026-04-19T10:45:14.834Z</time></trkpt><trkpt lat="41.9861117" lon="12.9374417"><ele>436.00000000000006</ele><time>2026-04-19T10:45:15.84Z</time></trkpt><trkpt lat="41.9860767" lon="12.9373583"><ele>436.0</ele><time>2026-04-19T10:45:16.837Z</time></trkpt><trkpt lat="41.9860517" lon="12.9372667"><ele>436.1666666666667</ele><time>2026-04-19T10:45:17.836Z</time></trkpt><trkpt lat="41.9861083" lon="12.937145"><ele>436.33333333333337</ele><time>2026-04-19T10:45:19.881Z</time></trkpt><trkpt lat="41.9861717" lon="12.93713"><ele>436.5</ele><time>2026-04-19T10:45:20.83Z</time></trkpt><trkpt lat="41.9862417" lon="12.93713"><ele>436.66666666666663</ele><time>2026-04-19T10:45:21.836Z</time></trkpt><trkpt lat="41.98632" lon="12.937155"><ele>436.8333333333333</ele><time>2026-04-19T10:45:22.828Z</time></trkpt><trkpt lat="41.9863917" lon="12.9371783"><ele>437.0</ele><time>2026-04-19T10:45:23.835Z</time></trkpt><trkpt lat="41.9862867" lon="12.9371033"><ele>437.0</ele><time>2026-04-19T10:45:28.828Z</time></trkpt><trkpt lat="41.9861883" lon="12.9370967"><ele>437.0</ele><time>2026-04-19T10:45:29.835Z</time></trkpt><trkpt lat="41.986005" lon="12.9371533"><ele>437.0</ele><time>2026-04-19T10:45:31.88Z</time></trkpt><trkpt lat="41.9859267" lon="12.9372217"><ele>437.0</ele><time>2026-04-19T10:45:32.829Z</time></trkpt><trkpt lat="41.98586" lon="12.9373"><ele>434.66666666666663</ele><time>2026-04-19T10:45:33.83Z</time></trkpt><trkpt lat="41.9858067" lon="12.9374"><ele>432.3333333333333</ele><time>2026-04-19T10:45:34.829Z</time></trkpt><trkpt lat="41.9857633" lon="12.937495"><ele>430.0</ele><time>2026-04-19T10:45:35.827Z</time></trkpt><trkpt lat="41.9857367" lon="12.9375783"><ele>427.66666666666663</ele><time>2026-04-19T10:45:36.835Z</time></trkpt><trkpt lat="41.9856883" lon="12.9376817"><ele>425.3333333333333</ele><time>2026-04-19T10:45:38.826Z</time></trkpt><trkpt lat="41.9856017" lon="12.9376917"><ele>423.0</ele><time>2026-04-19T10:45:40.827Z</time></trkpt><trkpt lat="41.985535" lon="12.9376767"><ele>423.0</ele><time>2026-04-19T10:45:41.831Z</time></trkpt><trkpt lat="41.9854567" lon="12.937655"><ele>423.0</ele><time>2026-04-19T10:45:42.828Z</time></trkpt><trkpt lat="41.9853617" lon="12.9375933"><ele>423.0</ele><time>2026-04-19T10:45:43.873Z</time></trkpt><trkpt lat="41.9852783" lon="12.93752"><ele>423.0</ele><time>2026-04-19T10:45:44.832Z</time></trkpt><trkpt lat="41.9852167" lon="12.93746"><ele>423.0</ele><time>2026-04-19T10:45:45.829Z</time></trkpt><trkpt lat="41.985165" lon="12.9374083"><ele>423.0</ele><time>2026-04-19T10:45:46.832Z</time></trkpt><trkpt lat="41.9850917" lon="12.93734"><ele>423.0</ele><time>2026-04-19T10:45:48.837Z</time></trkpt><trkpt lat="41.9850433" lon="12.937285"><ele>423.0</ele><time>2026-04-19T10:45:50.835Z</time></trkpt><trkpt lat="41.9848967" lon="12.937175"><ele>423.0</ele><time>2026-04-19T10:45:55.867Z</time></trkpt><trkpt lat="41.9847967" lon="12.9371933"><ele>423.0</ele><time>2026-04-19T10:45:57.828Z</time></trkpt><trkpt lat="41.98471" lon="12.937335"><ele>419.2</ele><time>2026-04-19T10:45:59.831Z</time></trkpt><trkpt lat="41.9846783" lon="12.9374483"><ele>415.4</ele><time>2026-04-19T10:46:00.828Z</time></trkpt><trkpt lat="41.984645" lon="12.93757"><ele>411.59999999999997</ele><time>2026-04-19T10:46:01.889Z</time></trkpt><trkpt lat="41.984605" lon="12.9376883"><ele>407.79999999999995</ele><time>2026-04-19T10:46:02.837Z</time></trkpt><trkpt lat="41.9845533" lon="12.9377983"><ele>404.0</ele><time>2026-04-19T10:46:03.828Z</time></trkpt><trkpt lat="41.984495" lon="12.9378867"><ele>403.66666666666663</ele><time>2026-04-19T10:46:04.829Z</time></trkpt><trkpt lat="41.9844317" lon="12.9379683"><ele>403.3333333333333</ele><time>2026-04-19T10:46:05.836Z</time></trkpt><trkpt lat="41.98437" lon="12.93803"><ele>403.0</ele><time>2026-04-19T10:46:06.829Z</time></trkpt><trkpt lat="41.9843067" lon="12.9380767"><ele>402.66666666666663</ele><time>2026-04-19T10:46:07.879Z</time></trkpt><trkpt lat="41.9842383" lon="12.9380983"><ele>402.3333333333333</ele><time>2026-04-19T10:46:08.831Z</time></trkpt><trkpt lat="41.984165" lon="12.9380983"><ele>402.0</ele><time>2026-04-19T10:46:09.831Z</time></trkpt><trkpt lat="41.9840817" lon="12.9381083"><ele>399.5</ele><time>2026-04-19T10:46:10.832Z</time></trkpt><trkpt lat="41.98399" lon="12.9381233"><ele>397.0</ele><time>2026-04-19T10:46:11.833Z</time></trkpt><trkpt lat="41.983795" lon="12.9381167"><ele>394.5</ele><time>2026-04-19T10:46:13.879Z</time></trkpt><trkpt lat="41.9836883" lon="12.9381083"><ele>392.0</ele><time>2026-04-19T10:46:14.829Z</time></trkpt><trkpt lat="41.983575" lon="12.9381067"><ele>392.0</ele><time>2026-04-19T10:46:15.835Z</time></trkpt><trkpt lat="41.98345" lon="12.9381067"><ele>392.0</ele><time>2026-04-19T10:46:16.831Z</time></trkpt><trkpt lat="41.9833233" lon="12.9381083"><ele>392.0</ele><time>2026-04-19T10:46:17.832Z</time></trkpt><trkpt lat="41.983215" lon="12.938115"><ele>392.0</ele><time>2026-04-19T10:46:18.828Z</time></trkpt><trkpt lat="41.98314" lon="12.9381217"><ele>392.0</ele><time>2026-04-19T10:46:19.877Z</time></trkpt><trkpt lat="41.9830333" lon="12.9381283"><ele>391.0</ele><time>2026-04-19T10:46:21.831Z</time></trkpt><trkpt lat="41.9829517" lon="12.938165"><ele>390.0</ele><time>2026-04-19T10:46:23.838Z</time></trkpt><trkpt lat="41.9828883" lon="12.9382"><ele>389.0</ele><time>2026-04-19T10:46:24.829Z</time></trkpt><trkpt lat="41.9828033" lon="12.938255"><ele>388.0</ele><time>2026-04-19T10:46:25.899Z</time></trkpt><trkpt lat="41.9827067" lon="12.9383283"><ele>387.0</ele><time>2026-04-19T10:46:26.828Z</time></trkpt><trkpt lat="41.9826067" lon="12.9384167"><ele>387.0</ele><time>2026-04-19T10:46:27.829Z</time></trkpt><trkpt lat="41.9825067" lon="12.938525"><ele>387.0</ele><time>2026-04-19T10:46:28.831Z</time></trkpt><trkpt lat="41.9824083" lon="12.9386533"><ele>387.0</ele><time>2026-04-19T10:46:29.836Z</time></trkpt><trkpt lat="41.98232" lon="12.9387883"><ele>387.0</ele><time>2026-04-19T10:46:30.83Z</time></trkpt><trkpt lat="41.9822283" lon="12.93893"><ele>387.0</ele><time>2026-04-19T10:46:31.891Z</time></trkpt><trkpt lat="41.982135" lon="12.9390617"><ele>387.0</ele><time>2026-04-19T10:46:32.829Z</time></trkpt><trkpt lat="41.9819417" lon="12.93928"><ele>387.0</ele><time>2026-04-19T10:46:34.837Z</time></trkpt><trkpt lat="41.9818383" lon="12.9393667"><ele>387.5</ele><time>2026-04-19T10:46:35.831Z</time></trkpt><trkpt lat="41.9817283" lon="12.9394517"><ele>388.0</ele><time>2026-04-19T10:46:36.829Z</time></trkpt><trkpt lat="41.9816217" lon="12.9395383"><ele>388.5</ele><time>2026-04-19T10:46:37.876Z</time></trkpt><trkpt lat="41.9815183" lon="12.93963"><ele>389.0</ele><time>2026-04-19T10:46:38.831Z</time></trkpt><trkpt lat="41.9814183" lon="12.939725"><ele>389.0</ele><time>2026-04-19T10:46:39.84Z</time></trkpt><trkpt lat="41.9813133" lon="12.9398083"><ele>389.0</ele><time>2026-04-19T10:46:40.832Z</time></trkpt><trkpt lat="41.9812117" lon="12.939895"><ele>389.0</ele><time>2026-04-19T10:46:41.831Z</time></trkpt><trkpt lat="41.9811067" lon="12.9399867"><ele>389.0</ele><time>2026-04-19T10:46:42.832Z</time></trkpt><trkpt lat="41.9810017" lon="12.9400817"><ele>389.0</ele><time>2026-04-19T10:46:43.876Z</time></trkpt><trkpt lat="41.9808983" lon="12.9401883"><ele>389.0</ele><time>2026-04-19T10:46:44.832Z</time></trkpt><trkpt lat="41.9807967" lon="12.9402967"><ele>389.0</ele><time>2026-04-19T10:46:45.835Z</time></trkpt><trkpt lat="41.9806867" lon="12.940395"><ele>389.0</ele><time>2026-04-19T10:46:46.828Z</time></trkpt><trkpt lat="41.980575" lon="12.9404883"><ele>389.0</ele><time>2026-04-19T10:46:47.836Z</time></trkpt><trkpt lat="41.9804533" lon="12.9405667"><ele>389.0</ele><time>2026-04-19T10:46:48.832Z</time></trkpt><trkpt lat="41.9803317" lon="12.9406417"><ele>389.0</ele><time>2026-04-19T10:46:49.879Z</time></trkpt><trkpt lat="41.9802067" lon="12.9407167"><ele>389.0</ele><time>2026-04-19T10:46:50.835Z</time></trkpt><trkpt lat="41.9800817" lon="12.94079"><ele>389.0</ele><time>2026-04-19T10:46:51.831Z</time></trkpt><trkpt lat="41.9799567" lon="12.9408617"><ele>389.0</ele><time>2026-04-19T10:46:52.831Z</time></trkpt><trkpt lat="41.9798283" lon="12.9409267"><ele>389.0</ele><time>2026-04-19T10:46:53.838Z</time></trkpt><trkpt lat="41.97957" lon="12.9410167"><ele>389.0</ele><time>2026-04-19T10:46:55.9Z</time></trkpt><trkpt lat="41.979435" lon="12.9410433"><ele>389.0</ele><time>2026-04-19T10:46:56.831Z</time></trkpt><trkpt lat="41.9793" lon="12.9410617"><ele>389.0</ele><time>2026-04-19T10:46:57.831Z</time></trkpt><trkpt lat="41.9791667" lon="12.94108"><ele>389.0</ele><time>2026-04-19T10:46:58.827Z</time></trkpt><trkpt lat="41.9790367" lon="12.9410967"><ele>388.0</ele><time>2026-04-19T10:46:59.832Z</time></trkpt><trkpt lat="41.9789067" lon="12.94111"><ele>387.0</ele><time>2026-04-19T10:47:00.834Z</time></trkpt><trkpt lat="41.9787683" lon="12.941125"><ele>386.0</ele><time>2026-04-19T10:47:01.885Z</time></trkpt><trkpt lat="41.9786233" lon="12.9411467"><ele>385.0</ele><time>2026-04-19T10:47:02.831Z</time></trkpt><trkpt lat="41.9784817" lon="12.941175"><ele>384.25</ele><time>2026-04-19T10:47:03.83Z</time></trkpt><trkpt lat="41.978335" lon="12.9411967"><ele>383.5</ele><time>2026-04-19T10:47:04.83Z</time></trkpt><trkpt lat="41.9781883" lon="12.9412217"><ele>382.75</ele><time>2026-04-19T10:47:05.827Z</time></trkpt><trkpt lat="41.9780433" lon="12.941245"><ele>382.0</ele><time>2026-04-19T10:47:06.839Z</time></trkpt><trkpt lat="41.9779083" lon="12.9412717"><ele>382.0</ele><time>2026-04-19T10:47:07.877Z</time></trkpt><trkpt lat="41.977775" lon="12.9412967"><ele>382.0</ele><time>2026-04-19T10:47:08.829Z</time></trkpt><trkpt lat="41.977635" lon="12.941315"><ele>382.0</ele><time>2026-04-19T10:47:09.835Z</time></trkpt><trkpt lat="41.9774983" lon="12.94134"><ele>382.0</ele><time>2026-04-19T10:47:10.833Z</time></trkpt><trkpt lat="41.9773633" lon="12.9413617"><ele>382.25</ele><time>2026-04-19T10:47:11.83Z</time></trkpt><trkpt lat="41.97723" lon="12.9413817"><ele>382.5</ele><time>2026-04-19T10:47:12.829Z</time></trkpt><trkpt lat="41.9771" lon="12.9414067"><ele>382.75</ele><time>2026-04-19T10:47:13.881Z</time></trkpt><trkpt lat="41.9769733" lon="12.9414317"><ele>383.0</ele><time>2026-04-19T10:47:14.829Z</time></trkpt><trkpt lat="41.9767183" lon="12.9414833"><ele>383.0</ele><time>2026-04-19T10:47:16.832Z</time></trkpt><trkpt lat="41.9765917" lon="12.9415117"><ele>383.0</ele><time>2026-04-19T10:47:17.836Z</time></trkpt><trkpt lat="41.976465" lon="12.9415467"><ele>383.0</ele><time>2026-04-19T10:47:18.831Z</time></trkpt><trkpt lat="41.97633" lon="12.9415833"><ele>383.0</ele><time>2026-04-19T10:47:19.878Z</time></trkpt><trkpt lat="41.97619" lon="12.9416333"><ele>383.0</ele><time>2026-04-19T10:47:20.828Z</time></trkpt><trkpt lat="41.97605" lon="12.9417067"><ele>383.0</ele><time>2026-04-19T10:47:21.828Z</time></trkpt><trkpt lat="41.97591" lon="12.94181"><ele>383.0</ele><time>2026-04-19T10:47:22.837Z</time></trkpt><trkpt lat="41.97577" lon="12.94195"><ele>383.6666666666667</ele><time>2026-04-19T10:47:23.828Z</time></trkpt><trkpt lat="41.97563" lon="12.9421167"><ele>384.33333333333337</ele><time>2026-04-19T10:47:24.829Z</time></trkpt><trkpt lat="41.9754833" lon="12.94229"><ele>385.0</ele><time>2026-04-19T10:47:25.897Z</time></trkpt><trkpt lat="41.9753367" lon="12.942465"><ele>385.0</ele><time>2026-04-19T10:47:26.829Z</time></trkpt><trkpt lat="41.975195" lon="12.9426333"><ele>385.0</ele><time>2026-04-19T10:47:27.835Z</time></trkpt><trkpt lat="41.9750617" lon="12.9427917"><ele>385.0</ele><time>2026-04-19T10:47:28.832Z</time></trkpt><trkpt lat="41.974935" lon="12.9429483"><ele>385.0</ele><time>2026-04-19T10:47:29.83Z</time></trkpt><trkpt lat="41.97481" lon="12.9431017"><ele>385.0</ele><time>2026-04-19T10:47:30.833Z</time></trkpt><trkpt lat="41.9746917" lon="12.9432383"><ele>385.0</ele><time>2026-04-19T10:47:31.883Z</time></trkpt><trkpt lat="41.9745733" lon="12.9433517"><ele>385.75</ele><time>2026-04-19T10:47:32.829Z</time></trkpt><trkpt lat="41.9744617" lon="12.9434483"><ele>386.5</ele><time>2026-04-19T10:47:33.835Z</time></trkpt><trkpt lat="41.9743567" lon="12.9435383"><ele>387.25</ele><time>2026-04-19T10:47:34.832Z</time></trkpt><trkpt lat="41.97425" lon="12.9436233"><ele>388.0</ele><time>2026-04-19T10:47:35.834Z</time></trkpt><trkpt lat="41.97402" lon="12.943795"><ele>388.25</ele><time>2026-04-19T10:47:37.877Z</time></trkpt><trkpt lat="41.973905" lon="12.9438833"><ele>388.5</ele><time>2026-04-19T10:47:38.832Z</time></trkpt><trkpt lat="41.9737867" lon="12.943965"><ele>388.75</ele><time>2026-04-19T10:47:39.829Z</time></trkpt><trkpt lat="41.973665" lon="12.9440517"><ele>389.0</ele><time>2026-04-19T10:47:40.826Z</time></trkpt><trkpt lat="41.9735383" lon="12.944145"><ele>389.0</ele><time>2026-04-19T10:47:41.833Z</time></trkpt><trkpt lat="41.973415" lon="12.9442383"><ele>389.0</ele><time>2026-04-19T10:47:42.829Z</time></trkpt><trkpt lat="41.9732933" lon="12.9443283"><ele>389.0</ele><time>2026-04-19T10:47:43.878Z</time></trkpt><trkpt lat="41.97317" lon="12.9444133"><ele>389.0</ele><time>2026-04-19T10:47:44.83Z</time></trkpt><trkpt lat="41.9730467" lon="12.9445033"><ele>388.0</ele><time>2026-04-19T10:47:45.831Z</time></trkpt><trkpt lat="41.9729217" lon="12.9445967"><ele>387.0</ele><time>2026-04-19T10:47:46.833Z</time></trkpt><trkpt lat="41.972795" lon="12.94469"><ele>386.0</ele><time>2026-04-19T10:47:47.83Z</time></trkpt><trkpt lat="41.97267" lon="12.9447867"><ele>385.0</ele><time>2026-04-19T10:47:48.839Z</time></trkpt><trkpt lat="41.972545" lon="12.9448817"><ele>384.75</ele><time>2026-04-19T10:47:49.879Z</time></trkpt><trkpt lat="41.9724183" lon="12.9449733"><ele>384.5</ele><time>2026-04-19T10:47:50.831Z</time></trkpt><trkpt lat="41.9722983" lon="12.945065"><ele>384.25</ele><time>2026-04-19T10:47:51.836Z</time></trkpt><trkpt lat="41.9721817" lon="12.94516"><ele>384.0</ele><time>2026-04-19T10:47:52.831Z</time></trkpt><trkpt lat="41.9720633" lon="12.945255"><ele>383.75</ele><time>2026-04-19T10:47:53.831Z</time></trkpt><trkpt lat="41.9719383" lon="12.9453483"><ele>383.5</ele><time>2026-04-19T10:47:54.827Z</time></trkpt><trkpt lat="41.9718167" lon="12.945445"><ele>383.25</ele><time>2026-04-19T10:47:55.897Z</time></trkpt><trkpt lat="41.9716933" lon="12.9455417"><ele>383.0</ele><time>2026-04-19T10:47:56.835Z</time></trkpt><trkpt lat="41.9714583" lon="12.94573"><ele>383.0</ele><time>2026-04-19T10:47:58.832Z</time></trkpt><trkpt lat="41.971345" lon="12.9458117"><ele>383.0</ele><time>2026-04-19T10:47:59.837Z</time></trkpt><trkpt lat="41.9712333" lon="12.9458917"><ele>383.0</ele><time>2026-04-19T10:48:00.832Z</time></trkpt><trkpt lat="41.9711133" lon="12.945965"><ele>383.0</ele><time>2026-04-19T10:48:01.883Z</time></trkpt><trkpt lat="41.9709833" lon="12.9460267"><ele>383.5</ele><time>2026-04-19T10:48:02.826Z</time></trkpt><trkpt lat="41.97085" lon="12.9460817"><ele>384.0</ele><time>2026-04-19T10:48:03.835Z</time></trkpt><trkpt lat="41.9707117" lon="12.946135"><ele>384.5</ele><time>2026-04-19T10:48:04.829Z</time></trkpt><trkpt lat="41.9705717" lon="12.9461833"><ele>385.0</ele><time>2026-04-19T10:48:05.83Z</time></trkpt><trkpt lat="41.9704333" lon="12.9462283"><ele>385.0</ele><time>2026-04-19T10:48:06.835Z</time></trkpt><trkpt lat="41.9703" lon="12.9462717"><ele>385.0</ele><time>2026-04-19T10:48:07.881Z</time></trkpt><trkpt lat="41.9701717" lon="12.9463217"><ele>385.0</ele><time>2026-04-19T10:48:08.828Z</time></trkpt><trkpt lat="41.9700433" lon="12.9463683"><ele>385.0</ele><time>2026-04-19T10:48:09.839Z</time></trkpt><trkpt lat="41.9699133" lon="12.9464133"><ele>384.75</ele><time>2026-04-19T10:48:10.832Z</time></trkpt><trkpt lat="41.9697783" lon="12.9464617"><ele>384.5</ele><time>2026-04-19T10:48:11.837Z</time></trkpt><trkpt lat="41.9696433" lon="12.9465117"><ele>384.25</ele><time>2026-04-19T10:48:12.832Z</time></trkpt><trkpt lat="41.9695083" lon="12.9465583"><ele>384.0</ele><time>2026-04-19T10:48:13.878Z</time></trkpt><trkpt lat="41.9693767" lon="12.94661"><ele>384.0</ele><time>2026-04-19T10:48:14.837Z</time></trkpt><trkpt lat="41.9692467" lon="12.9466617"><ele>384.0</ele><time>2026-04-19T10:48:15.832Z</time></trkpt><trkpt lat="41.969115" lon="12.9467117"><ele>384.0</ele><time>2026-04-19T10:48:16.836Z</time></trkpt><trkpt lat="41.9689883" lon="12.9467783"><ele>384.0</ele><time>2026-04-19T10:48:17.841Z</time></trkpt><trkpt lat="41.968755" lon="12.946955"><ele>384.6</ele><time>2026-04-19T10:48:19.879Z</time></trkpt><trkpt lat="41.968655" lon="12.9470467"><ele>385.2</ele><time>2026-04-19T10:48:20.829Z</time></trkpt><trkpt lat="41.9685617" lon="12.9471333"><ele>385.8</ele><time>2026-04-19T10:48:21.832Z</time></trkpt><trkpt lat="41.9684717" lon="12.9472117"><ele>386.40000000000003</ele><time>2026-04-19T10:48:22.837Z</time></trkpt><trkpt lat="41.9683917" lon="12.9472867"><ele>387.0</ele><time>2026-04-19T10:48:23.834Z</time></trkpt><trkpt lat="41.96832" lon="12.9473483"><ele>387.6</ele><time>2026-04-19T10:48:24.838Z</time></trkpt><trkpt lat="41.9682533" lon="12.947395"><ele>388.20000000000005</ele><time>2026-04-19T10:48:25.899Z</time></trkpt><trkpt lat="41.9681483" lon="12.9473967"><ele>388.8</ele><time>2026-04-19T10:48:27.836Z</time></trkpt><trkpt lat="41.968085" lon="12.94725"><ele>389.4</ele><time>2026-04-19T10:48:29.832Z</time></trkpt><trkpt lat="41.9680517" lon="12.9471367"><ele>390.0</ele><time>2026-04-19T10:48:30.828Z</time></trkpt><trkpt lat="41.9680067" lon="12.947025"><ele>390.0</ele><time>2026-04-19T10:48:31.886Z</time></trkpt><trkpt lat="41.967955" lon="12.9469167"><ele>390.0</ele><time>2026-04-19T10:48:32.832Z</time></trkpt><trkpt lat="41.967895" lon="12.946795"><ele>390.0</ele><time>2026-04-19T10:48:33.844Z</time></trkpt><trkpt lat="41.9678333" lon="12.94666"><ele>390.0</ele><time>2026-04-19T10:48:34.831Z</time></trkpt><trkpt lat="41.9677833" lon="12.9465233"><ele>390.0</ele><time>2026-04-19T10:48:35.833Z</time></trkpt><trkpt lat="41.9677367" lon="12.9463717"><ele>389.0</ele><time>2026-04-19T10:48:36.828Z</time></trkpt><trkpt lat="41.9677067" lon="12.946225"><ele>388.0</ele><time>2026-04-19T10:48:37.884Z</time></trkpt><trkpt lat="41.9676917" lon="12.946075"><ele>387.0</ele><time>2026-04-19T10:48:38.828Z</time></trkpt><trkpt lat="41.9676667" lon="12.945845"><ele>386.0</ele><time>2026-04-19T10:48:40.832Z</time></trkpt><trkpt lat="41.967645" lon="12.9457483"><ele>385.8</ele><time>2026-04-19T10:48:41.833Z</time></trkpt><trkpt lat="41.9675617" lon="12.9456617"><ele>385.6</ele><time>2026-04-19T10:48:43.883Z</time></trkpt><trkpt lat="41.9674717" lon="12.9456933"><ele>385.4</ele><time>2026-04-19T10:48:45.837Z</time></trkpt><trkpt lat="41.96739" lon="12.9457767"><ele>385.2</ele><time>2026-04-19T10:48:47.836Z</time></trkpt><trkpt lat="41.96732" lon="12.94585"><ele>385.0</ele><time>2026-04-19T10:48:49.887Z</time></trkpt><trkpt lat="41.9672533" lon="12.9458983"><ele>385.0</ele><time>2026-04-19T10:48:51.838Z</time></trkpt><trkpt lat="41.9671867" lon="12.94596"><ele>385.0</ele><time>2026-04-19T10:48:53.837Z</time></trkpt><trkpt lat="41.9671133" lon="12.9459967"><ele>385.0</ele><time>2026-04-19T10:48:55.894Z</time></trkpt><trkpt lat="41.9670233" lon="12.9460417"><ele>385.0</ele><time>2026-04-19T10:50:05.831Z</time></trkpt><trkpt lat="41.96688" lon="12.94627"><ele>385.0</ele><time>2026-04-19T10:50:37.886Z</time></trkpt><trkpt lat="41.966755" lon="12.946415"><ele>385.0</ele><time>2026-04-19T10:50:41.833Z</time></trkpt><trkpt lat="41.9666717" lon="12.9465017"><ele>385.0</ele><time>2026-04-19T10:50:43.887Z</time></trkpt><trkpt lat="41.9666033" lon="12.9465883"><ele>385.0</ele><time>2026-04-19T10:50:45.836Z</time></trkpt><trkpt lat="41.9665133" lon="12.9466683"><ele>384.8</ele><time>2026-04-19T10:50:47.833Z</time></trkpt><trkpt lat="41.9664067" lon="12.9467517"><ele>384.6</ele><time>2026-04-19T10:50:49.875Z</time></trkpt><trkpt lat="41.966345" lon="12.9468217"><ele>384.4</ele><time>2026-04-19T10:50:50.833Z</time></trkpt><trkpt lat="41.9662767" lon="12.9469017"><ele>384.2</ele><time>2026-04-19T10:50:51.832Z</time></trkpt><trkpt lat="41.96621" lon="12.9469867"><ele>384.0</ele><time>2026-04-19T10:50:52.838Z</time></trkpt><trkpt lat="41.9661417" lon="12.9470633"><ele>384.0</ele><time>2026-04-19T10:50:53.832Z</time></trkpt><trkpt lat="41.966085" lon="12.947135"><ele>384.0</ele><time>2026-04-19T10:50:54.838Z</time></trkpt><trkpt lat="41.9660383" lon="12.947205"><ele>384.0</ele><time>2026-04-19T10:50:55.878Z</time></trkpt><trkpt lat="41.965995" lon="12.9472783"><ele>384.0</ele><time>2026-04-19T10:50:56.83Z</time></trkpt><trkpt lat="41.9659517" lon="12.9473533"><ele>384.0</ele><time>2026-04-19T10:50:57.836Z</time></trkpt><trkpt lat="41.9659" lon="12.94743"><ele>384.0</ele><time>2026-04-19T10:50:58.829Z</time></trkpt><trkpt lat="41.96581" lon="12.9475767"><ele>384.0</ele><time>2026-04-19T10:51:00.842Z</time></trkpt><trkpt lat="41.96578" lon="12.9476617"><ele>384.0</ele><time>2026-04-19T10:51:01.889Z</time></trkpt><trkpt lat="41.96576" lon="12.947745"><ele>384.0</ele><time>2026-04-19T10:51:02.827Z</time></trkpt><trkpt lat="41.9657333" lon="12.9478217"><ele>384.0</ele><time>2026-04-19T10:51:03.836Z</time></trkpt><trkpt lat="41.9656683" lon="12.9479383"><ele>384.0</ele><time>2026-04-19T10:51:05.832Z</time></trkpt><trkpt lat="41.9656033" lon="12.9480467"><ele>384.0</ele><time>2026-04-19T10:51:07.878Z</time></trkpt><trkpt lat="41.9655433" lon="12.948145"><ele>384.0</ele><time>2026-04-19T10:51:09.839Z</time></trkpt><trkpt lat="41.9654933" lon="12.9482133"><ele>384.0</ele><time>2026-04-19T10:51:11.84Z</time></trkpt><trkpt lat="41.96544" lon="12.94831"><ele>384.0</ele><time>2026-04-19T10:51:14.831Z</time></trkpt><trkpt lat="41.9653567" lon="12.94844"><ele>384.0</ele><time>2026-04-19T10:51:16.834Z</time></trkpt><trkpt lat="41.965295" lon="12.94853"><ele>384.0</ele><time>2026-04-19T10:51:17.83Z</time></trkpt><trkpt lat="41.9652283" lon="12.9486267"><ele>384.0</ele><time>2026-04-19T10:51:18.832Z</time></trkpt><trkpt lat="41.96516" lon="12.9487217"><ele>384.0</ele><time>2026-04-19T10:51:19.876Z</time></trkpt><trkpt lat="41.965035" lon="12.9488967"><ele>384.0</ele><time>2026-04-19T10:51:21.832Z</time></trkpt><trkpt lat="41.96497" lon="12.94897"><ele>384.0</ele><time>2026-04-19T10:51:22.835Z</time></trkpt><trkpt lat="41.9649133" lon="12.9490267"><ele>384.0</ele><time>2026-04-19T10:51:23.833Z</time></trkpt><trkpt lat="41.9648283" lon="12.9491067"><ele>384.6</ele><time>2026-04-19T10:51:25.885Z</time></trkpt><trkpt lat="41.9647433" lon="12.949235"><ele>385.2</ele><time>2026-04-19T10:51:27.838Z</time></trkpt><trkpt lat="41.96469" lon="12.949325"><ele>385.8</ele><time>2026-04-19T10:51:28.831Z</time></trkpt><trkpt lat="41.9646383" lon="12.949415"><ele>386.40000000000003</ele><time>2026-04-19T10:51:29.836Z</time></trkpt><trkpt lat="41.96459" lon="12.9494967"><ele>387.0</ele><time>2026-04-19T10:51:30.829Z</time></trkpt><trkpt lat="41.964505" lon="12.949605"><ele>387.0</ele><time>2026-04-19T10:51:32.833Z</time></trkpt><trkpt lat="41.9644367" lon="12.9496917"><ele>387.0</ele><time>2026-04-19T10:51:34.835Z</time></trkpt><trkpt lat="41.9643667" lon="12.949815"><ele>387.0</ele><time>2026-04-19T10:51:36.84Z</time></trkpt><trkpt lat="41.9643167" lon="12.949885"><ele>387.0</ele><time>2026-04-19T10:51:37.877Z</time></trkpt><trkpt lat="41.964265" lon="12.949955"><ele>387.0</ele><time>2026-04-19T10:51:38.83Z</time></trkpt><trkpt lat="41.964215" lon="12.9500167"><ele>387.0</ele><time>2026-04-19T10:51:39.836Z</time></trkpt><trkpt lat="41.9641633" lon="12.9500733"><ele>388.25</ele><time>2026-04-19T10:51:40.834Z</time></trkpt><trkpt lat="41.9639517" lon="12.9502133"><ele>389.5</ele><time>2026-04-19T10:51:44.829Z</time></trkpt><trkpt lat="41.9638683" lon="12.9502733"><ele>390.75</ele><time>2026-04-19T10:51:46.836Z</time></trkpt><trkpt lat="41.96378" lon="12.9503583"><ele>392.0</ele><time>2026-04-19T10:51:48.838Z</time></trkpt><trkpt lat="41.9636933" lon="12.9504517"><ele>392.0</ele><time>2026-04-19T10:51:50.832Z</time></trkpt><trkpt lat="41.963595" lon="12.9505717"><ele>392.0</ele><time>2026-04-19T10:51:52.835Z</time></trkpt><trkpt lat="41.9635317" lon="12.9506367"><ele>392.0</ele><time>2026-04-19T10:51:53.831Z</time></trkpt><trkpt lat="41.9634617" lon="12.9507067"><ele>392.0</ele><time>2026-04-19T10:51:54.837Z</time></trkpt><trkpt lat="41.9633883" lon="12.9507833"><ele>392.0</ele><time>2026-04-19T10:51:55.885Z</time></trkpt><trkpt lat="41.9633167" lon="12.95087"><ele>390.8</ele><time>2026-04-19T10:51:56.834Z</time></trkpt><trkpt lat="41.96325" lon="12.9509583"><ele>389.6</ele><time>2026-04-19T10:51:57.835Z</time></trkpt><trkpt lat="41.9631833" lon="12.9510517"><ele>388.40000000000003</ele><time>2026-04-19T10:51:58.827Z</time></trkpt><trkpt lat="41.963115" lon="12.9511517"><ele>387.20000000000005</ele><time>2026-04-19T10:51:59.825Z</time></trkpt><trkpt lat="41.9630383" lon="12.951255"><ele>386.0</ele><time>2026-04-19T10:52:00.829Z</time></trkpt><trkpt lat="41.9629583" lon="12.9513583"><ele>386.0</ele><time>2026-04-19T10:52:01.881Z</time></trkpt><trkpt lat="41.9627817" lon="12.9515817"><ele>386.0</ele><time>2026-04-19T10:52:03.835Z</time></trkpt><trkpt lat="41.9626933" lon="12.9517033"><ele>386.0</ele><time>2026-04-19T10:52:04.833Z</time></trkpt><trkpt lat="41.96262" lon="12.9518217"><ele>386.4</ele><time>2026-04-19T10:52:05.828Z</time></trkpt><trkpt lat="41.9625617" lon="12.9519417"><ele>386.8</ele><time>2026-04-19T10:52:06.833Z</time></trkpt><trkpt lat="41.9625117" lon="12.9520567"><ele>387.2</ele><time>2026-04-19T10:52:07.872Z</time></trkpt><trkpt lat="41.9624683" lon="12.952165"><ele>387.59999999999997</ele><time>2026-04-19T10:52:08.832Z</time></trkpt><trkpt lat="41.9624233" lon="12.95226"><ele>388.0</ele><time>2026-04-19T10:52:09.834Z</time></trkpt><trkpt lat="41.9623683" lon="12.952345"><ele>388.5</ele><time>2026-04-19T10:52:10.834Z</time></trkpt><trkpt lat="41.9622883" lon="12.9524283"><ele>389.0</ele><time>2026-04-19T10:52:11.84Z</time></trkpt><trkpt lat="41.962195" lon="12.9525283"><ele>389.5</ele><time>2026-04-19T10:52:12.831Z</time></trkpt><trkpt lat="41.9621033" lon="12.952635"><ele>390.0</ele><time>2026-04-19T10:52:13.879Z</time></trkpt><trkpt lat="41.9620183" lon="12.9527333"><ele>390.0</ele><time>2026-04-19T10:52:14.834Z</time></trkpt><trkpt lat="41.961935" lon="12.9528133"><ele>390.0</ele><time>2026-04-19T10:52:15.835Z</time></trkpt><trkpt lat="41.9618567" lon="12.95289"><ele>390.0</ele><time>2026-04-19T10:52:16.836Z</time></trkpt><trkpt lat="41.9617683" lon="12.9529583"><ele>390.0</ele><time>2026-04-19T10:52:17.835Z</time></trkpt><trkpt lat="41.96168" lon="12.953025"><ele>390.0</ele><time>2026-04-19T10:52:18.837Z</time></trkpt><trkpt lat="41.9615867" lon="12.9530933"><ele>390.0</ele><time>2026-04-19T10:52:19.879Z</time></trkpt><trkpt lat="41.961495" lon="12.9531683"><ele>390.0</ele><time>2026-04-19T10:52:20.835Z</time></trkpt><trkpt lat="41.9614067" lon="12.9532483"><ele>390.0</ele><time>2026-04-19T10:52:21.838Z</time></trkpt><trkpt lat="41.961315" lon="12.95333"><ele>390.0</ele><time>2026-04-19T10:52:22.835Z</time></trkpt><trkpt lat="41.96114" lon="12.95349"><ele>390.0</ele><time>2026-04-19T10:52:24.835Z</time></trkpt><trkpt lat="41.96106" lon="12.9535617"><ele>390.0</ele><time>2026-04-19T10:52:25.896Z</time></trkpt><trkpt lat="41.9609833" lon="12.953635"><ele>390.0</ele><time>2026-04-19T10:52:26.835Z</time></trkpt><trkpt lat="41.9609033" lon="12.953705"><ele>390.0</ele><time>2026-04-19T10:52:27.836Z</time></trkpt><trkpt lat="41.96082" lon="12.9537667"><ele>390.0</ele><time>2026-04-19T10:52:28.832Z</time></trkpt><trkpt lat="41.9607383" lon="12.9538267"><ele>390.0</ele><time>2026-04-19T10:52:29.831Z</time></trkpt><trkpt lat="41.9606683" lon="12.9538767"><ele>390.0</ele><time>2026-04-19T10:52:30.831Z</time></trkpt><trkpt lat="41.96057" lon="12.9539467"><ele>390.0</ele><time>2026-04-19T10:52:32.834Z</time></trkpt><trkpt lat="41.96055" lon="12.954065"><ele>390.0</ele><time>2026-04-19T10:52:35.83Z</time></trkpt><trkpt lat="41.9605733" lon="12.9541683"><ele>390.0</ele><time>2026-04-19T10:52:37.88Z</time></trkpt><trkpt lat="41.96053" lon="12.95426"><ele>390.0</ele><time>2026-04-19T10:52:39.826Z</time></trkpt><trkpt lat="41.9604017" lon="12.9543383"><ele>389.75</ele><time>2026-04-19T10:52:41.834Z</time></trkpt><trkpt lat="41.960315" lon="12.9543917"><ele>389.5</ele><time>2026-04-19T10:52:42.836Z</time></trkpt><trkpt lat="41.9602217" lon="12.9544533"><ele>389.25</ele><time>2026-04-19T10:52:43.888Z</time></trkpt><trkpt lat="41.9600367" lon="12.9546017"><ele>389.0</ele><time>2026-04-19T10:52:45.834Z</time></trkpt><trkpt lat="41.9599517" lon="12.9546767"><ele>389.16666666666663</ele><time>2026-04-19T10:52:46.835Z</time></trkpt><trkpt lat="41.9598683" lon="12.954755"><ele>389.3333333333333</ele><time>2026-04-19T10:52:47.828Z</time></trkpt><trkpt lat="41.95979" lon="12.95483"><ele>389.5</ele><time>2026-04-19T10:52:48.832Z</time></trkpt><trkpt lat="41.9597167" lon="12.9548983"><ele>389.66666666666663</ele><time>2026-04-19T10:52:49.881Z</time></trkpt><trkpt lat="41.95965" lon="12.9549533"><ele>389.8333333333333</ele><time>2026-04-19T10:52:50.826Z</time></trkpt><trkpt lat="41.9595933" lon="12.9550017"><ele>390.0</ele><time>2026-04-19T10:52:51.837Z</time></trkpt><trkpt lat="41.9595" lon="12.9550767"><ele>390.0</ele><time>2026-04-19T10:52:53.831Z</time></trkpt><trkpt lat="41.9594267" lon="12.9551483"><ele>390.0</ele><time>2026-04-19T10:52:55.881Z</time></trkpt><trkpt lat="41.9593333" lon="12.95525"><ele>390.0</ele><time>2026-04-19T10:52:57.838Z</time></trkpt><trkpt lat="41.9592783" lon="12.9553"><ele>390.0</ele><time>2026-04-19T10:52:58.836Z</time></trkpt><trkpt lat="41.95918" lon="12.9553567"><ele>390.0</ele><time>2026-04-19T10:53:00.838Z</time></trkpt><trkpt lat="41.95906" lon="12.955425"><ele>390.0</ele><time>2026-04-19T10:53:02.834Z</time></trkpt><trkpt lat="41.9589917" lon="12.9554783"><ele>390.0</ele><time>2026-04-19T10:53:03.832Z</time></trkpt><trkpt lat="41.958925" lon="12.9555367"><ele>390.0</ele><time>2026-04-19T10:53:04.826Z</time></trkpt><trkpt lat="41.958795" lon="12.955645"><ele>390.0</ele><time>2026-04-19T10:53:06.829Z</time></trkpt><trkpt lat="41.9587167" lon="12.9557133"><ele>390.0</ele><time>2026-04-19T10:53:07.88Z</time></trkpt><trkpt lat="41.9586267" lon="12.9557833"><ele>390.0</ele><time>2026-04-19T10:53:08.831Z</time></trkpt><trkpt lat="41.9585267" lon="12.9558567"><ele>390.0</ele><time>2026-04-19T10:53:09.834Z</time></trkpt><trkpt lat="41.9584233" lon="12.9559283"><ele>390.0</ele><time>2026-04-19T10:53:10.831Z</time></trkpt><trkpt lat="41.9583317" lon="12.9559867"><ele>390.0</ele><time>2026-04-19T10:53:11.837Z</time></trkpt><trkpt lat="41.95825" lon="12.95603"><ele>390.0</ele><time>2026-04-19T10:53:12.832Z</time></trkpt><trkpt lat="41.9581683" lon="12.9560667"><ele>389.8333333333333</ele><time>2026-04-19T10:53:13.877Z</time></trkpt><trkpt lat="41.95809" lon="12.956095"><ele>389.66666666666663</ele><time>2026-04-19T10:53:14.831Z</time></trkpt><trkpt lat="41.95802" lon="12.9561417"><ele>389.5</ele><time>2026-04-19T10:53:15.831Z</time></trkpt><trkpt lat="41.95796" lon="12.9562033"><ele>389.3333333333333</ele><time>2026-04-19T10:53:16.83Z</time></trkpt><trkpt lat="41.9578983" lon="12.9562617"><ele>389.16666666666663</ele><time>2026-04-19T10:53:17.831Z</time></trkpt><trkpt lat="41.95782" lon="12.9563117"><ele>389.0</ele><time>2026-04-19T10:53:18.834Z</time></trkpt><trkpt lat="41.95773" lon="12.9563517"><ele>389.0</ele><time>2026-04-19T10:53:19.878Z</time></trkpt><trkpt lat="41.957635" lon="12.9563883"><ele>389.0</ele><time>2026-04-19T10:53:20.833Z</time></trkpt><trkpt lat="41.9575367" lon="12.956415"><ele>389.0</ele><time>2026-04-19T10:53:21.833Z</time></trkpt><trkpt lat="41.9574417" lon="12.9564367"><ele>389.0</ele><time>2026-04-19T10:53:22.828Z</time></trkpt><trkpt lat="41.9573567" lon="12.9564667"><ele>389.0</ele><time>2026-04-19T10:53:23.833Z</time></trkpt><trkpt lat="41.9572733" lon="12.956495"><ele>389.2</ele><time>2026-04-19T10:53:24.833Z</time></trkpt><trkpt lat="41.95719" lon="12.9565267"><ele>389.4</ele><time>2026-04-19T10:53:25.884Z</time></trkpt><trkpt lat="41.9569983" lon="12.9565633"><ele>389.6</ele><time>2026-04-19T10:53:28.834Z</time></trkpt><trkpt lat="41.9569283" lon="12.9565917"><ele>389.8</ele><time>2026-04-19T10:53:29.832Z</time></trkpt><trkpt lat="41.956855" lon="12.95663"><ele>390.0</ele><time>2026-04-19T10:53:30.833Z</time></trkpt><trkpt lat="41.9567833" lon="12.9566533"><ele>390.0</ele><time>2026-04-19T10:53:31.885Z</time></trkpt><trkpt lat="41.9567133" lon="12.9566733"><ele>390.0</ele><time>2026-04-19T10:53:32.834Z</time></trkpt><trkpt lat="41.9566417" lon="12.9566933"><ele>390.0</ele><time>2026-04-19T10:53:33.835Z</time></trkpt><trkpt lat="41.9565683" lon="12.956715"><ele>390.0</ele><time>2026-04-19T10:53:34.834Z</time></trkpt><trkpt lat="41.9564933" lon="12.9567383"><ele>390.0</ele><time>2026-04-19T10:53:35.834Z</time></trkpt><trkpt lat="41.95642" lon="12.956755"><ele>390.0</ele><time>2026-04-19T10:53:36.835Z</time></trkpt><trkpt lat="41.9563467" lon="12.9567817"><ele>390.0</ele><time>2026-04-19T10:53:37.877Z</time></trkpt><trkpt lat="41.95627" lon="12.9568183"><ele>389.8333333333333</ele><time>2026-04-19T10:53:38.834Z</time></trkpt><trkpt lat="41.9561917" lon="12.9568567"><ele>389.66666666666663</ele><time>2026-04-19T10:53:39.839Z</time></trkpt><trkpt lat="41.956125" lon="12.9568917"><ele>389.5</ele><time>2026-04-19T10:53:40.833Z</time></trkpt><trkpt lat="41.9560683" lon="12.9569317"><ele>389.3333333333333</ele><time>2026-04-19T10:53:41.828Z</time></trkpt><trkpt lat="41.9560183" lon="12.9569833"><ele>389.16666666666663</ele><time>2026-04-19T10:53:42.837Z</time></trkpt><trkpt lat="41.9559217" lon="12.9570783"><ele>389.0</ele><time>2026-04-19T10:53:44.826Z</time></trkpt><trkpt lat="41.955835" lon="12.9571617"><ele>389.5</ele><time>2026-04-19T10:53:46.832Z</time></trkpt><trkpt lat="41.955655" lon="12.9573217"><ele>390.0</ele><time>2026-04-19T10:53:50.831Z</time></trkpt><trkpt lat="41.955585" lon="12.9574"><ele>390.5</ele><time>2026-04-19T10:53:52.828Z</time></trkpt><trkpt lat="41.9554817" lon="12.9574483"><ele>391.0</ele><time>2026-04-19T10:53:54.832Z</time></trkpt><trkpt lat="41.95542" lon="12.9574683"><ele>391.0</ele><time>2026-04-19T10:53:55.884Z</time></trkpt><trkpt lat="41.9553217" lon="12.9574917"><ele>391.0</ele><time>2026-04-19T10:53:57.835Z</time></trkpt><trkpt lat="41.95523" lon="12.9575583"><ele>391.0</ele><time>2026-04-19T10:54:06.835Z</time></trkpt><trkpt lat="41.955175" lon="12.9576083"><ele>391.0</ele><time>2026-04-19T10:54:07.879Z</time></trkpt><trkpt lat="41.9549983" lon="12.9577283"><ele>391.0</ele><time>2026-04-19T10:54:09.831Z</time></trkpt><trkpt lat="41.9549033" lon="12.95778"><ele>391.0</ele><time>2026-04-19T10:54:10.83Z</time></trkpt><trkpt lat="41.9548083" lon="12.9578417"><ele>391.0</ele><time>2026-04-19T10:54:11.833Z</time></trkpt><trkpt lat="41.95472" lon="12.9579067"><ele>391.0</ele><time>2026-04-19T10:54:12.837Z</time></trkpt><trkpt lat="41.9546467" lon="12.9579733"><ele>391.0</ele><time>2026-04-19T10:54:13.884Z</time></trkpt><trkpt lat="41.9545767" lon="12.9580383"><ele>391.00000000000006</ele><time>2026-04-19T10:54:14.827Z</time></trkpt><trkpt lat="41.9545" lon="12.958095"><ele>391.0</ele><time>2026-04-19T10:54:15.831Z</time></trkpt><trkpt lat="41.9544183" lon="12.95814"><ele>391.0</ele><time>2026-04-19T10:54:16.826Z</time></trkpt><trkpt lat="41.9543317" lon="12.9581767"><ele>391.0</ele><time>2026-04-19T10:54:17.835Z</time></trkpt><trkpt lat="41.9542467" lon="12.9582133"><ele>391.00000000000006</ele><time>2026-04-19T10:54:18.825Z</time></trkpt><trkpt lat="41.9541633" lon="12.958255"><ele>391.0</ele><time>2026-04-19T10:54:19.876Z</time></trkpt><trkpt lat="41.9540867" lon="12.9583"><ele>391.1666666666667</ele><time>2026-04-19T10:54:20.831Z</time></trkpt><trkpt lat="41.954015" lon="12.9583383"><ele>391.33333333333337</ele><time>2026-04-19T10:54:21.828Z</time></trkpt><trkpt lat="41.9539517" lon="12.9583633"><ele>391.5</ele><time>2026-04-19T10:54:22.839Z</time></trkpt><trkpt lat="41.9538283" lon="12.95837"><ele>391.66666666666663</ele><time>2026-04-19T10:54:24.833Z</time></trkpt><trkpt lat="41.9537317" lon="12.9583267"><ele>391.8333333333333</ele><time>2026-04-19T10:54:26.834Z</time></trkpt><trkpt lat="41.9536733" lon="12.9582583"><ele>392.0</ele><time>2026-04-19T10:54:28.834Z</time></trkpt><trkpt lat="41.953555" lon="12.958105"><ele>391.99999999999994</ele><time>2026-04-19T10:54:32.83Z</time></trkpt><trkpt lat="41.9535" lon="12.9580133"><ele>392.0</ele><time>2026-04-19T10:54:34.831Z</time></trkpt><trkpt lat="41.953405" lon="12.9579667"><ele>392.0</ele><time>2026-04-19T10:54:36.833Z</time></trkpt><trkpt lat="41.953345" lon="12.9579967"><ele>392.0</ele><time>2026-04-19T10:54:37.879Z</time></trkpt><trkpt lat="41.95329" lon="12.958055"><ele>391.99999999999994</ele><time>2026-04-19T10:54:38.832Z</time></trkpt><trkpt lat="41.9532367" lon="12.9581233"><ele>392.0</ele><time>2026-04-19T10:54:39.837Z</time></trkpt><trkpt lat="41.9531817" lon="12.9581867"><ele>392.16666666666663</ele><time>2026-04-19T10:54:40.83Z</time></trkpt><trkpt lat="41.953125" lon="12.9582517"><ele>392.3333333333333</ele><time>2026-04-19T10:54:41.83Z</time></trkpt><trkpt lat="41.9530583" lon="12.9583317"><ele>392.5</ele><time>2026-04-19T10:54:42.836Z</time></trkpt><trkpt lat="41.9529883" lon="12.9584217"><ele>392.66666666666663</ele><time>2026-04-19T10:54:43.887Z</time></trkpt><trkpt lat="41.9529217" lon="12.9585117"><ele>392.8333333333333</ele><time>2026-04-19T10:54:44.829Z</time></trkpt><trkpt lat="41.9528517" lon="12.9585867"><ele>393.0</ele><time>2026-04-19T10:54:45.834Z</time></trkpt><trkpt lat="41.95277" lon="12.9586517"><ele>393.5</ele><time>2026-04-19T10:54:46.831Z</time></trkpt><trkpt lat="41.9526833" lon="12.9587117"><ele>394.0</ele><time>2026-04-19T10:54:47.83Z</time></trkpt><trkpt lat="41.9526" lon="12.9587733"><ele>394.5</ele><time>2026-04-19T10:54:48.838Z</time></trkpt><trkpt lat="41.95252" lon="12.9588417"><ele>395.0</ele><time>2026-04-19T10:54:49.878Z</time></trkpt><trkpt lat="41.9523483" lon="12.9589583"><ele>394.8</ele><time>2026-04-19T10:54:51.833Z</time></trkpt><trkpt lat="41.952265" lon="12.9590233"><ele>394.6</ele><time>2026-04-19T10:54:52.829Z</time></trkpt><trkpt lat="41.9521783" lon="12.95909"><ele>394.4</ele><time>2026-04-19T10:54:53.834Z</time></trkpt><trkpt lat="41.9520867" lon="12.9591567"><ele>394.2</ele><time>2026-04-19T10:54:54.836Z</time></trkpt><trkpt lat="41.9519717" lon="12.9592183"><ele>394.0</ele><time>2026-04-19T10:54:55.9Z</time></trkpt><trkpt lat="41.9518533" lon="12.9592817"><ele>394.0</ele><time>2026-04-19T10:54:56.831Z</time></trkpt><trkpt lat="41.95174" lon="12.95934"><ele>394.0</ele><time>2026-04-19T10:54:57.84Z</time></trkpt><trkpt lat="41.95164" lon="12.9594117"><ele>394.0</ele><time>2026-04-19T10:54:58.832Z</time></trkpt><trkpt lat="41.9515467" lon="12.9594883"><ele>394.0</ele><time>2026-04-19T10:54:59.831Z</time></trkpt><trkpt lat="41.9514567" lon="12.959565"><ele>393.79999999999995</ele><time>2026-04-19T10:55:00.836Z</time></trkpt><trkpt lat="41.9513733" lon="12.9596433"><ele>393.59999999999997</ele><time>2026-04-19T10:55:01.889Z</time></trkpt><trkpt lat="41.9512933" lon="12.9597317"><ele>393.4</ele><time>2026-04-19T10:55:02.833Z</time></trkpt><trkpt lat="41.9512167" lon="12.9598267"><ele>393.2</ele><time>2026-04-19T10:55:03.836Z</time></trkpt><trkpt lat="41.951135" lon="12.9599167"><ele>393.0</ele><time>2026-04-19T10:55:04.83Z</time></trkpt><trkpt lat="41.9510483" lon="12.9600067"><ele>393.0</ele><time>2026-04-19T10:55:05.838Z</time></trkpt><trkpt lat="41.9509567" lon="12.9600917"><ele>393.0</ele><time>2026-04-19T10:55:06.832Z</time></trkpt><trkpt lat="41.9508733" lon="12.960175"><ele>393.0</ele><time>2026-04-19T10:55:07.878Z</time></trkpt><trkpt lat="41.950795" lon="12.9602583"><ele>393.0</ele><time>2026-04-19T10:55:08.831Z</time></trkpt><trkpt lat="41.950715" lon="12.9603383"><ele>393.0</ele><time>2026-04-19T10:55:09.827Z</time></trkpt><trkpt lat="41.9506317" lon="12.9604217"><ele>393.25</ele><time>2026-04-19T10:55:10.838Z</time></trkpt><trkpt lat="41.9504533" lon="12.9605983"><ele>393.5</ele><time>2026-04-19T10:55:12.831Z</time></trkpt><trkpt lat="41.9503683" lon="12.9606967"><ele>393.75</ele><time>2026-04-19T10:55:13.88Z</time></trkpt><trkpt lat="41.9502833" lon="12.960795"><ele>394.0</ele><time>2026-04-19T10:55:14.833Z</time></trkpt><trkpt lat="41.9502067" lon="12.9608883"><ele>393.79999999999995</ele><time>2026-04-19T10:55:15.829Z</time></trkpt><trkpt lat="41.950135" lon="12.9609767"><ele>393.59999999999997</ele><time>2026-04-19T10:55:16.839Z</time></trkpt><trkpt lat="41.9500683" lon="12.961055"><ele>393.4</ele><time>2026-04-19T10:55:17.83Z</time></trkpt><trkpt lat="41.9499917" lon="12.9611183"><ele>393.2</ele><time>2026-04-19T10:55:18.838Z</time></trkpt><trkpt lat="41.949895" lon="12.9611767"><ele>393.0</ele><time>2026-04-19T10:55:19.875Z</time></trkpt><trkpt lat="41.9498067" lon="12.96124"><ele>393.0</ele><time>2026-04-19T10:55:20.827Z</time></trkpt><trkpt lat="41.949715" lon="12.9613033"><ele>393.0</ele><time>2026-04-19T10:55:21.833Z</time></trkpt><trkpt lat="41.9496267" lon="12.9613767"><ele>393.0</ele><time>2026-04-19T10:55:22.824Z</time></trkpt><trkpt lat="41.9495383" lon="12.9614333"><ele>393.0</ele><time>2026-04-19T10:55:23.835Z</time></trkpt><trkpt lat="41.94945" lon="12.9614633"><ele>393.0</ele><time>2026-04-19T10:55:24.833Z</time></trkpt><trkpt lat="41.949365" lon="12.9614767"><ele>393.0</ele><time>2026-04-19T10:55:25.892Z</time></trkpt><trkpt lat="41.9492917" lon="12.96147"><ele>393.0</ele><time>2026-04-19T10:55:26.834Z</time></trkpt><trkpt lat="41.9492283" lon="12.961465"><ele>393.0</ele><time>2026-04-19T10:55:27.834Z</time></trkpt><trkpt lat="41.949165" lon="12.9614967"><ele>393.0</ele><time>2026-04-19T10:55:29.839Z</time></trkpt><trkpt lat="41.949075" lon="12.961595"><ele>393.0</ele><time>2026-04-19T10:55:36.832Z</time></trkpt><trkpt lat="41.9489117" lon="12.96172"><ele>392.6666666666667</ele><time>2026-04-19T10:55:39.837Z</time></trkpt><trkpt lat="41.948835" lon="12.9617833"><ele>392.33333333333337</ele><time>2026-04-19T10:55:40.838Z</time></trkpt><trkpt lat="41.9487533" lon="12.961845"><ele>392.0</ele><time>2026-04-19T10:55:41.834Z</time></trkpt><trkpt lat="41.9486833" lon="12.9619083"><ele>391.6666666666667</ele><time>2026-04-19T10:55:42.829Z</time></trkpt><trkpt lat="41.9486167" lon="12.9619683"><ele>391.33333333333337</ele><time>2026-04-19T10:55:43.875Z</time></trkpt><trkpt lat="41.9485533" lon="12.9620183"><ele>391.0</ele><time>2026-04-19T10:55:44.829Z</time></trkpt><trkpt lat="41.9484767" lon="12.9620567"><ele>391.0</ele><time>2026-04-19T10:55:45.832Z</time></trkpt><trkpt lat="41.948395" lon="12.9620933"><ele>391.0</ele><time>2026-04-19T10:55:46.838Z</time></trkpt><trkpt lat="41.9483283" lon="12.9621233"><ele>391.0</ele><time>2026-04-19T10:55:47.836Z</time></trkpt><trkpt lat="41.9482167" lon="12.9621867"><ele>391.0</ele><time>2026-04-19T10:55:49.881Z</time></trkpt><trkpt lat="41.948125" lon="12.9622383"><ele>391.0</ele><time>2026-04-19T10:55:51.828Z</time></trkpt><trkpt lat="41.9480283" lon="12.9623433"><ele>391.20000000000005</ele><time>2026-04-19T10:55:53.832Z</time></trkpt><trkpt lat="41.9479683" lon="12.962435"><ele>391.40000000000003</ele><time>2026-04-19T10:55:54.841Z</time></trkpt><trkpt lat="41.9479" lon="12.9625133"><ele>391.6</ele><time>2026-04-19T10:55:55.853Z</time></trkpt><trkpt lat="41.947825" lon="12.9625633"><ele>391.8</ele><time>2026-04-19T10:55:56.833Z</time></trkpt><trkpt lat="41.9477317" lon="12.9625817"><ele>392.0</ele><time>2026-04-19T10:55:57.835Z</time></trkpt><trkpt lat="41.9475433" lon="12.9626383"><ele>392.25</ele><time>2026-04-19T10:55:59.835Z</time></trkpt><trkpt lat="41.94744" lon="12.96267"><ele>392.5</ele><time>2026-04-19T10:56:00.832Z</time></trkpt><trkpt lat="41.94733" lon="12.9626817"><ele>392.75</ele><time>2026-04-19T10:56:01.877Z</time></trkpt><trkpt lat="41.9472083" lon="12.9626883"><ele>393.0</ele><time>2026-04-19T10:56:02.833Z</time></trkpt><trkpt lat="41.9470633" lon="12.96269"><ele>393.0</ele><time>2026-04-19T10:56:03.836Z</time></trkpt><trkpt lat="41.9468883" lon="12.96268"><ele>393.0</ele><time>2026-04-19T10:56:04.832Z</time></trkpt><trkpt lat="41.94672" lon="12.9626717"><ele>393.0</ele><time>2026-04-19T10:56:05.827Z</time></trkpt><trkpt lat="41.94657" lon="12.9626717"><ele>392.75</ele><time>2026-04-19T10:56:06.832Z</time></trkpt><trkpt lat="41.9464367" lon="12.962675"><ele>392.5</ele><time>2026-04-19T10:56:07.884Z</time></trkpt><trkpt lat="41.9463067" lon="12.9626817"><ele>392.25</ele><time>2026-04-19T10:56:08.832Z</time></trkpt><trkpt lat="41.94618" lon="12.9626867"><ele>392.0</ele><time>2026-04-19T10:56:09.846Z</time></trkpt><trkpt lat="41.9460617" lon="12.9626833"><ele>392.0</ele><time>2026-04-19T10:56:10.837Z</time></trkpt><trkpt lat="41.9459517" lon="12.96268"><ele>392.0</ele><time>2026-04-19T10:56:11.834Z</time></trkpt><trkpt lat="41.945845" lon="12.9626783"><ele>392.0</ele><time>2026-04-19T10:56:12.83Z</time></trkpt><trkpt lat="41.9457333" lon="12.962675"><ele>392.0</ele><time>2026-04-19T10:56:13.876Z</time></trkpt><trkpt lat="41.94562" lon="12.962665"><ele>392.0</ele><time>2026-04-19T10:56:14.836Z</time></trkpt><trkpt lat="41.9455033" lon="12.9626517"><ele>392.0</ele><time>2026-04-19T10:56:15.828Z</time></trkpt><trkpt lat="41.9453883" lon="12.9626433"><ele>392.0</ele><time>2026-04-19T10:56:16.829Z</time></trkpt><trkpt lat="41.9452717" lon="12.962635"><ele>392.0</ele><time>2026-04-19T10:56:17.831Z</time></trkpt><trkpt lat="41.94516" lon="12.96262"><ele>392.0</ele><time>2026-04-19T10:56:18.842Z</time></trkpt><trkpt lat="41.944945" lon="12.96259"><ele>392.0</ele><time>2026-04-19T10:56:20.834Z</time></trkpt><trkpt lat="41.9448383" lon="12.962575"><ele>392.0</ele><time>2026-04-19T10:56:21.829Z</time></trkpt><trkpt lat="41.9447417" lon="12.9625533"><ele>392.0</ele><time>2026-04-19T10:56:22.84Z</time></trkpt><trkpt lat="41.9446517" lon="12.9625233"><ele>392.0</ele><time>2026-04-19T10:56:23.832Z</time></trkpt><trkpt lat="41.9445667" lon="12.9624917"><ele>392.0</ele><time>2026-04-19T10:56:24.838Z</time></trkpt><trkpt lat="41.9444767" lon="12.9624617"><ele>392.0</ele><time>2026-04-19T10:56:25.899Z</time></trkpt><trkpt lat="41.9443717" lon="12.96244"><ele>392.0</ele><time>2026-04-19T10:56:26.832Z</time></trkpt><trkpt lat="41.9442617" lon="12.9624333"><ele>392.0</ele><time>2026-04-19T10:56:27.827Z</time></trkpt><trkpt lat="41.94414" lon="12.9624483"><ele>392.0</ele><time>2026-04-19T10:56:28.826Z</time></trkpt><trkpt lat="41.944" lon="12.9624833"><ele>392.3333333333333</ele><time>2026-04-19T10:56:29.825Z</time></trkpt><trkpt lat="41.9438383" lon="12.962535"><ele>392.66666666666663</ele><time>2026-04-19T10:56:30.831Z</time></trkpt><trkpt lat="41.9436867" lon="12.9625933"><ele>393.0</ele><time>2026-04-19T10:56:31.881Z</time></trkpt><trkpt lat="41.9435467" lon="12.9626417"><ele>393.0</ele><time>2026-04-19T10:56:32.825Z</time></trkpt><trkpt lat="41.9434167" lon="12.96268"><ele>393.0</ele><time>2026-04-19T10:56:33.834Z</time></trkpt><trkpt lat="41.9432917" lon="12.9627183"><ele>393.0</ele><time>2026-04-19T10:56:34.823Z</time></trkpt><trkpt lat="41.9431683" lon="12.9627567"><ele>393.0</ele><time>2026-04-19T10:56:35.831Z</time></trkpt><trkpt lat="41.9430533" lon="12.9627883"><ele>392.59999999999997</ele><time>2026-04-19T10:56:36.835Z</time></trkpt><trkpt lat="41.9429517" lon="12.9628083"><ele>392.2</ele><time>2026-04-19T10:56:37.871Z</time></trkpt><trkpt lat="41.9428667" lon="12.9628183"><ele>391.8</ele><time>2026-04-19T10:56:38.829Z</time></trkpt><trkpt lat="41.9427967" lon="12.9628183"><ele>391.4</ele><time>2026-04-19T10:56:39.841Z</time></trkpt><trkpt lat="41.9426317" lon="12.9628633"><ele>391.0</ele><time>2026-04-19T10:56:46.832Z</time></trkpt><trkpt lat="41.94262" lon="12.9629583"><ele>391.0</ele><time>2026-04-19T10:56:48.837Z</time></trkpt><trkpt lat="41.9426917" lon="12.9630067"><ele>391.0</ele><time>2026-04-19T10:56:50.833Z</time></trkpt><trkpt lat="41.942825" lon="12.9629833"><ele>391.0</ele><time>2026-04-19T10:56:52.825Z</time></trkpt><trkpt lat="41.9429" lon="12.962965"><ele>391.0</ele><time>2026-04-19T10:56:53.833Z</time></trkpt><trkpt lat="41.9430083" lon="12.9629683"><ele>391.0</ele><time>2026-04-19T10:56:55.89Z</time></trkpt><trkpt lat="41.9430517" lon="12.96305"><ele>391.0</ele><time>2026-04-19T10:57:33.83Z</time></trkpt><trkpt lat="41.9430933" lon="12.9633183"><ele>391.0</ele><time>2026-04-19T10:57:36.826Z</time></trkpt><trkpt lat="41.943105" lon="12.9634267"><ele>391.0</ele><time>2026-04-19T10:57:37.876Z</time></trkpt><trkpt lat="41.9431117" lon="12.96352"><ele>391.0</ele><time>2026-04-19T10:57:38.836Z</time></trkpt><trkpt lat="41.943105" lon="12.9636717"><ele>391.00000000000006</ele><time>2026-04-19T10:57:40.828Z</time></trkpt><trkpt lat="41.9430467" lon="12.963775"><ele>391.0</ele><time>2026-04-19T10:57:42.834Z</time></trkpt><trkpt lat="41.9429883" lon="12.9638067"><ele>391.0</ele><time>2026-04-19T10:57:43.87Z</time></trkpt><trkpt lat="41.94292" lon="12.9638183"><ele>391.0</ele><time>2026-04-19T10:57:44.832Z</time></trkpt><trkpt lat="41.9428483" lon="12.9638167"><ele>391.00000000000006</ele><time>2026-04-19T10:57:45.834Z</time></trkpt><trkpt lat="41.9427817" lon="12.9638033"><ele>391.0</ele><time>2026-04-19T10:57:46.84Z</time></trkpt><trkpt lat="41.942685" lon="12.9637867"><ele>391.0</ele><time>2026-04-19T10:57:48.837Z</time></trkpt><trkpt lat="41.942615" lon="12.9638617"><ele>391.0</ele><time>2026-04-19T10:57:51.833Z</time></trkpt><trkpt lat="41.9426017" lon="12.964015"><ele>391.0</ele><time>2026-04-19T10:57:53.837Z</time></trkpt><trkpt lat="41.9426117" lon="12.9641167"><ele>391.0</ele><time>2026-04-19T10:57:54.834Z</time></trkpt><trkpt lat="41.9426533" lon="12.9643"><ele>391.0</ele><time>2026-04-19T10:57:56.828Z</time></trkpt><trkpt lat="41.9426867" lon="12.964375"><ele>391.20000000000005</ele><time>2026-04-19T10:57:57.836Z</time></trkpt><trkpt lat="41.94276" lon="12.9644917"><ele>391.40000000000003</ele><time>2026-04-19T10:57:59.839Z</time></trkpt><trkpt lat="41.9428217" lon="12.9645983"><ele>391.6</ele><time>2026-04-19T10:58:01.879Z</time></trkpt><trkpt lat="41.9428617" lon="12.964675"><ele>391.8</ele><time>2026-04-19T10:58:02.837Z</time></trkpt><trkpt lat="41.9429083" lon="12.9647717"><ele>392.0</ele><time>2026-04-19T10:58:03.837Z</time></trkpt><trkpt lat="41.942945" lon="12.964885"><ele>392.0</ele><time>2026-04-19T10:58:04.834Z</time></trkpt><trkpt lat="41.9429733" lon="12.96502"><ele>392.0</ele><time>2026-04-19T10:58:05.827Z</time></trkpt><trkpt lat="41.942995" lon="12.96516"><ele>392.0</ele><time>2026-04-19T10:58:06.832Z</time></trkpt><trkpt lat="41.9430083" lon="12.965285"><ele>392.0</ele><time>2026-04-19T10:58:07.878Z</time></trkpt><trkpt lat="41.9430233" lon="12.965395"><ele>392.0</ele><time>2026-04-19T10:58:08.829Z</time></trkpt><trkpt lat="41.9430283" lon="12.9654933"><ele>392.40000000000003</ele><time>2026-04-19T10:58:09.83Z</time></trkpt><trkpt lat="41.9430333" lon="12.965595"><ele>392.8</ele><time>2026-04-19T10:58:10.832Z</time></trkpt><trkpt lat="41.9430283" lon="12.9657083"><ele>393.2</ele><time>2026-04-19T10:58:11.834Z</time></trkpt><trkpt lat="41.94301" lon="12.9658283"><ele>393.6</ele><time>2026-04-19T10:58:12.831Z</time></trkpt><trkpt lat="41.9429833" lon="12.96597"><ele>394.0</ele><time>2026-04-19T10:58:13.876Z</time></trkpt><trkpt lat="41.9429567" lon="12.9661167"><ele>394.0</ele><time>2026-04-19T10:58:14.834Z</time></trkpt><trkpt lat="41.9429267" lon="12.9662617"><ele>394.0</ele><time>2026-04-19T10:58:15.838Z</time></trkpt><trkpt lat="41.942865" lon="12.9665417"><ele>394.0</ele><time>2026-04-19T10:58:17.833Z</time></trkpt><trkpt lat="41.9428317" lon="12.9666733"><ele>394.0</ele><time>2026-04-19T10:58:18.835Z</time></trkpt><trkpt lat="41.942795" lon="12.9668"><ele>393.79999999999995</ele><time>2026-04-19T10:58:19.876Z</time></trkpt><trkpt lat="41.942745" lon="12.9669117"><ele>393.59999999999997</ele><time>2026-04-19T10:58:20.832Z</time></trkpt><trkpt lat="41.9426833" lon="12.9670017"><ele>393.4</ele><time>2026-04-19T10:58:21.836Z</time></trkpt><trkpt lat="41.9426067" lon="12.9670583"><ele>393.2</ele><time>2026-04-19T10:58:22.841Z</time></trkpt><trkpt lat="41.9425017" lon="12.9671117"><ele>393.0</ele><time>2026-04-19T10:58:23.834Z</time></trkpt><trkpt lat="41.9423883" lon="12.9671533"><ele>393.0</ele><time>2026-04-19T10:58:24.842Z</time></trkpt><trkpt lat="41.9422883" lon="12.9672083"><ele>393.0</ele><time>2026-04-19T10:58:25.86Z</time></trkpt><trkpt lat="41.9421817" lon="12.9672567"><ele>393.0</ele><time>2026-04-19T10:58:26.832Z</time></trkpt><trkpt lat="41.9420667" lon="12.9672933"><ele>393.0</ele><time>2026-04-19T10:58:27.834Z</time></trkpt><trkpt lat="41.9419567" lon="12.9673417"><ele>393.0</ele><time>2026-04-19T10:58:28.829Z</time></trkpt><trkpt lat="41.94186" lon="12.9673983"><ele>393.0</ele><time>2026-04-19T10:58:29.828Z</time></trkpt><trkpt lat="41.9417683" lon="12.9674617"><ele>393.0</ele><time>2026-04-19T10:58:30.832Z</time></trkpt><trkpt lat="41.9416783" lon="12.967525"><ele>393.0</ele><time>2026-04-19T10:58:31.879Z</time></trkpt><trkpt lat="41.941595" lon="12.9675883"><ele>393.0</ele><time>2026-04-19T10:58:32.832Z</time></trkpt><trkpt lat="41.9415133" lon="12.9676433"><ele>393.0</ele><time>2026-04-19T10:58:33.841Z</time></trkpt><trkpt lat="41.9414283" lon="12.967705"><ele>393.0</ele><time>2026-04-19T10:58:34.834Z</time></trkpt><trkpt lat="41.9413417" lon="12.9677783"><ele>393.0</ele><time>2026-04-19T10:58:35.831Z</time></trkpt><trkpt lat="41.9412483" lon="12.9678567"><ele>393.0</ele><time>2026-04-19T10:58:36.829Z</time></trkpt><trkpt lat="41.9410533" lon="12.9680417"><ele>393.0</ele><time>2026-04-19T10:58:38.835Z</time></trkpt><trkpt lat="41.9409483" lon="12.9681467"><ele>393.0</ele><time>2026-04-19T10:58:39.836Z</time></trkpt><trkpt lat="41.9408417" lon="12.96826"><ele>393.0</ele><time>2026-04-19T10:58:40.832Z</time></trkpt><trkpt lat="41.940735" lon="12.968375"><ele>393.0</ele><time>2026-04-19T10:58:41.834Z</time></trkpt><trkpt lat="41.94062" lon="12.9684967"><ele>393.25</ele><time>2026-04-19T10:58:42.835Z</time></trkpt><trkpt lat="41.94051" lon="12.9686233"><ele>393.5</ele><time>2026-04-19T10:58:43.871Z</time></trkpt><trkpt lat="41.940395" lon="12.9687467"><ele>393.75</ele><time>2026-04-19T10:58:44.829Z</time></trkpt><trkpt lat="41.9402817" lon="12.9688533"><ele>394.0</ele><time>2026-04-19T10:58:45.847Z</time></trkpt><trkpt lat="41.9401767" lon="12.96894"><ele>394.00000000000006</ele><time>2026-04-19T10:58:46.833Z</time></trkpt><trkpt lat="41.9400867" lon="12.9690117"><ele>394.0</ele><time>2026-04-19T10:58:47.836Z</time></trkpt><trkpt lat="41.94001" lon="12.9690633"><ele>394.0</ele><time>2026-04-19T10:58:48.835Z</time></trkpt><trkpt lat="41.9399483" lon="12.96909"><ele>394.0</ele><time>2026-04-19T10:58:49.875Z</time></trkpt><trkpt lat="41.9399" lon="12.9691717"><ele>394.00000000000006</ele><time>2026-04-19T10:58:56.827Z</time></trkpt><trkpt lat="41.9399267" lon="12.9693167"><ele>394.0</ele><time>2026-04-19T10:58:58.829Z</time></trkpt><trkpt lat="41.9399867" lon="12.969605"><ele>394.0</ele><time>2026-04-19T10:59:00.837Z</time></trkpt><trkpt lat="41.9400217" lon="12.969775"><ele>394.0</ele><time>2026-04-19T10:59:01.88Z</time></trkpt><trkpt lat="41.94006" lon="12.9699633"><ele>394.0</ele><time>2026-04-19T10:59:02.833Z</time></trkpt><trkpt lat="41.9400967" lon="12.97015"><ele>394.0</ele><time>2026-04-19T10:59:03.832Z</time></trkpt><trkpt lat="41.9401317" lon="12.9703333"><ele>394.5</ele><time>2026-04-19T10:59:04.83Z</time></trkpt><trkpt lat="41.9401633" lon="12.970505"><ele>395.0</ele><time>2026-04-19T10:59:05.83Z</time></trkpt><trkpt lat="41.9401917" lon="12.9706667"><ele>395.5</ele><time>2026-04-19T10:59:06.834Z</time></trkpt><trkpt lat="41.9402167" lon="12.970825"><ele>396.0</ele><time>2026-04-19T10:59:07.876Z</time></trkpt><trkpt lat="41.9402367" lon="12.970985"><ele>396.0</ele><time>2026-04-19T10:59:08.83Z</time></trkpt><trkpt lat="41.9402517" lon="12.9711417"><ele>396.0</ele><time>2026-04-19T10:59:09.834Z</time></trkpt><trkpt lat="41.9402617" lon="12.97129"><ele>396.0</ele><time>2026-04-19T10:59:10.832Z</time></trkpt><trkpt lat="41.9402667" lon="12.9714233"><ele>396.0</ele><time>2026-04-19T10:59:11.83Z</time></trkpt><trkpt lat="41.9402683" lon="12.971535"><ele>396.0</ele><time>2026-04-19T10:59:12.825Z</time></trkpt><trkpt lat="41.9402717" lon="12.9716333"><ele>396.0</ele><time>2026-04-19T10:59:13.869Z</time></trkpt><trkpt lat="41.9402917" lon="12.9717683"><ele>396.0</ele><time>2026-04-19T10:59:15.834Z</time></trkpt><trkpt lat="41.9403733" lon="12.9717667"><ele>396.0</ele><time>2026-04-19T10:59:18.844Z</time></trkpt><trkpt lat="41.9404633" lon="12.971625"><ele>396.0</ele><time>2026-04-19T10:59:20.834Z</time></trkpt><trkpt lat="41.940625" lon="12.9713833"><ele>396.0</ele><time>2026-04-19T10:59:22.834Z</time></trkpt><trkpt lat="41.94072" lon="12.9712733"><ele>396.0</ele><time>2026-04-19T10:59:23.833Z</time></trkpt><trkpt lat="41.940805" lon="12.97119"><ele>396.0</ele><time>2026-04-19T10:59:24.833Z</time></trkpt><trkpt lat="41.9408783" lon="12.9711233"><ele>396.0</ele><time>2026-04-19T10:59:25.895Z</time></trkpt><trkpt lat="41.9409467" lon="12.9710733"><ele>396.0</ele><time>2026-04-19T10:59:26.833Z</time></trkpt><trkpt lat="41.94101" lon="12.9710367"><ele>395.6</ele><time>2026-04-19T10:59:27.841Z</time></trkpt><trkpt lat="41.9411133" lon="12.9710483"><ele>395.20000000000005</ele><time>2026-04-19T10:59:29.835Z</time></trkpt><trkpt lat="41.9411733" lon="12.971185"><ele>394.79999999999995</ele><time>2026-04-19T10:59:31.876Z</time></trkpt><trkpt lat="41.9412133" lon="12.9712567"><ele>394.4</ele><time>2026-04-19T10:59:32.839Z</time></trkpt><trkpt lat="41.94127" lon="12.9713417"><ele>394.0</ele><time>2026-04-19T10:59:33.836Z</time></trkpt><trkpt lat="41.9413333" lon="12.9714383"><ele>394.0</ele><time>2026-04-19T10:59:34.831Z</time></trkpt><trkpt lat="41.9414083" lon="12.9715383"><ele>394.0</ele><time>2026-04-19T10:59:35.832Z</time></trkpt><trkpt lat="41.9414883" lon="12.97164"><ele>394.0</ele><time>2026-04-19T10:59:36.838Z</time></trkpt><trkpt lat="41.941565" lon="12.9717333"><ele>394.0</ele><time>2026-04-19T10:59:37.877Z</time></trkpt><trkpt lat="41.9416433" lon="12.9718217"><ele>394.0</ele><time>2026-04-19T10:59:38.838Z</time></trkpt><trkpt lat="41.9417267" lon="12.9719133"><ele>394.75</ele><time>2026-04-19T10:59:39.834Z</time></trkpt><trkpt lat="41.9418083" lon="12.9719967"><ele>395.5</ele><time>2026-04-19T10:59:40.834Z</time></trkpt><trkpt lat="41.9418883" lon="12.9720683"><ele>396.25</ele><time>2026-04-19T10:59:41.834Z</time></trkpt><trkpt lat="41.942055" lon="12.9722133"><ele>397.0</ele><time>2026-04-19T10:59:43.876Z</time></trkpt><trkpt lat="41.94214" lon="12.9722883"><ele>397.0</ele><time>2026-04-19T10:59:44.833Z</time></trkpt><trkpt lat="41.942235" lon="12.972365"><ele>397.0</ele><time>2026-04-19T10:59:45.836Z</time></trkpt><trkpt lat="41.94234" lon="12.97244"><ele>397.0</ele><time>2026-04-19T10:59:46.83Z</time></trkpt><trkpt lat="41.9424533" lon="12.9725283"><ele>397.0</ele><time>2026-04-19T10:59:47.831Z</time></trkpt><trkpt lat="41.942575" lon="12.9726167"><ele>398.0</ele><time>2026-04-19T10:59:48.834Z</time></trkpt><trkpt lat="41.9427017" lon="12.972715"><ele>399.0</ele><time>2026-04-19T10:59:49.871Z</time></trkpt><trkpt lat="41.94283" lon="12.97282"><ele>400.0</ele><time>2026-04-19T10:59:50.826Z</time></trkpt><trkpt lat="41.9429517" lon="12.972925"><ele>401.0</ele><time>2026-04-19T10:59:51.836Z</time></trkpt><trkpt lat="41.9430567" lon="12.9730333"><ele>401.0</ele><time>2026-04-19T10:59:52.831Z</time></trkpt><trkpt lat="41.94315" lon="12.9731517"><ele>401.0</ele><time>2026-04-19T10:59:53.83Z</time></trkpt><trkpt lat="41.943235" lon="12.9732833"><ele>401.0</ele><time>2026-04-19T10:59:54.832Z</time></trkpt><trkpt lat="41.9433183" lon="12.9734217"><ele>401.0</ele><time>2026-04-19T10:59:55.902Z</time></trkpt><trkpt lat="41.9433867" lon="12.973565"><ele>402.0</ele><time>2026-04-19T10:59:56.828Z</time></trkpt><trkpt lat="41.9434383" lon="12.9736967"><ele>403.0</ele><time>2026-04-19T10:59:57.837Z</time></trkpt><trkpt lat="41.9434767" lon="12.9738033"><ele>404.0</ele><time>2026-04-19T10:59:58.83Z</time></trkpt><trkpt lat="41.94351" lon="12.9738933"><ele>405.0</ele><time>2026-04-19T10:59:59.828Z</time></trkpt><trkpt lat="41.943545" lon="12.9740167"><ele>406.0</ele><time>2026-04-19T11:00:01.892Z</time></trkpt><trkpt lat="41.9436183" lon="12.9741633"><ele>407.6666666666667</ele><time>2026-04-19T11:00:03.832Z</time></trkpt><trkpt lat="41.9437817" lon="12.9743683"><ele>409.33333333333337</ele><time>2026-04-19T11:00:05.831Z</time></trkpt><trkpt lat="41.94388" lon="12.974485"><ele>411.0</ele><time>2026-04-19T11:00:06.837Z</time></trkpt><trkpt lat="41.943975" lon="12.9745967"><ele>411.0</ele><time>2026-04-19T11:00:07.874Z</time></trkpt><trkpt lat="41.9440633" lon="12.974695"><ele>411.0</ele><time>2026-04-19T11:00:08.826Z</time></trkpt><trkpt lat="41.9441417" lon="12.9747983"><ele>411.0</ele><time>2026-04-19T11:00:09.832Z</time></trkpt><trkpt lat="41.94421" lon="12.9748983"><ele>411.0</ele><time>2026-04-19T11:00:10.834Z</time></trkpt><trkpt lat="41.9442817" lon="12.9749967"><ele>411.0</ele><time>2026-04-19T11:00:11.832Z</time></trkpt><trkpt lat="41.9443533" lon="12.975095"><ele>415.3333333333333</ele><time>2026-04-19T11:00:12.838Z</time></trkpt><trkpt lat="41.9444183" lon="12.9751933"><ele>419.66666666666663</ele><time>2026-04-19T11:00:13.888Z</time></trkpt><trkpt lat="41.9444783" lon="12.97529"><ele>424.0</ele><time>2026-04-19T11:00:14.832Z</time></trkpt><trkpt lat="41.944535" lon="12.9753667"><ele>428.3333333333333</ele><time>2026-04-19T11:00:15.823Z</time></trkpt><trkpt lat="41.9445983" lon="12.9754217"><ele>432.66666666666663</ele><time>2026-04-19T11:00:16.83Z</time></trkpt><trkpt lat="41.9446733" lon="12.9754633"><ele>437.0</ele><time>2026-04-19T11:00:17.833Z</time></trkpt><trkpt lat="41.9447517" lon="12.9754833"><ele>436.99999999999994</ele><time>2026-04-19T11:00:18.833Z</time></trkpt><trkpt lat="41.9448267" lon="12.97551"><ele>437.0</ele><time>2026-04-19T11:00:19.871Z</time></trkpt><trkpt lat="41.9448967" lon="12.9755333"><ele>437.0</ele><time>2026-04-19T11:00:20.832Z</time></trkpt><trkpt lat="41.94497" lon="12.97556"><ele>437.0</ele><time>2026-04-19T11:00:21.836Z</time></trkpt><trkpt lat="41.9450417" lon="12.9755883"><ele>436.99999999999994</ele><time>2026-04-19T11:00:22.83Z</time></trkpt><trkpt lat="41.9451483" lon="12.9755967"><ele>437.0</ele><time>2026-04-19T11:00:24.83Z</time></trkpt><trkpt lat="41.9452983" lon="12.9756333"><ele>447.0</ele><time>2026-04-19T11:00:32.829Z</time></trkpt><trkpt lat="41.9453367" lon="12.97578"><ele>457.00000000000006</ele><time>2026-04-19T11:00:34.831Z</time></trkpt><trkpt lat="41.9453533" lon="12.975865"><ele>467.00000000000006</ele><time>2026-04-19T11:00:35.83Z</time></trkpt><trkpt lat="41.94537" lon="12.9759617"><ele>477.0</ele><time>2026-04-19T11:00:36.835Z</time></trkpt><trkpt lat="41.9454067" lon="12.976115"><ele>487.0</ele><time>2026-04-19T11:00:38.832Z</time></trkpt><trkpt lat="41.945445" lon="12.9762583"><ele>487.0</ele><time>2026-04-19T11:00:40.822Z</time></trkpt><trkpt lat="41.9454983" lon="12.9763817"><ele>487.00000000000006</ele><time>2026-04-19T11:00:42.828Z</time></trkpt><trkpt lat="41.9455167" lon="12.9764633"><ele>487.00000000000006</ele><time>2026-04-19T11:00:43.869Z</time></trkpt><trkpt lat="41.9455333" lon="12.976555"><ele>487.0</ele><time>2026-04-19T11:00:44.832Z</time></trkpt><trkpt lat="41.945545" lon="12.9766483"><ele>487.0</ele><time>2026-04-19T11:00:45.835Z</time></trkpt><trkpt lat="41.9455583" lon="12.97686"><ele>486.50000000000006</ele><time>2026-04-19T11:00:47.83Z</time></trkpt><trkpt lat="41.9455683" lon="12.9769733"><ele>486.0</ele><time>2026-04-19T11:00:48.832Z</time></trkpt><trkpt lat="41.9455783" lon="12.9770833"><ele>485.5</ele><time>2026-04-19T11:00:49.878Z</time></trkpt><trkpt lat="41.94559" lon="12.9772017"><ele>485.0</ele><time>2026-04-19T11:00:50.828Z</time></trkpt><trkpt lat="41.9456033" lon="12.9773117"><ele>484.50000000000006</ele><time>2026-04-19T11:00:51.834Z</time></trkpt><trkpt lat="41.9456183" lon="12.9774167"><ele>484.0</ele><time>2026-04-19T11:00:52.828Z</time></trkpt><trkpt lat="41.9456367" lon="12.9775167"><ele>484.83333333333337</ele><time>2026-04-19T11:00:53.842Z</time></trkpt><trkpt lat="41.9456583" lon="12.9776133"><ele>485.6666666666667</ele><time>2026-04-19T11:00:54.829Z</time></trkpt><trkpt lat="41.9456817" lon="12.9777183"><ele>486.5</ele><time>2026-04-19T11:00:55.895Z</time></trkpt><trkpt lat="41.945705" lon="12.9778233"><ele>487.33333333333337</ele><time>2026-04-19T11:00:56.825Z</time></trkpt><trkpt lat="41.94573" lon="12.9779267"><ele>488.1666666666667</ele><time>2026-04-19T11:00:57.833Z</time></trkpt><trkpt lat="41.9457533" lon="12.9780383"><ele>489.0</ele><time>2026-04-19T11:00:58.834Z</time></trkpt><trkpt lat="41.94577" lon="12.9781467"><ele>489.0</ele><time>2026-04-19T11:00:59.825Z</time></trkpt><trkpt lat="41.9457767" lon="12.978255"><ele>489.0</ele><time>2026-04-19T11:01:00.837Z</time></trkpt><trkpt lat="41.945775" lon="12.9783467"><ele>489.0</ele><time>2026-04-19T11:01:01.874Z</time></trkpt><trkpt lat="41.9457617" lon="12.9785233"><ele>489.0</ele><time>2026-04-19T11:01:03.838Z</time></trkpt><trkpt lat="41.9457567" lon="12.97862"><ele>489.0</ele><time>2026-04-19T11:01:04.826Z</time></trkpt><trkpt lat="41.9457567" lon="12.9787233"><ele>489.0</ele><time>2026-04-19T11:01:05.834Z</time></trkpt><trkpt lat="41.9457533" lon="12.9788317"><ele>492.0</ele><time>2026-04-19T11:01:06.829Z</time></trkpt><trkpt lat="41.94573" lon="12.9790433"><ele>495.0</ele><time>2026-04-19T11:01:08.824Z</time></trkpt><trkpt lat="41.9457217" lon="12.979205"><ele>498.0</ele><time>2026-04-19T11:01:10.834Z</time></trkpt><trkpt lat="41.9457217" lon="12.9793583"><ele>501.0</ele><time>2026-04-19T11:01:12.835Z</time></trkpt><trkpt lat="41.9457183" lon="12.9795067"><ele>502.6</ele><time>2026-04-19T11:01:14.833Z</time></trkpt><trkpt lat="41.9457233" lon="12.9795917"><ele>504.20000000000005</ele><time>2026-04-19T11:01:15.828Z</time></trkpt><trkpt lat="41.945715" lon="12.979765"><ele>505.79999999999995</ele><time>2026-04-19T11:01:17.835Z</time></trkpt><trkpt lat="41.9457083" lon="12.9798717"><ele>507.4</ele><time>2026-04-19T11:01:18.835Z</time></trkpt><trkpt lat="41.9457" lon="12.98001"><ele>509.0</ele><time>2026-04-19T11:01:19.871Z</time></trkpt><trkpt lat="41.9456833" lon="12.9801833"><ele>510.66666666666663</ele><time>2026-04-19T11:01:20.838Z</time></trkpt><trkpt lat="41.94566" lon="12.9803733"><ele>512.3333333333334</ele><time>2026-04-19T11:01:21.836Z</time></trkpt><trkpt lat="41.9456233" lon="12.9805667"><ele>514.0</ele><time>2026-04-19T11:01:22.843Z</time></trkpt><trkpt lat="41.9455733" lon="12.9807683"><ele>517.25</ele><time>2026-04-19T11:01:23.838Z</time></trkpt><trkpt lat="41.9455217" lon="12.9809617"><ele>520.5</ele><time>2026-04-19T11:01:24.834Z</time></trkpt><trkpt lat="41.94548" lon="12.981135"><ele>523.75</ele><time>2026-04-19T11:01:25.898Z</time></trkpt><trkpt lat="41.9454567" lon="12.9812733"><ele>527.0</ele><time>2026-04-19T11:01:26.826Z</time></trkpt><trkpt lat="41.945465" lon="12.9814033"><ele>527.0</ele><time>2026-04-19T11:01:27.838Z</time></trkpt><trkpt lat="41.9454867" lon="12.9816417"><ele>527.0</ele><time>2026-04-19T11:01:29.831Z</time></trkpt><trkpt lat="41.9454967" lon="12.981735"><ele>527.0</ele><time>2026-04-19T11:01:30.832Z</time></trkpt><trkpt lat="41.945485" lon="12.9818567"><ele>527.0</ele><time>2026-04-19T11:01:32.834Z</time></trkpt><trkpt lat="41.9454133" lon="12.9819183"><ele>527.0</ele><time>2026-04-19T11:01:35.835Z</time></trkpt><trkpt lat="41.9453483" lon="12.98191"><ele>527.0</ele><time>2026-04-19T11:01:37.874Z</time></trkpt><trkpt lat="41.9452917" lon="12.981865"><ele>527.0</ele><time>2026-04-19T11:01:46.832Z</time></trkpt><trkpt lat="41.945245" lon="12.98175"><ele>527.0</ele><time>2026-04-19T11:01:47.841Z</time></trkpt><trkpt lat="41.9452" lon="12.9816367"><ele>527.0</ele><time>2026-04-19T11:01:49.875Z</time></trkpt><trkpt lat="41.9450717" lon="12.9813533"><ele>527.25</ele><time>2026-04-19T11:01:52.836Z</time></trkpt><trkpt lat="41.9450067" lon="12.9812333"><ele>527.5</ele><time>2026-04-19T11:01:53.831Z</time></trkpt><trkpt lat="41.9449233" lon="12.9811333"><ele>527.75</ele><time>2026-04-19T11:01:54.829Z</time></trkpt><trkpt lat="41.9448167" lon="12.9810267"><ele>528.0</ele><time>2026-04-19T11:01:55.9Z</time></trkpt><trkpt lat="41.944705" lon="12.9809267"><ele>528.0</ele><time>2026-04-19T11:01:56.828Z</time></trkpt><trkpt lat="41.944605" lon="12.9808567"><ele>528.0</ele><time>2026-04-19T11:01:57.836Z</time></trkpt><trkpt lat="41.9445033" lon="12.9807867"><ele>528.0</ele><time>2026-04-19T11:01:58.835Z</time></trkpt><trkpt lat="41.944405" lon="12.9807167"><ele>528.0</ele><time>2026-04-19T11:01:59.833Z</time></trkpt><trkpt lat="41.9443133" lon="12.9806583"><ele>528.0</ele><time>2026-04-19T11:02:00.837Z</time></trkpt><trkpt lat="41.944225" lon="12.9806267"><ele>525.4</ele><time>2026-04-19T11:02:01.901Z</time></trkpt><trkpt lat="41.9441417" lon="12.98064"><ele>522.8</ele><time>2026-04-19T11:02:02.83Z</time></trkpt><trkpt lat="41.9440467" lon="12.980665"><ele>520.2</ele><time>2026-04-19T11:02:03.841Z</time></trkpt><trkpt lat="41.9439467" lon="12.98072"><ele>517.6</ele><time>2026-04-19T11:02:04.821Z</time></trkpt><trkpt lat="41.94384" lon="12.9807667"><ele>515.0</ele><time>2026-04-19T11:02:05.828Z</time></trkpt><trkpt lat="41.9437367" lon="12.9808133"><ele>514.6</ele><time>2026-04-19T11:02:06.828Z</time></trkpt><trkpt lat="41.9436367" lon="12.9808533"><ele>514.2</ele><time>2026-04-19T11:02:07.867Z</time></trkpt><trkpt lat="41.943535" lon="12.9808717"><ele>513.8</ele><time>2026-04-19T11:02:08.834Z</time></trkpt><trkpt lat="41.94344" lon="12.9808783"><ele>513.4</ele><time>2026-04-19T11:02:09.832Z</time></trkpt><trkpt lat="41.9433517" lon="12.9808717"><ele>513.0</ele><time>2026-04-19T11:02:10.829Z</time></trkpt><trkpt lat="41.9431917" lon="12.9808217"><ele>511.8333333333333</ele><time>2026-04-19T11:02:12.834Z</time></trkpt><trkpt lat="41.9431233" lon="12.9807933"><ele>510.66666666666663</ele><time>2026-04-19T11:02:13.87Z</time></trkpt><trkpt lat="41.943065" lon="12.9807517"><ele>509.5</ele><time>2026-04-19T11:02:14.835Z</time></trkpt><trkpt lat="41.943015" lon="12.9806867"><ele>508.3333333333333</ele><time>2026-04-19T11:02:15.835Z</time></trkpt><trkpt lat="41.9429717" lon="12.9806017"><ele>507.16666666666663</ele><time>2026-04-19T11:02:16.83Z</time></trkpt><trkpt lat="41.9429317" lon="12.9805"><ele>506.0</ele><time>2026-04-19T11:02:17.829Z</time></trkpt><trkpt lat="41.942895" lon="12.9803933"><ele>505.99999999999994</ele><time>2026-04-19T11:02:18.837Z</time></trkpt><trkpt lat="41.9428667" lon="12.9803"><ele>506.0</ele><time>2026-04-19T11:02:19.869Z</time></trkpt><trkpt lat="41.9428467" lon="12.9802033"><ele>506.0</ele><time>2026-04-19T11:02:20.83Z</time></trkpt><trkpt lat="41.94283" lon="12.980105"><ele>506.0</ele><time>2026-04-19T11:02:21.841Z</time></trkpt><trkpt lat="41.9427917" lon="12.9800067"><ele>505.99999999999994</ele><time>2026-04-19T11:02:22.833Z</time></trkpt><trkpt lat="41.9427383" lon="12.9799283"><ele>506.0</ele><time>2026-04-19T11:02:23.826Z</time></trkpt><trkpt lat="41.942675" lon="12.9798783"><ele>505.0</ele><time>2026-04-19T11:02:24.831Z</time></trkpt><trkpt lat="41.942585" lon="12.9798617"><ele>504.0</ele><time>2026-04-19T11:02:25.898Z</time></trkpt><trkpt lat="41.9424817" lon="12.9798783"><ele>503.0</ele><time>2026-04-19T11:02:26.829Z</time></trkpt><trkpt lat="41.942385" lon="12.97994"><ele>502.0</ele><time>2026-04-19T11:02:27.831Z</time></trkpt><trkpt lat="41.9422967" lon="12.98002"><ele>501.0</ele><time>2026-04-19T11:02:28.835Z</time></trkpt><trkpt lat="41.9422183" lon="12.98013"><ele>501.0</ele><time>2026-04-19T11:02:29.83Z</time></trkpt><trkpt lat="41.942135" lon="12.9802533"><ele>501.0</ele><time>2026-04-19T11:02:30.829Z</time></trkpt><trkpt lat="41.94204" lon="12.980375"><ele>501.0</ele><time>2026-04-19T11:02:31.881Z</time></trkpt><trkpt lat="41.9418183" lon="12.9805833"><ele>498.75</ele><time>2026-04-19T11:02:33.834Z</time></trkpt><trkpt lat="41.9416883" lon="12.9806717"><ele>496.5</ele><time>2026-04-19T11:02:34.836Z</time></trkpt><trkpt lat="41.941565" lon="12.980765"><ele>494.25</ele><time>2026-04-19T11:02:35.833Z</time></trkpt><trkpt lat="41.9414583" lon="12.9808783"><ele>492.0</ele><time>2026-04-19T11:02:36.839Z</time></trkpt><trkpt lat="41.9413733" lon="12.9810133"><ele>492.0</ele><time>2026-04-19T11:02:37.873Z</time></trkpt><trkpt lat="41.9412933" lon="12.9811767"><ele>492.0</ele><time>2026-04-19T11:02:38.83Z</time></trkpt><trkpt lat="41.9412133" lon="12.9813367"><ele>492.0</ele><time>2026-04-19T11:02:39.835Z</time></trkpt><trkpt lat="41.9411317" lon="12.9814833"><ele>492.0</ele><time>2026-04-19T11:02:40.832Z</time></trkpt><trkpt lat="41.9410433" lon="12.9816117"><ele>490.75</ele><time>2026-04-19T11:02:41.833Z</time></trkpt><trkpt lat="41.94094" lon="12.98173"><ele>489.5</ele><time>2026-04-19T11:02:42.831Z</time></trkpt><trkpt lat="41.9408367" lon="12.9818417"><ele>488.25</ele><time>2026-04-19T11:02:43.885Z</time></trkpt><trkpt lat="41.9407533" lon="12.9819583"><ele>487.0</ele><time>2026-04-19T11:02:44.832Z</time></trkpt><trkpt lat="41.9406933" lon="12.98208"><ele>484.6</ele><time>2026-04-19T11:02:45.833Z</time></trkpt><trkpt lat="41.94066" lon="12.98222"><ele>482.20000000000005</ele><time>2026-04-19T11:02:46.832Z</time></trkpt><trkpt lat="41.9406483" lon="12.98237"><ele>479.8</ele><time>2026-04-19T11:02:47.834Z</time></trkpt><trkpt lat="41.9406467" lon="12.9825183"><ele>477.4</ele><time>2026-04-19T11:02:48.838Z</time></trkpt><trkpt lat="41.9406417" lon="12.982645"><ele>475.0</ele><time>2026-04-19T11:02:49.874Z</time></trkpt><trkpt lat="41.940635" lon="12.9827533"><ele>475.4</ele><time>2026-04-19T11:02:50.83Z</time></trkpt><trkpt lat="41.9405933" lon="12.9828617"><ele>475.8</ele><time>2026-04-19T11:02:52.832Z</time></trkpt><trkpt lat="41.9407083" lon="12.98298"><ele>476.20000000000005</ele><time>2026-04-19T11:03:03.835Z</time></trkpt><trkpt lat="41.9407933" lon="12.9830383"><ele>476.6</ele><time>2026-04-19T11:03:05.834Z</time></trkpt><trkpt lat="41.9408783" lon="12.9830983"><ele>477.0</ele><time>2026-04-19T11:03:11.826Z</time></trkpt><trkpt lat="41.9409867" lon="12.98312"><ele>477.0</ele><time>2026-04-19T11:03:13.87Z</time></trkpt><trkpt lat="41.9411817" lon="12.98309"><ele>477.0</ele><time>2026-04-19T11:03:15.832Z</time></trkpt><trkpt lat="41.9412883" lon="12.983075"><ele>477.0</ele><time>2026-04-19T11:03:16.833Z</time></trkpt><trkpt lat="41.9413883" lon="12.9830767"><ele>477.0</ele><time>2026-04-19T11:03:17.831Z</time></trkpt><trkpt lat="41.9414917" lon="12.9830983"><ele>477.0</ele><time>2026-04-19T11:03:18.828Z</time></trkpt><trkpt lat="41.9415883" lon="12.98315"><ele>477.0</ele><time>2026-04-19T11:03:19.874Z</time></trkpt><trkpt lat="41.9416783" lon="12.9832283"><ele>477.0</ele><time>2026-04-19T11:03:20.826Z</time></trkpt><trkpt lat="41.9417633" lon="12.9833483"><ele>477.0</ele><time>2026-04-19T11:03:21.832Z</time></trkpt><trkpt lat="41.9418533" lon="12.9834583"><ele>473.6</ele><time>2026-04-19T11:03:22.834Z</time></trkpt><trkpt lat="41.9419433" lon="12.9835467"><ele>470.20000000000005</ele><time>2026-04-19T11:03:23.825Z</time></trkpt><trkpt lat="41.9420367" lon="12.98362"><ele>466.8</ele><time>2026-04-19T11:03:24.833Z</time></trkpt><trkpt lat="41.9421433" lon="12.98366"><ele>463.4</ele><time>2026-04-19T11:03:25.877Z</time></trkpt><trkpt lat="41.9422467" lon="12.9836517"><ele>460.0</ele><time>2026-04-19T11:03:26.829Z</time></trkpt><trkpt lat="41.9423417" lon="12.98361"><ele>460.0</ele><time>2026-04-19T11:03:27.83Z</time></trkpt><trkpt lat="41.94243" lon="12.98354"><ele>460.0</ele><time>2026-04-19T11:03:28.835Z</time></trkpt><trkpt lat="41.9425083" lon="12.9834383"><ele>460.0</ele><time>2026-04-19T11:03:29.834Z</time></trkpt><trkpt lat="41.9425783" lon="12.98331"><ele>460.0</ele><time>2026-04-19T11:03:30.831Z</time></trkpt><trkpt lat="41.94265" lon="12.98319"><ele>460.0</ele><time>2026-04-19T11:03:31.875Z</time></trkpt><trkpt lat="41.9427333" lon="12.9830833"><ele>470.5</ele><time>2026-04-19T11:03:32.83Z</time></trkpt><trkpt lat="41.9428233" lon="12.9830183"><ele>481.0</ele><time>2026-04-19T11:03:33.832Z</time></trkpt><trkpt lat="41.9429217" lon="12.9829917"><ele>491.5</ele><time>2026-04-19T11:03:34.831Z</time></trkpt><trkpt lat="41.94312" lon="12.9830883"><ele>502.0</ele><time>2026-04-19T11:03:36.83Z</time></trkpt><trkpt lat="41.9432317" lon="12.9832117"><ele>502.0</ele><time>2026-04-19T11:03:37.869Z</time></trkpt><trkpt lat="41.9433433" lon="12.9833417"><ele>502.0</ele><time>2026-04-19T11:03:38.828Z</time></trkpt><trkpt lat="41.9434533" lon="12.9834633"><ele>502.0</ele><time>2026-04-19T11:03:39.825Z</time></trkpt><trkpt lat="41.9435533" lon="12.983595"><ele>502.0</ele><time>2026-04-19T11:03:40.832Z</time></trkpt><trkpt lat="41.9436433" lon="12.9837283"><ele>502.0</ele><time>2026-04-19T11:03:41.831Z</time></trkpt><trkpt lat="41.943735" lon="12.983845"><ele>502.0</ele><time>2026-04-19T11:03:42.835Z</time></trkpt><trkpt lat="41.94384" lon="12.9839367"><ele>502.0</ele><time>2026-04-19T11:03:43.866Z</time></trkpt><trkpt lat="41.94395" lon="12.9839967"><ele>502.0</ele><time>2026-04-19T11:03:44.827Z</time></trkpt><trkpt lat="41.944075" lon="12.984025"><ele>505.25</ele><time>2026-04-19T11:03:45.838Z</time></trkpt><trkpt lat="41.9442133" lon="12.984035"><ele>508.5</ele><time>2026-04-19T11:03:46.826Z</time></trkpt><trkpt lat="41.944355" lon="12.9840517"><ele>511.75</ele><time>2026-04-19T11:03:47.829Z</time></trkpt><trkpt lat="41.94449" lon="12.98408"><ele>515.0</ele><time>2026-04-19T11:03:48.832Z</time></trkpt><trkpt lat="41.94461" lon="12.98413"><ele>508.8</ele><time>2026-04-19T11:03:49.876Z</time></trkpt><trkpt lat="41.9447133" lon="12.984195"><ele>502.6</ele><time>2026-04-19T11:03:50.834Z</time></trkpt><trkpt lat="41.9448083" lon="12.984285"><ele>496.4</ele><time>2026-04-19T11:03:51.827Z</time></trkpt><trkpt lat="41.9449017" lon="12.984365"><ele>490.2</ele><time>2026-04-19T11:03:52.827Z</time></trkpt><trkpt lat="41.9449867" lon="12.9844283"><ele>484.0</ele><time>2026-04-19T11:03:53.826Z</time></trkpt><trkpt lat="41.945075" lon="12.9844467"><ele>483.33333333333337</ele><time>2026-04-19T11:03:54.825Z</time></trkpt><trkpt lat="41.9451667" lon="12.9844333"><ele>482.66666666666663</ele><time>2026-04-19T11:03:55.876Z</time></trkpt><trkpt lat="41.9453617" lon="12.984255"><ele>482.0</ele><time>2026-04-19T11:03:57.833Z</time></trkpt><trkpt lat="41.94544" lon="12.9841267"><ele>486.6</ele><time>2026-04-19T11:03:58.83Z</time></trkpt><trkpt lat="41.945495" lon="12.984"><ele>491.20000000000005</ele><time>2026-04-19T11:03:59.835Z</time></trkpt><trkpt lat="41.9455367" lon="12.9838817"><ele>495.8</ele><time>2026-04-19T11:04:00.831Z</time></trkpt><trkpt lat="41.945565" lon="12.9837617"><ele>500.4</ele><time>2026-04-19T11:04:01.885Z</time></trkpt><trkpt lat="41.9456083" lon="12.9836567"><ele>505.0</ele><time>2026-04-19T11:04:02.832Z</time></trkpt><trkpt lat="41.94564" lon="12.9835683"><ele>505.0</ele><time>2026-04-19T11:04:03.831Z</time></trkpt><trkpt lat="41.9456683" lon="12.9834767"><ele>505.0</ele><time>2026-04-19T11:04:04.833Z</time></trkpt><trkpt lat="41.945695" lon="12.9833833"><ele>505.0</ele><time>2026-04-19T11:04:05.828Z</time></trkpt><trkpt lat="41.945745" lon="12.98326"><ele>505.0</ele><time>2026-04-19T11:04:07.87Z</time></trkpt><trkpt lat="41.94582" lon="12.9832217"><ele>505.0</ele><time>2026-04-19T11:04:09.838Z</time></trkpt><trkpt lat="41.94593" lon="12.98328"><ele>508.6666666666667</ele><time>2026-04-19T11:04:11.834Z</time></trkpt><trkpt lat="41.9459783" lon="12.9833517"><ele>512.3333333333334</ele><time>2026-04-19T11:04:12.826Z</time></trkpt><trkpt lat="41.9460267" lon="12.98343"><ele>516.0</ele><time>2026-04-19T11:04:13.874Z</time></trkpt><trkpt lat="41.9460417" lon="12.9835217"><ele>519.6666666666666</ele><time>2026-04-19T11:04:14.834Z</time></trkpt><trkpt lat="41.9460417" lon="12.9836217"><ele>523.3333333333333</ele><time>2026-04-19T11:04:15.829Z</time></trkpt><trkpt lat="41.9460333" lon="12.9837133"><ele>527.0</ele><time>2026-04-19T11:04:16.833Z</time></trkpt><trkpt lat="41.9461" lon="12.98399"><ele>527.0</ele><time>2026-04-19T11:04:20.836Z</time></trkpt><trkpt lat="41.9461333" lon="12.9840817"><ele>527.0</ele><time>2026-04-19T11:04:22.837Z</time></trkpt><trkpt lat="41.9461333" lon="12.9841817"><ele>527.0</ele><time>2026-04-19T11:04:58.835Z</time></trkpt><trkpt lat="41.9462083" lon="12.9843433"><ele>527.0</ele><time>2026-04-19T11:05:43.877Z</time></trkpt><trkpt lat="41.9463133" lon="12.9845317"><ele>522.1666666666666</ele><time>2026-04-19T11:05:47.831Z</time></trkpt><trkpt lat="41.9463817" lon="12.9846167"><ele>517.3333333333333</ele><time>2026-04-19T11:05:49.871Z</time></trkpt><trkpt lat="41.9464317" lon="12.98467"><ele>512.5</ele><time>2026-04-19T11:05:51.833Z</time></trkpt><trkpt lat="41.94642" lon="12.9847617"><ele>507.66666666666663</ele><time>2026-04-19T11:05:57.829Z</time></trkpt><trkpt lat="41.9463517" lon="12.9847786"><ele>502.8333333333333</ele><time>2026-04-19T11:06:00.835Z</time></trkpt><trkpt lat="41.9462704" lon="12.984776"><ele>498.0</ele><time>2026-04-19T11:06:03.838Z</time></trkpt><trkpt lat="41.946205" lon="12.9848734"><ele>490.5</ele><time>2026-04-19T11:06:16.835Z</time></trkpt><trkpt lat="41.9462344" lon="12.9850562"><ele>483.0</ele><time>2026-04-19T11:06:25.872Z</time></trkpt><trkpt lat="41.9463009" lon="12.9851208"><ele>475.5</ele><time>2026-04-19T11:06:27.832Z</time></trkpt><trkpt lat="41.9463728" lon="12.9852036"><ele>468.0</ele><time>2026-04-19T11:07:22.831Z</time></trkpt><trkpt lat="41.9465038" lon="12.9853568"><ele>468.0</ele><time>2026-04-19T11:07:26.837Z</time></trkpt><trkpt lat="41.9465714" lon="12.9854456"><ele>467.99999999999994</ele><time>2026-04-19T11:07:28.831Z</time></trkpt><trkpt lat="41.9466184" lon="12.9855615"><ele>467.99999999999994</ele><time>2026-04-19T11:07:30.828Z</time></trkpt><trkpt lat="41.946691" lon="12.9857016"><ele>468.0</ele><time>2026-04-19T11:07:32.831Z</time></trkpt><trkpt lat="41.9467326" lon="12.9857777"><ele>468.0</ele><time>2026-04-19T11:07:33.834Z</time></trkpt><trkpt lat="41.9467731" lon="12.9858512"><ele>467.6666666666667</ele><time>2026-04-19T11:07:34.831Z</time></trkpt><trkpt lat="41.9468409" lon="12.9859529"><ele>467.33333333333337</ele><time>2026-04-19T11:07:36.839Z</time></trkpt><trkpt lat="41.9469017" lon="12.9860417"><ele>467.0</ele><time>2026-04-19T11:07:38.83Z</time></trkpt><trkpt lat="41.9469867" lon="12.9861367"><ele>466.6666666666667</ele><time>2026-04-19T11:07:40.829Z</time></trkpt><trkpt lat="41.94704" lon="12.986185"><ele>466.33333333333337</ele><time>2026-04-19T11:07:41.832Z</time></trkpt><trkpt lat="41.9471017" lon="12.9862317"><ele>466.0</ele><time>2026-04-19T11:07:42.839Z</time></trkpt><trkpt lat="41.9471583" lon="12.9862833"><ele>466.0</ele><time>2026-04-19T11:07:43.87Z</time></trkpt><trkpt lat="41.9472867" lon="12.9864067"><ele>466.0</ele><time>2026-04-19T11:07:45.831Z</time></trkpt><trkpt lat="41.9473517" lon="12.9864733"><ele>466.0</ele><time>2026-04-19T11:07:46.832Z</time></trkpt><trkpt lat="41.9474067" lon="12.98654"><ele>466.0</ele><time>2026-04-19T11:07:47.836Z</time></trkpt><trkpt lat="41.9474517" lon="12.986605"><ele>466.0</ele><time>2026-04-19T11:07:48.832Z</time></trkpt><trkpt lat="41.9475167" lon="12.986715"><ele>463.6</ele><time>2026-04-19T11:07:50.834Z</time></trkpt><trkpt lat="41.9475683" lon="12.9868133"><ele>461.20000000000005</ele><time>2026-04-19T11:07:52.831Z</time></trkpt><trkpt lat="41.9476117" lon="12.9869567"><ele>458.79999999999995</ele><time>2026-04-19T11:07:54.83Z</time></trkpt><trkpt lat="41.9476667" lon="12.98708"><ele>456.4</ele><time>2026-04-19T11:07:56.832Z</time></trkpt><trkpt lat="41.9477167" lon="12.98719"><ele>454.0</ele><time>2026-04-19T11:07:58.842Z</time></trkpt><trkpt lat="41.9477733" lon="12.9872717"><ele>454.0</ele><time>2026-04-19T11:08:00.83Z</time></trkpt><trkpt lat="41.947855" lon="12.9873433"><ele>454.0</ele><time>2026-04-19T11:08:02.831Z</time></trkpt><trkpt lat="41.9479117" lon="12.9873883"><ele>454.0</ele><time>2026-04-19T11:08:03.838Z</time></trkpt><trkpt lat="41.9479933" lon="12.9874967"><ele>454.0</ele><time>2026-04-19T11:08:05.829Z</time></trkpt><trkpt lat="41.947955" lon="12.9876967"><ele>454.0</ele><time>2026-04-19T11:08:10.836Z</time></trkpt><trkpt lat="41.9479433" lon="12.9878167"><ele>452.79999999999995</ele><time>2026-04-19T11:08:12.839Z</time></trkpt><trkpt lat="41.94796" lon="12.9879317"><ele>451.59999999999997</ele><time>2026-04-19T11:08:14.833Z</time></trkpt><trkpt lat="41.9479883" lon="12.9880167"><ele>450.4</ele><time>2026-04-19T11:08:16.831Z</time></trkpt><trkpt lat="41.9480383" lon="12.9881717"><ele>449.2</ele><time>2026-04-19T11:08:36.832Z</time></trkpt><trkpt lat="41.9481133" lon="12.9883667"><ele>448.0</ele><time>2026-04-19T11:08:38.829Z</time></trkpt><trkpt lat="41.9481583" lon="12.9884667"><ele>448.00000000000006</ele><time>2026-04-19T11:08:39.839Z</time></trkpt><trkpt lat="41.9482117" lon="12.9885583"><ele>448.0</ele><time>2026-04-19T11:08:40.826Z</time></trkpt><trkpt lat="41.9482567" lon="12.9886517"><ele>448.0</ele><time>2026-04-19T11:08:41.832Z</time></trkpt><trkpt lat="41.9482917" lon="12.9887517"><ele>448.0</ele><time>2026-04-19T11:08:42.832Z</time></trkpt><trkpt lat="41.9483233" lon="12.9888617"><ele>448.00000000000006</ele><time>2026-04-19T11:08:43.87Z</time></trkpt><trkpt lat="41.9483633" lon="12.9889667"><ele>448.0</ele><time>2026-04-19T11:08:44.829Z</time></trkpt><trkpt lat="41.948395" lon="12.9890733"><ele>448.1666666666667</ele><time>2026-04-19T11:08:45.836Z</time></trkpt><trkpt lat="41.9484217" lon="12.989175"><ele>448.33333333333337</ele><time>2026-04-19T11:08:46.834Z</time></trkpt><trkpt lat="41.9484433" lon="12.9892583"><ele>448.5</ele><time>2026-04-19T11:08:47.828Z</time></trkpt><trkpt lat="41.9485017" lon="12.98937"><ele>448.66666666666663</ele><time>2026-04-19T11:08:49.874Z</time></trkpt><trkpt lat="41.9485917" lon="12.9894583"><ele>448.8333333333333</ele><time>2026-04-19T11:08:51.832Z</time></trkpt><trkpt lat="41.9486483" lon="12.9895233"><ele>449.0</ele><time>2026-04-19T11:08:52.835Z</time></trkpt><trkpt lat="41.9487067" lon="12.9895983"><ele>449.0</ele><time>2026-04-19T11:08:53.832Z</time></trkpt><trkpt lat="41.9487683" lon="12.9896733"><ele>449.0</ele><time>2026-04-19T11:08:54.833Z</time></trkpt><trkpt lat="41.9488267" lon="12.98975"><ele>449.0</ele><time>2026-04-19T11:08:55.899Z</time></trkpt><trkpt lat="41.948875" lon="12.9898333"><ele>449.0</ele><time>2026-04-19T11:08:56.836Z</time></trkpt><trkpt lat="41.948935" lon="12.9899267"><ele>449.0</ele><time>2026-04-19T11:08:57.837Z</time></trkpt><trkpt lat="41.949045" lon="12.9901183"><ele>449.6</ele><time>2026-04-19T11:08:59.833Z</time></trkpt><trkpt lat="41.94909" lon="12.9902167"><ele>450.2</ele><time>2026-04-19T11:09:00.84Z</time></trkpt><trkpt lat="41.9491433" lon="12.9903217"><ele>450.80000000000007</ele><time>2026-04-19T11:09:01.874Z</time></trkpt><trkpt lat="41.9491883" lon="12.990435"><ele>451.40000000000003</ele><time>2026-04-19T11:09:02.831Z</time></trkpt><trkpt lat="41.9492183" lon="12.990555"><ele>452.0</ele><time>2026-04-19T11:09:03.826Z</time></trkpt><trkpt lat="41.9492317" lon="12.9906717"><ele>454.0</ele><time>2026-04-19T11:09:04.838Z</time></trkpt><trkpt lat="41.9492433" lon="12.9907783"><ele>456.00000000000006</ele><time>2026-04-19T11:09:05.832Z</time></trkpt><trkpt lat="41.9492433" lon="12.99087"><ele>458.00000000000006</ele><time>2026-04-19T11:09:06.84Z</time></trkpt><trkpt lat="41.9492183" lon="12.9909867"><ele>460.0</ele><time>2026-04-19T11:09:08.833Z</time></trkpt><trkpt lat="41.9491217" lon="12.99106"><ele>462.0</ele><time>2026-04-19T11:09:22.839Z</time></trkpt><trkpt lat="41.9491133" lon="12.9913433"><ele>462.0</ele><time>2026-04-19T11:09:27.833Z</time></trkpt><trkpt lat="41.94911" lon="12.9914433"><ele>462.0</ele><time>2026-04-19T11:09:28.834Z</time></trkpt><trkpt lat="41.949105" lon="12.9915567"><ele>462.0</ele><time>2026-04-19T11:09:29.829Z</time></trkpt><trkpt lat="41.9490967" lon="12.991665"><ele>462.0</ele><time>2026-04-19T11:09:30.838Z</time></trkpt><trkpt lat="41.9490867" lon="12.991765"><ele>462.0</ele><time>2026-04-19T11:09:31.874Z</time></trkpt><trkpt lat="41.9490783" lon="12.991865"><ele>462.0</ele><time>2026-04-19T11:09:32.837Z</time></trkpt><trkpt lat="41.94907" lon="12.99197"><ele>463.0</ele><time>2026-04-19T11:09:33.84Z</time></trkpt><trkpt lat="41.949065" lon="12.9920633"><ele>464.0</ele><time>2026-04-19T11:09:34.833Z</time></trkpt><trkpt lat="41.94908" lon="12.992235"><ele>465.0</ele><time>2026-04-19T11:09:36.835Z</time></trkpt><trkpt lat="41.9490917" lon="12.9923267"><ele>466.0</ele><time>2026-04-19T11:09:37.877Z</time></trkpt><trkpt lat="41.9490983" lon="12.9924167"><ele>467.0</ele><time>2026-04-19T11:09:38.838Z</time></trkpt><trkpt lat="41.94911" lon="12.992525"><ele>468.0</ele><time>2026-04-19T11:09:39.832Z</time></trkpt><trkpt lat="41.9491133" lon="12.9926317"><ele>469.79999999999995</ele><time>2026-04-19T11:09:40.831Z</time></trkpt><trkpt lat="41.9491083" lon="12.9927317"><ele>471.59999999999997</ele><time>2026-04-19T11:09:41.833Z</time></trkpt><trkpt lat="41.94909" lon="12.992815"><ele>473.40000000000003</ele><time>2026-04-19T11:09:42.833Z</time></trkpt><trkpt lat="41.94907" lon="12.9929617"><ele>475.20000000000005</ele><time>2026-04-19T11:09:44.831Z</time></trkpt><trkpt lat="41.9490667" lon="12.9931433"><ele>477.0</ele><time>2026-04-19T11:09:46.833Z</time></trkpt><trkpt lat="41.9490583" lon="12.9932833"><ele>478.3333333333333</ele><time>2026-04-19T11:09:48.839Z</time></trkpt><trkpt lat="41.94908" lon="12.9934317"><ele>479.66666666666663</ele><time>2026-04-19T11:09:50.832Z</time></trkpt><trkpt lat="41.9491183" lon="12.99353"><ele>481.0</ele><time>2026-04-19T11:09:52.836Z</time></trkpt><trkpt lat="41.949145" lon="12.9936383"><ele>482.3333333333333</ele><time>2026-04-19T11:09:55.902Z</time></trkpt><trkpt lat="41.9490917" lon="12.9937183"><ele>483.66666666666663</ele><time>2026-04-19T11:09:59.837Z</time></trkpt><trkpt lat="41.9490517" lon="12.9938067"><ele>485.0</ele><time>2026-04-19T11:10:02.831Z</time></trkpt><trkpt lat="41.9490333" lon="12.9939117"><ele>485.0</ele><time>2026-04-19T11:10:05.833Z</time></trkpt><trkpt lat="41.9491067" lon="12.9940633"><ele>485.0</ele><time>2026-04-19T11:10:11.834Z</time></trkpt><trkpt lat="41.9491283" lon="12.9942"><ele>485.0</ele><time>2026-04-19T11:10:14.835Z</time></trkpt><trkpt lat="41.9491033" lon="12.9943033"><ele>485.0</ele><time>2026-04-19T11:10:16.837Z</time></trkpt><trkpt lat="41.94908" lon="12.9944233"><ele>485.0</ele><time>2026-04-19T11:10:18.832Z</time></trkpt><trkpt lat="41.9490883" lon="12.994525"><ele>485.2</ele><time>2026-04-19T11:10:20.833Z</time></trkpt><trkpt lat="41.9491467" lon="12.9946217"><ele>485.4</ele><time>2026-04-19T11:10:22.832Z</time></trkpt><trkpt lat="41.9492267" lon="12.9946933"><ele>485.6</ele><time>2026-04-19T11:10:24.836Z</time></trkpt><trkpt lat="41.9492983" lon="12.99479"><ele>485.8</ele><time>2026-04-19T11:10:26.835Z</time></trkpt><trkpt lat="41.94931" lon="12.995"><ele>486.0</ele><time>2026-04-19T11:10:29.835Z</time></trkpt><trkpt lat="41.9493033" lon="12.9950867"><ele>494.4</ele><time>2026-04-19T11:10:30.831Z</time></trkpt><trkpt lat="41.9493133" lon="12.9952183"><ele>502.8</ele><time>2026-04-19T11:10:32.832Z</time></trkpt><trkpt lat="41.94935" lon="12.9953283"><ele>511.19999999999993</ele><time>2026-04-19T11:10:34.833Z</time></trkpt><trkpt lat="41.949405" lon="12.9954517"><ele>519.6</ele><time>2026-04-19T11:10:36.835Z</time></trkpt><trkpt lat="41.9494667" lon="12.9955583"><ele>528.0</ele><time>2026-04-19T11:10:38.83Z</time></trkpt><trkpt lat="41.949465" lon="12.9956517"><ele>528.0</ele><time>2026-04-19T11:10:40.838Z</time></trkpt><trkpt lat="41.949395" lon="12.9958367"><ele>528.0</ele><time>2026-04-19T11:11:00.831Z</time></trkpt><trkpt lat="41.949455" lon="12.9961867"><ele>528.0</ele><time>2026-04-19T11:11:43.873Z</time></trkpt><trkpt lat="41.949425" lon="12.9962667"><ele>528.8</ele><time>2026-04-19T11:14:25.896Z</time></trkpt><trkpt lat="41.9493783" lon="12.9965317"><ele>529.5999999999999</ele><time>2026-04-19T11:14:30.829Z</time></trkpt><trkpt lat="41.9493633" lon="12.9966667"><ele>530.4000000000001</ele><time>2026-04-19T11:14:32.832Z</time></trkpt><trkpt lat="41.9493433" lon="12.9967533"><ele>531.2</ele><time>2026-04-19T11:14:34.832Z</time></trkpt><trkpt lat="41.9492833" lon="12.99678"><ele>532.0</ele><time>2026-04-19T11:14:39.835Z</time></trkpt><trkpt lat="41.94922" lon="12.99671"><ele>531.5</ele><time>2026-04-19T11:14:43.886Z</time></trkpt><trkpt lat="41.9492067" lon="12.9968"><ele>531.0</ele><time>2026-04-19T11:14:55.896Z</time></trkpt><trkpt lat="41.9491717" lon="12.996975"><ele>530.5</ele><time>2026-04-19T11:15:01.882Z</time></trkpt><trkpt lat="41.9492133" lon="12.9970717"><ele>530.0</ele><time>2026-04-19T11:15:09.847Z</time></trkpt><trkpt lat="41.9492583" lon="12.99717"><ele>529.5</ele><time>2026-04-19T11:15:11.828Z</time></trkpt><trkpt lat="41.949275" lon="12.9972533"><ele>529.0</ele><time>2026-04-19T11:15:13.872Z</time></trkpt><trkpt lat="41.9492733" lon="12.9973483"><ele>533.5</ele><time>2026-04-19T11:15:16.834Z</time></trkpt><trkpt lat="41.9491517" lon="12.99756"><ele>538.0</ele><time>2026-04-19T11:15:27.83Z</time></trkpt><trkpt lat="41.9490917" lon="12.99763"><ele>542.5</ele><time>2026-04-19T11:15:29.836Z</time></trkpt><trkpt lat="41.9489933" lon="12.99769"><ele>547.0</ele><time>2026-04-19T11:15:31.878Z</time></trkpt><trkpt lat="41.9489067" lon="12.997735"><ele>547.0</ele><time>2026-04-19T11:15:33.835Z</time></trkpt><trkpt lat="41.948855" lon="12.9977833"><ele>547.0</ele><time>2026-04-19T11:15:35.832Z</time></trkpt><trkpt lat="41.9488817" lon="12.9978817"><ele>547.0</ele><time>2026-04-19T11:15:40.83Z</time></trkpt><trkpt lat="41.9489333" lon="12.9980667"><ele>547.0</ele><time>2026-04-19T11:15:56.836Z</time></trkpt><trkpt lat="41.9489683" lon="12.9981833"><ele>547.0</ele><time>2026-04-19T11:15:59.834Z</time></trkpt><trkpt lat="41.9490333" lon="12.9982533"><ele>553.6666666666667</ele><time>2026-04-19T11:16:02.831Z</time></trkpt><trkpt lat="41.9491333" lon="12.9985483"><ele>560.3333333333334</ele><time>2026-04-19T11:16:18.833Z</time></trkpt><trkpt lat="41.9492117" lon="12.9987517"><ele>567.0</ele><time>2026-04-19T11:20:44.845Z</time></trkpt><trkpt lat="41.9492667" lon="12.9989667"><ele>567.0</ele><time>2026-04-19T11:20:50.839Z</time></trkpt><trkpt lat="41.94926" lon="12.999055"><ele>567.0</ele><time>2026-04-19T11:20:52.833Z</time></trkpt><trkpt lat="41.9492617" lon="12.999175"><ele>567.0</ele><time>2026-04-19T11:20:55.847Z</time></trkpt><trkpt lat="41.94932" lon="12.99925"><ele>567.0</ele><time>2026-04-19T11:20:57.834Z</time></trkpt><trkpt lat="41.94936" lon="12.99934"><ele>567.0</ele><time>2026-04-19T11:21:00.84Z</time></trkpt><trkpt lat="41.9493967" lon="12.9994233"><ele>567.0</ele><time>2026-04-19T11:21:02.833Z</time></trkpt><trkpt lat="41.9494533" lon="12.9995133"><ele>570.4</ele><time>2026-04-19T11:21:05.827Z</time></trkpt><trkpt lat="41.9495417" lon="12.99965"><ele>573.8000000000001</ele><time>2026-04-19T11:21:23.833Z</time></trkpt><trkpt lat="41.94958" lon="12.9997617"><ele>577.2</ele><time>2026-04-19T11:21:26.835Z</time></trkpt><trkpt lat="41.9496417" lon="12.9999483"><ele>580.6</ele><time>2026-04-19T11:21:33.832Z</time></trkpt><trkpt lat="41.9496833" lon="13.0000167"><ele>584.0</ele><time>2026-04-19T11:21:37.885Z</time></trkpt><trkpt lat="41.94975" lon="13.000235"><ele>584.0</ele><time>2026-04-19T11:23:26.835Z</time></trkpt><trkpt lat="41.9497867" lon="13.0004283"><ele>584.0</ele><time>2026-04-19T11:23:35.834Z</time></trkpt><trkpt lat="41.9498117" lon="13.0005617"><ele>584.0</ele><time>2026-04-19T11:23:55.893Z</time></trkpt><trkpt lat="41.9498433" lon="13.0008417"><ele>588.75</ele><time>2026-04-19T11:31:11.837Z</time></trkpt><trkpt lat="41.949985" lon="13.0011067"><ele>593.5</ele><time>2026-04-19T11:35:24.828Z</time></trkpt><trkpt lat="41.9500567" lon="13.0011667"><ele>598.25</ele><time>2026-04-19T11:35:28.831Z</time></trkpt><trkpt lat="41.9500967" lon="13.0012383"><ele>603.0</ele><time>2026-04-19T11:35:30.836Z</time></trkpt><trkpt lat="41.9501367" lon="13.0013817"><ele>605.6666666666666</ele><time>2026-04-19T11:35:32.83Z</time></trkpt><trkpt lat="41.9501683" lon="13.001455"><ele>608.3333333333334</ele><time>2026-04-19T11:35:33.842Z</time></trkpt><trkpt lat="41.9501967" lon="13.0015333"><ele>611.0</ele><time>2026-04-19T11:35:34.835Z</time></trkpt><trkpt lat="41.9502317" lon="13.0016783"><ele>613.6666666666667</ele><time>2026-04-19T11:35:36.834Z</time></trkpt><trkpt lat="41.9502733" lon="13.0018117"><ele>616.3333333333334</ele><time>2026-04-19T11:35:38.831Z</time></trkpt><trkpt lat="41.9502983" lon="13.001935"><ele>619.0</ele><time>2026-04-19T11:35:40.831Z</time></trkpt><trkpt lat="41.950365" lon="13.002175"><ele>619.2</ele><time>2026-04-19T11:35:44.824Z</time></trkpt><trkpt lat="41.9503917" lon="13.00227"><ele>619.4</ele><time>2026-04-19T11:35:46.833Z</time></trkpt><trkpt lat="41.9504217" lon="13.002375"><ele>619.6</ele><time>2026-04-19T11:35:48.83Z</time></trkpt><trkpt lat="41.9504533" lon="13.0025283"><ele>619.8</ele><time>2026-04-19T11:35:56.832Z</time></trkpt><trkpt lat="41.95044" lon="13.002655"><ele>620.0</ele><time>2026-04-19T11:35:58.83Z</time></trkpt><trkpt lat="41.9504267" lon="13.00278"><ele>620.5</ele><time>2026-04-19T11:35:59.828Z</time></trkpt><trkpt lat="41.9504117" lon="13.0029033"><ele>621.0</ele><time>2026-04-19T11:36:00.838Z</time></trkpt><trkpt lat="41.9504033" lon="13.0030233"><ele>621.5</ele><time>2026-04-19T11:36:01.88Z</time></trkpt><trkpt lat="41.950405" lon="13.0032717"><ele>622.0</ele><time>2026-04-19T11:36:03.836Z</time></trkpt><trkpt lat="41.9504083" lon="13.003385"><ele>622.6666666666667</ele><time>2026-04-19T11:36:04.834Z</time></trkpt><trkpt lat="41.9504083" lon="13.0035017"><ele>623.3333333333334</ele><time>2026-04-19T11:36:05.83Z</time></trkpt><trkpt lat="41.9504083" lon="13.00361"><ele>624.0</ele><time>2026-04-19T11:36:06.831Z</time></trkpt><trkpt lat="41.9504017" lon="13.0037117"><ele>624.6666666666666</ele><time>2026-04-19T11:36:07.879Z</time></trkpt><trkpt lat="41.9504033" lon="13.0038017"><ele>625.3333333333333</ele><time>2026-04-19T11:36:08.831Z</time></trkpt><trkpt lat="41.9504117" lon="13.00392"><ele>626.0</ele><time>2026-04-19T11:36:10.834Z</time></trkpt><trkpt lat="41.9504267" lon="13.004045"><ele>627.5</ele><time>2026-04-19T11:36:12.836Z</time></trkpt><trkpt lat="41.9504717" lon="13.00421"><ele>629.0</ele><time>2026-04-19T11:36:14.83Z</time></trkpt><trkpt lat="41.950505" lon="13.00429"><ele>630.5</ele><time>2026-04-19T11:36:15.824Z</time></trkpt><trkpt lat="41.9505483" lon="13.0043633"><ele>632.0</ele><time>2026-04-19T11:36:16.836Z</time></trkpt><trkpt lat="41.9505833" lon="13.0044433"><ele>633.5</ele><time>2026-04-19T11:36:17.832Z</time></trkpt><trkpt lat="41.95062" lon="13.0045767"><ele>635.0</ele><time>2026-04-19T11:36:19.886Z</time></trkpt><trkpt lat="41.9506317" lon="13.004695"><ele>635.0</ele><time>2026-04-19T11:36:21.834Z</time></trkpt><trkpt lat="41.95064" lon="13.0048417"><ele>635.0</ele><time>2026-04-19T11:36:23.834Z</time></trkpt><trkpt lat="41.95067" lon="13.0050283"><ele>635.0</ele><time>2026-04-19T11:36:25.885Z</time></trkpt><trkpt lat="41.9506867" lon="13.00513"><ele>635.0</ele><time>2026-04-19T11:36:26.832Z</time></trkpt><trkpt lat="41.9507133" lon="13.005235"><ele>635.0</ele><time>2026-04-19T11:36:27.832Z</time></trkpt><trkpt lat="41.9507383" lon="13.0053433"><ele>637.5</ele><time>2026-04-19T11:36:28.834Z</time></trkpt><trkpt lat="41.9507567" lon="13.0054567"><ele>640.0</ele><time>2026-04-19T11:36:29.831Z</time></trkpt><trkpt lat="41.9507633" lon="13.0055767"><ele>642.5</ele><time>2026-04-19T11:36:30.839Z</time></trkpt><trkpt lat="41.950765" lon="13.005685"><ele>645.0</ele><time>2026-04-19T11:36:31.88Z</time></trkpt><trkpt lat="41.9507667" lon="13.0057833"><ele>647.5</ele><time>2026-04-19T11:36:32.832Z</time></trkpt><trkpt lat="41.9507683" lon="13.00587"><ele>650.0</ele><time>2026-04-19T11:36:33.834Z</time></trkpt><trkpt lat="41.9507817" lon="13.005985"><ele>653.75</ele><time>2026-04-19T11:36:35.829Z</time></trkpt><trkpt lat="41.9507683" lon="13.0061567"><ele>657.5</ele><time>2026-04-19T11:51:13.875Z</time></trkpt><trkpt lat="41.9508017" lon="13.0064117"><ele>661.25</ele><time>2026-04-19T11:51:16.834Z</time></trkpt><trkpt lat="41.9508183" lon="13.0065133"><ele>665.0</ele><time>2026-04-19T11:51:17.833Z</time></trkpt><trkpt lat="41.95084" lon="13.0066183"><ele>668.2</ele><time>2026-04-19T11:51:18.84Z</time></trkpt><trkpt lat="41.9508667" lon="13.0067283"><ele>671.4</ele><time>2026-04-19T11:51:19.875Z</time></trkpt><trkpt lat="41.9508967" lon="13.006845"><ele>674.5999999999999</ele><time>2026-04-19T11:51:20.827Z</time></trkpt><trkpt lat="41.9509217" lon="13.0069667"><ele>677.8</ele><time>2026-04-19T11:51:21.837Z</time></trkpt><trkpt lat="41.9509417" lon="13.0071"><ele>681.0</ele><time>2026-04-19T11:51:22.828Z</time></trkpt><trkpt lat="41.9509683" lon="13.007245"><ele>681.0</ele><time>2026-04-19T11:51:23.824Z</time></trkpt><trkpt lat="41.9510067" lon="13.0074017"><ele>681.0</ele><time>2026-04-19T11:51:24.826Z</time></trkpt><trkpt lat="41.95105" lon="13.0075633"><ele>681.0</ele><time>2026-04-19T11:51:25.898Z</time></trkpt><trkpt lat="41.9511083" lon="13.0077233"><ele>681.0</ele><time>2026-04-19T11:51:26.826Z</time></trkpt><trkpt lat="41.9511617" lon="13.00787"><ele>684.8</ele><time>2026-04-19T11:51:27.833Z</time></trkpt><trkpt lat="41.9511983" lon="13.0080183"><ele>688.5999999999999</ele><time>2026-04-19T11:51:28.827Z</time></trkpt><trkpt lat="41.9512267" lon="13.0081533"><ele>692.4</ele><time>2026-04-19T11:51:29.826Z</time></trkpt><trkpt lat="41.9512517" lon="13.0082767"><ele>696.2</ele><time>2026-04-19T11:51:30.825Z</time></trkpt><trkpt lat="41.9512767" lon="13.0083717"><ele>700.0</ele><time>2026-04-19T11:51:31.876Z</time></trkpt><trkpt lat="41.9512733" lon="13.0084567"><ele>704.0</ele><time>2026-04-19T11:51:35.83Z</time></trkpt><trkpt lat="41.9512617" lon="13.0086817"><ele>708.0</ele><time>2026-04-19T11:51:42.829Z</time></trkpt><trkpt lat="41.951225" lon="13.0087817"><ele>712.0</ele><time>2026-04-19T11:51:45.831Z</time></trkpt><trkpt lat="41.95124" lon="13.0088783"><ele>716.0</ele><time>2026-04-19T11:51:47.829Z</time></trkpt><trkpt lat="41.95131" lon="13.0089983"><ele>720.0</ele><time>2026-04-19T11:51:49.874Z</time></trkpt><trkpt lat="41.9513533" lon="13.009075"><ele>720.5714285714286</ele><time>2026-04-19T11:51:50.825Z</time></trkpt><trkpt lat="41.95139" lon="13.0091633"><ele>721.1428571428572</ele><time>2026-04-19T11:51:51.831Z</time></trkpt><trkpt lat="41.9514233" lon="13.0092633"><ele>721.7142857142858</ele><time>2026-04-19T11:51:52.824Z</time></trkpt><trkpt lat="41.95145" lon="13.00936"><ele>722.2857142857142</ele><time>2026-04-19T11:51:53.833Z</time></trkpt><trkpt lat="41.95147" lon="13.0094533"><ele>722.8571428571429</ele><time>2026-04-19T11:51:54.826Z</time></trkpt><trkpt lat="41.9514917" lon="13.0095367"><ele>723.4285714285714</ele><time>2026-04-19T11:51:55.893Z</time></trkpt><trkpt lat="41.9515133" lon="13.00962"><ele>724.0</ele><time>2026-04-19T11:51:56.835Z</time></trkpt><trkpt lat="41.95158" lon="13.0098283"><ele>724.0</ele><time>2026-04-19T11:52:01.894Z</time></trkpt><trkpt lat="41.9516033" lon="13.00993"><ele>724.0</ele><time>2026-04-19T11:52:04.83Z</time></trkpt><trkpt lat="41.9515483" lon="13.0099917"><ele>724.0</ele><time>2026-04-19T11:52:07.881Z</time></trkpt><trkpt lat="41.9514717" lon="13.0099767"><ele>724.0</ele><time>2026-04-19T11:52:09.842Z</time></trkpt><trkpt lat="41.9514033" lon="13.0099867"><ele>724.0</ele><time>2026-04-19T11:52:11.827Z</time></trkpt><trkpt lat="41.9513867" lon="13.01007"><ele>724.0</ele><time>2026-04-19T11:52:13.871Z</time></trkpt><trkpt lat="41.95139" lon="13.0102483"><ele>719.0</ele><time>2026-04-19T11:52:15.828Z</time></trkpt><trkpt lat="41.9514017" lon="13.01034"><ele>714.0</ele><time>2026-04-19T11:52:16.824Z</time></trkpt><trkpt lat="41.9514183" lon="13.0104233"><ele>709.0</ele><time>2026-04-19T11:52:17.827Z</time></trkpt><trkpt lat="41.9514683" lon="13.0106633"><ele>704.0</ele><time>2026-04-19T11:52:21.832Z</time></trkpt><trkpt lat="41.9514733" lon="13.0107717"><ele>699.0</ele><time>2026-04-19T11:52:23.833Z</time></trkpt><trkpt lat="41.9514683" lon="13.0108683"><ele>694.8333333333334</ele><time>2026-04-19T11:52:25.895Z</time></trkpt><trkpt lat="41.95146" lon="13.0109683"><ele>690.6666666666666</ele><time>2026-04-19T11:52:27.823Z</time></trkpt><trkpt lat="41.951445" lon="13.011095"><ele>686.5</ele><time>2026-04-19T11:52:30.83Z</time></trkpt><trkpt lat="41.951485" lon="13.0111917"><ele>682.3333333333333</ele><time>2026-04-19T11:52:32.835Z</time></trkpt><trkpt lat="41.951535" lon="13.0113"><ele>678.1666666666666</ele><time>2026-04-19T11:52:34.828Z</time></trkpt><trkpt lat="41.9515883" lon="13.01138"><ele>674.0</ele><time>2026-04-19T11:52:36.827Z</time></trkpt><trkpt lat="41.9516467" lon="13.0114733"><ele>679.2</ele><time>2026-04-19T11:52:38.826Z</time></trkpt><trkpt lat="41.951785" lon="13.0116467"><ele>684.4000000000001</ele><time>2026-04-19T11:52:42.829Z</time></trkpt><trkpt lat="41.95184" lon="13.01173"><ele>689.6</ele><time>2026-04-19T11:52:44.824Z</time></trkpt><trkpt lat="41.9518983" lon="13.0117983"><ele>694.8</ele><time>2026-04-19T11:52:46.826Z</time></trkpt><trkpt lat="41.9519717" lon="13.0118667"><ele>700.0</ele><time>2026-04-19T11:52:48.833Z</time></trkpt><trkpt lat="41.9520333" lon="13.0119217"><ele>700.0</ele><time>2026-04-19T11:52:50.826Z</time></trkpt><trkpt lat="41.9520383" lon="13.0120517"><ele>700.0</ele><time>2026-04-19T11:52:52.827Z</time></trkpt><trkpt lat="41.9520483" lon="13.012215"><ele>700.0</ele><time>2026-04-19T11:52:54.828Z</time></trkpt><trkpt lat="41.9520917" lon="13.0123717"><ele>700.0</ele><time>2026-04-19T11:52:56.827Z</time></trkpt><trkpt lat="41.95213" lon="13.0124767"><ele>700.0</ele><time>2026-04-19T11:52:58.826Z</time></trkpt><trkpt lat="41.952175" lon="13.0125433"><ele>692.5</ele><time>2026-04-19T11:53:02.827Z</time></trkpt><trkpt lat="41.9522217" lon="13.0127517"><ele>685.0</ele><time>2026-04-19T11:53:07.876Z</time></trkpt><trkpt lat="41.95228" lon="13.0128883"><ele>677.5</ele><time>2026-04-19T11:53:09.828Z</time></trkpt><trkpt lat="41.9523533" lon="13.0130317"><ele>670.0</ele><time>2026-04-19T11:53:11.827Z</time></trkpt><trkpt lat="41.9523867" lon="13.013105"><ele>670.0</ele><time>2026-04-19T11:53:12.83Z</time></trkpt><trkpt lat="41.952425" lon="13.0132267"><ele>670.0</ele><time>2026-04-19T11:53:14.828Z</time></trkpt><trkpt lat="41.9524133" lon="13.0133567"><ele>670.0</ele><time>2026-04-19T11:53:17.84Z</time></trkpt><trkpt lat="41.9524333" lon="13.0134667"><ele>670.0</ele><time>2026-04-19T11:53:19.876Z</time></trkpt><trkpt lat="41.9524367" lon="13.0135933"><ele>670.0</ele><time>2026-04-19T11:53:21.832Z</time></trkpt><trkpt lat="41.9523967" lon="13.0136933"><ele>669.8</ele><time>2026-04-19T11:53:23.831Z</time></trkpt><trkpt lat="41.9523433" lon="13.0139217"><ele>669.6</ele><time>2026-04-19T11:53:27.825Z</time></trkpt><trkpt lat="41.9524033" lon="13.0139883"><ele>669.4000000000001</ele><time>2026-04-19T11:53:30.828Z</time></trkpt><trkpt lat="41.95248" lon="13.0140117"><ele>669.2</ele><time>2026-04-19T11:53:32.825Z</time></trkpt><trkpt lat="41.9525767" lon="13.0140583"><ele>669.0</ele><time>2026-04-19T11:53:34.831Z</time></trkpt><trkpt lat="41.9526417" lon="13.0141267"><ele>656.6</ele><time>2026-04-19T11:53:36.828Z</time></trkpt><trkpt lat="41.9527083" lon="13.0142167"><ele>644.2</ele><time>2026-04-19T11:53:38.828Z</time></trkpt><trkpt lat="41.9528" lon="13.0142967"><ele>631.8000000000001</ele><time>2026-04-19T11:53:40.834Z</time></trkpt><trkpt lat="41.952895" lon="13.0143333"><ele>619.4000000000001</ele><time>2026-04-19T11:53:42.825Z</time></trkpt><trkpt lat="41.952965" lon="13.01436"><ele>607.0</ele><time>2026-04-19T11:53:44.831Z</time></trkpt><trkpt lat="41.953095" lon="13.0144917"><ele>607.0</ele><time>2026-04-19T11:53:49.872Z</time></trkpt><trkpt lat="41.95321" lon="13.0145433"><ele>607.0</ele><time>2026-04-19T11:53:51.833Z</time></trkpt><trkpt lat="41.9532717" lon="13.0145733"><ele>607.0</ele><time>2026-04-19T11:53:52.831Z</time></trkpt><trkpt lat="41.9533367" lon="13.0146"><ele>607.0</ele><time>2026-04-19T11:53:53.833Z</time></trkpt><trkpt lat="41.9534467" lon="13.0146417"><ele>607.0</ele><time>2026-04-19T11:53:55.875Z</time></trkpt><trkpt lat="41.953535" lon="13.01468"><ele>606.8333333333334</ele><time>2026-04-19T11:53:57.833Z</time></trkpt><trkpt lat="41.953615" lon="13.0147017"><ele>606.6666666666667</ele><time>2026-04-19T11:53:59.833Z</time></trkpt><trkpt lat="41.9537417" lon="13.0147417"><ele>606.5</ele><time>2026-04-19T11:54:01.875Z</time></trkpt><trkpt lat="41.95382" lon="13.01476"><ele>606.3333333333334</ele><time>2026-04-19T11:54:02.829Z</time></trkpt><trkpt lat="41.9538917" lon="13.0147867"><ele>606.1666666666666</ele><time>2026-04-19T11:54:03.835Z</time></trkpt><trkpt lat="41.9539617" lon="13.0148133"><ele>606.0</ele><time>2026-04-19T11:54:04.827Z</time></trkpt><trkpt lat="41.9540283" lon="13.0148383"><ele>606.0</ele><time>2026-04-19T11:54:05.829Z</time></trkpt><trkpt lat="41.954175" lon="13.014905"><ele>606.0</ele><time>2026-04-19T11:54:08.83Z</time></trkpt><trkpt lat="41.95427" lon="13.01495"><ele>606.0</ele><time>2026-04-19T11:54:30.839Z</time></trkpt><trkpt lat="41.9544333" lon="13.014905"><ele>606.0</ele><time>2026-04-19T11:54:33.83Z</time></trkpt><trkpt lat="41.954505" lon="13.0149017"><ele>606.0</ele><time>2026-04-19T11:54:34.831Z</time></trkpt><trkpt lat="41.9545883" lon="13.014915"><ele>606.0</ele><time>2026-04-19T11:54:35.829Z</time></trkpt><trkpt lat="41.95468" lon="13.0149483"><ele>606.0</ele><time>2026-04-19T11:54:36.836Z</time></trkpt><trkpt lat="41.95477" lon="13.0149783"><ele>606.0</ele><time>2026-04-19T11:54:37.876Z</time></trkpt><trkpt lat="41.9548617" lon="13.0149967"><ele>606.0</ele><time>2026-04-19T11:54:38.828Z</time></trkpt><trkpt lat="41.9549567" lon="13.015005"><ele>605.8333333333334</ele><time>2026-04-19T11:54:39.827Z</time></trkpt><trkpt lat="41.9550483" lon="13.0150067"><ele>605.6666666666666</ele><time>2026-04-19T11:54:40.837Z</time></trkpt><trkpt lat="41.9551417" lon="13.0150083"><ele>605.5</ele><time>2026-04-19T11:54:41.83Z</time></trkpt><trkpt lat="41.95523" lon="13.0150083"><ele>605.3333333333333</ele><time>2026-04-19T11:54:42.832Z</time></trkpt><trkpt lat="41.9553117" lon="13.01502"><ele>605.1666666666666</ele><time>2026-04-19T11:54:43.883Z</time></trkpt><trkpt lat="41.9553833" lon="13.0150367"><ele>605.0</ele><time>2026-04-19T11:54:44.83Z</time></trkpt><trkpt lat="41.9554517" lon="13.0150617"><ele>605.0</ele><time>2026-04-19T11:54:45.832Z</time></trkpt><trkpt lat="41.9555217" lon="13.0150983"><ele>605.0</ele><time>2026-04-19T11:54:46.83Z</time></trkpt><trkpt lat="41.9555917" lon="13.0151417"><ele>605.0</ele><time>2026-04-19T11:54:47.83Z</time></trkpt><trkpt lat="41.9556583" lon="13.01519"><ele>605.0</ele><time>2026-04-19T11:54:48.837Z</time></trkpt><trkpt lat="41.95572" lon="13.015245"><ele>605.0</ele><time>2026-04-19T11:54:49.876Z</time></trkpt><trkpt lat="41.9557867" lon="13.0153017"><ele>605.0</ele><time>2026-04-19T11:54:50.829Z</time></trkpt><trkpt lat="41.955865" lon="13.015365"><ele>607.25</ele><time>2026-04-19T11:54:51.834Z</time></trkpt><trkpt lat="41.9560467" lon="13.0155117"><ele>609.5</ele><time>2026-04-19T11:54:53.833Z</time></trkpt><trkpt lat="41.95614" lon="13.0155817"><ele>611.75</ele><time>2026-04-19T11:54:54.827Z</time></trkpt><trkpt lat="41.9562367" lon="13.015655"><ele>614.0</ele><time>2026-04-19T11:54:55.898Z</time></trkpt><trkpt lat="41.9563317" lon="13.0157383"><ele>615.2</ele><time>2026-04-19T11:54:56.829Z</time></trkpt><trkpt lat="41.9564283" lon="13.015825"><ele>616.4</ele><time>2026-04-19T11:54:57.832Z</time></trkpt><trkpt lat="41.9565117" lon="13.0159"><ele>617.6</ele><time>2026-04-19T11:54:58.833Z</time></trkpt><trkpt lat="41.956585" lon="13.015965"><ele>618.8</ele><time>2026-04-19T11:54:59.828Z</time></trkpt><trkpt lat="41.9566483" lon="13.0160117"><ele>620.0</ele><time>2026-04-19T11:55:00.832Z</time></trkpt><trkpt lat="41.95675" lon="13.0160833"><ele>620.0</ele><time>2026-04-19T11:55:02.84Z</time></trkpt><trkpt lat="41.9568467" lon="13.016145"><ele>620.0</ele><time>2026-04-19T11:55:04.831Z</time></trkpt><trkpt lat="41.9569317" lon="13.0162"><ele>620.0</ele><time>2026-04-19T11:55:06.834Z</time></trkpt><trkpt lat="41.9569817" lon="13.0163133"><ele>620.0</ele><time>2026-04-19T11:55:08.833Z</time></trkpt><trkpt lat="41.957015" lon="13.0164683"><ele>620.0</ele><time>2026-04-19T11:55:10.823Z</time></trkpt><trkpt lat="41.9570667" lon="13.0165983"><ele>621.8</ele><time>2026-04-19T11:55:12.83Z</time></trkpt><trkpt lat="41.9571183" lon="13.0167867"><ele>623.6</ele><time>2026-04-19T11:55:19.875Z</time></trkpt><trkpt lat="41.9571083" lon="13.0169"><ele>625.4</ele><time>2026-04-19T11:55:23.83Z</time></trkpt><trkpt lat="41.9570783" lon="13.016995"><ele>627.2</ele><time>2026-04-19T11:55:26.832Z</time></trkpt><trkpt lat="41.9570383" lon="13.0170883"><ele>629.0</ele><time>2026-04-19T11:55:28.832Z</time></trkpt><trkpt lat="41.9569617" lon="13.017225"><ele>629.0</ele><time>2026-04-19T11:55:30.834Z</time></trkpt><trkpt lat="41.9569217" lon="13.0172933"><ele>629.0</ele><time>2026-04-19T11:55:31.883Z</time></trkpt><trkpt lat="41.9568867" lon="13.0174267"><ele>629.0</ele><time>2026-04-19T11:55:33.832Z</time></trkpt><trkpt lat="41.9568333" lon="13.0176717"><ele>629.0</ele><time>2026-04-19T11:55:38.835Z</time></trkpt><trkpt lat="41.95678" lon="13.0177767"><ele>631.8</ele><time>2026-04-19T11:55:41.828Z</time></trkpt><trkpt lat="41.956745" lon="13.0178733"><ele>634.5999999999999</ele><time>2026-04-19T11:55:43.877Z</time></trkpt><trkpt lat="41.9567117" lon="13.0179817"><ele>637.4</ele><time>2026-04-19T11:55:45.83Z</time></trkpt><trkpt lat="41.956665" lon="13.018095"><ele>640.1999999999999</ele><time>2026-04-19T11:55:47.83Z</time></trkpt><trkpt lat="41.95662" lon="13.0182167"><ele>643.0</ele><time>2026-04-19T11:55:49.876Z</time></trkpt><trkpt lat="41.9565617" lon="13.0183233"><ele>643.0</ele><time>2026-04-19T11:55:51.833Z</time></trkpt><trkpt lat="41.9565067" lon="13.0183967"><ele>643.0</ele><time>2026-04-19T11:55:53.828Z</time></trkpt><trkpt lat="41.9564633" lon="13.0184717"><ele>643.0</ele><time>2026-04-19T11:55:55.876Z</time></trkpt><trkpt lat="41.95633" lon="13.01866"><ele>643.0</ele><time>2026-04-19T11:55:59.829Z</time></trkpt><trkpt lat="41.9562717" lon="13.0187583"><ele>643.0</ele><time>2026-04-19T11:56:01.878Z</time></trkpt><trkpt lat="41.95622" lon="13.01884"><ele>643.0</ele><time>2026-04-19T11:56:03.827Z</time></trkpt><trkpt lat="41.9561633" lon="13.0189517"><ele>643.0</ele><time>2026-04-19T11:56:05.828Z</time></trkpt><trkpt lat="41.9561033" lon="13.019075"><ele>643.0</ele><time>2026-04-19T11:56:07.88Z</time></trkpt><trkpt lat="41.9560583" lon="13.0191983"><ele>643.0</ele><time>2026-04-19T11:56:09.83Z</time></trkpt><trkpt lat="41.956015" lon="13.0193233"><ele>643.0</ele><time>2026-04-19T11:56:11.83Z</time></trkpt><trkpt lat="41.9559833" lon="13.0194317"><ele>645.0</ele><time>2026-04-19T11:56:13.876Z</time></trkpt><trkpt lat="41.9559467" lon="13.0195317"><ele>647.0</ele><time>2026-04-19T11:56:15.832Z</time></trkpt><trkpt lat="41.9559183" lon="13.0196267"><ele>649.0</ele><time>2026-04-19T11:56:17.837Z</time></trkpt><trkpt lat="41.95586" lon="13.019825"><ele>651.0</ele><time>2026-04-19T11:56:21.83Z</time></trkpt><trkpt lat="41.9558317" lon="13.0199333"><ele>653.0</ele><time>2026-04-19T11:56:23.829Z</time></trkpt><trkpt lat="41.95581" lon="13.0200317"><ele>653.0</ele><time>2026-04-19T11:56:25.883Z</time></trkpt><trkpt lat="41.95578" lon="13.0201333"><ele>653.0</ele><time>2026-04-19T11:56:27.838Z</time></trkpt><trkpt lat="41.9557683" lon="13.020225"><ele>653.0</ele><time>2026-04-19T11:56:29.833Z</time></trkpt><trkpt lat="41.955745" lon="13.0203067"><ele>653.0</ele><time>2026-04-19T11:56:31.888Z</time></trkpt><trkpt lat="41.9556967" lon="13.020375"><ele>653.0</ele><time>2026-04-19T11:56:33.839Z</time></trkpt><trkpt lat="41.95566" lon="13.0205083"><ele>653.0</ele><time>2026-04-19T11:56:36.834Z</time></trkpt><trkpt lat="41.955645" lon="13.0206333"><ele>658.6666666666666</ele><time>2026-04-19T11:56:38.836Z</time></trkpt><trkpt lat="41.9556167" lon="13.0208467"><ele>664.3333333333334</ele><time>2026-04-19T11:57:22.839Z</time></trkpt><trkpt lat="41.9555733" lon="13.0211933"><ele>670.0</ele><time>2026-04-19T11:57:25.908Z</time></trkpt><trkpt lat="41.9555333" lon="13.0214483"><ele>677.0</ele><time>2026-04-19T11:57:26.831Z</time></trkpt><trkpt lat="41.955485" lon="13.0216667"><ele>684.0</ele><time>2026-04-19T11:57:27.828Z</time></trkpt><trkpt lat="41.95543" lon="13.02187"><ele>691.0</ele><time>2026-04-19T11:57:28.834Z</time></trkpt><trkpt lat="41.9553783" lon="13.022035"><ele>691.0</ele><time>2026-04-19T11:57:29.834Z</time></trkpt><trkpt lat="41.95533" lon="13.0221733"><ele>691.0</ele><time>2026-04-19T11:57:30.834Z</time></trkpt><trkpt lat="41.9552817" lon="13.0223117"><ele>691.0</ele><time>2026-04-19T11:57:31.883Z</time></trkpt><trkpt lat="41.9552283" lon="13.0224583"><ele>691.0</ele><time>2026-04-19T11:57:32.833Z</time></trkpt><trkpt lat="41.955175" lon="13.0225983"><ele>694.4</ele><time>2026-04-19T11:57:33.833Z</time></trkpt><trkpt lat="41.955125" lon="13.022715"><ele>697.8</ele><time>2026-04-19T11:57:34.832Z</time></trkpt><trkpt lat="41.9550767" lon="13.022825"><ele>701.1999999999999</ele><time>2026-04-19T11:57:35.832Z</time></trkpt><trkpt lat="41.9550267" lon="13.0229283"><ele>704.5999999999999</ele><time>2026-04-19T11:57:36.836Z</time></trkpt><trkpt lat="41.954975" lon="13.0230433"><ele>708.0</ele><time>2026-04-19T11:57:37.881Z</time></trkpt><trkpt lat="41.9549233" lon="13.0231617"><ele>700.75</ele><time>2026-04-19T11:57:38.832Z</time></trkpt><trkpt lat="41.9548767" lon="13.0232833"><ele>693.5</ele><time>2026-04-19T11:57:39.834Z</time></trkpt><trkpt lat="41.9548333" lon="13.0234133"><ele>686.25</ele><time>2026-04-19T11:57:40.832Z</time></trkpt><trkpt lat="41.9547833" lon="13.0235683"><ele>679.0</ele><time>2026-04-19T11:57:41.83Z</time></trkpt><trkpt lat="41.95473" lon="13.0237433"><ele>679.0</ele><time>2026-04-19T11:57:42.833Z</time></trkpt><trkpt lat="41.9546767" lon="13.0239333"><ele>679.0</ele><time>2026-04-19T11:57:43.879Z</time></trkpt><trkpt lat="41.9545733" lon="13.0243167"><ele>679.8333333333334</ele><time>2026-04-19T11:57:45.829Z</time></trkpt><trkpt lat="41.9545267" lon="13.0244583"><ele>680.6666666666667</ele><time>2026-04-19T11:57:46.842Z</time></trkpt><trkpt lat="41.9544883" lon="13.0245617"><ele>681.5</ele><time>2026-04-19T11:57:47.832Z</time></trkpt><trkpt lat="41.9544567" lon="13.0246433"><ele>682.3333333333334</ele><time>2026-04-19T11:57:48.838Z</time></trkpt><trkpt lat="41.9544283" lon="13.0247217"><ele>683.1666666666666</ele><time>2026-04-19T11:57:49.875Z</time></trkpt><trkpt lat="41.9543917" lon="13.024865"><ele>684.0</ele><time>2026-04-19T11:57:51.828Z</time></trkpt><trkpt lat="41.9543433" lon="13.0249817"><ele>681.8333333333334</ele><time>2026-04-19T11:57:53.839Z</time></trkpt><trkpt lat="41.9542467" lon="13.0251"><ele>679.6666666666666</ele><time>2026-04-19T11:57:55.899Z</time></trkpt><trkpt lat="41.95418" lon="13.0251517"><ele>677.5</ele><time>2026-04-19T11:57:56.836Z</time></trkpt><trkpt lat="41.9541183" lon="13.0251983"><ele>675.3333333333333</ele><time>2026-04-19T11:57:57.84Z</time></trkpt><trkpt lat="41.9540633" lon="13.0252433"><ele>673.1666666666666</ele><time>2026-04-19T11:57:58.831Z</time></trkpt><trkpt lat="41.954005" lon="13.0252983"><ele>671.0</ele><time>2026-04-19T11:57:59.829Z</time></trkpt><trkpt lat="41.95395" lon="13.025355"><ele>669.75</ele><time>2026-04-19T11:58:00.832Z</time></trkpt><trkpt lat="41.953865" lon="13.0254583"><ele>668.5</ele><time>2026-04-19T11:58:02.829Z</time></trkpt><trkpt lat="41.953795" lon="13.0256167"><ele>667.25</ele><time>2026-04-19T11:58:04.828Z</time></trkpt><trkpt lat="41.953725" lon="13.0258083"><ele>666.0</ele><time>2026-04-19T11:58:06.831Z</time></trkpt><trkpt lat="41.9536817" lon="13.0259083"><ele>665.0</ele><time>2026-04-19T11:58:07.882Z</time></trkpt><trkpt lat="41.9536367" lon="13.0260067"><ele>664.0</ele><time>2026-04-19T11:58:08.835Z</time></trkpt><trkpt lat="41.953595" lon="13.0261033"><ele>663.0</ele><time>2026-04-19T11:58:09.829Z</time></trkpt><trkpt lat="41.9535583" lon="13.026205"><ele>662.0</ele><time>2026-04-19T11:58:10.833Z</time></trkpt><trkpt lat="41.9535283" lon="13.0263167"><ele>661.0</ele><time>2026-04-19T11:58:11.825Z</time></trkpt><trkpt lat="41.953505" lon="13.0264317"><ele>660.0</ele><time>2026-04-19T11:58:12.839Z</time></trkpt><trkpt lat="41.9534867" lon="13.0265367"><ele>660.0</ele><time>2026-04-19T11:58:13.878Z</time></trkpt><trkpt lat="41.95347" lon="13.0266267"><ele>660.0</ele><time>2026-04-19T11:58:14.832Z</time></trkpt><trkpt lat="41.9534483" lon="13.0267933"><ele>660.0</ele><time>2026-04-19T11:58:16.827Z</time></trkpt><trkpt lat="41.9534033" lon="13.026955"><ele>660.0</ele><time>2026-04-19T11:58:18.83Z</time></trkpt><trkpt lat="41.953365" lon="13.0270333"><ele>660.0</ele><time>2026-04-19T11:58:19.885Z</time></trkpt><trkpt lat="41.9533267" lon="13.02711"><ele>656.0</ele><time>2026-04-19T11:58:20.828Z</time></trkpt><trkpt lat="41.95329" lon="13.02718"><ele>652.0</ele><time>2026-04-19T11:58:21.833Z</time></trkpt><trkpt lat="41.9532233" lon="13.0273117"><ele>648.0</ele><time>2026-04-19T11:58:23.832Z</time></trkpt><trkpt lat="41.9532" lon="13.0274167"><ele>644.0</ele><time>2026-04-19T11:58:25.841Z</time></trkpt><trkpt lat="41.9531933" lon="13.0277767"><ele>642.8000000000001</ele><time>2026-04-19T11:59:10.834Z</time></trkpt><trkpt lat="41.9532117" lon="13.0279"><ele>641.6</ele><time>2026-04-19T11:59:11.836Z</time></trkpt><trkpt lat="41.9532583" lon="13.0280467"><ele>640.4</ele><time>2026-04-19T11:59:12.829Z</time></trkpt><trkpt lat="41.9533067" lon="13.02819"><ele>639.2</ele><time>2026-04-19T11:59:13.885Z</time></trkpt><trkpt lat="41.953345" lon="13.0283233"><ele>638.0</ele><time>2026-04-19T11:59:14.83Z</time></trkpt><trkpt lat="41.9533767" lon="13.028445"><ele>637.8</ele><time>2026-04-19T11:59:15.836Z</time></trkpt><trkpt lat="41.953385" lon="13.0285683"><ele>637.5999999999999</ele><time>2026-04-19T11:59:16.83Z</time></trkpt><trkpt lat="41.9533667" lon="13.0286917"><ele>637.4000000000001</ele><time>2026-04-19T11:59:17.834Z</time></trkpt><trkpt lat="41.9533283" lon="13.0288067"><ele>637.2</ele><time>2026-04-19T11:59:18.834Z</time></trkpt><trkpt lat="41.95329" lon="13.0289167"><ele>637.0</ele><time>2026-04-19T11:59:19.875Z</time></trkpt><trkpt lat="41.953255" lon="13.02905"><ele>637.5</ele><time>2026-04-19T11:59:20.827Z</time></trkpt><trkpt lat="41.95323" lon="13.02921"><ele>638.0</ele><time>2026-04-19T11:59:21.83Z</time></trkpt><trkpt lat="41.953215" lon="13.0294067"><ele>638.5</ele><time>2026-04-19T11:59:22.829Z</time></trkpt><trkpt lat="41.9531867" lon="13.0296217"><ele>639.0</ele><time>2026-04-19T11:59:23.832Z</time></trkpt><trkpt lat="41.9531633" lon="13.02984"><ele>637.5</ele><time>2026-04-19T11:59:24.837Z</time></trkpt><trkpt lat="41.9531533" lon="13.0300483"><ele>636.0</ele><time>2026-04-19T11:59:25.896Z</time></trkpt><trkpt lat="41.9531567" lon="13.03025"><ele>634.5</ele><time>2026-04-19T11:59:26.829Z</time></trkpt><trkpt lat="41.9531783" lon="13.03044"><ele>633.0</ele><time>2026-04-19T11:59:27.837Z</time></trkpt><trkpt lat="41.9532067" lon="13.0306317"><ele>631.6666666666666</ele><time>2026-04-19T11:59:28.839Z</time></trkpt><trkpt lat="41.953255" lon="13.0310033"><ele>630.3333333333333</ele><time>2026-04-19T11:59:30.83Z</time></trkpt><trkpt lat="41.9532717" lon="13.0311917"><ele>629.0</ele><time>2026-04-19T11:59:31.881Z</time></trkpt><trkpt lat="41.9532783" lon="13.0313733"><ele>629.0</ele><time>2026-04-19T11:59:32.828Z</time></trkpt><trkpt lat="41.953275" lon="13.031535"><ele>629.0</ele><time>2026-04-19T11:59:33.834Z</time></trkpt><trkpt lat="41.953265" lon="13.0316733"><ele>629.0</ele><time>2026-04-19T11:59:34.835Z</time></trkpt><trkpt lat="41.9532417" lon="13.0317983"><ele>629.0</ele><time>2026-04-19T11:59:35.832Z</time></trkpt><trkpt lat="41.9531967" lon="13.0319233"><ele>629.0</ele><time>2026-04-19T11:59:36.831Z</time></trkpt><trkpt lat="41.95314" lon="13.0320583"><ele>628.25</ele><time>2026-04-19T11:59:37.832Z</time></trkpt><trkpt lat="41.9530833" lon="13.0322083"><ele>627.5</ele><time>2026-04-19T11:59:38.833Z</time></trkpt><trkpt lat="41.953025" lon="13.0323733"><ele>626.75</ele><time>2026-04-19T11:59:39.826Z</time></trkpt><trkpt lat="41.9529717" lon="13.03254"><ele>626.0</ele><time>2026-04-19T11:59:40.835Z</time></trkpt><trkpt lat="41.95292" lon="13.0326933"><ele>623.5</ele><time>2026-04-19T11:59:41.836Z</time></trkpt><trkpt lat="41.952845" lon="13.0328333"><ele>621.0</ele><time>2026-04-19T11:59:42.831Z</time></trkpt><trkpt lat="41.9527533" lon="13.0329783"><ele>618.5</ele><time>2026-04-19T11:59:43.823Z</time></trkpt><trkpt lat="41.9526617" lon="13.0331233"><ele>616.0</ele><time>2026-04-19T11:59:44.83Z</time></trkpt><trkpt lat="41.9525833" lon="13.0332617"><ele>620.0</ele><time>2026-04-19T11:59:45.831Z</time></trkpt><trkpt lat="41.9525217" lon="13.0333967"><ele>624.0</ele><time>2026-04-19T11:59:46.84Z</time></trkpt><trkpt lat="41.9524717" lon="13.0335417"><ele>628.0</ele><time>2026-04-19T11:59:47.83Z</time></trkpt><trkpt lat="41.9524417" lon="13.033695"><ele>632.0</ele><time>2026-04-19T11:59:48.839Z</time></trkpt><trkpt lat="41.952415" lon="13.033835"><ele>632.0</ele><time>2026-04-19T11:59:49.825Z</time></trkpt><trkpt lat="41.95233" lon="13.0340617"><ele>632.0</ele><time>2026-04-19T11:59:51.831Z</time></trkpt><trkpt lat="41.95226" lon="13.0341617"><ele>632.0</ele><time>2026-04-19T11:59:52.833Z</time></trkpt><trkpt lat="41.95219" lon="13.03428"><ele>632.0</ele><time>2026-04-19T11:59:53.827Z</time></trkpt><trkpt lat="41.9521267" lon="13.03441"><ele>628.25</ele><time>2026-04-19T11:59:54.837Z</time></trkpt><trkpt lat="41.9520617" lon="13.0345633"><ele>624.5</ele><time>2026-04-19T11:59:55.896Z</time></trkpt><trkpt lat="41.9520083" lon="13.03474"><ele>620.75</ele><time>2026-04-19T11:59:56.827Z</time></trkpt><trkpt lat="41.9519783" lon="13.0349367"><ele>617.0</ele><time>2026-04-19T11:59:57.839Z</time></trkpt><trkpt lat="41.9519467" lon="13.03514"><ele>614.3333333333333</ele><time>2026-04-19T11:59:58.835Z</time></trkpt><trkpt lat="41.951905" lon="13.0353533"><ele>611.6666666666666</ele><time>2026-04-19T11:59:59.832Z</time></trkpt><trkpt lat="41.9518683" lon="13.035585"><ele>609.0</ele><time>2026-04-19T12:00:00.834Z</time></trkpt><trkpt lat="41.9518467" lon="13.0358283"><ele>607.3333333333334</ele><time>2026-04-19T12:00:01.878Z</time></trkpt><trkpt lat="41.951835" lon="13.0360633"><ele>605.6666666666667</ele><time>2026-04-19T12:00:02.831Z</time></trkpt><trkpt lat="41.9518383" lon="13.0362767"><ele>604.0</ele><time>2026-04-19T12:00:03.825Z</time></trkpt><trkpt lat="41.951845" lon="13.0364667"><ele>604.0</ele><time>2026-04-19T12:00:04.828Z</time></trkpt><trkpt lat="41.9518417" lon="13.0366133"><ele>604.0</ele><time>2026-04-19T12:00:05.834Z</time></trkpt><trkpt lat="41.9518183" lon="13.0367383"><ele>604.0</ele><time>2026-04-19T12:00:06.835Z</time></trkpt><trkpt lat="41.9517733" lon="13.036835"><ele>604.0</ele><time>2026-04-19T12:00:07.829Z</time></trkpt><trkpt lat="41.9517067" lon="13.036925"><ele>604.0</ele><time>2026-04-19T12:00:08.832Z</time></trkpt><trkpt lat="41.9516383" lon="13.0370367"><ele>607.6666666666667</ele><time>2026-04-19T12:00:09.827Z</time></trkpt><trkpt lat="41.9515517" lon="13.0371717"><ele>611.3333333333334</ele><time>2026-04-19T12:00:10.834Z</time></trkpt><trkpt lat="41.9513317" lon="13.0374417"><ele>615.0</ele><time>2026-04-19T12:00:12.839Z</time></trkpt><trkpt lat="41.9511983" lon="13.037575"><ele>613.3333333333334</ele><time>2026-04-19T12:00:13.83Z</time></trkpt><trkpt lat="41.9510567" lon="13.0377033"><ele>611.6666666666667</ele><time>2026-04-19T12:00:14.827Z</time></trkpt><trkpt lat="41.950915" lon="13.0378333"><ele>610.0</ele><time>2026-04-19T12:00:15.829Z</time></trkpt><trkpt lat="41.9507733" lon="13.0379417"><ele>610.0</ele><time>2026-04-19T12:00:16.832Z</time></trkpt><trkpt lat="41.95063" lon="13.0380383"><ele>610.0</ele><time>2026-04-19T12:00:17.833Z</time></trkpt><trkpt lat="41.9504833" lon="13.0381133"><ele>610.0</ele><time>2026-04-19T12:00:18.828Z</time></trkpt><trkpt lat="41.9503433" lon="13.0381783"><ele>610.0</ele><time>2026-04-19T12:00:19.834Z</time></trkpt><trkpt lat="41.9502083" lon="13.0382317"><ele>610.0</ele><time>2026-04-19T12:00:20.833Z</time></trkpt><trkpt lat="41.950075" lon="13.03828"><ele>610.0</ele><time>2026-04-19T12:00:21.83Z</time></trkpt><trkpt lat="41.9499533" lon="13.03834"><ele>610.0</ele><time>2026-04-19T12:00:22.832Z</time></trkpt><trkpt lat="41.949855" lon="13.0383983"><ele>608.2</ele><time>2026-04-19T12:00:23.83Z</time></trkpt><trkpt lat="41.94976" lon="13.0384433"><ele>606.4</ele><time>2026-04-19T12:00:24.836Z</time></trkpt><trkpt lat="41.9496633" lon="13.0384583"><ele>604.6</ele><time>2026-04-19T12:00:25.894Z</time></trkpt><trkpt lat="41.9495617" lon="13.0384367"><ele>602.8</ele><time>2026-04-19T12:00:26.834Z</time></trkpt><trkpt lat="41.9494467" lon="13.0383917"><ele>601.0</ele><time>2026-04-19T12:00:27.839Z</time></trkpt><trkpt lat="41.9493167" lon="13.0383617"><ele>601.25</ele><time>2026-04-19T12:00:28.831Z</time></trkpt><trkpt lat="41.9491783" lon="13.03832"><ele>601.5</ele><time>2026-04-19T12:00:29.83Z</time></trkpt><trkpt lat="41.9490483" lon="13.03827"><ele>601.75</ele><time>2026-04-19T12:00:30.835Z</time></trkpt><trkpt lat="41.9489167" lon="13.0381867"><ele>602.0</ele><time>2026-04-19T12:00:31.879Z</time></trkpt><trkpt lat="41.948635" lon="13.0380333"><ele>612.6666666666666</ele><time>2026-04-19T12:00:33.834Z</time></trkpt><trkpt lat="41.9484883" lon="13.0380033"><ele>623.3333333333334</ele><time>2026-04-19T12:00:34.831Z</time></trkpt><trkpt lat="41.94834" lon="13.038005"><ele>634.0</ele><time>2026-04-19T12:00:35.825Z</time></trkpt><trkpt lat="41.9481767" lon="13.0380217"><ele>635.0</ele><time>2026-04-19T12:00:36.836Z</time></trkpt><trkpt lat="41.9480067" lon="13.0380583"><ele>636.0</ele><time>2026-04-19T12:00:37.831Z</time></trkpt><trkpt lat="41.947845" lon="13.0381133"><ele>637.0</ele><time>2026-04-19T12:00:38.832Z</time></trkpt><trkpt lat="41.94769" lon="13.0381733"><ele>638.25</ele><time>2026-04-19T12:00:39.834Z</time></trkpt><trkpt lat="41.9475417" lon="13.038235"><ele>639.5</ele><time>2026-04-19T12:00:40.825Z</time></trkpt><trkpt lat="41.9474083" lon="13.0383183"><ele>640.75</ele><time>2026-04-19T12:00:41.835Z</time></trkpt><trkpt lat="41.9472817" lon="13.0383883"><ele>642.0</ele><time>2026-04-19T12:00:42.831Z</time></trkpt><trkpt lat="41.947175" lon="13.03843"><ele>642.0</ele><time>2026-04-19T12:00:43.832Z</time></trkpt><trkpt lat="41.947075" lon="13.0384367"><ele>642.0</ele><time>2026-04-19T12:00:44.834Z</time></trkpt><trkpt lat="41.9469717" lon="13.0384033"><ele>642.0</ele><time>2026-04-19T12:00:45.836Z</time></trkpt><trkpt lat="41.94685" lon="13.0383483"><ele>642.0</ele><time>2026-04-19T12:00:46.833Z</time></trkpt><trkpt lat="41.94672" lon="13.0382867"><ele>642.0</ele><time>2026-04-19T12:00:47.837Z</time></trkpt><trkpt lat="41.94658" lon="13.0382333"><ele>642.0</ele><time>2026-04-19T12:00:48.83Z</time></trkpt><trkpt lat="41.9464383" lon="13.0381917"><ele>642.0</ele><time>2026-04-19T12:00:49.826Z</time></trkpt><trkpt lat="41.9463183" lon="13.0381567"><ele>642.0</ele><time>2026-04-19T12:00:50.837Z</time></trkpt><trkpt lat="41.9462233" lon="13.0381183"><ele>642.0</ele><time>2026-04-19T12:00:51.831Z</time></trkpt><trkpt lat="41.946155" lon="13.0380633"><ele>642.0</ele><time>2026-04-19T12:00:52.834Z</time></trkpt><trkpt lat="41.9460433" lon="13.0378617"><ele>642.0</ele><time>2026-04-19T12:00:54.829Z</time></trkpt><trkpt lat="41.9459783" lon="13.037765"><ele>642.0</ele><time>2026-04-19T12:00:55.852Z</time></trkpt><trkpt lat="41.9459183" lon="13.0376917"><ele>642.0</ele><time>2026-04-19T12:00:56.832Z</time></trkpt><trkpt lat="41.9458633" lon="13.037645"><ele>640.6666666666666</ele><time>2026-04-19T12:00:57.839Z</time></trkpt><trkpt lat="41.9457783" lon="13.0375983"><ele>639.3333333333334</ele><time>2026-04-19T12:00:59.831Z</time></trkpt><trkpt lat="41.9456783" lon="13.0376667"><ele>638.0</ele><time>2026-04-19T12:01:08.835Z</time></trkpt><trkpt lat="41.9456167" lon="13.0377117"><ele>636.6666666666667</ele><time>2026-04-19T12:01:09.832Z</time></trkpt><trkpt lat="41.9455483" lon="13.037745"><ele>635.3333333333334</ele><time>2026-04-19T12:01:10.829Z</time></trkpt><trkpt lat="41.94547" lon="13.0377633"><ele>634.0</ele><time>2026-04-19T12:01:11.833Z</time></trkpt><trkpt lat="41.94539" lon="13.0377717"><ele>634.0</ele><time>2026-04-19T12:01:12.827Z</time></trkpt><trkpt lat="41.9453183" lon="13.0377817"><ele>634.0</ele><time>2026-04-19T12:01:13.835Z</time></trkpt><trkpt lat="41.94515" lon="13.03787"><ele>634.0</ele><time>2026-04-19T12:01:17.832Z</time></trkpt><trkpt lat="41.9450883" lon="13.0379333"><ele>634.0</ele><time>2026-04-19T12:01:19.827Z</time></trkpt><trkpt lat="41.945015" lon="13.038"><ele>634.0</ele><time>2026-04-19T12:01:21.825Z</time></trkpt><trkpt lat="41.9449517" lon="13.0380467"><ele>634.0</ele><time>2026-04-19T12:01:23.828Z</time></trkpt><trkpt lat="41.9450167" lon="13.038025"><ele>634.0</ele><time>2026-04-19T12:01:28.831Z</time></trkpt><trkpt lat="41.9450917" lon="13.037975"><ele>634.0</ele><time>2026-04-19T12:01:31.881Z</time></trkpt><trkpt lat="41.9451633" lon="13.0379067"><ele>634.0</ele><time>2026-04-19T12:01:33.839Z</time></trkpt><trkpt lat="41.9452217" lon="13.0378633"><ele>634.0</ele><time>2026-04-19T12:01:35.832Z</time></trkpt><trkpt lat="41.945095" lon="13.037955"><ele>634.0</ele><time>2026-04-19T12:01:44.835Z</time></trkpt><trkpt lat="41.9450217" lon="13.0380183"><ele>632.8333333333334</ele><time>2026-04-19T12:01:46.833Z</time></trkpt><trkpt lat="41.9449633" lon="13.038065"><ele>631.6666666666667</ele><time>2026-04-19T12:01:48.832Z</time></trkpt><trkpt lat="41.9448967" lon="13.038105"><ele>630.5</ele><time>2026-04-19T12:01:50.833Z</time></trkpt><trkpt lat="41.944825" lon="13.0381333"><ele>629.3333333333334</ele><time>2026-04-19T12:01:52.836Z</time></trkpt><trkpt lat="41.944755" lon="13.0381367"><ele>628.1666666666666</ele><time>2026-04-19T12:01:54.83Z</time></trkpt><trkpt lat="41.9446583" lon="13.03812"><ele>627.0</ele><time>2026-04-19T12:03:45.83Z</time></trkpt><trkpt lat="41.9444367" lon="13.0381567"><ele>627.0</ele><time>2026-04-19T12:03:49.854Z</time></trkpt><trkpt lat="41.944365" lon="13.0381767"><ele>627.0</ele><time>2026-04-19T12:03:50.831Z</time></trkpt><trkpt lat="41.94429" lon="13.0381967"><ele>627.0</ele><time>2026-04-19T12:03:51.83Z</time></trkpt><trkpt lat="41.9442083" lon="13.038215"><ele>627.0</ele><time>2026-04-19T12:03:52.83Z</time></trkpt><trkpt lat="41.9441183" lon="13.03823"><ele>627.0</ele><time>2026-04-19T12:03:53.833Z</time></trkpt><trkpt lat="41.9440267" lon="13.038235"><ele>627.0</ele><time>2026-04-19T12:03:54.826Z</time></trkpt><trkpt lat="41.9439383" lon="13.03823"><ele>626.1666666666666</ele><time>2026-04-19T12:03:55.892Z</time></trkpt><trkpt lat="41.9438567" lon="13.0382233"><ele>625.3333333333334</ele><time>2026-04-19T12:03:56.828Z</time></trkpt><trkpt lat="41.943785" lon="13.0382133"><ele>624.5</ele><time>2026-04-19T12:03:57.839Z</time></trkpt><trkpt lat="41.9437217" lon="13.0381983"><ele>623.6666666666667</ele><time>2026-04-19T12:03:58.844Z</time></trkpt><trkpt lat="41.94362" lon="13.0381767"><ele>622.8333333333334</ele><time>2026-04-19T12:04:00.837Z</time></trkpt><trkpt lat="41.943665" lon="13.0382633"><ele>622.0</ele><time>2026-04-19T12:04:05.833Z</time></trkpt><trkpt lat="41.9437167" lon="13.038335"><ele>614.0</ele><time>2026-04-19T12:04:06.829Z</time></trkpt><trkpt lat="41.94378" lon="13.038575"><ele>606.0</ele><time>2026-04-19T12:04:08.833Z</time></trkpt><trkpt lat="41.9438117" lon="13.0386933"><ele>598.0</ele><time>2026-04-19T12:04:09.831Z</time></trkpt><trkpt lat="41.9438683" lon="13.0387933"><ele>590.0</ele><time>2026-04-19T12:04:10.829Z</time></trkpt><trkpt lat="41.9439367" lon="13.0388817"><ele>590.0</ele><time>2026-04-19T12:04:11.83Z</time></trkpt><trkpt lat="41.9439967" lon="13.0389583"><ele>590.0</ele><time>2026-04-19T12:04:12.834Z</time></trkpt><trkpt lat="41.9440417" lon="13.0390267"><ele>590.0</ele><time>2026-04-19T12:04:13.87Z</time></trkpt><trkpt lat="41.9440817" lon="13.039095"><ele>590.0</ele><time>2026-04-19T12:04:14.834Z</time></trkpt><trkpt lat="41.9441267" lon="13.039165"><ele>590.0</ele><time>2026-04-19T12:04:15.832Z</time></trkpt><trkpt lat="41.9441817" lon="13.0392383"><ele>590.0</ele><time>2026-04-19T12:04:16.832Z</time></trkpt><trkpt lat="41.9442583" lon="13.0393133"><ele>587.4</ele><time>2026-04-19T12:04:17.829Z</time></trkpt><trkpt lat="41.9443483" lon="13.0393983"><ele>584.8</ele><time>2026-04-19T12:04:18.832Z</time></trkpt><trkpt lat="41.9444417" lon="13.03948"><ele>582.2</ele><time>2026-04-19T12:04:19.866Z</time></trkpt><trkpt lat="41.9445267" lon="13.0395533"><ele>579.6</ele><time>2026-04-19T12:04:20.831Z</time></trkpt><trkpt lat="41.9446083" lon="13.0396267"><ele>577.0</ele><time>2026-04-19T12:04:21.833Z</time></trkpt><trkpt lat="41.944695" lon="13.0396983"><ele>577.0</ele><time>2026-04-19T12:04:22.83Z</time></trkpt><trkpt lat="41.9447817" lon="13.0397683"><ele>577.0</ele><time>2026-04-19T12:04:23.83Z</time></trkpt><trkpt lat="41.944865" lon="13.0398367"><ele>577.0</ele><time>2026-04-19T12:04:24.839Z</time></trkpt><trkpt lat="41.94495" lon="13.0399033"><ele>577.0</ele><time>2026-04-19T12:04:25.892Z</time></trkpt><trkpt lat="41.9450283" lon="13.0399483"><ele>577.0</ele><time>2026-04-19T12:04:26.833Z</time></trkpt><trkpt lat="41.9451083" lon="13.0399967"><ele>575.25</ele><time>2026-04-19T12:04:27.843Z</time></trkpt><trkpt lat="41.945305" lon="13.0400283"><ele>573.5</ele><time>2026-04-19T12:04:29.829Z</time></trkpt><trkpt lat="41.9454117" lon="13.0400117"><ele>571.75</ele><time>2026-04-19T12:04:30.828Z</time></trkpt><trkpt lat="41.9455267" lon="13.0399783"><ele>570.0</ele><time>2026-04-19T12:04:31.894Z</time></trkpt><trkpt lat="41.9456433" lon="13.0399367"><ele>570.0</ele><time>2026-04-19T12:04:32.827Z</time></trkpt><trkpt lat="41.9457567" lon="13.039905"><ele>570.0</ele><time>2026-04-19T12:04:33.829Z</time></trkpt><trkpt lat="41.94587" lon="13.0399"><ele>570.0</ele><time>2026-04-19T12:04:34.83Z</time></trkpt><trkpt lat="41.9459767" lon="13.0399167"><ele>570.0</ele><time>2026-04-19T12:04:35.837Z</time></trkpt><trkpt lat="41.9460817" lon="13.0399417"><ele>570.0</ele><time>2026-04-19T12:04:36.83Z</time></trkpt><trkpt lat="41.9461933" lon="13.0399633"><ele>563.0</ele><time>2026-04-19T12:04:37.868Z</time></trkpt><trkpt lat="41.9463183" lon="13.0399783"><ele>556.0</ele><time>2026-04-19T12:04:38.837Z</time></trkpt><trkpt lat="41.94645" lon="13.0399867"><ele>549.0</ele><time>2026-04-19T12:04:39.827Z</time></trkpt><trkpt lat="41.9465767" lon="13.0399867"><ele>542.0</ele><time>2026-04-19T12:04:40.829Z</time></trkpt><trkpt lat="41.9466967" lon="13.0399933"><ele>543.2</ele><time>2026-04-19T12:04:41.825Z</time></trkpt><trkpt lat="41.94681" lon="13.0400133"><ele>544.4000000000001</ele><time>2026-04-19T12:04:42.834Z</time></trkpt><trkpt lat="41.9469133" lon="13.0400583"><ele>545.5999999999999</ele><time>2026-04-19T12:04:43.866Z</time></trkpt><trkpt lat="41.9470017" lon="13.0401367"><ele>546.8</ele><time>2026-04-19T12:04:44.829Z</time></trkpt><trkpt lat="41.9470717" lon="13.040235"><ele>548.0</ele><time>2026-04-19T12:04:45.839Z</time></trkpt><trkpt lat="41.9471317" lon="13.0403383"><ele>548.0</ele><time>2026-04-19T12:04:46.83Z</time></trkpt><trkpt lat="41.9471967" lon="13.0404383"><ele>548.0</ele><time>2026-04-19T12:04:47.831Z</time></trkpt><trkpt lat="41.9472733" lon="13.0405283"><ele>548.0</ele><time>2026-04-19T12:04:48.827Z</time></trkpt><trkpt lat="41.9474483" lon="13.0406733"><ele>548.0</ele><time>2026-04-19T12:04:50.831Z</time></trkpt><trkpt lat="41.94755" lon="13.04069"><ele>545.75</ele><time>2026-04-19T12:04:51.828Z</time></trkpt><trkpt lat="41.9476533" lon="13.04067"><ele>543.5</ele><time>2026-04-19T12:04:52.832Z</time></trkpt><trkpt lat="41.9477733" lon="13.0406367"><ele>541.25</ele><time>2026-04-19T12:04:53.834Z</time></trkpt><trkpt lat="41.9478983" lon="13.0406083"><ele>539.0</ele><time>2026-04-19T12:04:54.825Z</time></trkpt><trkpt lat="41.9480233" lon="13.040595"><ele>539.0</ele><time>2026-04-19T12:04:55.901Z</time></trkpt><trkpt lat="41.948145" lon="13.0405817"><ele>539.0</ele><time>2026-04-19T12:04:56.837Z</time></trkpt><trkpt lat="41.9482633" lon="13.040565"><ele>539.0</ele><time>2026-04-19T12:04:57.833Z</time></trkpt><trkpt lat="41.9483617" lon="13.0405467"><ele>539.0</ele><time>2026-04-19T12:04:58.838Z</time></trkpt><trkpt lat="41.9484467" lon="13.0405317"><ele>539.0</ele><time>2026-04-19T12:04:59.831Z</time></trkpt><trkpt lat="41.9485183" lon="13.0405267"><ele>538.5</ele><time>2026-04-19T12:05:00.838Z</time></trkpt><trkpt lat="41.9486167" lon="13.0405817"><ele>538.0</ele><time>2026-04-19T12:05:02.832Z</time></trkpt><trkpt lat="41.94867" lon="13.040755"><ele>537.5</ele><time>2026-04-19T12:05:04.835Z</time></trkpt><trkpt lat="41.9486983" lon="13.0408933"><ele>537.0</ele><time>2026-04-19T12:05:05.834Z</time></trkpt><trkpt lat="41.9487233" lon="13.0410467"><ele>537.0</ele><time>2026-04-19T12:05:06.834Z</time></trkpt><trkpt lat="41.9487367" lon="13.0412067"><ele>537.0</ele><time>2026-04-19T12:05:07.865Z</time></trkpt><trkpt lat="41.9487467" lon="13.0413633"><ele>537.0</ele><time>2026-04-19T12:05:08.834Z</time></trkpt><trkpt lat="41.9487567" lon="13.0415267"><ele>537.0</ele><time>2026-04-19T12:05:09.829Z</time></trkpt><trkpt lat="41.9488017" lon="13.04182"><ele>534.8000000000001</ele><time>2026-04-19T12:05:11.831Z</time></trkpt><trkpt lat="41.9488583" lon="13.0419483"><ele>532.6</ele><time>2026-04-19T12:05:12.834Z</time></trkpt><trkpt lat="41.948915" lon="13.0420683"><ele>530.4000000000001</ele><time>2026-04-19T12:05:13.861Z</time></trkpt><trkpt lat="41.9489583" lon="13.0421767"><ele>528.2</ele><time>2026-04-19T12:05:14.832Z</time></trkpt><trkpt lat="41.948975" lon="13.0422783"><ele>526.0</ele><time>2026-04-19T12:05:15.836Z</time></trkpt><trkpt lat="41.948975" lon="13.0423833"><ele>524.4</ele><time>2026-04-19T12:05:16.834Z</time></trkpt><trkpt lat="41.94897" lon="13.0425017"><ele>522.8</ele><time>2026-04-19T12:05:17.835Z</time></trkpt><trkpt lat="41.9489683" lon="13.042625"><ele>521.1999999999999</ele><time>2026-04-19T12:05:18.835Z</time></trkpt><trkpt lat="41.9489817" lon="13.0427483"><ele>519.6</ele><time>2026-04-19T12:05:19.863Z</time></trkpt><trkpt lat="41.9490133" lon="13.0428667"><ele>518.0</ele><time>2026-04-19T12:05:20.838Z</time></trkpt><trkpt lat="41.94907" lon="13.04298"><ele>518.0</ele><time>2026-04-19T12:05:21.841Z</time></trkpt><trkpt lat="41.9491383" lon="13.0430967"><ele>518.0</ele><time>2026-04-19T12:05:22.835Z</time></trkpt><trkpt lat="41.9492" lon="13.043215"><ele>518.0</ele><time>2026-04-19T12:05:23.832Z</time></trkpt><trkpt lat="41.9492533" lon="13.04333"><ele>518.0</ele><time>2026-04-19T12:05:24.832Z</time></trkpt><trkpt lat="41.9492933" lon="13.0434383"><ele>518.0</ele><time>2026-04-19T12:05:25.885Z</time></trkpt><trkpt lat="41.94932" lon="13.0435517"><ele>512.4</ele><time>2026-04-19T12:05:26.829Z</time></trkpt><trkpt lat="41.949335" lon="13.04367"><ele>506.79999999999995</ele><time>2026-04-19T12:05:27.828Z</time></trkpt><trkpt lat="41.9493383" lon="13.0437917"><ele>501.2</ele><time>2026-04-19T12:05:28.825Z</time></trkpt><trkpt lat="41.9493367" lon="13.0439233"><ele>495.6</ele><time>2026-04-19T12:05:29.824Z</time></trkpt><trkpt lat="41.9493417" lon="13.0440683"><ele>490.0</ele><time>2026-04-19T12:05:30.83Z</time></trkpt><trkpt lat="41.94937" lon="13.0443483"><ele>487.6666666666667</ele><time>2026-04-19T12:05:32.828Z</time></trkpt><trkpt lat="41.9493817" lon="13.0444617"><ele>485.33333333333337</ele><time>2026-04-19T12:05:33.836Z</time></trkpt><trkpt lat="41.9493933" lon="13.0445517"><ele>483.0</ele><time>2026-04-19T12:05:34.835Z</time></trkpt><trkpt lat="41.949425" lon="13.04466"><ele>480.66666666666663</ele><time>2026-04-19T12:05:36.827Z</time></trkpt><trkpt lat="41.9494967" lon="13.0447167"><ele>478.3333333333333</ele><time>2026-04-19T12:05:46.832Z</time></trkpt><trkpt lat="41.9495817" lon="13.04474"><ele>476.0</ele><time>2026-04-19T12:05:48.835Z</time></trkpt><trkpt lat="41.949665" lon="13.0447467"><ele>476.0</ele><time>2026-04-19T12:05:49.864Z</time></trkpt><trkpt lat="41.94976" lon="13.0447567"><ele>476.0</ele><time>2026-04-19T12:05:50.826Z</time></trkpt><trkpt lat="41.9498617" lon="13.0447633"><ele>476.0</ele><time>2026-04-19T12:05:51.828Z</time></trkpt><trkpt lat="41.9500433" lon="13.044795"><ele>476.0</ele><time>2026-04-19T12:05:53.832Z</time></trkpt><trkpt lat="41.9501117" lon="13.0448133"><ele>474.49999999999994</ele><time>2026-04-19T12:05:54.828Z</time></trkpt><trkpt lat="41.95017" lon="13.0448683"><ele>473.0</ele><time>2026-04-19T12:05:56.832Z</time></trkpt><trkpt lat="41.9502083" lon="13.0449683"><ele>471.5</ele><time>2026-04-19T12:06:00.83Z</time></trkpt><trkpt lat="41.95024" lon="13.0450483"><ele>470.0</ele><time>2026-04-19T12:06:03.838Z</time></trkpt><trkpt lat="41.9502967" lon="13.04514"><ele>468.49999999999994</ele><time>2026-04-19T12:06:06.837Z</time></trkpt><trkpt lat="41.9503683" lon="13.0452417"><ele>467.0</ele><time>2026-04-19T12:06:08.829Z</time></trkpt><trkpt lat="41.9504483" lon="13.045355"><ele>467.0</ele><time>2026-04-19T12:06:10.835Z</time></trkpt><trkpt lat="41.9505367" lon="13.045465"><ele>467.0</ele><time>2026-04-19T12:06:12.829Z</time></trkpt><trkpt lat="41.9506933" lon="13.0456417"><ele>467.0</ele><time>2026-04-19T12:06:16.828Z</time></trkpt><trkpt lat="41.9507917" lon="13.0457583"><ele>464.99999999999994</ele><time>2026-04-19T12:06:18.831Z</time></trkpt><trkpt lat="41.9508383" lon="13.0458217"><ele>463.0</ele><time>2026-04-19T12:06:19.863Z</time></trkpt><trkpt lat="41.9508833" lon="13.0458917"><ele>461.0</ele><time>2026-04-19T12:06:20.832Z</time></trkpt><trkpt lat="41.9509233" lon="13.0459783"><ele>459.0</ele><time>2026-04-19T12:06:21.836Z</time></trkpt><trkpt lat="41.9509667" lon="13.0460583"><ele>456.99999999999994</ele><time>2026-04-19T12:06:22.824Z</time></trkpt><trkpt lat="41.9510433" lon="13.0461517"><ele>455.0</ele><time>2026-04-19T12:06:24.827Z</time></trkpt><trkpt lat="41.9511267" lon="13.0461717"><ele>450.4</ele><time>2026-04-19T12:06:27.834Z</time></trkpt><trkpt lat="41.951175" lon="13.0462367"><ele>445.8</ele><time>2026-04-19T12:06:31.879Z</time></trkpt><trkpt lat="41.9511333" lon="13.0463533"><ele>441.20000000000005</ele><time>2026-04-19T12:06:34.828Z</time></trkpt><trkpt lat="41.9511033" lon="13.046535"><ele>436.6</ele><time>2026-04-19T12:06:39.84Z</time></trkpt><trkpt lat="41.9511567" lon="13.0466283"><ele>432.0</ele><time>2026-04-19T12:07:15.837Z</time></trkpt><trkpt lat="41.9511633" lon="13.0470483"><ele>429.1666666666667</ele><time>2026-04-19T12:07:58.832Z</time></trkpt><trkpt lat="41.9511617" lon="13.0471333"><ele>426.33333333333337</ele><time>2026-04-19T12:08:06.834Z</time></trkpt><trkpt lat="41.951175" lon="13.04726"><ele>423.5</ele><time>2026-04-19T12:08:09.835Z</time></trkpt><trkpt lat="41.9511917" lon="13.047375"><ele>420.6666666666667</ele><time>2026-04-19T12:08:11.832Z</time></trkpt><trkpt lat="41.9512233" lon="13.0474933"><ele>417.83333333333337</ele><time>2026-04-19T12:08:13.868Z</time></trkpt><trkpt lat="41.9512483" lon="13.0476133"><ele>415.0</ele><time>2026-04-19T12:08:15.84Z</time></trkpt><trkpt lat="41.9512367" lon="13.0478733"><ele>412.6666666666667</ele><time>2026-04-19T12:08:19.87Z</time></trkpt><trkpt lat="41.9512517" lon="13.0479567"><ele>410.33333333333337</ele><time>2026-04-19T12:08:21.831Z</time></trkpt><trkpt lat="41.951325" lon="13.0478933"><ele>408.0</ele><time>2026-04-19T12:08:25.882Z</time></trkpt><trkpt lat="41.9513617" lon="13.0477767"><ele>405.66666666666663</ele><time>2026-04-19T12:08:27.83Z</time></trkpt><trkpt lat="41.95142" lon="13.0476533"><ele>403.3333333333333</ele><time>2026-04-19T12:08:29.839Z</time></trkpt><trkpt lat="41.9514783" lon="13.04759"><ele>401.0</ele><time>2026-04-19T12:08:31.888Z</time></trkpt><trkpt lat="41.95154" lon="13.0475133"><ele>399.8</ele><time>2026-04-19T12:08:34.829Z</time></trkpt><trkpt lat="41.9515733" lon="13.0474333"><ele>398.6</ele><time>2026-04-19T12:08:36.83Z</time></trkpt><trkpt lat="41.9516683" lon="13.04723"><ele>397.4</ele><time>2026-04-19T12:08:40.826Z</time></trkpt><trkpt lat="41.9517117" lon="13.04715"><ele>396.2</ele><time>2026-04-19T12:08:42.83Z</time></trkpt><trkpt lat="41.9517567" lon="13.0470833"><ele>395.0</ele><time>2026-04-19T12:08:44.829Z</time></trkpt><trkpt lat="41.95178" lon="13.0469933"><ele>395.0</ele><time>2026-04-19T12:08:46.828Z</time></trkpt><trkpt lat="41.951835" lon="13.0469017"><ele>395.0</ele><time>2026-04-19T12:08:48.833Z</time></trkpt><trkpt lat="41.9518967" lon="13.0468133"><ele>395.0</ele><time>2026-04-19T12:08:51.832Z</time></trkpt><trkpt lat="41.9519583" lon="13.0467183"><ele>395.0</ele><time>2026-04-19T12:08:54.83Z</time></trkpt><trkpt lat="41.951995" lon="13.046815"><ele>395.0</ele><time>2026-04-19T12:08:59.828Z</time></trkpt><trkpt lat="41.9519933" lon="13.0470667"><ele>395.0</ele><time>2026-04-19T12:09:05.829Z</time></trkpt><trkpt lat="41.9519733" lon="13.047175"><ele>395.0</ele><time>2026-04-19T12:09:07.866Z</time></trkpt><trkpt lat="41.9519533" lon="13.04728"><ele>395.0</ele><time>2026-04-19T12:09:09.838Z</time></trkpt><trkpt lat="41.951945" lon="13.0473733"><ele>395.0</ele><time>2026-04-19T12:09:11.83Z</time></trkpt><trkpt lat="41.951925" lon="13.0474567"><ele>395.0</ele><time>2026-04-19T12:09:13.865Z</time></trkpt><trkpt lat="41.9519067" lon="13.0475533"><ele>395.0</ele><time>2026-04-19T12:09:15.829Z</time></trkpt><trkpt lat="41.9519" lon="13.047645"><ele>395.0</ele><time>2026-04-19T12:09:17.834Z</time></trkpt><trkpt lat="41.9519133" lon="13.0477633"><ele>392.8</ele><time>2026-04-19T12:09:20.831Z</time></trkpt><trkpt lat="41.9518967" lon="13.0479833"><ele>390.6</ele><time>2026-04-19T12:09:24.832Z</time></trkpt><trkpt lat="41.9518983" lon="13.0481033"><ele>388.4</ele><time>2026-04-19T12:09:26.83Z</time></trkpt><trkpt lat="41.9519133" lon="13.0482267"><ele>386.2</ele><time>2026-04-19T12:09:28.834Z</time></trkpt><trkpt lat="41.9519233" lon="13.0483433"><ele>384.0</ele><time>2026-04-19T12:09:30.831Z</time></trkpt><trkpt lat="41.951905" lon="13.0484433"><ele>379.6</ele><time>2026-04-19T12:09:32.827Z</time></trkpt><trkpt lat="41.9519583" lon="13.0484917"><ele>375.2</ele><time>2026-04-19T12:09:35.833Z</time></trkpt><trkpt lat="41.952025" lon="13.0484583"><ele>370.8</ele><time>2026-04-19T12:10:41.846Z</time></trkpt><trkpt lat="41.9521817" lon="13.048355"><ele>366.40000000000003</ele><time>2026-04-19T12:10:44.834Z</time></trkpt><trkpt lat="41.95225" lon="13.0483417"><ele>362.0</ele><time>2026-04-19T12:10:45.833Z</time></trkpt><trkpt lat="41.9523267" lon="13.04835"><ele>362.0</ele><time>2026-04-19T12:10:46.831Z</time></trkpt><trkpt lat="41.95242" lon="13.0483933"><ele>362.0</ele><time>2026-04-19T12:10:47.826Z</time></trkpt><trkpt lat="41.9525167" lon="13.048455"><ele>362.0</ele><time>2026-04-19T12:10:48.836Z</time></trkpt><trkpt lat="41.952615" lon="13.0485167"><ele>362.0</ele><time>2026-04-19T12:10:49.866Z</time></trkpt><trkpt lat="41.9527167" lon="13.048585"><ele>362.0</ele><time>2026-04-19T12:10:50.836Z</time></trkpt><trkpt lat="41.952815" lon="13.0486517"><ele>364.5</ele><time>2026-04-19T12:10:51.833Z</time></trkpt><trkpt lat="41.9529183" lon="13.048715"><ele>367.0</ele><time>2026-04-19T12:10:52.831Z</time></trkpt><trkpt lat="41.95303" lon="13.0487817"><ele>369.5</ele><time>2026-04-19T12:10:53.834Z</time></trkpt><trkpt lat="41.953145" lon="13.0488483"><ele>372.0</ele><time>2026-04-19T12:10:54.828Z</time></trkpt><trkpt lat="41.9532683" lon="13.0489233"><ele>374.25</ele><time>2026-04-19T12:10:55.84Z</time></trkpt><trkpt lat="41.953395" lon="13.0489967"><ele>376.5</ele><time>2026-04-19T12:10:56.829Z</time></trkpt><trkpt lat="41.95352" lon="13.04907"><ele>378.75</ele><time>2026-04-19T12:10:57.836Z</time></trkpt><trkpt lat="41.95365" lon="13.0491317"><ele>381.0</ele><time>2026-04-19T12:10:58.837Z</time></trkpt><trkpt lat="41.9537883" lon="13.04919"><ele>372.6666666666667</ele><time>2026-04-19T12:10:59.837Z</time></trkpt><trkpt lat="41.95393" lon="13.0492567"><ele>364.33333333333337</ele><time>2026-04-19T12:11:00.83Z</time></trkpt><trkpt lat="41.9540717" lon="13.0493367"><ele>356.0</ele><time>2026-04-19T12:11:01.881Z</time></trkpt><trkpt lat="41.9542017" lon="13.0494267"><ele>353.6666666666667</ele><time>2026-04-19T12:11:02.836Z</time></trkpt><trkpt lat="41.9544267" lon="13.049615"><ele>351.3333333333333</ele><time>2026-04-19T12:11:04.831Z</time></trkpt><trkpt lat="41.9545067" lon="13.0497283"><ele>349.0</ele><time>2026-04-19T12:11:05.828Z</time></trkpt><trkpt lat="41.95458" lon="13.0498433"><ele>347.75</ele><time>2026-04-19T12:11:06.827Z</time></trkpt><trkpt lat="41.9546483" lon="13.0499717"><ele>346.5</ele><time>2026-04-19T12:11:07.864Z</time></trkpt><trkpt lat="41.9547033" lon="13.0501133"><ele>345.25</ele><time>2026-04-19T12:11:08.829Z</time></trkpt><trkpt lat="41.954745" lon="13.0502517"><ele>344.0</ele><time>2026-04-19T12:11:09.832Z</time></trkpt><trkpt lat="41.9547733" lon="13.0503917"><ele>344.0</ele><time>2026-04-19T12:11:10.832Z</time></trkpt><trkpt lat="41.9547917" lon="13.0505333"><ele>344.0</ele><time>2026-04-19T12:11:11.834Z</time></trkpt><trkpt lat="41.954795" lon="13.0506783"><ele>344.0</ele><time>2026-04-19T12:11:12.826Z</time></trkpt><trkpt lat="41.9547917" lon="13.0508183"><ele>344.0</ele><time>2026-04-19T12:11:13.864Z</time></trkpt><trkpt lat="41.9547817" lon="13.0509517"><ele>344.0</ele><time>2026-04-19T12:11:14.833Z</time></trkpt><trkpt lat="41.9547733" lon="13.05107"><ele>343.6</ele><time>2026-04-19T12:11:15.826Z</time></trkpt><trkpt lat="41.95477" lon="13.05117"><ele>343.2</ele><time>2026-04-19T12:11:16.838Z</time></trkpt><trkpt lat="41.9548" lon="13.0513183"><ele>342.8</ele><time>2026-04-19T12:11:18.837Z</time></trkpt><trkpt lat="41.9548433" lon="13.05142"><ele>342.40000000000003</ele><time>2026-04-19T12:11:20.833Z</time></trkpt><trkpt lat="41.9549167" lon="13.0514983"><ele>342.0</ele><time>2026-04-19T12:11:22.835Z</time></trkpt><trkpt lat="41.9550383" lon="13.05154"><ele>341.8</ele><time>2026-04-19T12:11:24.833Z</time></trkpt><trkpt lat="41.9551917" lon="13.0515583"><ele>341.6</ele><time>2026-04-19T12:11:26.831Z</time></trkpt><trkpt lat="41.9552667" lon="13.051565"><ele>341.40000000000003</ele><time>2026-04-19T12:11:27.838Z</time></trkpt><trkpt lat="41.955345" lon="13.05158"><ele>341.20000000000005</ele><time>2026-04-19T12:11:28.836Z</time></trkpt><trkpt lat="41.955425" lon="13.0516067"><ele>341.0</ele><time>2026-04-19T12:11:29.832Z</time></trkpt><trkpt lat="41.95551" lon="13.0516417"><ele>341.0</ele><time>2026-04-19T12:11:30.833Z</time></trkpt><trkpt lat="41.955605" lon="13.0516917"><ele>341.0</ele><time>2026-04-19T12:11:31.888Z</time></trkpt><trkpt lat="41.9557017" lon="13.05174"><ele>341.0</ele><time>2026-04-19T12:11:32.831Z</time></trkpt><trkpt lat="41.9558033" lon="13.051775"><ele>341.0</ele><time>2026-04-19T12:11:33.832Z</time></trkpt><trkpt lat="41.9559083" lon="13.0517917"><ele>341.0</ele><time>2026-04-19T12:11:34.838Z</time></trkpt><trkpt lat="41.9560183" lon="13.0517867"><ele>341.0</ele><time>2026-04-19T12:11:35.83Z</time></trkpt><trkpt lat="41.9561283" lon="13.0517717"><ele>341.0</ele><time>2026-04-19T12:11:36.832Z</time></trkpt><trkpt lat="41.9562367" lon="13.0517483"><ele>341.0</ele><time>2026-04-19T12:11:37.868Z</time></trkpt><trkpt lat="41.9563383" lon="13.0517117"><ele>341.0</ele><time>2026-04-19T12:11:38.836Z</time></trkpt><trkpt lat="41.9564317" lon="13.0516617"><ele>341.0</ele><time>2026-04-19T12:11:39.841Z</time></trkpt><trkpt lat="41.9565233" lon="13.0515917"><ele>340.75</ele><time>2026-04-19T12:11:40.837Z</time></trkpt><trkpt lat="41.9566117" lon="13.0515"><ele>340.5</ele><time>2026-04-19T12:11:41.831Z</time></trkpt><trkpt lat="41.956695" lon="13.0513833"><ele>340.25</ele><time>2026-04-19T12:11:42.842Z</time></trkpt><trkpt lat="41.9567617" lon="13.0512517"><ele>340.0</ele><time>2026-04-19T12:11:43.862Z</time></trkpt><trkpt lat="41.9568233" lon="13.0511183"><ele>340.0</ele><time>2026-04-19T12:11:44.832Z</time></trkpt><trkpt lat="41.9568867" lon="13.0509867"><ele>340.0</ele><time>2026-04-19T12:11:45.832Z</time></trkpt><trkpt lat="41.9570117" lon="13.0507383"><ele>340.0</ele><time>2026-04-19T12:11:47.834Z</time></trkpt><trkpt lat="41.9570783" lon="13.0506183"><ele>340.0</ele><time>2026-04-19T12:11:48.831Z</time></trkpt><trkpt lat="41.95715" lon="13.0505"><ele>340.0</ele><time>2026-04-19T12:11:49.864Z</time></trkpt><trkpt lat="41.957225" lon="13.050385"><ele>340.0</ele><time>2026-04-19T12:11:50.833Z</time></trkpt><trkpt lat="41.9573017" lon="13.0502667"><ele>340.0</ele><time>2026-04-19T12:11:51.83Z</time></trkpt><trkpt lat="41.957375" lon="13.0501367"><ele>340.0</ele><time>2026-04-19T12:11:52.834Z</time></trkpt><trkpt lat="41.9574383" lon="13.0500017"><ele>340.0</ele><time>2026-04-19T12:11:53.833Z</time></trkpt><trkpt lat="41.9575" lon="13.049865"><ele>340.0</ele><time>2026-04-19T12:11:54.836Z</time></trkpt><trkpt lat="41.95756" lon="13.0497267"><ele>340.0</ele><time>2026-04-19T12:11:55.896Z</time></trkpt><trkpt lat="41.957615" lon="13.049595"><ele>340.0</ele><time>2026-04-19T12:11:56.832Z</time></trkpt><trkpt lat="41.957675" lon="13.0494683"><ele>340.0</ele><time>2026-04-19T12:11:57.837Z</time></trkpt><trkpt lat="41.9577417" lon="13.049335"><ele>340.0</ele><time>2026-04-19T12:11:58.834Z</time></trkpt><trkpt lat="41.9578167" lon="13.0492"><ele>340.0</ele><time>2026-04-19T12:11:59.827Z</time></trkpt><trkpt lat="41.9578967" lon="13.049065"><ele>339.75</ele><time>2026-04-19T12:12:00.838Z</time></trkpt><trkpt lat="41.9579717" lon="13.048935"><ele>339.5</ele><time>2026-04-19T12:12:01.885Z</time></trkpt><trkpt lat="41.9580417" lon="13.0488067"><ele>339.25</ele><time>2026-04-19T12:12:02.837Z</time></trkpt><trkpt lat="41.9581067" lon="13.0486733"><ele>339.0</ele><time>2026-04-19T12:12:03.829Z</time></trkpt><trkpt lat="41.9581717" lon="13.048535"><ele>339.0</ele><time>2026-04-19T12:12:04.836Z</time></trkpt><trkpt lat="41.9582333" lon="13.0483983"><ele>339.0</ele><time>2026-04-19T12:12:05.833Z</time></trkpt><trkpt lat="41.9582933" lon="13.0482667"><ele>339.0</ele><time>2026-04-19T12:12:06.833Z</time></trkpt><trkpt lat="41.95839" lon="13.0479817"><ele>339.5</ele><time>2026-04-19T12:12:08.837Z</time></trkpt><trkpt lat="41.95844" lon="13.0478467"><ele>340.0</ele><time>2026-04-19T12:12:09.833Z</time></trkpt><trkpt lat="41.9585" lon="13.047715"><ele>340.5</ele><time>2026-04-19T12:12:10.832Z</time></trkpt><trkpt lat="41.9585633" lon="13.047585"><ele>341.0</ele><time>2026-04-19T12:12:11.84Z</time></trkpt><trkpt lat="41.9586267" lon="13.047465"><ele>340.8</ele><time>2026-04-19T12:12:12.827Z</time></trkpt><trkpt lat="41.95869" lon="13.0473483"><ele>340.6</ele><time>2026-04-19T12:12:13.865Z</time></trkpt><trkpt lat="41.9587467" lon="13.0472267"><ele>340.4</ele><time>2026-04-19T12:12:14.832Z</time></trkpt><trkpt lat="41.9588033" lon="13.0471033"><ele>340.2</ele><time>2026-04-19T12:12:15.837Z</time></trkpt><trkpt lat="41.9588683" lon="13.0469933"><ele>340.0</ele><time>2026-04-19T12:12:16.836Z</time></trkpt><trkpt lat="41.9589367" lon="13.0468867"><ele>340.0</ele><time>2026-04-19T12:12:17.832Z</time></trkpt><trkpt lat="41.9590017" lon="13.0467767"><ele>340.0</ele><time>2026-04-19T12:12:18.828Z</time></trkpt><trkpt lat="41.9590667" lon="13.0466583"><ele>340.0</ele><time>2026-04-19T12:12:19.864Z</time></trkpt><trkpt lat="41.9591333" lon="13.046545"><ele>340.0</ele><time>2026-04-19T12:12:20.833Z</time></trkpt><trkpt lat="41.9592033" lon="13.0464433"><ele>340.0</ele><time>2026-04-19T12:12:21.829Z</time></trkpt><trkpt lat="41.9592617" lon="13.04636"><ele>340.5</ele><time>2026-04-19T12:12:22.829Z</time></trkpt><trkpt lat="41.9593083" lon="13.0462883"><ele>341.0</ele><time>2026-04-19T12:12:23.828Z</time></trkpt><trkpt lat="41.9593483" lon="13.0462217"><ele>341.5</ele><time>2026-04-19T12:12:25.899Z</time></trkpt><trkpt lat="41.95941" lon="13.046295"><ele>342.0</ele><time>2026-04-19T12:12:29.832Z</time></trkpt><trkpt lat="41.9595233" lon="13.04644"><ele>342.5</ele><time>2026-04-19T12:12:34.836Z</time></trkpt><trkpt lat="41.9595767" lon="13.0463717"><ele>343.0</ele><time>2026-04-19T12:12:44.838Z</time></trkpt><trkpt lat="41.9596667" lon="13.0462683"><ele>343.0</ele><time>2026-04-19T12:12:46.831Z</time></trkpt><trkpt lat="41.9597183" lon="13.0462067"><ele>343.0</ele><time>2026-04-19T12:12:47.829Z</time></trkpt><trkpt lat="41.95977" lon="13.0461367"><ele>343.0</ele><time>2026-04-19T12:12:48.83Z</time></trkpt><trkpt lat="41.95983" lon="13.0460617"><ele>343.0</ele><time>2026-04-19T12:12:49.866Z</time></trkpt><trkpt lat="41.95989" lon="13.04598"><ele>343.0</ele><time>2026-04-19T12:12:50.833Z</time></trkpt><trkpt lat="41.960015" lon="13.0458117"><ele>342.5</ele><time>2026-04-19T12:12:52.844Z</time></trkpt><trkpt lat="41.9600767" lon="13.0457367"><ele>342.0</ele><time>2026-04-19T12:12:53.835Z</time></trkpt><trkpt lat="41.96013" lon="13.0456733"><ele>341.5</ele><time>2026-04-19T12:12:54.836Z</time></trkpt><trkpt lat="41.9601817" lon="13.0456083"><ele>341.0</ele><time>2026-04-19T12:12:55.897Z</time></trkpt><trkpt lat="41.96024" lon="13.045535"><ele>340.5</ele><time>2026-04-19T12:12:56.831Z</time></trkpt><trkpt lat="41.96031" lon="13.0454467"><ele>340.0</ele><time>2026-04-19T12:12:57.831Z</time></trkpt><trkpt lat="41.9603917" lon="13.04535"><ele>340.0</ele><time>2026-04-19T12:12:58.828Z</time></trkpt><trkpt lat="41.9604933" lon="13.0452483"><ele>340.0</ele><time>2026-04-19T12:12:59.836Z</time></trkpt><trkpt lat="41.9606033" lon="13.0451483"><ele>340.0</ele><time>2026-04-19T12:13:00.836Z</time></trkpt><trkpt lat="41.9607067" lon="13.0450583"><ele>340.0</ele><time>2026-04-19T12:13:01.887Z</time></trkpt><trkpt lat="41.9607983" lon="13.044965"><ele>344.0</ele><time>2026-04-19T12:13:02.836Z</time></trkpt><trkpt lat="41.9608933" lon="13.044875"><ele>348.0</ele><time>2026-04-19T12:13:03.833Z</time></trkpt><trkpt lat="41.961" lon="13.0447983"><ele>352.0</ele><time>2026-04-19T12:13:04.833Z</time></trkpt><trkpt lat="41.9611133" lon="13.0447267"><ele>356.0</ele><time>2026-04-19T12:13:05.835Z</time></trkpt><trkpt lat="41.96123" lon="13.0446633"><ele>356.0</ele><time>2026-04-19T12:13:06.827Z</time></trkpt><trkpt lat="41.96134" lon="13.0446167"><ele>356.0</ele><time>2026-04-19T12:13:07.87Z</time></trkpt><trkpt lat="41.9614433" lon="13.0446017"><ele>356.0</ele><time>2026-04-19T12:13:08.837Z</time></trkpt><trkpt lat="41.9615433" lon="13.044615"><ele>356.0</ele><time>2026-04-19T12:13:09.831Z</time></trkpt><trkpt lat="41.9616417" lon="13.0446533"><ele>356.0</ele><time>2026-04-19T12:13:10.835Z</time></trkpt><trkpt lat="41.9617367" lon="13.044715"><ele>354.0</ele><time>2026-04-19T12:13:11.835Z</time></trkpt><trkpt lat="41.9619533" lon="13.0448583"><ele>352.0</ele><time>2026-04-19T12:13:13.864Z</time></trkpt><trkpt lat="41.9620633" lon="13.0449267"><ele>350.0</ele><time>2026-04-19T12:13:14.831Z</time></trkpt><trkpt lat="41.9621683" lon="13.0449883"><ele>348.6666666666667</ele><time>2026-04-19T12:13:15.839Z</time></trkpt><trkpt lat="41.9622667" lon="13.045045"><ele>347.33333333333337</ele><time>2026-04-19T12:13:16.828Z</time></trkpt><trkpt lat="41.9623567" lon="13.045095"><ele>346.0</ele><time>2026-04-19T12:13:17.831Z</time></trkpt><trkpt lat="41.9624317" lon="13.0451217"><ele>344.6666666666667</ele><time>2026-04-19T12:13:18.836Z</time></trkpt><trkpt lat="41.9625033" lon="13.0451217"><ele>343.3333333333333</ele><time>2026-04-19T12:13:19.866Z</time></trkpt><trkpt lat="41.9625683" lon="13.0450933"><ele>342.0</ele><time>2026-04-19T12:13:20.834Z</time></trkpt><trkpt lat="41.9626283" lon="13.045035"><ele>341.5</ele><time>2026-04-19T12:13:21.844Z</time></trkpt><trkpt lat="41.9626933" lon="13.044955"><ele>341.0</ele><time>2026-04-19T12:13:22.836Z</time></trkpt><trkpt lat="41.9627567" lon="13.044865"><ele>340.5</ele><time>2026-04-19T12:13:23.825Z</time></trkpt><trkpt lat="41.96281" lon="13.0447683"><ele>340.0</ele><time>2026-04-19T12:13:24.83Z</time></trkpt><trkpt lat="41.9628567" lon="13.0446667"><ele>339.5</ele><time>2026-04-19T12:13:25.851Z</time></trkpt><trkpt lat="41.9629017" lon="13.0445633"><ele>339.0</ele><time>2026-04-19T12:13:26.835Z</time></trkpt><trkpt lat="41.9629483" lon="13.044465"><ele>339.0</ele><time>2026-04-19T12:13:27.833Z</time></trkpt><trkpt lat="41.9629983" lon="13.0443767"><ele>339.0</ele><time>2026-04-19T12:13:28.832Z</time></trkpt><trkpt lat="41.9630383" lon="13.0442817"><ele>339.0</ele><time>2026-04-19T12:13:29.833Z</time></trkpt><trkpt lat="41.963075" lon="13.044165"><ele>339.0</ele><time>2026-04-19T12:13:30.833Z</time></trkpt><trkpt lat="41.9631083" lon="13.0440367"><ele>339.0</ele><time>2026-04-19T12:13:31.881Z</time></trkpt><trkpt lat="41.9631367" lon="13.04391"><ele>339.0</ele><time>2026-04-19T12:13:32.825Z</time></trkpt><trkpt lat="41.963175" lon="13.0436717"><ele>339.0</ele><time>2026-04-19T12:13:34.836Z</time></trkpt><trkpt lat="41.963195" lon="13.0435583"><ele>339.0</ele><time>2026-04-19T12:13:35.829Z</time></trkpt><trkpt lat="41.9632083" lon="13.04346"><ele>339.0</ele><time>2026-04-19T12:13:36.842Z</time></trkpt><trkpt lat="41.963215" lon="13.0433683"><ele>339.0</ele><time>2026-04-19T12:13:37.865Z</time></trkpt><trkpt lat="41.9632217" lon="13.043245"><ele>339.0</ele><time>2026-04-19T12:13:39.844Z</time></trkpt><trkpt lat="41.9633" lon="13.0431917"><ele>339.0</ele><time>2026-04-19T12:13:43.865Z</time></trkpt><trkpt lat="41.9634133" lon="13.0432817"><ele>339.0</ele><time>2026-04-19T12:13:45.835Z</time></trkpt><trkpt lat="41.9634767" lon="13.0433283"><ele>339.0</ele><time>2026-04-19T12:13:46.833Z</time></trkpt><trkpt lat="41.9635417" lon="13.0433567"><ele>339.0</ele><time>2026-04-19T12:13:47.832Z</time></trkpt><trkpt lat="41.963615" lon="13.0433717"><ele>339.0</ele><time>2026-04-19T12:13:48.828Z</time></trkpt><trkpt lat="41.9636917" lon="13.04338"><ele>338.79999999999995</ele><time>2026-04-19T12:13:49.87Z</time></trkpt><trkpt lat="41.96377" lon="13.0433883"><ele>338.59999999999997</ele><time>2026-04-19T12:13:50.831Z</time></trkpt><trkpt lat="41.9638583" lon="13.0433983"><ele>338.4</ele><time>2026-04-19T12:13:51.832Z</time></trkpt><trkpt lat="41.9639617" lon="13.0434117"><ele>338.2</ele><time>2026-04-19T12:13:52.832Z</time></trkpt><trkpt lat="41.9640717" lon="13.0434267"><ele>338.0</ele><time>2026-04-19T12:13:53.832Z</time></trkpt><trkpt lat="41.9642833" lon="13.04345"><ele>338.4</ele><time>2026-04-19T12:13:55.894Z</time></trkpt><trkpt lat="41.96438" lon="13.04346"><ele>338.79999999999995</ele><time>2026-04-19T12:13:56.831Z</time></trkpt><trkpt lat="41.9644767" lon="13.0434733"><ele>339.2</ele><time>2026-04-19T12:13:57.83Z</time></trkpt><trkpt lat="41.9645733" lon="13.0434783"><ele>339.6</ele><time>2026-04-19T12:13:58.83Z</time></trkpt><trkpt lat="41.96467" lon="13.043475"><ele>340.0</ele><time>2026-04-19T12:13:59.827Z</time></trkpt><trkpt lat="41.9647633" lon="13.0434517"><ele>340.0</ele><time>2026-04-19T12:14:00.838Z</time></trkpt><trkpt lat="41.964845" lon="13.0434167"><ele>340.0</ele><time>2026-04-19T12:14:01.883Z</time></trkpt><trkpt lat="41.96492" lon="13.0433783"><ele>340.0</ele><time>2026-04-19T12:14:02.838Z</time></trkpt><trkpt lat="41.9649933" lon="13.0433367"><ele>340.0</ele><time>2026-04-19T12:14:03.829Z</time></trkpt><trkpt lat="41.9650567" lon="13.043305"><ele>340.0</ele><time>2026-04-19T12:14:04.833Z</time></trkpt><trkpt lat="41.9651383" lon="13.0433167"><ele>340.0</ele><time>2026-04-19T12:14:06.835Z</time></trkpt><trkpt lat="41.965205" lon="13.0433667"><ele>339.66666666666663</ele><time>2026-04-19T12:14:08.83Z</time></trkpt><trkpt lat="41.965275" lon="13.0432983"><ele>339.3333333333333</ele><time>2026-04-19T12:14:10.828Z</time></trkpt><trkpt lat="41.96531" lon="13.0432117"><ele>339.0</ele><time>2026-04-19T12:14:11.834Z</time></trkpt><trkpt lat="41.9653533" lon="13.0431333"><ele>338.6666666666667</ele><time>2026-04-19T12:14:12.831Z</time></trkpt><trkpt lat="41.965405" lon="13.04305"><ele>338.33333333333337</ele><time>2026-04-19T12:14:13.874Z</time></trkpt><trkpt lat="41.965465" lon="13.042975"><ele>338.0</ele><time>2026-04-19T12:14:14.833Z</time></trkpt><trkpt lat="41.9656" lon="13.0428283"><ele>338.0</ele><time>2026-04-19T12:14:16.83Z</time></trkpt><trkpt lat="41.965665" lon="13.0427483"><ele>338.0</ele><time>2026-04-19T12:14:17.827Z</time></trkpt><trkpt lat="41.9657183" lon="13.0426833"><ele>338.0</ele><time>2026-04-19T12:14:18.829Z</time></trkpt><trkpt lat="41.9658067" lon="13.0425833"><ele>338.0</ele><time>2026-04-19T12:14:20.835Z</time></trkpt><trkpt lat="41.9659017" lon="13.0425217"><ele>338.0</ele><time>2026-04-19T12:14:22.832Z</time></trkpt><trkpt lat="41.9660233" lon="13.0424583"><ele>337.59999999999997</ele><time>2026-04-19T12:14:24.836Z</time></trkpt><trkpt lat="41.966105" lon="13.0423983"><ele>337.2</ele><time>2026-04-19T12:14:25.895Z</time></trkpt><trkpt lat="41.9661967" lon="13.0423267"><ele>336.8</ele><time>2026-04-19T12:14:26.829Z</time></trkpt><trkpt lat="41.9662833" lon="13.042245"><ele>336.4</ele><time>2026-04-19T12:14:27.836Z</time></trkpt><trkpt lat="41.9663683" lon="13.0421583"><ele>336.0</ele><time>2026-04-19T12:14:28.826Z</time></trkpt><trkpt lat="41.96646" lon="13.0420783"><ele>336.0</ele><time>2026-04-19T12:14:29.831Z</time></trkpt><trkpt lat="41.96655" lon="13.0420117"><ele>336.0</ele><time>2026-04-19T12:14:30.835Z</time></trkpt><trkpt lat="41.966635" lon="13.0419517"><ele>336.0</ele><time>2026-04-19T12:14:31.887Z</time></trkpt><trkpt lat="41.9667167" lon="13.0418917"><ele>336.0</ele><time>2026-04-19T12:14:32.833Z</time></trkpt><trkpt lat="41.9667967" lon="13.0418183"><ele>336.0</ele><time>2026-04-19T12:14:33.833Z</time></trkpt><trkpt lat="41.966875" lon="13.0417467"><ele>336.0</ele><time>2026-04-19T12:14:34.834Z</time></trkpt><trkpt lat="41.9669617" lon="13.0416783"><ele>336.0</ele><time>2026-04-19T12:14:35.831Z</time></trkpt><trkpt lat="41.9671683" lon="13.0415217"><ele>336.0</ele><time>2026-04-19T12:14:37.872Z</time></trkpt><trkpt lat="41.9672783" lon="13.0414333"><ele>336.20000000000005</ele><time>2026-04-19T12:14:38.829Z</time></trkpt><trkpt lat="41.967385" lon="13.04135"><ele>336.40000000000003</ele><time>2026-04-19T12:14:39.839Z</time></trkpt><trkpt lat="41.9674867" lon="13.0412717"><ele>336.6</ele><time>2026-04-19T12:14:40.833Z</time></trkpt><trkpt lat="41.9675783" lon="13.0412"><ele>336.8</ele><time>2026-04-19T12:14:41.832Z</time></trkpt><trkpt lat="41.967665" lon="13.04113"><ele>337.0</ele><time>2026-04-19T12:14:42.836Z</time></trkpt><trkpt lat="41.967755" lon="13.0410467"><ele>337.0</ele><time>2026-04-19T12:14:43.871Z</time></trkpt><trkpt lat="41.9678583" lon="13.0409533"><ele>337.0</ele><time>2026-04-19T12:14:44.833Z</time></trkpt><trkpt lat="41.9679683" lon="13.0408567"><ele>337.0</ele><time>2026-04-19T12:14:45.84Z</time></trkpt><trkpt lat="41.9680817" lon="13.0407583"><ele>337.0</ele><time>2026-04-19T12:14:46.839Z</time></trkpt><trkpt lat="41.9681833" lon="13.0406667"><ele>336.8333333333333</ele><time>2026-04-19T12:14:47.832Z</time></trkpt><trkpt lat="41.96827" lon="13.0405883"><ele>336.66666666666663</ele><time>2026-04-19T12:14:48.827Z</time></trkpt><trkpt lat="41.9683433" lon="13.0405317"><ele>336.5</ele><time>2026-04-19T12:14:49.872Z</time></trkpt><trkpt lat="41.9684233" lon="13.0404917"><ele>336.3333333333333</ele><time>2026-04-19T12:14:50.836Z</time></trkpt><trkpt lat="41.9685117" lon="13.04046"><ele>336.1666666666667</ele><time>2026-04-19T12:14:51.83Z</time></trkpt><trkpt lat="41.9685883" lon="13.04043"><ele>336.0</ele><time>2026-04-19T12:14:52.83Z</time></trkpt><trkpt lat="41.9686883" lon="13.0404083"><ele>336.8</ele><time>2026-04-19T12:14:54.832Z</time></trkpt><trkpt lat="41.9687867" lon="13.04038"><ele>337.6</ele><time>2026-04-19T12:14:56.831Z</time></trkpt><trkpt lat="41.9689017" lon="13.040285"><ele>338.4</ele><time>2026-04-19T12:14:58.833Z</time></trkpt><trkpt lat="41.9689567" lon="13.0402383"><ele>339.2</ele><time>2026-04-19T12:14:59.83Z</time></trkpt><trkpt lat="41.9690317" lon="13.040175"><ele>340.0</ele><time>2026-04-19T12:15:01.884Z</time></trkpt><trkpt lat="41.9691383" lon="13.0402517"><ele>340.8</ele><time>2026-04-19T12:15:11.834Z</time></trkpt><trkpt lat="41.9692083" lon="13.0402583"><ele>341.6</ele><time>2026-04-19T12:15:13.872Z</time></trkpt><trkpt lat="41.9692683" lon="13.0402067"><ele>342.4</ele><time>2026-04-19T12:15:14.833Z</time></trkpt><trkpt lat="41.969345" lon="13.04011"><ele>343.2</ele><time>2026-04-19T12:15:15.836Z</time></trkpt><trkpt lat="41.9694333" lon="13.0399817"><ele>344.0</ele><time>2026-04-19T12:15:16.827Z</time></trkpt><trkpt lat="41.9695233" lon="13.0398583"><ele>344.0</ele><time>2026-04-19T12:15:17.831Z</time></trkpt><trkpt lat="41.9696683" lon="13.03969"><ele>344.0</ele><time>2026-04-19T12:15:19.869Z</time></trkpt><trkpt lat="41.9697283" lon="13.0396383"><ele>344.0</ele><time>2026-04-19T12:15:20.836Z</time></trkpt><trkpt lat="41.9698267" lon="13.0395783"><ele>344.0</ele><time>2026-04-19T12:15:22.831Z</time></trkpt><trkpt lat="41.9698883" lon="13.03954"><ele>344.0</ele><time>2026-04-19T12:15:24.831Z</time></trkpt><trkpt lat="41.96995" lon="13.0395067"><ele>344.6</ele><time>2026-04-19T12:15:49.879Z</time></trkpt><trkpt lat="41.9701233" lon="13.0394117"><ele>345.2</ele><time>2026-04-19T12:15:52.832Z</time></trkpt><trkpt lat="41.9701933" lon="13.0393733"><ele>345.8</ele><time>2026-04-19T12:15:53.829Z</time></trkpt><trkpt lat="41.9702683" lon="13.03933"><ele>346.40000000000003</ele><time>2026-04-19T12:15:54.835Z</time></trkpt><trkpt lat="41.9703433" lon="13.039285"><ele>347.0</ele><time>2026-04-19T12:15:55.896Z</time></trkpt><trkpt lat="41.9704133" lon="13.039245"><ele>347.0</ele><time>2026-04-19T12:15:56.834Z</time></trkpt><trkpt lat="41.9704833" lon="13.039205"><ele>347.0</ele><time>2026-04-19T12:15:57.836Z</time></trkpt><trkpt lat="41.9705533" lon="13.0391683"><ele>347.0</ele><time>2026-04-19T12:15:58.831Z</time></trkpt><trkpt lat="41.970625" lon="13.0391333"><ele>347.0</ele><time>2026-04-19T12:15:59.832Z</time></trkpt><trkpt lat="41.9706983" lon="13.03911"><ele>347.0</ele><time>2026-04-19T12:16:00.835Z</time></trkpt><trkpt lat="41.9707733" lon="13.0391083"><ele>347.0</ele><time>2026-04-19T12:16:01.883Z</time></trkpt><trkpt lat="41.97085" lon="13.039135"><ele>348.0</ele><time>2026-04-19T12:16:02.83Z</time></trkpt><trkpt lat="41.97092" lon="13.0391917"><ele>349.0</ele><time>2026-04-19T12:16:03.824Z</time></trkpt><trkpt lat="41.97099" lon="13.0392567"><ele>350.0</ele><time>2026-04-19T12:16:04.838Z</time></trkpt><trkpt lat="41.9710667" lon="13.039325"><ele>351.0</ele><time>2026-04-19T12:16:05.835Z</time></trkpt><trkpt lat="41.9711533" lon="13.0393867"><ele>352.0</ele><time>2026-04-19T12:16:06.834Z</time></trkpt><trkpt lat="41.9712433" lon="13.03944"><ele>352.0</ele><time>2026-04-19T12:16:07.871Z</time></trkpt><trkpt lat="41.9713317" lon="13.039485"><ele>352.0</ele><time>2026-04-19T12:16:08.833Z</time></trkpt><trkpt lat="41.9714117" lon="13.0395267"><ele>352.0</ele><time>2026-04-19T12:16:09.838Z</time></trkpt><trkpt lat="41.9714767" lon="13.03957"><ele>352.0</ele><time>2026-04-19T12:16:10.825Z</time></trkpt><trkpt lat="41.9716383" lon="13.03972"><ele>352.0</ele><time>2026-04-19T12:16:15.838Z</time></trkpt><trkpt lat="41.9717467" lon="13.03981"><ele>352.5</ele><time>2026-04-19T12:16:17.829Z</time></trkpt><trkpt lat="41.9718117" lon="13.0398483"><ele>353.0</ele><time>2026-04-19T12:16:18.835Z</time></trkpt><trkpt lat="41.971875" lon="13.039895"><ele>353.5</ele><time>2026-04-19T12:16:19.872Z</time></trkpt><trkpt lat="41.97193" lon="13.0399583"><ele>354.0</ele><time>2026-04-19T12:16:20.834Z</time></trkpt><trkpt lat="41.97197" lon="13.0400517"><ele>354.5</ele><time>2026-04-19T12:16:21.842Z</time></trkpt><trkpt lat="41.971995" lon="13.04017"><ele>355.0</ele><time>2026-04-19T12:16:22.824Z</time></trkpt><trkpt lat="41.972015" lon="13.04029"><ele>355.16666666666663</ele><time>2026-04-19T12:16:23.832Z</time></trkpt><trkpt lat="41.9720367" lon="13.0404117"><ele>355.3333333333333</ele><time>2026-04-19T12:16:24.83Z</time></trkpt><trkpt lat="41.972065" lon="13.0405317"><ele>355.5</ele><time>2026-04-19T12:16:25.894Z</time></trkpt><trkpt lat="41.9720983" lon="13.0406367"><ele>355.6666666666667</ele><time>2026-04-19T12:16:26.823Z</time></trkpt><trkpt lat="41.972135" lon="13.040725"><ele>355.83333333333337</ele><time>2026-04-19T12:16:27.83Z</time></trkpt><trkpt lat="41.97217" lon="13.0408"><ele>356.0</ele><time>2026-04-19T12:16:28.829Z</time></trkpt><trkpt lat="41.9722483" lon="13.0409317"><ele>356.75</ele><time>2026-04-19T12:16:30.826Z</time></trkpt><trkpt lat="41.9723083" lon="13.0409917"><ele>357.5</ele><time>2026-04-19T12:16:31.887Z</time></trkpt><trkpt lat="41.972475" lon="13.0411167"><ele>358.25</ele><time>2026-04-19T12:16:33.833Z</time></trkpt><trkpt lat="41.97257" lon="13.041165"><ele>359.0</ele><time>2026-04-19T12:16:34.832Z</time></trkpt><trkpt lat="41.9726617" lon="13.0411983"><ele>360.2</ele><time>2026-04-19T12:16:35.829Z</time></trkpt><trkpt lat="41.9727633" lon="13.0412317"><ele>361.4</ele><time>2026-04-19T12:16:36.829Z</time></trkpt><trkpt lat="41.97287" lon="13.0412667"><ele>362.6</ele><time>2026-04-19T12:16:37.877Z</time></trkpt><trkpt lat="41.9729633" lon="13.041295"><ele>363.8</ele><time>2026-04-19T12:16:38.835Z</time></trkpt><trkpt lat="41.97305" lon="13.0413017"><ele>365.0</ele><time>2026-04-19T12:16:39.837Z</time></trkpt><trkpt lat="41.9731333" lon="13.0412833"><ele>365.0</ele><time>2026-04-19T12:16:40.831Z</time></trkpt><trkpt lat="41.9732033" lon="13.0412567"><ele>365.0</ele><time>2026-04-19T12:16:41.825Z</time></trkpt><trkpt lat="41.9733317" lon="13.0412617"><ele>365.0</ele><time>2026-04-19T12:16:43.868Z</time></trkpt><trkpt lat="41.9734067" lon="13.0413167"><ele>365.0</ele><time>2026-04-19T12:16:44.825Z</time></trkpt><trkpt lat="41.9734933" lon="13.0414"><ele>365.0</ele><time>2026-04-19T12:16:45.836Z</time></trkpt><trkpt lat="41.9735817" lon="13.0414983"><ele>366.0</ele><time>2026-04-19T12:16:46.837Z</time></trkpt><trkpt lat="41.9736683" lon="13.0415833"><ele>367.0</ele><time>2026-04-19T12:16:47.826Z</time></trkpt><trkpt lat="41.97374" lon="13.0416633"><ele>368.0</ele><time>2026-04-19T12:16:48.834Z</time></trkpt><trkpt lat="41.97379" lon="13.0417433"><ele>369.0</ele><time>2026-04-19T12:16:49.874Z</time></trkpt><trkpt lat="41.97383" lon="13.0418283"><ele>370.0</ele><time>2026-04-19T12:16:50.827Z</time></trkpt><trkpt lat="41.9738683" lon="13.041915"><ele>371.0</ele><time>2026-04-19T12:16:51.835Z</time></trkpt><trkpt lat="41.9739483" lon="13.0420133"><ele>371.0</ele><time>2026-04-19T12:16:53.83Z</time></trkpt><trkpt lat="41.974125" lon="13.0420117"><ele>371.0</ele><time>2026-04-19T12:16:56.835Z</time></trkpt><trkpt lat="41.9742367" lon="13.042035"><ele>371.0</ele><time>2026-04-19T12:16:58.832Z</time></trkpt><trkpt lat="41.9743317" lon="13.0420667"><ele>371.0</ele><time>2026-04-19T12:17:00.828Z</time></trkpt><trkpt lat="41.9744017" lon="13.042055"><ele>372.0</ele><time>2026-04-19T12:17:02.832Z</time></trkpt><trkpt lat="41.974475" lon="13.0420383"><ele>373.0</ele><time>2026-04-19T12:17:04.836Z</time></trkpt><trkpt lat="41.9745733" lon="13.0419967"><ele>374.0</ele><time>2026-04-19T12:17:06.827Z</time></trkpt><trkpt lat="41.9746533" lon="13.0419433"><ele>375.0</ele><time>2026-04-19T12:17:08.835Z</time></trkpt><trkpt lat="41.97473" lon="13.04193"><ele>376.0</ele><time>2026-04-19T12:17:10.836Z</time></trkpt><trkpt lat="41.974835" lon="13.041985"><ele>376.0</ele><time>2026-04-19T12:17:12.833Z</time></trkpt><trkpt lat="41.9749417" lon="13.042025"><ele>376.0</ele><time>2026-04-19T12:17:14.835Z</time></trkpt><trkpt lat="41.975175" lon="13.04207"><ele>376.0</ele><time>2026-04-19T12:17:18.828Z</time></trkpt><trkpt lat="41.9752383" lon="13.0420717"><ele>376.0</ele><time>2026-04-19T12:17:19.867Z</time></trkpt><trkpt lat="41.9753583" lon="13.04209"><ele>378.0</ele><time>2026-04-19T12:17:21.841Z</time></trkpt><trkpt lat="41.9754633" lon="13.0421283"><ele>380.0</ele><time>2026-04-19T12:17:23.834Z</time></trkpt><trkpt lat="41.9755583" lon="13.0421883"><ele>382.0</ele><time>2026-04-19T12:17:25.894Z</time></trkpt><trkpt lat="41.9756517" lon="13.0422567"><ele>384.0</ele><time>2026-04-19T12:17:27.829Z</time></trkpt><trkpt lat="41.9757567" lon="13.042265"><ele>386.0</ele><time>2026-04-19T12:17:29.833Z</time></trkpt><trkpt lat="41.9758733" lon="13.0422383"><ele>388.0</ele><time>2026-04-19T12:17:31.882Z</time></trkpt><trkpt lat="41.9759933" lon="13.0422467"><ele>390.0</ele><time>2026-04-19T12:17:33.84Z</time></trkpt><trkpt lat="41.976105" lon="13.042275"><ele>392.0</ele><time>2026-04-19T12:17:35.826Z</time></trkpt><trkpt lat="41.9761217" lon="13.0424283"><ele>394.0</ele><time>2026-04-19T12:17:40.833Z</time></trkpt><trkpt lat="41.9760883" lon="13.042515"><ele>396.0</ele><time>2026-04-19T12:17:41.83Z</time></trkpt><trkpt lat="41.9760717" lon="13.0426167"><ele>396.0</ele><time>2026-04-19T12:17:42.835Z</time></trkpt><trkpt lat="41.97607" lon="13.04272"><ele>396.0</ele><time>2026-04-19T12:17:43.874Z</time></trkpt><trkpt lat="41.97608" lon="13.0428217"><ele>396.0</ele><time>2026-04-19T12:17:44.833Z</time></trkpt><trkpt lat="41.9760867" lon="13.0429267"><ele>396.0</ele><time>2026-04-19T12:17:45.833Z</time></trkpt><trkpt lat="41.9760883" lon="13.043035"><ele>396.0</ele><time>2026-04-19T12:17:46.828Z</time></trkpt><trkpt lat="41.9760783" lon="13.0431433"><ele>396.0</ele><time>2026-04-19T12:17:47.838Z</time></trkpt><trkpt lat="41.9760617" lon="13.0432533"><ele>397.6666666666667</ele><time>2026-04-19T12:17:48.833Z</time></trkpt><trkpt lat="41.9760317" lon="13.0433633"><ele>399.33333333333337</ele><time>2026-04-19T12:17:49.876Z</time></trkpt><trkpt lat="41.9759917" lon="13.0434683"><ele>401.0</ele><time>2026-04-19T12:17:50.834Z</time></trkpt><trkpt lat="41.9759433" lon="13.0435683"><ele>402.6666666666667</ele><time>2026-04-19T12:17:51.831Z</time></trkpt><trkpt lat="41.9759033" lon="13.0436733"><ele>404.33333333333337</ele><time>2026-04-19T12:17:52.829Z</time></trkpt><trkpt lat="41.9758783" lon="13.04378"><ele>406.0</ele><time>2026-04-19T12:17:53.832Z</time></trkpt><trkpt lat="41.9758633" lon="13.0438933"><ele>407.0</ele><time>2026-04-19T12:17:54.832Z</time></trkpt><trkpt lat="41.9758517" lon="13.044015"><ele>408.0</ele><time>2026-04-19T12:17:55.885Z</time></trkpt><trkpt lat="41.9758483" lon="13.04413"><ele>409.0</ele><time>2026-04-19T12:17:56.827Z</time></trkpt><trkpt lat="41.9758417" lon="13.044315"><ele>410.0</ele><time>2026-04-19T12:17:58.836Z</time></trkpt><trkpt lat="41.9758617" lon="13.0444783"><ele>411.0</ele><time>2026-04-19T12:18:00.829Z</time></trkpt><trkpt lat="41.9758933" lon="13.044555"><ele>411.0</ele><time>2026-04-19T12:18:01.88Z</time></trkpt><trkpt lat="41.97594" lon="13.0446183"><ele>411.0</ele><time>2026-04-19T12:18:02.837Z</time></trkpt><trkpt lat="41.9760067" lon="13.04467"><ele>411.0</ele><time>2026-04-19T12:18:03.829Z</time></trkpt><trkpt lat="41.976075" lon="13.0447233"><ele>411.0</ele><time>2026-04-19T12:18:04.826Z</time></trkpt><trkpt lat="41.976135" lon="13.0447833"><ele>411.0</ele><time>2026-04-19T12:18:05.833Z</time></trkpt><trkpt lat="41.97617" lon="13.044855"><ele>411.0</ele><time>2026-04-19T12:18:06.829Z</time></trkpt><trkpt lat="41.97618" lon="13.04495"><ele>411.0</ele><time>2026-04-19T12:18:07.873Z</time></trkpt><trkpt lat="41.9761683" lon="13.045105"><ele>410.75</ele><time>2026-04-19T12:18:08.821Z</time></trkpt><trkpt lat="41.9761617" lon="13.0452817"><ele>410.5</ele><time>2026-04-19T12:18:09.833Z</time></trkpt><trkpt lat="41.9761617" lon="13.0454533"><ele>410.25</ele><time>2026-04-19T12:18:10.83Z</time></trkpt><trkpt lat="41.9761733" lon="13.0456267"><ele>410.0</ele><time>2026-04-19T12:18:11.83Z</time></trkpt><trkpt lat="41.9761867" lon="13.0457983"><ele>408.75</ele><time>2026-04-19T12:18:12.827Z</time></trkpt><trkpt lat="41.9761933" lon="13.045965"><ele>407.5</ele><time>2026-04-19T12:18:13.872Z</time></trkpt><trkpt lat="41.9761967" lon="13.04612"><ele>406.25</ele><time>2026-04-19T12:18:14.833Z</time></trkpt><trkpt lat="41.976195" lon="13.0462683"><ele>405.0</ele><time>2026-04-19T12:18:15.825Z</time></trkpt><trkpt lat="41.9761867" lon="13.0464067"><ele>405.0</ele><time>2026-04-19T12:18:16.833Z</time></trkpt><trkpt lat="41.9761767" lon="13.0465417"><ele>405.0</ele><time>2026-04-19T12:18:17.834Z</time></trkpt><trkpt lat="41.9761583" lon="13.04682"><ele>405.0</ele><time>2026-04-19T12:18:19.875Z</time></trkpt><trkpt lat="41.9761567" lon="13.0469517"><ele>405.0</ele><time>2026-04-19T12:18:20.829Z</time></trkpt><trkpt lat="41.9761667" lon="13.0470783"><ele>405.5</ele><time>2026-04-19T12:18:21.836Z</time></trkpt><trkpt lat="41.9761867" lon="13.0471983"><ele>406.0</ele><time>2026-04-19T12:18:22.829Z</time></trkpt><trkpt lat="41.9762133" lon="13.0473083"><ele>406.5</ele><time>2026-04-19T12:18:23.827Z</time></trkpt><trkpt lat="41.97624" lon="13.0474183"><ele>407.0</ele><time>2026-04-19T12:18:24.827Z</time></trkpt><trkpt lat="41.9762583" lon="13.0475283"><ele>407.5</ele><time>2026-04-19T12:18:25.883Z</time></trkpt><trkpt lat="41.9762617" lon="13.0476317"><ele>408.0</ele><time>2026-04-19T12:18:26.829Z</time></trkpt><trkpt lat="41.9762517" lon="13.0477217"><ele>408.1666666666667</ele><time>2026-04-19T12:18:27.83Z</time></trkpt><trkpt lat="41.976225" lon="13.047805"><ele>408.33333333333337</ele><time>2026-04-19T12:18:28.834Z</time></trkpt><trkpt lat="41.9761717" lon="13.0478833"><ele>408.5</ele><time>2026-04-19T12:18:29.833Z</time></trkpt><trkpt lat="41.9761033" lon="13.0479567"><ele>408.6666666666667</ele><time>2026-04-19T12:18:30.829Z</time></trkpt><trkpt lat="41.9760367" lon="13.04803"><ele>408.83333333333337</ele><time>2026-04-19T12:18:31.889Z</time></trkpt><trkpt lat="41.9759767" lon="13.0481133"><ele>409.0</ele><time>2026-04-19T12:18:32.828Z</time></trkpt><trkpt lat="41.9759367" lon="13.0481967"><ele>409.00000000000006</ele><time>2026-04-19T12:18:33.824Z</time></trkpt><trkpt lat="41.9759217" lon="13.0482867"><ele>409.0</ele><time>2026-04-19T12:18:34.833Z</time></trkpt><trkpt lat="41.9759433" lon="13.048395"><ele>409.0</ele><time>2026-04-19T12:18:35.829Z</time></trkpt><trkpt lat="41.97598" lon="13.0485117"><ele>409.0</ele><time>2026-04-19T12:18:36.838Z</time></trkpt><trkpt lat="41.97601" lon="13.048625"><ele>409.00000000000006</ele><time>2026-04-19T12:18:37.867Z</time></trkpt><trkpt lat="41.9760417" lon="13.048735"><ele>409.0</ele><time>2026-04-19T12:18:38.831Z</time></trkpt><trkpt lat="41.9761217" lon="13.048945"><ele>409.83333333333337</ele><time>2026-04-19T12:18:40.824Z</time></trkpt><trkpt lat="41.976175" lon="13.04904"><ele>410.6666666666667</ele><time>2026-04-19T12:18:41.828Z</time></trkpt><trkpt lat="41.97624" lon="13.049125"><ele>411.5</ele><time>2026-04-19T12:18:42.827Z</time></trkpt><trkpt lat="41.9763117" lon="13.049205"><ele>412.33333333333337</ele><time>2026-04-19T12:18:43.866Z</time></trkpt><trkpt lat="41.9763867" lon="13.0492667"><ele>413.1666666666667</ele><time>2026-04-19T12:18:44.831Z</time></trkpt><trkpt lat="41.9764633" lon="13.0493067"><ele>414.0</ele><time>2026-04-19T12:18:45.824Z</time></trkpt><trkpt lat="41.9765483" lon="13.049315"><ele>415.79999999999995</ele><time>2026-04-19T12:18:46.836Z</time></trkpt><trkpt lat="41.9766417" lon="13.0493167"><ele>417.59999999999997</ele><time>2026-04-19T12:18:47.837Z</time></trkpt><trkpt lat="41.9767383" lon="13.0493383"><ele>419.4</ele><time>2026-04-19T12:18:48.835Z</time></trkpt><trkpt lat="41.97684" lon="13.0493783"><ele>421.2</ele><time>2026-04-19T12:18:49.865Z</time></trkpt><trkpt lat="41.9769433" lon="13.0494217"><ele>423.0</ele><time>2026-04-19T12:18:50.831Z</time></trkpt><trkpt lat="41.9770467" lon="13.0494667"><ele>423.5</ele><time>2026-04-19T12:18:51.839Z</time></trkpt><trkpt lat="41.9771517" lon="13.049505"><ele>424.0</ele><time>2026-04-19T12:18:52.831Z</time></trkpt><trkpt lat="41.9772617" lon="13.0495367"><ele>424.5</ele><time>2026-04-19T12:18:53.832Z</time></trkpt><trkpt lat="41.9773783" lon="13.0495583"><ele>425.0</ele><time>2026-04-19T12:18:54.832Z</time></trkpt><trkpt lat="41.9775" lon="13.0495767"><ele>426.5</ele><time>2026-04-19T12:18:55.883Z</time></trkpt><trkpt lat="41.9776233" lon="13.0495917"><ele>428.0</ele><time>2026-04-19T12:18:56.828Z</time></trkpt><trkpt lat="41.9777417" lon="13.0496133"><ele>429.5</ele><time>2026-04-19T12:18:57.832Z</time></trkpt><trkpt lat="41.9778567" lon="13.04965"><ele>431.0</ele><time>2026-04-19T12:18:58.835Z</time></trkpt><trkpt lat="41.977965" lon="13.04972"><ele>431.0</ele><time>2026-04-19T12:18:59.83Z</time></trkpt><trkpt lat="41.9781383" lon="13.049925"><ele>431.0</ele><time>2026-04-19T12:19:01.884Z</time></trkpt><trkpt lat="41.9782167" lon="13.0500483"><ele>431.0</ele><time>2026-04-19T12:19:02.83Z</time></trkpt><trkpt lat="41.9782933" lon="13.0501733"><ele>433.8333333333333</ele><time>2026-04-19T12:19:03.829Z</time></trkpt><trkpt lat="41.97837" lon="13.0502917"><ele>436.66666666666663</ele><time>2026-04-19T12:19:04.832Z</time></trkpt><trkpt lat="41.9784367" lon="13.0503883"><ele>439.5</ele><time>2026-04-19T12:19:05.83Z</time></trkpt><trkpt lat="41.9785" lon="13.0504517"><ele>442.33333333333337</ele><time>2026-04-19T12:19:06.838Z</time></trkpt><trkpt lat="41.9785667" lon="13.0504717"><ele>445.1666666666667</ele><time>2026-04-19T12:19:07.872Z</time></trkpt><trkpt lat="41.97865" lon="13.0504483"><ele>448.0</ele><time>2026-04-19T12:19:08.833Z</time></trkpt><trkpt lat="41.97874" lon="13.05039"><ele>448.0</ele><time>2026-04-19T12:19:09.84Z</time></trkpt><trkpt lat="41.9788383" lon="13.0503033"><ele>447.99999999999994</ele><time>2026-04-19T12:19:10.826Z</time></trkpt><trkpt lat="41.9789367" lon="13.0502183"><ele>447.99999999999994</ele><time>2026-04-19T12:19:11.828Z</time></trkpt><trkpt lat="41.97903" lon="13.0501567"><ele>448.0</ele><time>2026-04-19T12:19:12.829Z</time></trkpt><trkpt lat="41.9791183" lon="13.05012"><ele>448.0</ele><time>2026-04-19T12:19:13.874Z</time></trkpt><trkpt lat="41.979205" lon="13.050115"><ele>448.79999999999995</ele><time>2026-04-19T12:19:14.829Z</time></trkpt><trkpt lat="41.9793017" lon="13.050135"><ele>449.59999999999997</ele><time>2026-04-19T12:19:15.841Z</time></trkpt><trkpt lat="41.9794033" lon="13.05019"><ele>450.40000000000003</ele><time>2026-04-19T12:19:16.832Z</time></trkpt><trkpt lat="41.9794967" lon="13.0502533"><ele>451.20000000000005</ele><time>2026-04-19T12:19:17.827Z</time></trkpt><trkpt lat="41.9795783" lon="13.0503383"><ele>452.0</ele><time>2026-04-19T12:19:18.834Z</time></trkpt><trkpt lat="41.9796567" lon="13.0504367"><ele>452.0</ele><time>2026-04-19T12:19:19.87Z</time></trkpt><trkpt lat="41.979735" lon="13.0505483"><ele>452.0</ele><time>2026-04-19T12:19:20.831Z</time></trkpt><trkpt lat="41.9798867" lon="13.0507933"><ele>452.0</ele><time>2026-04-19T12:19:22.834Z</time></trkpt><trkpt lat="41.97995" lon="13.0509133"><ele>452.66666666666663</ele><time>2026-04-19T12:19:23.831Z</time></trkpt><trkpt lat="41.9799967" lon="13.051025"><ele>453.3333333333333</ele><time>2026-04-19T12:19:24.838Z</time></trkpt><trkpt lat="41.98003" lon="13.0511267"><ele>454.0</ele><time>2026-04-19T12:19:25.887Z</time></trkpt><trkpt lat="41.9800267" lon="13.0512133"><ele>454.66666666666663</ele><time>2026-04-19T12:19:26.831Z</time></trkpt><trkpt lat="41.9799817" lon="13.051285"><ele>455.3333333333333</ele><time>2026-04-19T12:19:27.846Z</time></trkpt><trkpt lat="41.9799233" lon="13.0513533"><ele>456.0</ele><time>2026-04-19T12:19:28.834Z</time></trkpt><trkpt lat="41.97989" lon="13.0514367"><ele>456.0</ele><time>2026-04-19T12:19:29.832Z</time></trkpt><trkpt lat="41.97989" lon="13.0515283"><ele>456.0</ele><time>2026-04-19T12:19:30.831Z</time></trkpt><trkpt lat="41.979925" lon="13.05163"><ele>456.0</ele><time>2026-04-19T12:19:31.88Z</time></trkpt><trkpt lat="41.979985" lon="13.051735"><ele>456.0</ele><time>2026-04-19T12:19:32.83Z</time></trkpt><trkpt lat="41.9800467" lon="13.0518367"><ele>456.0</ele><time>2026-04-19T12:19:33.833Z</time></trkpt><trkpt lat="41.9801117" lon="13.0519417"><ele>456.0</ele><time>2026-04-19T12:19:34.832Z</time></trkpt><trkpt lat="41.9801767" lon="13.0520467"><ele>458.6666666666667</ele><time>2026-04-19T12:19:35.832Z</time></trkpt><trkpt lat="41.9802383" lon="13.0521483"><ele>461.33333333333337</ele><time>2026-04-19T12:19:36.83Z</time></trkpt><trkpt lat="41.9802917" lon="13.0522433"><ele>464.0</ele><time>2026-04-19T12:19:37.87Z</time></trkpt><trkpt lat="41.9803283" lon="13.052335"><ele>466.6666666666667</ele><time>2026-04-19T12:19:38.833Z</time></trkpt><trkpt lat="41.9803367" lon="13.052425"><ele>469.33333333333337</ele><time>2026-04-19T12:19:39.838Z</time></trkpt><trkpt lat="41.9803133" lon="13.0525117"><ele>472.0</ele><time>2026-04-19T12:19:40.829Z</time></trkpt><trkpt lat="41.9802267" lon="13.0525967"><ele>471.0</ele><time>2026-04-19T12:19:41.83Z</time></trkpt><trkpt lat="41.9800633" lon="13.052785"><ele>470.0</ele><time>2026-04-19T12:19:43.872Z</time></trkpt><trkpt lat="41.97998" lon="13.052875"><ele>469.0</ele><time>2026-04-19T12:19:44.831Z</time></trkpt><trkpt lat="41.9798983" lon="13.052965"><ele>468.0</ele><time>2026-04-19T12:19:45.833Z</time></trkpt><trkpt lat="41.9798133" lon="13.0530567"><ele>468.0</ele><time>2026-04-19T12:19:46.825Z</time></trkpt><trkpt lat="41.97972" lon="13.0531483"><ele>467.99999999999994</ele><time>2026-04-19T12:19:47.829Z</time></trkpt><trkpt lat="41.9796233" lon="13.0532267"><ele>467.99999999999994</ele><time>2026-04-19T12:19:48.828Z</time></trkpt><trkpt lat="41.979525" lon="13.0532867"><ele>468.0</ele><time>2026-04-19T12:19:49.872Z</time></trkpt><trkpt lat="41.9794217" lon="13.0533117"><ele>468.0</ele><time>2026-04-19T12:19:50.826Z</time></trkpt><trkpt lat="41.979325" lon="13.05331"><ele>469.3333333333333</ele><time>2026-04-19T12:19:51.83Z</time></trkpt><trkpt lat="41.9792383" lon="13.0533133"><ele>470.66666666666663</ele><time>2026-04-19T12:19:52.83Z</time></trkpt><trkpt lat="41.9791633" lon="13.053335"><ele>472.0</ele><time>2026-04-19T12:19:53.834Z</time></trkpt><trkpt lat="41.9791083" lon="13.0533783"><ele>473.3333333333333</ele><time>2026-04-19T12:19:54.824Z</time></trkpt><trkpt lat="41.9790617" lon="13.05344"><ele>474.66666666666663</ele><time>2026-04-19T12:19:55.896Z</time></trkpt><trkpt lat="41.979025" lon="13.0535333"><ele>476.0</ele><time>2026-04-19T12:19:56.827Z</time></trkpt><trkpt lat="41.979005" lon="13.05365"><ele>476.0</ele><time>2026-04-19T12:19:57.831Z</time></trkpt><trkpt lat="41.9790017" lon="13.0537883"><ele>476.0</ele><time>2026-04-19T12:19:58.836Z</time></trkpt><trkpt lat="41.978995" lon="13.05393"><ele>476.0</ele><time>2026-04-19T12:19:59.835Z</time></trkpt><trkpt lat="41.9789883" lon="13.054065"><ele>476.0</ele><time>2026-04-19T12:20:00.835Z</time></trkpt><trkpt lat="41.9789633" lon="13.0542"><ele>476.0</ele><time>2026-04-19T12:20:01.882Z</time></trkpt><trkpt lat="41.9789233" lon="13.0543317"><ele>478.5</ele><time>2026-04-19T12:20:02.828Z</time></trkpt><trkpt lat="41.978805" lon="13.0545633"><ele>481.0</ele><time>2026-04-19T12:20:04.836Z</time></trkpt><trkpt lat="41.9787183" lon="13.05466"><ele>483.5</ele><time>2026-04-19T12:20:05.829Z</time></trkpt><trkpt lat="41.9786267" lon="13.0547533"><ele>486.0</ele><time>2026-04-19T12:20:06.83Z</time></trkpt><trkpt lat="41.97853" lon="13.054835"><ele>486.0</ele><time>2026-04-19T12:20:07.869Z</time></trkpt><trkpt lat="41.9784283" lon="13.0549183"><ele>486.0</ele><time>2026-04-19T12:20:08.832Z</time></trkpt><trkpt lat="41.9783333" lon="13.0550033"><ele>486.0</ele><time>2026-04-19T12:20:09.83Z</time></trkpt><trkpt lat="41.9782383" lon="13.0550983"><ele>486.0</ele><time>2026-04-19T12:20:10.831Z</time></trkpt><trkpt lat="41.978155" lon="13.0552133"><ele>487.8</ele><time>2026-04-19T12:20:11.837Z</time></trkpt><trkpt lat="41.978085" lon="13.0553417"><ele>489.6</ele><time>2026-04-19T12:20:12.832Z</time></trkpt><trkpt lat="41.9780383" lon="13.0554783"><ele>491.4</ele><time>2026-04-19T12:20:13.868Z</time></trkpt><trkpt lat="41.9780167" lon="13.0556167"><ele>493.2</ele><time>2026-04-19T12:20:14.829Z</time></trkpt><trkpt lat="41.9780133" lon="13.05576"><ele>495.0</ele><time>2026-04-19T12:20:15.832Z</time></trkpt><trkpt lat="41.978015" lon="13.05591"><ele>497.8</ele><time>2026-04-19T12:20:16.832Z</time></trkpt><trkpt lat="41.978015" lon="13.0560617"><ele>500.6</ele><time>2026-04-19T12:20:17.829Z</time></trkpt><trkpt lat="41.9780217" lon="13.0562067"><ele>503.4</ele><time>2026-04-19T12:20:18.829Z</time></trkpt><trkpt lat="41.9780483" lon="13.0563433"><ele>506.2</ele><time>2026-04-19T12:20:19.878Z</time></trkpt><trkpt lat="41.97809" lon="13.05646"><ele>509.0</ele><time>2026-04-19T12:20:20.831Z</time></trkpt><trkpt lat="41.9781417" lon="13.05656"><ele>512.5</ele><time>2026-04-19T12:20:21.833Z</time></trkpt><trkpt lat="41.978215" lon="13.0566333"><ele>516.0</ele><time>2026-04-19T12:20:22.835Z</time></trkpt><trkpt lat="41.9783067" lon="13.0566917"><ele>519.5</ele><time>2026-04-19T12:20:23.831Z</time></trkpt><trkpt lat="41.97855" lon="13.0568017"><ele>523.0</ele><time>2026-04-19T12:20:25.883Z</time></trkpt><trkpt lat="41.978675" lon="13.0568583"><ele>523.75</ele><time>2026-04-19T12:20:26.828Z</time></trkpt><trkpt lat="41.9787917" lon="13.0569283"><ele>524.5</ele><time>2026-04-19T12:20:27.83Z</time></trkpt><trkpt lat="41.9789017" lon="13.056995"><ele>525.25</ele><time>2026-04-19T12:20:28.833Z</time></trkpt><trkpt lat="41.9790017" lon="13.057055"><ele>526.0</ele><time>2026-04-19T12:20:29.832Z</time></trkpt><trkpt lat="41.979095" lon="13.0571"><ele>529.8</ele><time>2026-04-19T12:20:30.832Z</time></trkpt><trkpt lat="41.97919" lon="13.0571233"><ele>533.6</ele><time>2026-04-19T12:20:31.881Z</time></trkpt><trkpt lat="41.9792917" lon="13.0571233"><ele>537.4</ele><time>2026-04-19T12:20:32.829Z</time></trkpt><trkpt lat="41.9793817" lon="13.05712"><ele>541.2</ele><time>2026-04-19T12:20:33.834Z</time></trkpt><trkpt lat="41.9794617" lon="13.0571233"><ele>545.0</ele><time>2026-04-19T12:20:34.826Z</time></trkpt><trkpt lat="41.9795583" lon="13.0572"><ele>545.0</ele><time>2026-04-19T12:20:36.839Z</time></trkpt><trkpt lat="41.979535" lon="13.05737"><ele>545.0</ele><time>2026-04-19T12:20:38.833Z</time></trkpt><trkpt lat="41.9794767" lon="13.0574983"><ele>545.0</ele><time>2026-04-19T12:20:39.841Z</time></trkpt><trkpt lat="41.9793967" lon="13.0576317"><ele>545.0</ele><time>2026-04-19T12:20:40.832Z</time></trkpt><trkpt lat="41.9793117" lon="13.05777"><ele>544.5</ele><time>2026-04-19T12:20:41.833Z</time></trkpt><trkpt lat="41.97923" lon="13.057905"><ele>544.0</ele><time>2026-04-19T12:20:42.835Z</time></trkpt><trkpt lat="41.9791633" lon="13.05803"><ele>543.5</ele><time>2026-04-19T12:20:43.88Z</time></trkpt><trkpt lat="41.9791067" lon="13.0581367"><ele>543.0</ele><time>2026-04-19T12:20:44.829Z</time></trkpt><trkpt lat="41.9789867" lon="13.0583233"><ele>545.8</ele><time>2026-04-19T12:20:46.829Z</time></trkpt><trkpt lat="41.978915" lon="13.0583967"><ele>548.5999999999999</ele><time>2026-04-19T12:20:47.837Z</time></trkpt><trkpt lat="41.9788333" lon="13.05847"><ele>551.4000000000001</ele><time>2026-04-19T12:20:48.833Z</time></trkpt><trkpt lat="41.97875" lon="13.0585467"><ele>554.2</ele><time>2026-04-19T12:20:49.873Z</time></trkpt><trkpt lat="41.9786667" lon="13.0586367"><ele>557.0</ele><time>2026-04-19T12:20:50.826Z</time></trkpt><trkpt lat="41.9785983" lon="13.0587317"><ele>557.0</ele><time>2026-04-19T12:20:51.833Z</time></trkpt><trkpt lat="41.9785433" lon="13.0588367"><ele>557.0</ele><time>2026-04-19T12:20:52.828Z</time></trkpt><trkpt lat="41.9785017" lon="13.0589533"><ele>557.0</ele><time>2026-04-19T12:20:53.83Z</time></trkpt><trkpt lat="41.97846" lon="13.0590767"><ele>557.0</ele><time>2026-04-19T12:20:54.83Z</time></trkpt><trkpt lat="41.9784383" lon="13.0592017"><ele>557.0</ele><time>2026-04-19T12:20:55.881Z</time></trkpt><trkpt lat="41.97843" lon="13.05932"><ele>560.6</ele><time>2026-04-19T12:20:56.832Z</time></trkpt><trkpt lat="41.9784367" lon="13.0594417"><ele>564.2</ele><time>2026-04-19T12:20:57.829Z</time></trkpt><trkpt lat="41.9784683" lon="13.05957"><ele>567.8</ele><time>2026-04-19T12:20:58.831Z</time></trkpt><trkpt lat="41.9785083" lon="13.0596933"><ele>571.4</ele><time>2026-04-19T12:20:59.831Z</time></trkpt><trkpt lat="41.97854" lon="13.0598083"><ele>575.0</ele><time>2026-04-19T12:21:00.831Z</time></trkpt><trkpt lat="41.97855" lon="13.059915"><ele>575.6</ele><time>2026-04-19T12:21:01.888Z</time></trkpt><trkpt lat="41.978545" lon="13.0600117"><ele>576.2</ele><time>2026-04-19T12:21:02.833Z</time></trkpt><trkpt lat="41.9785183" lon="13.0600917"><ele>576.8</ele><time>2026-04-19T12:21:03.833Z</time></trkpt><trkpt lat="41.9784183" lon="13.060145"><ele>577.4</ele><time>2026-04-19T12:21:04.83Z</time></trkpt><trkpt lat="41.978315" lon="13.0602083"><ele>578.0</ele><time>2026-04-19T12:21:05.837Z</time></trkpt><trkpt lat="41.9780867" lon="13.0603583"><ele>574.5</ele><time>2026-04-19T12:21:07.877Z</time></trkpt><trkpt lat="41.9779717" lon="13.060455"><ele>571.0</ele><time>2026-04-19T12:21:08.831Z</time></trkpt><trkpt lat="41.97786" lon="13.06056"><ele>567.5</ele><time>2026-04-19T12:21:09.828Z</time></trkpt><trkpt lat="41.9777517" lon="13.0606667"><ele>564.0</ele><time>2026-04-19T12:21:10.833Z</time></trkpt><trkpt lat="41.9776483" lon="13.0607683"><ele>566.5</ele><time>2026-04-19T12:21:11.83Z</time></trkpt><trkpt lat="41.9775483" lon="13.06086"><ele>569.0</ele><time>2026-04-19T12:21:12.829Z</time></trkpt><trkpt lat="41.97744" lon="13.0609367"><ele>571.5</ele><time>2026-04-19T12:21:13.872Z</time></trkpt><trkpt lat="41.97733" lon="13.0610067"><ele>574.0</ele><time>2026-04-19T12:21:14.835Z</time></trkpt><trkpt lat="41.9772333" lon="13.061085"><ele>574.0</ele><time>2026-04-19T12:21:15.831Z</time></trkpt><trkpt lat="41.9771583" lon="13.0611633"><ele>574.0</ele><time>2026-04-19T12:21:16.834Z</time></trkpt><trkpt lat="41.9770967" lon="13.0612467"><ele>574.0</ele><time>2026-04-19T12:21:17.831Z</time></trkpt><trkpt lat="41.977035" lon="13.06135"><ele>574.0</ele><time>2026-04-19T12:21:18.837Z</time></trkpt><trkpt lat="41.97698" lon="13.06145"><ele>574.0</ele><time>2026-04-19T12:21:19.872Z</time></trkpt><trkpt lat="41.9769383" lon="13.061545"><ele>574.0</ele><time>2026-04-19T12:21:20.827Z</time></trkpt><trkpt lat="41.9768933" lon="13.0616617"><ele>574.0</ele><time>2026-04-19T12:21:22.836Z</time></trkpt><trkpt lat="41.97698" lon="13.0616617"><ele>574.0</ele><time>2026-04-19T12:21:25.887Z</time></trkpt><trkpt lat="41.9771017" lon="13.0615933"><ele>574.0</ele><time>2026-04-19T12:21:27.832Z</time></trkpt><trkpt lat="41.9772533" lon="13.0615567"><ele>574.0</ele><time>2026-04-19T12:21:29.828Z</time></trkpt><trkpt lat="41.977355" lon="13.0615733"><ele>574.0</ele><time>2026-04-19T12:21:30.837Z</time></trkpt><trkpt lat="41.97746" lon="13.0615967"><ele>574.0</ele><time>2026-04-19T12:21:31.889Z</time></trkpt><trkpt lat="41.977565" lon="13.0616117"><ele>574.0</ele><time>2026-04-19T12:21:32.833Z</time></trkpt><trkpt lat="41.9776683" lon="13.0616083"><ele>574.0</ele><time>2026-04-19T12:21:33.833Z</time></trkpt><trkpt lat="41.9777767" lon="13.0615817"><ele>574.75</ele><time>2026-04-19T12:21:34.834Z</time></trkpt><trkpt lat="41.977895" lon="13.0615467"><ele>575.5</ele><time>2026-04-19T12:21:35.829Z</time></trkpt><trkpt lat="41.978015" lon="13.0615267"><ele>576.25</ele><time>2026-04-19T12:21:36.83Z</time></trkpt><trkpt lat="41.9781317" lon="13.0615133"><ele>577.0</ele><time>2026-04-19T12:21:37.871Z</time></trkpt><trkpt lat="41.97824" lon="13.0615217"><ele>577.0</ele><time>2026-04-19T12:21:38.829Z</time></trkpt><trkpt lat="41.9783467" lon="13.0615383"><ele>577.0</ele><time>2026-04-19T12:21:39.836Z</time></trkpt><trkpt lat="41.9784567" lon="13.0615483"><ele>577.0</ele><time>2026-04-19T12:21:40.831Z</time></trkpt><trkpt lat="41.97856" lon="13.06154"><ele>577.0</ele><time>2026-04-19T12:21:41.833Z</time></trkpt><trkpt lat="41.9786717" lon="13.061505"><ele>577.0</ele><time>2026-04-19T12:21:42.837Z</time></trkpt><trkpt lat="41.978785" lon="13.0614467"><ele>578.75</ele><time>2026-04-19T12:21:43.869Z</time></trkpt><trkpt lat="41.978895" lon="13.0613833"><ele>580.5</ele><time>2026-04-19T12:21:44.83Z</time></trkpt><trkpt lat="41.979005" lon="13.0613217"><ele>582.25</ele><time>2026-04-19T12:21:45.826Z</time></trkpt><trkpt lat="41.9791067" lon="13.0612517"><ele>584.0</ele><time>2026-04-19T12:21:46.827Z</time></trkpt><trkpt lat="41.979205" lon="13.0611717"><ele>587.75</ele><time>2026-04-19T12:21:47.829Z</time></trkpt><trkpt lat="41.9793" lon="13.0610883"><ele>591.5</ele><time>2026-04-19T12:21:48.833Z</time></trkpt><trkpt lat="41.9794833" lon="13.0609383"><ele>595.25</ele><time>2026-04-19T12:21:50.83Z</time></trkpt><trkpt lat="41.979575" lon="13.0608767"><ele>599.0</ele><time>2026-04-19T12:21:51.835Z</time></trkpt><trkpt lat="41.9796683" lon="13.0608333"><ele>599.0</ele><time>2026-04-19T12:21:52.83Z</time></trkpt><trkpt lat="41.9797617" lon="13.060805"><ele>599.0</ele><time>2026-04-19T12:21:53.834Z</time></trkpt><trkpt lat="41.979855" lon="13.0607833"><ele>599.0</ele><time>2026-04-19T12:21:54.84Z</time></trkpt><trkpt lat="41.9799417" lon="13.0607567"><ele>599.0</ele><time>2026-04-19T12:21:55.885Z</time></trkpt><trkpt lat="41.9800133" lon="13.0607183"><ele>599.0</ele><time>2026-04-19T12:21:56.83Z</time></trkpt><trkpt lat="41.9800767" lon="13.060665"><ele>599.0</ele><time>2026-04-19T12:21:57.833Z</time></trkpt><trkpt lat="41.9801167" lon="13.060595"><ele>601.6666666666666</ele><time>2026-04-19T12:21:58.836Z</time></trkpt><trkpt lat="41.980135" lon="13.0605117"><ele>604.3333333333333</ele><time>2026-04-19T12:21:59.834Z</time></trkpt><trkpt lat="41.9801233" lon="13.0604067"><ele>607.0</ele><time>2026-04-19T12:22:00.831Z</time></trkpt><trkpt lat="41.9800917" lon="13.060285"><ele>609.6666666666666</ele><time>2026-04-19T12:22:01.89Z</time></trkpt><trkpt lat="41.980075" lon="13.0601533"><ele>612.3333333333334</ele><time>2026-04-19T12:22:02.836Z</time></trkpt><trkpt lat="41.98008" lon="13.0600133"><ele>615.0</ele><time>2026-04-19T12:22:03.832Z</time></trkpt><trkpt lat="41.9800917" lon="13.059875"><ele>615.8</ele><time>2026-04-19T12:22:04.831Z</time></trkpt><trkpt lat="41.9800983" lon="13.0597483"><ele>616.6</ele><time>2026-04-19T12:22:05.833Z</time></trkpt><trkpt lat="41.9801133" lon="13.059635"><ele>617.4</ele><time>2026-04-19T12:22:06.835Z</time></trkpt><trkpt lat="41.9801267" lon="13.059535"><ele>618.2</ele><time>2026-04-19T12:22:07.873Z</time></trkpt><trkpt lat="41.98015" lon="13.059395"><ele>619.0</ele><time>2026-04-19T12:22:09.83Z</time></trkpt><trkpt lat="41.9803067" lon="13.0594083"><ele>619.0</ele><time>2026-04-19T12:22:23.826Z</time></trkpt><trkpt lat="41.9804067" lon="13.0594383"><ele>619.0</ele><time>2026-04-19T12:22:25.888Z</time></trkpt><trkpt lat="41.98047" lon="13.0594567"><ele>619.0</ele><time>2026-04-19T12:22:26.829Z</time></trkpt><trkpt lat="41.9805717" lon="13.0595133"><ele>619.0</ele><time>2026-04-19T12:22:28.831Z</time></trkpt><trkpt lat="41.9806467" lon="13.059525"><ele>619.0</ele><time>2026-04-19T12:22:30.832Z</time></trkpt><trkpt lat="41.9807567" lon="13.0594367"><ele>619.0</ele><time>2026-04-19T12:22:34.833Z</time></trkpt><trkpt lat="41.9807967" lon="13.05937"><ele>619.0</ele><time>2026-04-19T12:22:37.876Z</time></trkpt><trkpt lat="41.9808583" lon="13.0592717"><ele>619.0</ele><time>2026-04-19T12:22:45.834Z</time></trkpt><trkpt lat="41.98092" lon="13.0592383"><ele>619.0</ele><time>2026-04-19T12:22:48.828Z</time></trkpt><trkpt lat="41.9809833" lon="13.0592633"><ele>619.0</ele><time>2026-04-19T12:22:50.832Z</time></trkpt><trkpt lat="41.98104" lon="13.0593367"><ele>619.0</ele><time>2026-04-19T12:22:52.828Z</time></trkpt><trkpt lat="41.9811417" lon="13.05949"><ele>621.8</ele><time>2026-04-19T12:22:57.836Z</time></trkpt><trkpt lat="41.98121" lon="13.05953"><ele>624.5999999999999</ele><time>2026-04-19T12:22:59.83Z</time></trkpt><trkpt lat="41.981315" lon="13.0595067"><ele>627.4</ele><time>2026-04-19T12:23:02.833Z</time></trkpt><trkpt lat="41.9814233" lon="13.0594817"><ele>630.1999999999999</ele><time>2026-04-19T12:23:04.823Z</time></trkpt><trkpt lat="41.981505" lon="13.0594433"><ele>633.0</ele><time>2026-04-19T12:23:06.83Z</time></trkpt><trkpt lat="41.9815817" lon="13.0594183"><ele>633.0</ele><time>2026-04-19T12:23:08.829Z</time></trkpt><trkpt lat="41.981635" lon="13.0593583"><ele>633.0</ele><time>2026-04-19T12:23:10.833Z</time></trkpt><trkpt lat="41.9816417" lon="13.0592417"><ele>633.0</ele><time>2026-04-19T12:23:12.836Z</time></trkpt><trkpt lat="41.981665" lon="13.0591083"><ele>633.0</ele><time>2026-04-19T12:23:14.831Z</time></trkpt><trkpt lat="41.9818083" lon="13.0589683"><ele>633.0</ele><time>2026-04-19T12:23:18.829Z</time></trkpt><trkpt lat="41.981905" lon="13.0589817"><ele>633.1666666666666</ele><time>2026-04-19T12:23:20.833Z</time></trkpt><trkpt lat="41.98201" lon="13.0590433"><ele>633.3333333333334</ele><time>2026-04-19T12:23:22.832Z</time></trkpt><trkpt lat="41.9820617" lon="13.059095"><ele>633.5</ele><time>2026-04-19T12:23:23.831Z</time></trkpt><trkpt lat="41.9821133" lon="13.0591617"><ele>633.6666666666667</ele><time>2026-04-19T12:23:24.834Z</time></trkpt><trkpt lat="41.9821633" lon="13.0592417"><ele>633.8333333333334</ele><time>2026-04-19T12:23:25.836Z</time></trkpt><trkpt lat="41.9822083" lon="13.0593367"><ele>634.0</ele><time>2026-04-19T12:23:26.835Z</time></trkpt><trkpt lat="41.9822517" lon="13.05944"><ele>635.5</ele><time>2026-04-19T12:23:27.84Z</time></trkpt><trkpt lat="41.9822917" lon="13.0595533"><ele>637.0</ele><time>2026-04-19T12:23:28.833Z</time></trkpt><trkpt lat="41.9823283" lon="13.0596617"><ele>638.5</ele><time>2026-04-19T12:23:29.832Z</time></trkpt><trkpt lat="41.98237" lon="13.059765"><ele>640.0</ele><time>2026-04-19T12:23:30.83Z</time></trkpt><trkpt lat="41.982415" lon="13.0598583"><ele>641.5</ele><time>2026-04-19T12:23:31.888Z</time></trkpt><trkpt lat="41.9824567" lon="13.0599417"><ele>643.0</ele><time>2026-04-19T12:23:32.831Z</time></trkpt><trkpt lat="41.982495" lon="13.0600217"><ele>646.2</ele><time>2026-04-19T12:23:33.836Z</time></trkpt><trkpt lat="41.9825317" lon="13.060095"><ele>649.4</ele><time>2026-04-19T12:23:34.827Z</time></trkpt><trkpt lat="41.9825683" lon="13.060165"><ele>652.6</ele><time>2026-04-19T12:23:35.835Z</time></trkpt><trkpt lat="41.9826683" lon="13.0603983"><ele>655.8000000000001</ele><time>2026-04-19T12:23:38.83Z</time></trkpt><trkpt lat="41.9827" lon="13.060485"><ele>659.0</ele><time>2026-04-19T12:23:39.838Z</time></trkpt><trkpt lat="41.9827333" lon="13.0605733"><ele>659.0</ele><time>2026-04-19T12:23:40.829Z</time></trkpt><trkpt lat="41.9827717" lon="13.0606667"><ele>659.0</ele><time>2026-04-19T12:23:41.836Z</time></trkpt><trkpt lat="41.9828067" lon="13.06076"><ele>659.0</ele><time>2026-04-19T12:23:42.833Z</time></trkpt><trkpt lat="41.9828417" lon="13.0608467"><ele>659.0</ele><time>2026-04-19T12:23:43.869Z</time></trkpt><trkpt lat="41.9828817" lon="13.0609183"><ele>659.0</ele><time>2026-04-19T12:23:44.831Z</time></trkpt><trkpt lat="41.982915" lon="13.0610267"><ele>659.0</ele><time>2026-04-19T12:23:46.833Z</time></trkpt><trkpt lat="41.9829433" lon="13.0611183"><ele>660.8000000000001</ele><time>2026-04-19T12:23:48.843Z</time></trkpt><trkpt lat="41.9829733" lon="13.0612183"><ele>662.6</ele><time>2026-04-19T12:23:50.828Z</time></trkpt><trkpt lat="41.9830317" lon="13.0613"><ele>664.4</ele><time>2026-04-19T12:23:52.831Z</time></trkpt><trkpt lat="41.9831033" lon="13.0614083"><ele>666.2</ele><time>2026-04-19T12:23:54.828Z</time></trkpt><trkpt lat="41.9831717" lon="13.061515"><ele>668.0</ele><time>2026-04-19T12:23:56.826Z</time></trkpt><trkpt lat="41.983275" lon="13.0616983"><ele>670.1666666666666</ele><time>2026-04-19T12:24:00.834Z</time></trkpt><trkpt lat="41.9833467" lon="13.0617667"><ele>672.3333333333333</ele><time>2026-04-19T12:24:03.838Z</time></trkpt><trkpt lat="41.9833783" lon="13.06184"><ele>674.5</ele><time>2026-04-19T12:24:06.832Z</time></trkpt><trkpt lat="41.9834317" lon="13.0618917"><ele>676.6666666666666</ele><time>2026-04-19T12:24:09.835Z</time></trkpt><trkpt lat="41.9834817" lon="13.061965"><ele>678.8333333333334</ele><time>2026-04-19T12:24:12.833Z</time></trkpt><trkpt lat="41.9835367" lon="13.0620267"><ele>681.0</ele><time>2026-04-19T12:24:14.836Z</time></trkpt><trkpt lat="41.983615" lon="13.0620967"><ele>684.0</ele><time>2026-04-19T12:24:16.833Z</time></trkpt><trkpt lat="41.9837083" lon="13.0621517"><ele>687.0</ele><time>2026-04-19T12:24:18.831Z</time></trkpt><trkpt lat="41.98387" lon="13.0621567"><ele>690.0</ele><time>2026-04-19T12:24:23.833Z</time></trkpt><trkpt lat="41.98396" lon="13.0621567"><ele>693.0</ele><time>2026-04-19T12:24:25.893Z</time></trkpt><trkpt lat="41.9840617" lon="13.062195"><ele>693.0</ele><time>2026-04-19T12:24:27.831Z</time></trkpt><trkpt lat="41.98413" lon="13.0622533"><ele>693.0</ele><time>2026-04-19T12:24:29.835Z</time></trkpt><trkpt lat="41.984175" lon="13.062315"><ele>693.0</ele><time>2026-04-19T12:24:31.886Z</time></trkpt><trkpt lat="41.9842433" lon="13.0623383"><ele>693.0</ele><time>2026-04-19T12:24:33.83Z</time></trkpt><trkpt lat="41.9843067" lon="13.0623617"><ele>693.0</ele><time>2026-04-19T12:24:35.826Z</time></trkpt><trkpt lat="41.984375" lon="13.0623667"><ele>693.0</ele><time>2026-04-19T12:25:05.835Z</time></trkpt><trkpt lat="41.9845183" lon="13.0621383"><ele>694.3333333333334</ele><time>2026-04-19T12:25:10.834Z</time></trkpt><trkpt lat="41.98455" lon="13.0620367"><ele>695.6666666666666</ele><time>2026-04-19T12:25:11.833Z</time></trkpt><trkpt lat="41.984585" lon="13.06193"><ele>697.0</ele><time>2026-04-19T12:25:12.828Z</time></trkpt><trkpt lat="41.9846233" lon="13.06183"><ele>698.3333333333333</ele><time>2026-04-19T12:25:13.871Z</time></trkpt><trkpt lat="41.9846617" lon="13.0617433"><ele>699.6666666666666</ele><time>2026-04-19T12:25:14.827Z</time></trkpt><trkpt lat="41.9847017" lon="13.0616767"><ele>701.0</ele><time>2026-04-19T12:25:15.831Z</time></trkpt><trkpt lat="41.98475" lon="13.0616183"><ele>701.1428571428572</ele><time>2026-04-19T12:25:16.83Z</time></trkpt><trkpt lat="41.984805" lon="13.0615767"><ele>701.2857142857142</ele><time>2026-04-19T12:25:17.828Z</time></trkpt><trkpt lat="41.98487" lon="13.0615467"><ele>701.4285714285714</ele><time>2026-04-19T12:25:18.828Z</time></trkpt><trkpt lat="41.984945" lon="13.06152"><ele>701.5714285714287</ele><time>2026-04-19T12:25:19.871Z</time></trkpt><trkpt lat="41.98502" lon="13.0614933"><ele>701.7142857142858</ele><time>2026-04-19T12:25:20.83Z</time></trkpt><trkpt lat="41.9850917" lon="13.0614583"><ele>701.8571428571429</ele><time>2026-04-19T12:25:21.829Z</time></trkpt><trkpt lat="41.9851533" lon="13.0614233"><ele>702.0</ele><time>2026-04-19T12:25:22.829Z</time></trkpt><trkpt lat="41.9852433" lon="13.0613517"><ele>702.0</ele><time>2026-04-19T12:25:24.834Z</time></trkpt><trkpt lat="41.9853067" lon="13.0612867"><ele>702.0</ele><time>2026-04-19T12:25:26.83Z</time></trkpt><trkpt lat="41.98542" lon="13.06113"><ele>702.0</ele><time>2026-04-19T12:25:51.839Z</time></trkpt><trkpt lat="41.98555" lon="13.060955"><ele>702.0</ele><time>2026-04-19T12:25:57.833Z</time></trkpt><trkpt lat="41.9855883" lon="13.0608867"><ele>702.0</ele><time>2026-04-19T12:25:58.831Z</time></trkpt><trkpt lat="41.9856317" lon="13.0608133"><ele>702.0</ele><time>2026-04-19T12:25:59.834Z</time></trkpt><trkpt lat="41.98569" lon="13.06074"><ele>702.0</ele><time>2026-04-19T12:26:00.835Z</time></trkpt><trkpt lat="41.985755" lon="13.06067"><ele>702.0</ele><time>2026-04-19T12:26:01.888Z</time></trkpt><trkpt lat="41.985815" lon="13.0606067"><ele>702.0</ele><time>2026-04-19T12:26:02.83Z</time></trkpt><trkpt lat="41.9858767" lon="13.0605417"><ele>702.0</ele><time>2026-04-19T12:26:03.835Z</time></trkpt><trkpt lat="41.985945" lon="13.0604783"><ele>702.2</ele><time>2026-04-19T12:26:04.829Z</time></trkpt><trkpt lat="41.9860183" lon="13.0604067"><ele>702.4000000000001</ele><time>2026-04-19T12:26:05.834Z</time></trkpt><trkpt lat="41.9860917" lon="13.06033"><ele>702.5999999999999</ele><time>2026-04-19T12:26:06.835Z</time></trkpt><trkpt lat="41.98617" lon="13.06025"><ele>702.8</ele><time>2026-04-19T12:26:07.873Z</time></trkpt><trkpt lat="41.9862483" lon="13.0601617"><ele>703.0</ele><time>2026-04-19T12:26:08.84Z</time></trkpt><trkpt lat="41.9863267" lon="13.0600617"><ele>703.0</ele><time>2026-04-19T12:26:09.835Z</time></trkpt><trkpt lat="41.9864" lon="13.0599583"><ele>703.0</ele><time>2026-04-19T12:26:10.83Z</time></trkpt><trkpt lat="41.9864683" lon="13.05985"><ele>703.0</ele><time>2026-04-19T12:26:11.833Z</time></trkpt><trkpt lat="41.9865383" lon="13.0597333"><ele>703.0</ele><time>2026-04-19T12:26:12.832Z</time></trkpt><trkpt lat="41.9866733" lon="13.059485"><ele>699.8</ele><time>2026-04-19T12:26:14.833Z</time></trkpt><trkpt lat="41.9867383" lon="13.059365"><ele>696.5999999999999</ele><time>2026-04-19T12:26:15.834Z</time></trkpt><trkpt lat="41.9868017" lon="13.05925"><ele>693.4000000000001</ele><time>2026-04-19T12:26:16.824Z</time></trkpt><trkpt lat="41.98686" lon="13.059135"><ele>690.2</ele><time>2026-04-19T12:26:17.834Z</time></trkpt><trkpt lat="41.9869233" lon="13.0590283"><ele>687.0</ele><time>2026-04-19T12:26:18.83Z</time></trkpt><trkpt lat="41.9869883" lon="13.05893"><ele>686.1666666666666</ele><time>2026-04-19T12:26:19.874Z</time></trkpt><trkpt lat="41.987055" lon="13.058835"><ele>685.3333333333334</ele><time>2026-04-19T12:26:20.833Z</time></trkpt><trkpt lat="41.9871167" lon="13.0587433"><ele>684.5</ele><time>2026-04-19T12:26:21.831Z</time></trkpt><trkpt lat="41.9871717" lon="13.0586567"><ele>683.6666666666667</ele><time>2026-04-19T12:26:22.835Z</time></trkpt><trkpt lat="41.9872133" lon="13.0585733"><ele>682.8333333333334</ele><time>2026-04-19T12:26:23.833Z</time></trkpt><trkpt lat="41.98725" lon="13.0584933"><ele>682.0</ele><time>2026-04-19T12:26:24.831Z</time></trkpt><trkpt lat="41.987315" lon="13.05838"><ele>682.0</ele><time>2026-04-19T12:26:26.831Z</time></trkpt><trkpt lat="41.9873917" lon="13.0583833"><ele>682.0</ele><time>2026-04-19T12:26:29.832Z</time></trkpt><trkpt lat="41.9874483" lon="13.0584283"><ele>682.0</ele><time>2026-04-19T12:26:45.833Z</time></trkpt><trkpt lat="41.9875717" lon="13.0585267"><ele>682.0</ele><time>2026-04-19T12:26:50.828Z</time></trkpt><trkpt lat="41.9876133" lon="13.0585983"><ele>682.0</ele><time>2026-04-19T12:26:52.831Z</time></trkpt><trkpt lat="41.98767" lon="13.0586683"><ele>682.0</ele><time>2026-04-19T12:26:54.828Z</time></trkpt><trkpt lat="41.9877183" lon="13.058745"><ele>678.0</ele><time>2026-04-19T12:26:56.824Z</time></trkpt><trkpt lat="41.98777" lon="13.0588017"><ele>674.0</ele><time>2026-04-19T12:26:58.836Z</time></trkpt><trkpt lat="41.98783" lon="13.0588883"><ele>670.0</ele><time>2026-04-19T12:27:01.881Z</time></trkpt><trkpt lat="41.9878817" lon="13.05895"><ele>666.0</ele><time>2026-04-19T12:27:03.832Z</time></trkpt><trkpt lat="41.9879617" lon="13.0590583"><ele>662.0</ele><time>2026-04-19T12:27:05.832Z</time></trkpt><trkpt lat="41.9880133" lon="13.059115"><ele>658.0</ele><time>2026-04-19T12:27:06.837Z</time></trkpt><trkpt lat="41.9881525" lon="13.0593552"><ele>658.0</ele><time>2026-04-19T12:27:10.835Z</time></trkpt><trkpt lat="41.9881741" lon="13.0594764"><ele>658.0</ele><time>2026-04-19T12:27:12.837Z</time></trkpt><trkpt lat="41.9882044" lon="13.0595668"><ele>658.0</ele><time>2026-04-19T12:27:14.834Z</time></trkpt><trkpt lat="41.9883029" lon="13.0595991"><ele>658.0</ele><time>2026-04-19T12:27:17.833Z</time></trkpt><trkpt lat="41.9884023" lon="13.0595797"><ele>658.0</ele><time>2026-04-19T12:27:19.872Z</time></trkpt><trkpt lat="41.9885174" lon="13.0595584"><ele>658.2</ele><time>2026-04-19T12:27:21.834Z</time></trkpt><trkpt lat="41.9886231" lon="13.0595627"><ele>658.4</ele><time>2026-04-19T12:27:23.836Z</time></trkpt><trkpt lat="41.988698" lon="13.0595841"><ele>658.6</ele><time>2026-04-19T12:27:25.889Z</time></trkpt><trkpt lat="41.9887772" lon="13.059585"><ele>658.8000000000001</ele><time>2026-04-19T12:27:33.837Z</time></trkpt><trkpt lat="41.9888626" lon="13.0594102"><ele>659.0</ele><time>2026-04-19T12:27:37.871Z</time></trkpt><trkpt lat="41.9888552" lon="13.0592588"><ele>659.0</ele><time>2026-04-19T12:27:39.832Z</time></trkpt><trkpt lat="41.9888348" lon="13.0591238"><ele>659.0</ele><time>2026-04-19T12:27:41.832Z</time></trkpt><trkpt lat="41.9888072" lon="13.0590166"><ele>659.0</ele><time>2026-04-19T12:27:43.877Z</time></trkpt><trkpt lat="41.9887798" lon="13.0589231"><ele>659.0</ele><time>2026-04-19T12:27:45.838Z</time></trkpt><trkpt lat="41.9887648" lon="13.0588355"><ele>659.0</ele><time>2026-04-19T12:27:47.83Z</time></trkpt><trkpt lat="41.988763" lon="13.0587339"><ele>659.0</ele><time>2026-04-19T12:27:51.837Z</time></trkpt><trkpt lat="41.9888415" lon="13.05855"><ele>660.8000000000001</ele><time>2026-04-19T12:28:03.844Z</time></trkpt><trkpt lat="41.9889599" lon="13.0583944"><ele>662.6</ele><time>2026-04-19T12:28:05.842Z</time></trkpt><trkpt lat="41.9890334" lon="13.0582971"><ele>664.4</ele><time>2026-04-19T12:28:06.828Z</time></trkpt><trkpt lat="41.9890883" lon="13.0582132"><ele>666.2</ele><time>2026-04-19T12:28:07.872Z</time></trkpt><trkpt lat="41.9891265" lon="13.0581434"><ele>668.0</ele><time>2026-04-19T12:28:08.831Z</time></trkpt><trkpt lat="41.9891915" lon="13.0580171"><ele>668.0</ele><time>2026-04-19T12:28:10.829Z</time></trkpt><trkpt lat="41.9892134" lon="13.0579235"><ele>668.0</ele><time>2026-04-19T12:28:12.833Z</time></trkpt><trkpt lat="41.9892426" lon="13.0578044"><ele>668.0</ele><time>2026-04-19T12:28:16.828Z</time></trkpt><trkpt lat="41.9892845" lon="13.0576889"><ele>668.0</ele><time>2026-04-19T12:28:18.835Z</time></trkpt><trkpt lat="41.9892958" lon="13.0575992"><ele>668.0</ele><time>2026-04-19T12:28:19.871Z</time></trkpt><trkpt lat="41.9892998" lon="13.0575113"><ele>668.0</ele><time>2026-04-19T12:28:20.832Z</time></trkpt><trkpt lat="41.9893017" lon="13.0573467"><ele>667.0</ele><time>2026-04-19T12:28:22.835Z</time></trkpt><trkpt lat="41.9893317" lon="13.0571967"><ele>666.0</ele><time>2026-04-19T12:28:24.833Z</time></trkpt><trkpt lat="41.9894017" lon="13.0568967"><ele>665.0</ele><time>2026-04-19T12:28:28.833Z</time></trkpt><trkpt lat="41.9894083" lon="13.0567383"><ele>665.0</ele><time>2026-04-19T12:28:30.834Z</time></trkpt><trkpt lat="41.9893983" lon="13.0566233"><ele>665.0</ele><time>2026-04-19T12:28:32.842Z</time></trkpt><trkpt lat="41.9893833" lon="13.0565083"><ele>665.0</ele><time>2026-04-19T12:28:34.832Z</time></trkpt><trkpt lat="41.98937" lon="13.05639"><ele>665.0</ele><time>2026-04-19T12:28:36.827Z</time></trkpt><trkpt lat="41.9893617" lon="13.056265"><ele>665.0</ele><time>2026-04-19T12:28:38.832Z</time></trkpt><trkpt lat="41.98934" lon="13.0561333"><ele>665.5</ele><time>2026-04-19T12:28:40.839Z</time></trkpt><trkpt lat="41.9893067" lon="13.0559867"><ele>666.0</ele><time>2026-04-19T12:28:42.84Z</time></trkpt><trkpt lat="41.9892867" lon="13.0558433"><ele>666.5</ele><time>2026-04-19T12:28:44.835Z</time></trkpt><trkpt lat="41.9892517" lon="13.0557267"><ele>667.0</ele><time>2026-04-19T12:28:46.833Z</time></trkpt><trkpt lat="41.9891883" lon="13.05551"><ele>661.5</ele><time>2026-04-19T12:28:50.83Z</time></trkpt><trkpt lat="41.989165" lon="13.0553983"><ele>656.0</ele><time>2026-04-19T12:28:52.828Z</time></trkpt><trkpt lat="41.9891183" lon="13.055285"><ele>650.5</ele><time>2026-04-19T12:28:54.834Z</time></trkpt><trkpt lat="41.9890933" lon="13.0551733"><ele>645.0</ele><time>2026-04-19T12:28:56.838Z</time></trkpt><trkpt lat="41.9890683" lon="13.0550817"><ele>639.5</ele><time>2026-04-19T12:28:58.836Z</time></trkpt><trkpt lat="41.9890383" lon="13.0549983"><ele>634.0</ele><time>2026-04-19T12:29:00.839Z</time></trkpt><trkpt lat="41.9889983" lon="13.0548717"><ele>633.8</ele><time>2026-04-19T12:29:03.839Z</time></trkpt><trkpt lat="41.988955" lon="13.0547633"><ele>633.5999999999999</ele><time>2026-04-19T12:29:05.832Z</time></trkpt><trkpt lat="41.9889317" lon="13.05467"><ele>633.4</ele><time>2026-04-19T12:29:07.87Z</time></trkpt><trkpt lat="41.988895" lon="13.0544733"><ele>633.1999999999999</ele><time>2026-04-19T12:29:11.83Z</time></trkpt><trkpt lat="41.98888" lon="13.054355"><ele>633.0</ele><time>2026-04-19T12:29:13.87Z</time></trkpt><trkpt lat="41.988875" lon="13.054265"><ele>633.0</ele><time>2026-04-19T12:29:15.836Z</time></trkpt><trkpt lat="41.9888417" lon="13.05417"><ele>633.0</ele><time>2026-04-19T12:29:18.833Z</time></trkpt><trkpt lat="41.98875" lon="13.0540683"><ele>633.0</ele><time>2026-04-19T12:29:27.834Z</time></trkpt><trkpt lat="41.988715" lon="13.05399"><ele>633.0</ele><time>2026-04-19T12:29:29.834Z</time></trkpt><trkpt lat="41.9886167" lon="13.0537733"><ele>634.5</ele><time>2026-04-19T12:29:33.836Z</time></trkpt><trkpt lat="41.9885633" lon="13.0537017"><ele>636.0</ele><time>2026-04-19T12:29:35.832Z</time></trkpt><trkpt lat="41.988505" lon="13.05362"><ele>637.5</ele><time>2026-04-19T12:29:38.831Z</time></trkpt><trkpt lat="41.98845" lon="13.053495"><ele>639.0</ele><time>2026-04-19T12:29:41.834Z</time></trkpt><trkpt lat="41.9884067" lon="13.0533767"><ele>640.5</ele><time>2026-04-19T12:29:43.876Z</time></trkpt><trkpt lat="41.9883717" lon="13.053285"><ele>642.0</ele><time>2026-04-19T12:29:45.83Z</time></trkpt><trkpt lat="41.9883317" lon="13.0531733"><ele>638.1666666666666</ele><time>2026-04-19T12:29:47.834Z</time></trkpt><trkpt lat="41.988305" lon="13.053085"><ele>634.3333333333334</ele><time>2026-04-19T12:29:49.874Z</time></trkpt><trkpt lat="41.988235" lon="13.0528983"><ele>630.5</ele><time>2026-04-19T12:29:54.843Z</time></trkpt><trkpt lat="41.9882067" lon="13.0528183"><ele>626.6666666666667</ele><time>2026-04-19T12:29:56.834Z</time></trkpt><trkpt lat="41.9881833" lon="13.05272"><ele>622.8333333333334</ele><time>2026-04-19T12:29:58.832Z</time></trkpt><trkpt lat="41.9881483" lon="13.052635"><ele>619.0</ele><time>2026-04-19T12:30:00.834Z</time></trkpt><trkpt lat="41.9881267" lon="13.0525533"><ele>619.0</ele><time>2026-04-19T12:30:02.832Z</time></trkpt><trkpt lat="41.9880842" lon="13.0524571"><ele>619.0</ele><time>2026-04-19T12:30:05.836Z</time></trkpt><trkpt lat="41.9880654" lon="13.0523674"><ele>619.0</ele><time>2026-04-19T12:30:07.872Z</time></trkpt><trkpt lat="41.9880484" lon="13.0522338"><ele>619.0</ele><time>2026-04-19T12:30:09.835Z</time></trkpt><trkpt lat="41.9880517" lon="13.0521248"><ele>619.0</ele><time>2026-04-19T12:30:11.83Z</time></trkpt><trkpt lat="41.9880323" lon="13.0519331"><ele>618.8333333333334</ele><time>2026-04-19T12:30:16.823Z</time></trkpt><trkpt lat="41.9880123" lon="13.0518378"><ele>618.6666666666667</ele><time>2026-04-19T12:30:18.836Z</time></trkpt><trkpt lat="41.9879996" lon="13.0517355"><ele>618.5</ele><time>2026-04-19T12:30:20.828Z</time></trkpt><trkpt lat="41.9880333" lon="13.051652"><ele>618.3333333333334</ele><time>2026-04-19T12:30:23.836Z</time></trkpt><trkpt lat="41.9880837" lon="13.0515857"><ele>618.1666666666666</ele><time>2026-04-19T12:30:50.836Z</time></trkpt><trkpt lat="41.9881709" lon="13.0514557"><ele>618.0</ele><time>2026-04-19T12:31:32.835Z</time></trkpt><trkpt lat="41.9882319" lon="13.0512151"><ele>616.1999999999999</ele><time>2026-04-19T12:31:36.835Z</time></trkpt><trkpt lat="41.98826" lon="13.0510861"><ele>614.4</ele><time>2026-04-19T12:31:38.833Z</time></trkpt><trkpt lat="41.9882845" lon="13.0509831"><ele>612.5999999999999</ele><time>2026-04-19T12:31:40.839Z</time></trkpt><trkpt lat="41.9882759" lon="13.0508522"><ele>610.8</ele><time>2026-04-19T12:31:42.835Z</time></trkpt><trkpt lat="41.9882502" lon="13.0507153"><ele>609.0</ele><time>2026-04-19T12:31:44.831Z</time></trkpt><trkpt lat="41.9882278" lon="13.0506195"><ele>608.25</ele><time>2026-04-19T12:31:46.832Z</time></trkpt><trkpt lat="41.988185" lon="13.0505283"><ele>607.5</ele><time>2026-04-19T12:32:12.837Z</time></trkpt><trkpt lat="41.9881467" lon="13.050255"><ele>606.75</ele><time>2026-04-19T12:32:44.837Z</time></trkpt><trkpt lat="41.9881" lon="13.05006"><ele>606.0</ele><time>2026-04-19T12:32:47.837Z</time></trkpt><trkpt lat="41.9880817" lon="13.0499767"><ele>606.4</ele><time>2026-04-19T12:32:48.84Z</time></trkpt><trkpt lat="41.9880533" lon="13.0498333"><ele>606.8</ele><time>2026-04-19T12:32:50.835Z</time></trkpt><trkpt lat="41.9880067" lon="13.04972"><ele>607.1999999999999</ele><time>2026-04-19T12:32:52.836Z</time></trkpt><trkpt lat="41.98793" lon="13.049575"><ele>607.6</ele><time>2026-04-19T12:32:54.836Z</time></trkpt><trkpt lat="41.9879033" lon="13.0494817"><ele>608.0</ele><time>2026-04-19T12:32:55.887Z</time></trkpt><trkpt lat="41.9878867" lon="13.04938"><ele>608.0</ele><time>2026-04-19T12:32:56.834Z</time></trkpt><trkpt lat="41.98787" lon="13.0492867"><ele>608.0</ele><time>2026-04-19T12:32:57.832Z</time></trkpt><trkpt lat="41.98785" lon="13.0491983"><ele>608.0</ele><time>2026-04-19T12:32:58.834Z</time></trkpt><trkpt lat="41.98783" lon="13.049105"><ele>608.0</ele><time>2026-04-19T12:32:59.831Z</time></trkpt><trkpt lat="41.9878083" lon="13.0490067"><ele>608.0</ele><time>2026-04-19T12:33:00.837Z</time></trkpt><trkpt lat="41.9877883" lon="13.0488983"><ele>608.0</ele><time>2026-04-19T12:33:01.888Z</time></trkpt><trkpt lat="41.9877617" lon="13.048785"><ele>608.75</ele><time>2026-04-19T12:33:02.834Z</time></trkpt><trkpt lat="41.9877333" lon="13.048665"><ele>609.5</ele><time>2026-04-19T12:33:03.839Z</time></trkpt><trkpt lat="41.9877017" lon="13.0485367"><ele>610.25</ele><time>2026-04-19T12:33:04.835Z</time></trkpt><trkpt lat="41.98767" lon="13.0484067"><ele>611.0</ele><time>2026-04-19T12:33:05.836Z</time></trkpt><trkpt lat="41.9876083" lon="13.0481417"><ele>609.5</ele><time>2026-04-19T12:33:07.868Z</time></trkpt><trkpt lat="41.987575" lon="13.0480183"><ele>608.0</ele><time>2026-04-19T12:33:08.83Z</time></trkpt><trkpt lat="41.9875433" lon="13.0479017"><ele>606.5</ele><time>2026-04-19T12:33:09.838Z</time></trkpt><trkpt lat="41.98751" lon="13.047795"><ele>605.0</ele><time>2026-04-19T12:33:10.833Z</time></trkpt><trkpt lat="41.987485" lon="13.0476967"><ele>603.5</ele><time>2026-04-19T12:33:11.837Z</time></trkpt><trkpt lat="41.9874633" lon="13.0476017"><ele>602.0</ele><time>2026-04-19T12:33:12.834Z</time></trkpt><trkpt lat="41.987455" lon="13.0475083"><ele>599.8333333333333</ele><time>2026-04-19T12:33:13.876Z</time></trkpt><trkpt lat="41.9874633" lon="13.0474117"><ele>597.6666666666666</ele><time>2026-04-19T12:33:14.83Z</time></trkpt><trkpt lat="41.9874833" lon="13.0473083"><ele>595.5</ele><time>2026-04-19T12:33:15.828Z</time></trkpt><trkpt lat="41.98751" lon="13.0472133"><ele>593.3333333333334</ele><time>2026-04-19T12:33:16.834Z</time></trkpt><trkpt lat="41.98755" lon="13.0471333"><ele>591.1666666666667</ele><time>2026-04-19T12:33:17.829Z</time></trkpt><trkpt lat="41.9876083" lon="13.0470633"><ele>589.0</ele><time>2026-04-19T12:33:18.833Z</time></trkpt><trkpt lat="41.9876867" lon="13.0469883"><ele>589.0</ele><time>2026-04-19T12:33:19.874Z</time></trkpt><trkpt lat="41.9877667" lon="13.0469017"><ele>589.0</ele><time>2026-04-19T12:33:20.833Z</time></trkpt><trkpt lat="41.9878483" lon="13.0468083"><ele>589.0</ele><time>2026-04-19T12:33:21.835Z</time></trkpt><trkpt lat="41.9879283" lon="13.0467083"><ele>589.0</ele><time>2026-04-19T12:33:22.838Z</time></trkpt><trkpt lat="41.9880167" lon="13.0466117"><ele>589.0</ele><time>2026-04-19T12:33:23.835Z</time></trkpt><trkpt lat="41.9880933" lon="13.046515"><ele>591.25</ele><time>2026-04-19T12:33:24.832Z</time></trkpt><trkpt lat="41.9881583" lon="13.0464167"><ele>593.5</ele><time>2026-04-19T12:33:25.886Z</time></trkpt><trkpt lat="41.9882133" lon="13.0463217"><ele>595.75</ele><time>2026-04-19T12:33:26.835Z</time></trkpt><trkpt lat="41.9883267" lon="13.04613"><ele>598.0</ele><time>2026-04-19T12:33:28.84Z</time></trkpt><trkpt lat="41.9883817" lon="13.046025"><ele>598.0</ele><time>2026-04-19T12:33:29.835Z</time></trkpt><trkpt lat="41.9884417" lon="13.0459167"><ele>598.0</ele><time>2026-04-19T12:33:30.845Z</time></trkpt><trkpt lat="41.9885" lon="13.0458133"><ele>598.0</ele><time>2026-04-19T12:33:31.888Z</time></trkpt><trkpt lat="41.9885433" lon="13.0457133"><ele>598.0</ele><time>2026-04-19T12:33:32.836Z</time></trkpt><trkpt lat="41.9885783" lon="13.0456117"><ele>598.0</ele><time>2026-04-19T12:33:33.841Z</time></trkpt><trkpt lat="41.9886083" lon="13.0455067"><ele>595.1999999999999</ele><time>2026-04-19T12:33:34.827Z</time></trkpt><trkpt lat="41.98864" lon="13.0453933"><ele>592.4</ele><time>2026-04-19T12:33:35.834Z</time></trkpt><trkpt lat="41.9886667" lon="13.0452767"><ele>589.5999999999999</ele><time>2026-04-19T12:33:36.839Z</time></trkpt><trkpt lat="41.9886933" lon="13.0451517"><ele>586.8</ele><time>2026-04-19T12:33:37.874Z</time></trkpt><trkpt lat="41.9887233" lon="13.04503"><ele>584.0</ele><time>2026-04-19T12:33:38.83Z</time></trkpt><trkpt lat="41.9887583" lon="13.0449017"><ele>580.2</ele><time>2026-04-19T12:33:39.829Z</time></trkpt><trkpt lat="41.9887883" lon="13.0447733"><ele>576.4</ele><time>2026-04-19T12:33:40.828Z</time></trkpt><trkpt lat="41.9888233" lon="13.04465"><ele>572.6</ele><time>2026-04-19T12:33:41.834Z</time></trkpt><trkpt lat="41.98886" lon="13.0445317"><ele>568.8</ele><time>2026-04-19T12:33:42.831Z</time></trkpt><trkpt lat="41.9888933" lon="13.0444167"><ele>565.0</ele><time>2026-04-19T12:33:43.874Z</time></trkpt><trkpt lat="41.9889183" lon="13.0443083"><ele>565.0</ele><time>2026-04-19T12:33:44.83Z</time></trkpt><trkpt lat="41.98894" lon="13.0441967"><ele>565.0</ele><time>2026-04-19T12:33:45.833Z</time></trkpt><trkpt lat="41.9889583" lon="13.0440833"><ele>565.0</ele><time>2026-04-19T12:33:46.837Z</time></trkpt><trkpt lat="41.9889733" lon="13.04397"><ele>565.0</ele><time>2026-04-19T12:33:47.832Z</time></trkpt><trkpt lat="41.9890133" lon="13.0437467"><ele>565.0</ele><time>2026-04-19T12:33:49.873Z</time></trkpt><trkpt lat="41.9890383" lon="13.043635"><ele>563.6</ele><time>2026-04-19T12:33:50.838Z</time></trkpt><trkpt lat="41.9890683" lon="13.0435133"><ele>562.2</ele><time>2026-04-19T12:33:51.835Z</time></trkpt><trkpt lat="41.9891067" lon="13.0433917"><ele>560.8</ele><time>2026-04-19T12:33:52.833Z</time></trkpt><trkpt lat="41.98914" lon="13.0432717"><ele>559.4</ele><time>2026-04-19T12:33:53.833Z</time></trkpt><trkpt lat="41.989165" lon="13.04315"><ele>558.0</ele><time>2026-04-19T12:33:54.832Z</time></trkpt><trkpt lat="41.9891883" lon="13.043035"><ele>558.0</ele><time>2026-04-19T12:33:55.881Z</time></trkpt><trkpt lat="41.9892117" lon="13.0429267"><ele>558.0</ele><time>2026-04-19T12:33:56.831Z</time></trkpt><trkpt lat="41.98923" lon="13.0428183"><ele>558.0</ele><time>2026-04-19T12:33:57.838Z</time></trkpt><trkpt lat="41.9892467" lon="13.042705"><ele>558.0</ele><time>2026-04-19T12:33:58.836Z</time></trkpt><trkpt lat="41.9892667" lon="13.0425883"><ele>558.0</ele><time>2026-04-19T12:33:59.83Z</time></trkpt><trkpt lat="41.98929" lon="13.042465"><ele>558.0</ele><time>2026-04-19T12:34:00.835Z</time></trkpt><trkpt lat="41.9893133" lon="13.04234"><ele>555.8</ele><time>2026-04-19T12:34:01.876Z</time></trkpt><trkpt lat="41.9893333" lon="13.0422067"><ele>553.5999999999999</ele><time>2026-04-19T12:34:02.829Z</time></trkpt><trkpt lat="41.9893467" lon="13.0420617"><ele>551.4000000000001</ele><time>2026-04-19T12:34:03.828Z</time></trkpt><trkpt lat="41.9893583" lon="13.0419133"><ele>549.2</ele><time>2026-04-19T12:34:04.826Z</time></trkpt><trkpt lat="41.9893683" lon="13.04177"><ele>547.0</ele><time>2026-04-19T12:34:05.831Z</time></trkpt><trkpt lat="41.9893767" lon="13.0416367"><ele>545.5</ele><time>2026-04-19T12:34:06.832Z</time></trkpt><trkpt lat="41.98938" lon="13.0415017"><ele>544.0</ele><time>2026-04-19T12:34:07.875Z</time></trkpt><trkpt lat="41.989375" lon="13.0413733"><ele>542.5</ele><time>2026-04-19T12:34:08.833Z</time></trkpt><trkpt lat="41.9893433" lon="13.0411417"><ele>541.0</ele><time>2026-04-19T12:34:10.829Z</time></trkpt><trkpt lat="41.9893183" lon="13.0410383"><ele>541.0</ele><time>2026-04-19T12:34:11.838Z</time></trkpt><trkpt lat="41.989285" lon="13.0409367"><ele>541.0</ele><time>2026-04-19T12:34:12.828Z</time></trkpt><trkpt lat="41.9892417" lon="13.04083"><ele>541.0</ele><time>2026-04-19T12:34:13.871Z</time></trkpt><trkpt lat="41.9891967" lon="13.04072"><ele>541.0</ele><time>2026-04-19T12:34:14.828Z</time></trkpt><trkpt lat="41.9891517" lon="13.0406033"><ele>541.0</ele><time>2026-04-19T12:34:15.83Z</time></trkpt><trkpt lat="41.98911" lon="13.0404783"><ele>535.0</ele><time>2026-04-19T12:34:16.829Z</time></trkpt><trkpt lat="41.9890683" lon="13.0403467"><ele>529.0</ele><time>2026-04-19T12:34:17.829Z</time></trkpt><trkpt lat="41.98903" lon="13.0402117"><ele>523.0</ele><time>2026-04-19T12:34:18.835Z</time></trkpt><trkpt lat="41.9889933" lon="13.040075"><ele>517.0</ele><time>2026-04-19T12:34:19.874Z</time></trkpt><trkpt lat="41.988955" lon="13.0399417"><ele>511.0</ele><time>2026-04-19T12:34:20.834Z</time></trkpt><trkpt lat="41.9889167" lon="13.0398067"><ele>510.20000000000005</ele><time>2026-04-19T12:34:21.834Z</time></trkpt><trkpt lat="41.9888717" lon="13.03968"><ele>509.40000000000003</ele><time>2026-04-19T12:34:22.83Z</time></trkpt><trkpt lat="41.9888183" lon="13.03956"><ele>508.6</ele><time>2026-04-19T12:34:23.833Z</time></trkpt><trkpt lat="41.9887517" lon="13.0394533"><ele>507.8</ele><time>2026-04-19T12:34:24.832Z</time></trkpt><trkpt lat="41.9886733" lon="13.0393533"><ele>507.0</ele><time>2026-04-19T12:34:25.889Z</time></trkpt><trkpt lat="41.98859" lon="13.0392533"><ele>507.0</ele><time>2026-04-19T12:34:26.835Z</time></trkpt><trkpt lat="41.9885133" lon="13.0391517"><ele>507.0</ele><time>2026-04-19T12:34:27.838Z</time></trkpt><trkpt lat="41.9884417" lon="13.0390417"><ele>507.0</ele><time>2026-04-19T12:34:28.833Z</time></trkpt><trkpt lat="41.9883717" lon="13.0389333"><ele>507.0</ele><time>2026-04-19T12:34:29.835Z</time></trkpt><trkpt lat="41.9882333" lon="13.0387167"><ele>503.20000000000005</ele><time>2026-04-19T12:34:31.882Z</time></trkpt><trkpt lat="41.9881667" lon="13.038615"><ele>499.40000000000003</ele><time>2026-04-19T12:34:32.83Z</time></trkpt><trkpt lat="41.9881017" lon="13.0385217"><ele>495.59999999999997</ele><time>2026-04-19T12:34:33.829Z</time></trkpt><trkpt lat="41.9880333" lon="13.0384233"><ele>491.79999999999995</ele><time>2026-04-19T12:34:34.828Z</time></trkpt><trkpt lat="41.9879617" lon="13.0383233"><ele>488.0</ele><time>2026-04-19T12:34:35.83Z</time></trkpt><trkpt lat="41.9878833" lon="13.0382267"><ele>486.2</ele><time>2026-04-19T12:34:36.832Z</time></trkpt><trkpt lat="41.9878033" lon="13.0381367"><ele>484.4</ele><time>2026-04-19T12:34:37.876Z</time></trkpt><trkpt lat="41.9877183" lon="13.0380633"><ele>482.59999999999997</ele><time>2026-04-19T12:34:38.827Z</time></trkpt><trkpt lat="41.9876283" lon="13.038015"><ele>480.79999999999995</ele><time>2026-04-19T12:34:39.831Z</time></trkpt><trkpt lat="41.987545" lon="13.0379883"><ele>479.0</ele><time>2026-04-19T12:34:40.828Z</time></trkpt><trkpt lat="41.98748" lon="13.0379917"><ele>479.0</ele><time>2026-04-19T12:34:41.824Z</time></trkpt><trkpt lat="41.9873717" lon="13.0380283"><ele>479.0</ele><time>2026-04-19T12:34:43.872Z</time></trkpt><trkpt lat="41.9872767" lon="13.0380767"><ele>479.0</ele><time>2026-04-19T12:34:45.836Z</time></trkpt><trkpt lat="41.98719" lon="13.03811"><ele>479.0</ele><time>2026-04-19T12:34:47.827Z</time></trkpt><trkpt lat="41.9870983" lon="13.0380883"><ele>479.0</ele><time>2026-04-19T12:34:49.868Z</time></trkpt><trkpt lat="41.9870017" lon="13.0379633"><ele>479.0</ele><time>2026-04-19T12:34:51.84Z</time></trkpt><trkpt lat="41.9869333" lon="13.0377567"><ele>479.0</ele><time>2026-04-19T12:34:53.83Z</time></trkpt><trkpt lat="41.9869067" lon="13.0376333"><ele>479.0</ele><time>2026-04-19T12:34:54.831Z</time></trkpt><trkpt lat="41.986885" lon="13.037495"><ele>479.0</ele><time>2026-04-19T12:34:55.892Z</time></trkpt><trkpt lat="41.986865" lon="13.0373433"><ele>476.79999999999995</ele><time>2026-04-19T12:34:56.823Z</time></trkpt><trkpt lat="41.98685" lon="13.037185"><ele>474.59999999999997</ele><time>2026-04-19T12:34:57.835Z</time></trkpt><trkpt lat="41.9868383" lon="13.0370267"><ele>472.4</ele><time>2026-04-19T12:34:58.829Z</time></trkpt><trkpt lat="41.9868283" lon="13.03688"><ele>470.2</ele><time>2026-04-19T12:34:59.831Z</time></trkpt><trkpt lat="41.9868233" lon="13.036745"><ele>468.0</ele><time>2026-04-19T12:35:00.832Z</time></trkpt><trkpt lat="41.9868017" lon="13.0366217"><ele>463.79999999999995</ele><time>2026-04-19T12:35:01.888Z</time></trkpt><trkpt lat="41.9867667" lon="13.0364917"><ele>459.59999999999997</ele><time>2026-04-19T12:35:02.837Z</time></trkpt><trkpt lat="41.9867267" lon="13.0363617"><ele>455.40000000000003</ele><time>2026-04-19T12:35:03.825Z</time></trkpt><trkpt lat="41.9866983" lon="13.0362367"><ele>451.20000000000005</ele><time>2026-04-19T12:35:04.832Z</time></trkpt><trkpt lat="41.9866733" lon="13.0361233"><ele>447.0</ele><time>2026-04-19T12:35:05.828Z</time></trkpt><trkpt lat="41.98666" lon="13.0360283"><ele>447.0</ele><time>2026-04-19T12:35:06.833Z</time></trkpt><trkpt lat="41.9866483" lon="13.0359"><ele>447.00000000000006</ele><time>2026-04-19T12:35:08.834Z</time></trkpt><trkpt lat="41.9865517" lon="13.0359033"><ele>447.00000000000006</ele><time>2026-04-19T12:35:11.83Z</time></trkpt><trkpt lat="41.9864883" lon="13.03596"><ele>447.0</ele><time>2026-04-19T12:35:12.835Z</time></trkpt><trkpt lat="41.9863483" lon="13.0360083"><ele>447.0</ele><time>2026-04-19T12:35:14.827Z</time></trkpt><trkpt lat="41.98627" lon="13.035975"><ele>447.0</ele><time>2026-04-19T12:35:15.835Z</time></trkpt><trkpt lat="41.9861817" lon="13.0359183"><ele>447.0</ele><time>2026-04-19T12:35:16.832Z</time></trkpt><trkpt lat="41.9860783" lon="13.0358533"><ele>447.0</ele><time>2026-04-19T12:35:17.829Z</time></trkpt><trkpt lat="41.9859633" lon="13.035795"><ele>447.0</ele><time>2026-04-19T12:35:18.836Z</time></trkpt><trkpt lat="41.9858417" lon="13.0357533"><ele>440.5</ele><time>2026-04-19T12:35:19.871Z</time></trkpt><trkpt lat="41.98572" lon="13.0357183"><ele>434.0</ele><time>2026-04-19T12:35:20.831Z</time></trkpt><trkpt lat="41.9856" lon="13.03568"><ele>427.5</ele><time>2026-04-19T12:35:21.836Z</time></trkpt><trkpt lat="41.985485" lon="13.0356583"><ele>421.0</ele><time>2026-04-19T12:35:22.835Z</time></trkpt><trkpt lat="41.98537" lon="13.03565"><ele>421.0</ele><time>2026-04-19T12:35:23.834Z</time></trkpt><trkpt lat="41.98526" lon="13.035645"><ele>421.0</ele><time>2026-04-19T12:35:24.837Z</time></trkpt><trkpt lat="41.9851517" lon="13.0356283"><ele>421.0</ele><time>2026-04-19T12:35:25.89Z</time></trkpt><trkpt lat="41.985045" lon="13.0356"><ele>421.0</ele><time>2026-04-19T12:35:26.832Z</time></trkpt><trkpt lat="41.9849467" lon="13.0355483"><ele>421.0</ele><time>2026-04-19T12:35:27.832Z</time></trkpt><trkpt lat="41.98486" lon="13.035485"><ele>421.20000000000005</ele><time>2026-04-19T12:35:28.828Z</time></trkpt><trkpt lat="41.9847867" lon="13.0353967"><ele>421.40000000000003</ele><time>2026-04-19T12:35:29.834Z</time></trkpt><trkpt lat="41.9847217" lon="13.0352967"><ele>421.6</ele><time>2026-04-19T12:35:30.831Z</time></trkpt><trkpt lat="41.984675" lon="13.0351817"><ele>421.8</ele><time>2026-04-19T12:35:31.884Z</time></trkpt><trkpt lat="41.9846517" lon="13.0350533"><ele>422.0</ele><time>2026-04-19T12:35:32.828Z</time></trkpt><trkpt lat="41.98464" lon="13.0349267"><ele>418.40000000000003</ele><time>2026-04-19T12:35:33.829Z</time></trkpt><trkpt lat="41.9845917" lon="13.0347017"><ele>414.8</ele><time>2026-04-19T12:35:35.829Z</time></trkpt><trkpt lat="41.9845533" lon="13.0346183"><ele>411.2</ele><time>2026-04-19T12:35:36.829Z</time></trkpt><trkpt lat="41.984495" lon="13.0345767"><ele>407.6</ele><time>2026-04-19T12:35:37.876Z</time></trkpt><trkpt lat="41.9844217" lon="13.0345683"><ele>404.0</ele><time>2026-04-19T12:35:38.834Z</time></trkpt><trkpt lat="41.9843233" lon="13.0345717"><ele>404.0</ele><time>2026-04-19T12:35:39.828Z</time></trkpt><trkpt lat="41.9842283" lon="13.0345517"><ele>404.0</ele><time>2026-04-19T12:35:40.834Z</time></trkpt><trkpt lat="41.98414" lon="13.0345017"><ele>404.0</ele><time>2026-04-19T12:35:41.835Z</time></trkpt><trkpt lat="41.984055" lon="13.0344433"><ele>404.0</ele><time>2026-04-19T12:35:42.831Z</time></trkpt><trkpt lat="41.9839633" lon="13.0343717"><ele>404.0</ele><time>2026-04-19T12:35:43.879Z</time></trkpt><trkpt lat="41.9838783" lon="13.034295"><ele>403.2</ele><time>2026-04-19T12:35:44.832Z</time></trkpt><trkpt lat="41.9837917" lon="13.0342067"><ele>402.4</ele><time>2026-04-19T12:35:45.832Z</time></trkpt><trkpt lat="41.983705" lon="13.0341133"><ele>401.6</ele><time>2026-04-19T12:35:46.832Z</time></trkpt><trkpt lat="41.98361" lon="13.0340283"><ele>400.8</ele><time>2026-04-19T12:35:47.831Z</time></trkpt><trkpt lat="41.9835083" lon="13.0339617"><ele>400.0</ele><time>2026-04-19T12:35:48.835Z</time></trkpt><trkpt lat="41.9834033" lon="13.0339083"><ele>401.0</ele><time>2026-04-19T12:35:49.874Z</time></trkpt><trkpt lat="41.9832917" lon="13.03387"><ele>402.0</ele><time>2026-04-19T12:35:50.832Z</time></trkpt><trkpt lat="41.98318" lon="13.0338283"><ele>403.0</ele><time>2026-04-19T12:35:51.841Z</time></trkpt><trkpt lat="41.983075" lon="13.033775"><ele>404.0</ele><time>2026-04-19T12:35:52.836Z</time></trkpt><trkpt lat="41.9829767" lon="13.0337033"><ele>404.0</ele><time>2026-04-19T12:35:53.833Z</time></trkpt><trkpt lat="41.9828833" lon="13.033625"><ele>404.0</ele><time>2026-04-19T12:35:54.835Z</time></trkpt><trkpt lat="41.9827683" lon="13.0334283"><ele>404.0</ele><time>2026-04-19T12:35:56.833Z</time></trkpt><trkpt lat="41.9827367" lon="13.0333267"><ele>404.0</ele><time>2026-04-19T12:35:57.828Z</time></trkpt><trkpt lat="41.9827017" lon="13.033245"><ele>404.0</ele><time>2026-04-19T12:35:58.828Z</time></trkpt><trkpt lat="41.9826483" lon="13.0331217"><ele>401.4</ele><time>2026-04-19T12:36:00.833Z</time></trkpt><trkpt lat="41.98264" lon="13.03298"><ele>398.79999999999995</ele><time>2026-04-19T12:36:02.826Z</time></trkpt><trkpt lat="41.9826567" lon="13.0328667"><ele>396.20000000000005</ele><time>2026-04-19T12:36:03.835Z</time></trkpt><trkpt lat="41.9826717" lon="13.0327317"><ele>393.6</ele><time>2026-04-19T12:36:04.827Z</time></trkpt><trkpt lat="41.9826617" lon="13.0325967"><ele>391.0</ele><time>2026-04-19T12:36:05.828Z</time></trkpt><trkpt lat="41.98263" lon="13.0324667"><ele>389.4</ele><time>2026-04-19T12:36:06.831Z</time></trkpt><trkpt lat="41.9825817" lon="13.032345"><ele>387.8</ele><time>2026-04-19T12:36:07.869Z</time></trkpt><trkpt lat="41.9825283" lon="13.0322233"><ele>386.2</ele><time>2026-04-19T12:36:08.833Z</time></trkpt><trkpt lat="41.9824633" lon="13.0321133"><ele>384.59999999999997</ele><time>2026-04-19T12:36:09.842Z</time></trkpt><trkpt lat="41.9823933" lon="13.03202"><ele>383.0</ele><time>2026-04-19T12:36:10.834Z</time></trkpt><trkpt lat="41.9823217" lon="13.0319367"><ele>383.0</ele><time>2026-04-19T12:36:11.832Z</time></trkpt><trkpt lat="41.9822433" lon="13.031865"><ele>383.0</ele><time>2026-04-19T12:36:12.831Z</time></trkpt><trkpt lat="41.98215" lon="13.0318017"><ele>383.0</ele><time>2026-04-19T12:36:13.874Z</time></trkpt><trkpt lat="41.98205" lon="13.0317383"><ele>383.0</ele><time>2026-04-19T12:36:14.826Z</time></trkpt><trkpt lat="41.9819467" lon="13.0316733"><ele>383.0</ele><time>2026-04-19T12:36:15.836Z</time></trkpt><trkpt lat="41.9817367" lon="13.0315517"><ele>379.4</ele><time>2026-04-19T12:36:17.837Z</time></trkpt><trkpt lat="41.98163" lon="13.0315017"><ele>375.79999999999995</ele><time>2026-04-19T12:36:18.834Z</time></trkpt><trkpt lat="41.98152" lon="13.0314667"><ele>372.2</ele><time>2026-04-19T12:36:19.876Z</time></trkpt><trkpt lat="41.9814133" lon="13.0314483"><ele>368.6</ele><time>2026-04-19T12:36:20.831Z</time></trkpt><trkpt lat="41.981315" lon="13.0314383"><ele>365.0</ele><time>2026-04-19T12:36:21.826Z</time></trkpt><trkpt lat="41.9812217" lon="13.031445"><ele>365.0</ele><time>2026-04-19T12:36:22.831Z</time></trkpt><trkpt lat="41.981125" lon="13.0314717"><ele>365.0</ele><time>2026-04-19T12:36:23.843Z</time></trkpt><trkpt lat="41.98104" lon="13.0315367"><ele>365.0</ele><time>2026-04-19T12:36:24.841Z</time></trkpt><trkpt lat="41.980965" lon="13.0316383"><ele>365.0</ele><time>2026-04-19T12:36:25.905Z</time></trkpt><trkpt lat="41.9809117" lon="13.0317867"><ele>365.0</ele><time>2026-04-19T12:36:26.834Z</time></trkpt><trkpt lat="41.9808667" lon="13.0319267"><ele>365.5</ele><time>2026-04-19T12:36:27.83Z</time></trkpt><trkpt lat="41.980825" lon="13.0320433"><ele>366.0</ele><time>2026-04-19T12:36:28.835Z</time></trkpt><trkpt lat="41.9808067" lon="13.0321567"><ele>366.5</ele><time>2026-04-19T12:36:29.832Z</time></trkpt><trkpt lat="41.9808083" lon="13.032255"><ele>367.0</ele><time>2026-04-19T12:36:30.836Z</time></trkpt><trkpt lat="41.9808417" lon="13.0323583"><ele>367.5</ele><time>2026-04-19T12:36:31.889Z</time></trkpt><trkpt lat="41.9808783" lon="13.0324733"><ele>368.0</ele><time>2026-04-19T12:36:32.829Z</time></trkpt><trkpt lat="41.9809" lon="13.0325967"><ele>374.59999999999997</ele><time>2026-04-19T12:36:33.836Z</time></trkpt><trkpt lat="41.9809333" lon="13.032715"><ele>381.2</ele><time>2026-04-19T12:36:34.83Z</time></trkpt><trkpt lat="41.9809617" lon="13.0328317"><ele>387.8</ele><time>2026-04-19T12:36:35.836Z</time></trkpt><trkpt lat="41.9809767" lon="13.0329383"><ele>394.4</ele><time>2026-04-19T12:36:36.833Z</time></trkpt><trkpt lat="41.9809717" lon="13.0331583"><ele>401.0</ele><time>2026-04-19T12:36:38.828Z</time></trkpt><trkpt lat="41.98095" lon="13.033275"><ele>399.66666666666663</ele><time>2026-04-19T12:36:39.837Z</time></trkpt><trkpt lat="41.9809417" lon="13.0334"><ele>398.3333333333333</ele><time>2026-04-19T12:36:40.84Z</time></trkpt><trkpt lat="41.980945" lon="13.03352"><ele>397.0</ele><time>2026-04-19T12:36:41.832Z</time></trkpt><trkpt lat="41.9809717" lon="13.0336333"><ele>395.66666666666663</ele><time>2026-04-19T12:36:42.836Z</time></trkpt><trkpt lat="41.9810083" lon="13.03374"><ele>394.3333333333333</ele><time>2026-04-19T12:36:43.869Z</time></trkpt><trkpt lat="41.981055" lon="13.033825"><ele>393.0</ele><time>2026-04-19T12:36:44.831Z</time></trkpt><trkpt lat="41.9810867" lon="13.03391"><ele>393.0</ele><time>2026-04-19T12:36:45.832Z</time></trkpt><trkpt lat="41.9811067" lon="13.0340317"><ele>393.0</ele><time>2026-04-19T12:36:47.832Z</time></trkpt><trkpt lat="41.9809967" lon="13.0340733"><ele>393.0</ele><time>2026-04-19T12:36:49.869Z</time></trkpt><trkpt lat="41.9808767" lon="13.0340717"><ele>393.0</ele><time>2026-04-19T12:36:50.833Z</time></trkpt><trkpt lat="41.9807267" lon="13.0340717"><ele>388.5</ele><time>2026-04-19T12:36:51.839Z</time></trkpt><trkpt lat="41.9805867" lon="13.0340683"><ele>384.0</ele><time>2026-04-19T12:36:52.832Z</time></trkpt><trkpt lat="41.980465" lon="13.034055"><ele>379.5</ele><time>2026-04-19T12:36:53.831Z</time></trkpt><trkpt lat="41.9803467" lon="13.03402"><ele>375.0</ele><time>2026-04-19T12:36:54.83Z</time></trkpt><trkpt lat="41.98026" lon="13.0339133"><ele>375.0</ele><time>2026-04-19T12:36:55.892Z</time></trkpt><trkpt lat="41.9801967" lon="13.0337733"><ele>375.0</ele><time>2026-04-19T12:36:56.833Z</time></trkpt><trkpt lat="41.9801417" lon="13.033645"><ele>375.0</ele><time>2026-04-19T12:36:57.84Z</time></trkpt><trkpt lat="41.9800117" lon="13.0334933"><ele>375.0</ele><time>2026-04-19T12:36:59.831Z</time></trkpt><trkpt lat="41.9799467" lon="13.0334817"><ele>371.4</ele><time>2026-04-19T12:37:00.836Z</time></trkpt><trkpt lat="41.9798967" lon="13.0335333"><ele>367.8</ele><time>2026-04-19T12:37:01.887Z</time></trkpt><trkpt lat="41.97986" lon="13.0336333"><ele>364.20000000000005</ele><time>2026-04-19T12:37:02.829Z</time></trkpt><trkpt lat="41.9798483" lon="13.0337783"><ele>360.6</ele><time>2026-04-19T12:37:03.832Z</time></trkpt><trkpt lat="41.9799183" lon="13.033975"><ele>357.0</ele><time>2026-04-19T12:37:04.831Z</time></trkpt><trkpt lat="41.9799833" lon="13.0341267"><ele>358.8</ele><time>2026-04-19T12:37:05.832Z</time></trkpt><trkpt lat="41.98005" lon="13.0342367"><ele>360.6</ele><time>2026-04-19T12:37:06.837Z</time></trkpt><trkpt lat="41.9801333" lon="13.03432"><ele>362.40000000000003</ele><time>2026-04-19T12:37:07.87Z</time></trkpt><trkpt lat="41.980235" lon="13.0343767"><ele>364.20000000000005</ele><time>2026-04-19T12:37:08.831Z</time></trkpt><trkpt lat="41.9803567" lon="13.0344083"><ele>366.0</ele><time>2026-04-19T12:37:09.831Z</time></trkpt><trkpt lat="41.98047" lon="13.0344383"><ele>366.0</ele><time>2026-04-19T12:37:10.834Z</time></trkpt><trkpt lat="41.9805783" lon="13.03447"><ele>366.0</ele><time>2026-04-19T12:37:11.836Z</time></trkpt><trkpt lat="41.9806617" lon="13.0345033"><ele>366.0</ele><time>2026-04-19T12:37:12.831Z</time></trkpt><trkpt lat="41.9807267" lon="13.0345417"><ele>366.0</ele><time>2026-04-19T12:37:13.877Z</time></trkpt><trkpt lat="41.98074" lon="13.0346417"><ele>366.0</ele><time>2026-04-19T12:37:15.836Z</time></trkpt><trkpt lat="41.9806067" lon="13.03468"><ele>366.0</ele><time>2026-04-19T12:37:17.835Z</time></trkpt><trkpt lat="41.9804583" lon="13.0346533"><ele>366.0</ele><time>2026-04-19T12:37:18.834Z</time></trkpt><trkpt lat="41.980175" lon="13.034635"><ele>366.0</ele><time>2026-04-19T12:37:20.83Z</time></trkpt><trkpt lat="41.9800483" lon="13.0346183"><ele>363.0</ele><time>2026-04-19T12:37:21.831Z</time></trkpt><trkpt lat="41.979925" lon="13.03458"><ele>360.0</ele><time>2026-04-19T12:37:22.83Z</time></trkpt><trkpt lat="41.979805" lon="13.034535"><ele>357.0</ele><time>2026-04-19T12:37:23.83Z</time></trkpt><trkpt lat="41.9796883" lon="13.0344867"><ele>354.0</ele><time>2026-04-19T12:37:24.829Z</time></trkpt><trkpt lat="41.9795783" lon="13.0344333"><ele>354.0</ele><time>2026-04-19T12:37:25.888Z</time></trkpt><trkpt lat="41.979465" lon="13.034385"><ele>354.0</ele><time>2026-04-19T12:37:26.832Z</time></trkpt><trkpt lat="41.9793583" lon="13.0343333"><ele>354.0</ele><time>2026-04-19T12:37:27.828Z</time></trkpt><trkpt lat="41.9792567" lon="13.034285"><ele>354.0</ele><time>2026-04-19T12:37:28.833Z</time></trkpt><trkpt lat="41.9791667" lon="13.03424"><ele>354.0</ele><time>2026-04-19T12:37:29.833Z</time></trkpt><trkpt lat="41.979085" lon="13.0341917"><ele>352.1666666666667</ele><time>2026-04-19T12:37:30.836Z</time></trkpt><trkpt lat="41.979005" lon="13.0341417"><ele>350.3333333333333</ele><time>2026-04-19T12:37:31.887Z</time></trkpt><trkpt lat="41.97893" lon="13.03408"><ele>348.5</ele><time>2026-04-19T12:37:32.835Z</time></trkpt><trkpt lat="41.9788683" lon="13.0340033"><ele>346.66666666666663</ele><time>2026-04-19T12:37:33.831Z</time></trkpt><trkpt lat="41.9788267" lon="13.03391"><ele>344.8333333333333</ele><time>2026-04-19T12:37:34.833Z</time></trkpt><trkpt lat="41.97881" lon="13.03381"><ele>343.0</ele><time>2026-04-19T12:37:35.837Z</time></trkpt><trkpt lat="41.9788183" lon="13.0337133"><ele>342.5</ele><time>2026-04-19T12:37:36.834Z</time></trkpt><trkpt lat="41.9788433" lon="13.033615"><ele>342.0</ele><time>2026-04-19T12:37:37.877Z</time></trkpt><trkpt lat="41.9788933" lon="13.0335133"><ele>341.5</ele><time>2026-04-19T12:37:38.825Z</time></trkpt><trkpt lat="41.97896" lon="13.0334067"><ele>341.0</ele><time>2026-04-19T12:37:39.835Z</time></trkpt><trkpt lat="41.97914" lon="13.03316"><ele>341.25</ele><time>2026-04-19T12:37:41.834Z</time></trkpt><trkpt lat="41.979235" lon="13.03303"><ele>341.5</ele><time>2026-04-19T12:37:42.832Z</time></trkpt><trkpt lat="41.9793333" lon="13.0329017"><ele>341.75</ele><time>2026-04-19T12:37:43.875Z</time></trkpt><trkpt lat="41.97943" lon="13.0327767"><ele>342.0</ele><time>2026-04-19T12:37:44.834Z</time></trkpt><trkpt lat="41.9795183" lon="13.0326567"><ele>342.0</ele><time>2026-04-19T12:37:45.835Z</time></trkpt><trkpt lat="41.9796017" lon="13.0325433"><ele>342.0</ele><time>2026-04-19T12:37:46.835Z</time></trkpt><trkpt lat="41.9796767" lon="13.0324383"><ele>342.0</ele><time>2026-04-19T12:37:47.836Z</time></trkpt><trkpt lat="41.979745" lon="13.0323383"><ele>342.0</ele><time>2026-04-19T12:37:48.832Z</time></trkpt><trkpt lat="41.9798067" lon="13.032245"><ele>342.0</ele><time>2026-04-19T12:37:49.881Z</time></trkpt><trkpt lat="41.9798533" lon="13.0321567"><ele>336.0</ele><time>2026-04-19T12:37:50.837Z</time></trkpt><trkpt lat="41.9798633" lon="13.032015"><ele>336.0</ele><time>2026-04-19T12:37:52.834Z</time></trkpt><trkpt lat="41.979815" lon="13.0318967"><ele>336.0</ele><time>2026-04-19T12:37:54.83Z</time></trkpt><trkpt lat="41.9797467" lon="13.0317983"><ele>336.0</ele><time>2026-04-19T12:37:56.832Z</time></trkpt><trkpt lat="41.97975" lon="13.03168"><ele>336.0</ele><time>2026-04-19T12:40:31.885Z</time></trkpt></trkseg><trkseg><trkpt lat="41.985365" lon="13.0299833"><ele>333.0</ele><time>2026-04-19T14:11:44.824Z</time></trkpt><trkpt lat="41.9855033" lon="13.03002"><ele>333.0</ele><time>2026-04-19T14:11:45.828Z</time></trkpt><trkpt lat="41.9856983" lon="13.0300367"><ele>333.0</ele><time>2026-04-19T14:11:46.83Z</time></trkpt><trkpt lat="41.9858567" lon="13.0300433"><ele>332.0</ele><time>2026-04-19T14:11:47.828Z</time></trkpt><trkpt lat="41.9860217" lon="13.0300633"><ele>331.0</ele><time>2026-04-19T14:11:48.831Z</time></trkpt><trkpt lat="41.9861833" lon="13.030075"><ele>330.0</ele><time>2026-04-19T14:11:49.836Z</time></trkpt><trkpt lat="41.9863467" lon="13.030075"><ele>330.0</ele><time>2026-04-19T14:11:50.832Z</time></trkpt><trkpt lat="41.9865133" lon="13.0300633"><ele>330.0</ele><time>2026-04-19T14:11:51.832Z</time></trkpt><trkpt lat="41.9866783" lon="13.03006"><ele>330.0</ele><time>2026-04-19T14:11:52.83Z</time></trkpt><trkpt lat="41.98685" lon="13.0300483"><ele>329.6666666666667</ele><time>2026-04-19T14:11:53.831Z</time></trkpt><trkpt lat="41.9870117" lon="13.030045"><ele>329.33333333333337</ele><time>2026-04-19T14:11:54.832Z</time></trkpt><trkpt lat="41.9871767" lon="13.0300383"><ele>329.0</ele><time>2026-04-19T14:11:55.84Z</time></trkpt><trkpt lat="41.9873417" lon="13.03003"><ele>329.0</ele><time>2026-04-19T14:11:56.837Z</time></trkpt><trkpt lat="41.9874983" lon="13.0300117"><ele>329.0</ele><time>2026-04-19T14:11:57.832Z</time></trkpt><trkpt lat="41.98766" lon="13.0299867"><ele>329.0</ele><time>2026-04-19T14:11:58.833Z</time></trkpt><trkpt lat="41.9878233" lon="13.029945"><ele>329.0</ele><time>2026-04-19T14:11:59.832Z</time></trkpt><trkpt lat="41.9879867" lon="13.0299"><ele>329.0</ele><time>2026-04-19T14:12:00.834Z</time></trkpt><trkpt lat="41.988155" lon="13.0298533"><ele>329.0</ele><time>2026-04-19T14:12:01.843Z</time></trkpt><trkpt lat="41.988315" lon="13.0297983"><ele>330.33333333333337</ele><time>2026-04-19T14:12:02.829Z</time></trkpt><trkpt lat="41.9884717" lon="13.0297367"><ele>331.6666666666667</ele><time>2026-04-19T14:12:03.828Z</time></trkpt><trkpt lat="41.9886267" lon="13.029665"><ele>333.0</ele><time>2026-04-19T14:12:04.829Z</time></trkpt><trkpt lat="41.988775" lon="13.0295883"><ele>333.0</ele><time>2026-04-19T14:12:05.83Z</time></trkpt><trkpt lat="41.9889267" lon="13.029505"><ele>333.0</ele><time>2026-04-19T14:12:06.828Z</time></trkpt><trkpt lat="41.9890817" lon="13.0294167"><ele>333.0</ele><time>2026-04-19T14:12:07.835Z</time></trkpt><trkpt lat="41.9892283" lon="13.0293167"><ele>333.0</ele><time>2026-04-19T14:12:08.834Z</time></trkpt><trkpt lat="41.98937" lon="13.0292083"><ele>333.0</ele><time>2026-04-19T14:12:09.83Z</time></trkpt><trkpt lat="41.9895133" lon="13.0290917"><ele>333.0</ele><time>2026-04-19T14:12:10.834Z</time></trkpt><trkpt lat="41.989655" lon="13.0289717"><ele>333.0</ele><time>2026-04-19T14:12:11.829Z</time></trkpt><trkpt lat="41.989795" lon="13.0288433"><ele>333.0</ele><time>2026-04-19T14:12:12.84Z</time></trkpt><trkpt lat="41.989935" lon="13.0287133"><ele>333.0</ele><time>2026-04-19T14:12:13.829Z</time></trkpt><trkpt lat="41.9900733" lon="13.0285767"><ele>334.0</ele><time>2026-04-19T14:12:14.829Z</time></trkpt><trkpt lat="41.9902133" lon="13.0284333"><ele>335.0</ele><time>2026-04-19T14:12:15.835Z</time></trkpt><trkpt lat="41.9903467" lon="13.0282833"><ele>336.0</ele><time>2026-04-19T14:12:16.83Z</time></trkpt><trkpt lat="41.99047" lon="13.02813"><ele>336.0</ele><time>2026-04-19T14:12:17.83Z</time></trkpt><trkpt lat="41.9905883" lon="13.02797"><ele>336.0</ele><time>2026-04-19T14:12:18.831Z</time></trkpt><trkpt lat="41.9907033" lon="13.0278067"><ele>336.0</ele><time>2026-04-19T14:12:19.826Z</time></trkpt><trkpt lat="41.9908183" lon="13.0276417"><ele>336.0</ele><time>2026-04-19T14:12:20.835Z</time></trkpt><trkpt lat="41.9909333" lon="13.0274767"><ele>336.0</ele><time>2026-04-19T14:12:21.832Z</time></trkpt><trkpt lat="41.99105" lon="13.0273083"><ele>336.0</ele><time>2026-04-19T14:12:22.84Z</time></trkpt><trkpt lat="41.99117" lon="13.0271517"><ele>336.0</ele><time>2026-04-19T14:12:23.829Z</time></trkpt><trkpt lat="41.9912833" lon="13.0269883"><ele>336.0</ele><time>2026-04-19T14:12:24.829Z</time></trkpt><trkpt lat="41.9913967" lon="13.0268317"><ele>336.0</ele><time>2026-04-19T14:12:25.826Z</time></trkpt><trkpt lat="41.9915067" lon="13.02666"><ele>336.0</ele><time>2026-04-19T14:12:26.826Z</time></trkpt><trkpt lat="41.99161" lon="13.026485"><ele>332.0</ele><time>2026-04-19T14:12:27.827Z</time></trkpt><trkpt lat="41.9916967" lon="13.026295"><ele>336.0</ele><time>2026-04-19T14:12:28.833Z</time></trkpt></trkseg></trk></gpx>